<?xml version="1.0" encoding="UTF-8" standalone="no" ?>
<gpx xmlns="http://www.topografix.com/GPX/1/1" creator="MapSource 6.11.5" version="1.1" xmlns:xsi="http://www.w3.org/2001/XMLSchema-instance" xsi:schemaLocation="http://www.topografix.com/GPX/1/1 http://www.topografix.com/GPX/1/1/gpx.xsd">

  <metadata>
    <link href="http://www.garmin.com">
      <text>Garmin International</text>
    </link>
    <time>2010-07-04T18:25:11Z</time>
    <bounds maxlat="38.241875" maxlon="30.888950" minlat="38.168931" minlon="30.854352"/>
  </metadata>

  <trk>
    <name>Track 001</name>
    <extensions>
      <gpxx:TrackExtension xmlns:gpxx="http://www.garmin.com/xmlschemas/GpxExtensions/v3" xmlns:xsi="http://www.w3.org/2001/XMLSchema-instance" xsi:schemaLocation="http://www.garmin.com/xmlschemas/GpxExtensions/v3 http://www.garmin.com/xmlschemas/GpxExtensions/v3/GpxExtensionsv3.xsd">
        <gpxx:DisplayColor>White</gpxx:DisplayColor>
      </gpxx:TrackExtension>
    </extensions>
    <trkseg>
      <trkpt lat="38.241875" lon="30.888928">
        <ele>1239.000000</ele>
        <time>2010-05-04T07:41:11Z</time>
      </trkpt>
      <trkpt lat="38.241862" lon="30.888928">
        <ele>1238.000000</ele>
        <time>2010-05-04T07:41:12Z</time>
      </trkpt>
      <trkpt lat="38.241830" lon="30.888909">
        <ele>1238.000000</ele>
        <time>2010-05-04T07:41:19Z</time>
      </trkpt>
      <trkpt lat="38.241782" lon="30.888950">
        <ele>1240.000000</ele>
        <time>2010-05-04T07:41:23Z</time>
      </trkpt>
      <trkpt lat="38.241782" lon="30.888893">
        <ele>1240.000000</ele>
        <time>2010-05-04T07:41:31Z</time>
      </trkpt>
      <trkpt lat="38.241776" lon="30.888928">
        <ele>1239.000000</ele>
        <time>2010-05-04T07:41:33Z</time>
      </trkpt>
      <trkpt lat="38.241779" lon="30.888858">
        <ele>1239.000000</ele>
        <time>2010-05-04T07:41:40Z</time>
      </trkpt>
      <trkpt lat="38.241779" lon="30.888854">
        <ele>1239.000000</ele>
        <time>2010-05-04T07:41:41Z</time>
      </trkpt>
      <trkpt lat="38.241779" lon="30.888864">
        <ele>1237.000000</ele>
        <time>2010-05-04T07:41:42Z</time>
      </trkpt>
      <trkpt lat="38.241795" lon="30.888845">
        <ele>1237.000000</ele>
        <time>2010-05-04T07:41:44Z</time>
      </trkpt>
      <trkpt lat="38.241792" lon="30.888835">
        <ele>1239.000000</ele>
        <time>2010-05-04T07:41:45Z</time>
      </trkpt>
      <trkpt lat="38.241750" lon="30.888822">
        <ele>1239.000000</ele>
        <time>2010-05-04T07:41:50Z</time>
      </trkpt>
      <trkpt lat="38.241734" lon="30.888822">
        <ele>1238.000000</ele>
        <time>2010-05-04T07:41:53Z</time>
      </trkpt>
      <trkpt lat="38.241731" lon="30.888835">
        <ele>1238.000000</ele>
        <time>2010-05-04T07:41:56Z</time>
      </trkpt>
      <trkpt lat="38.241757" lon="30.888758">
        <ele>1239.000000</ele>
        <time>2010-05-04T07:41:58Z</time>
      </trkpt>
      <trkpt lat="38.241635" lon="30.888701">
        <ele>1241.000000</ele>
        <time>2010-05-04T07:42:04Z</time>
      </trkpt>
      <trkpt lat="38.241635" lon="30.888675">
        <ele>1241.000000</ele>
        <time>2010-05-04T07:42:06Z</time>
      </trkpt>
      <trkpt lat="38.241632" lon="30.888666">
        <ele>1240.000000</ele>
        <time>2010-05-04T07:42:07Z</time>
      </trkpt>
      <trkpt lat="38.241626" lon="30.888653">
        <ele>1240.000000</ele>
        <time>2010-05-04T07:42:08Z</time>
      </trkpt>
      <trkpt lat="38.241581" lon="30.888688">
        <ele>1241.000000</ele>
        <time>2010-05-04T07:42:10Z</time>
      </trkpt>
      <trkpt lat="38.241578" lon="30.888678">
        <ele>1239.000000</ele>
        <time>2010-05-04T07:42:11Z</time>
      </trkpt>
      <trkpt lat="38.241546" lon="30.888707">
        <ele>1239.000000</ele>
        <time>2010-05-04T07:42:13Z</time>
      </trkpt>
      <trkpt lat="38.241536" lon="30.888710">
        <ele>1240.000000</ele>
        <time>2010-05-04T07:42:14Z</time>
      </trkpt>
      <trkpt lat="38.241443" lon="30.888742">
        <ele>1240.000000</ele>
        <time>2010-05-04T07:42:17Z</time>
      </trkpt>
      <trkpt lat="38.241437" lon="30.888742">
        <ele>1240.000000</ele>
        <time>2010-05-04T07:42:18Z</time>
      </trkpt>
      <trkpt lat="38.241440" lon="30.888730">
        <ele>1239.000000</ele>
        <time>2010-05-04T07:42:19Z</time>
      </trkpt>
      <trkpt lat="38.241443" lon="30.888630">
        <ele>1239.000000</ele>
        <time>2010-05-04T07:42:23Z</time>
      </trkpt>
      <trkpt lat="38.241434" lon="30.888618">
        <ele>1239.000000</ele>
        <time>2010-05-04T07:42:24Z</time>
      </trkpt>
      <trkpt lat="38.241414" lon="30.888618">
        <ele>1239.000000</ele>
        <time>2010-05-04T07:42:25Z</time>
      </trkpt>
      <trkpt lat="38.241357" lon="30.888598">
        <ele>1239.000000</ele>
        <time>2010-05-04T07:42:29Z</time>
      </trkpt>
      <trkpt lat="38.241341" lon="30.888576">
        <ele>1239.000000</ele>
        <time>2010-05-04T07:42:30Z</time>
      </trkpt>
      <trkpt lat="38.241325" lon="30.888570">
        <ele>1241.000000</ele>
        <time>2010-05-04T07:42:31Z</time>
      </trkpt>
      <trkpt lat="38.241315" lon="30.888557">
        <ele>1241.000000</ele>
        <time>2010-05-04T07:42:32Z</time>
      </trkpt>
      <trkpt lat="38.241296" lon="30.888550">
        <ele>1240.000000</ele>
        <time>2010-05-04T07:42:33Z</time>
      </trkpt>
      <trkpt lat="38.241264" lon="30.888493">
        <ele>1239.000000</ele>
        <time>2010-05-04T07:42:37Z</time>
      </trkpt>
      <trkpt lat="38.241248" lon="30.888480">
        <ele>1239.000000</ele>
        <time>2010-05-04T07:42:40Z</time>
      </trkpt>
      <trkpt lat="38.241245" lon="30.888486">
        <ele>1239.000000</ele>
        <time>2010-05-04T07:42:42Z</time>
      </trkpt>
      <trkpt lat="38.241235" lon="30.888499">
        <ele>1240.000000</ele>
        <time>2010-05-04T07:42:43Z</time>
      </trkpt>
      <trkpt lat="38.241219" lon="30.888502">
        <ele>1240.000000</ele>
        <time>2010-05-04T07:42:44Z</time>
      </trkpt>
      <trkpt lat="38.241203" lon="30.888486">
        <ele>1240.000000</ele>
        <time>2010-05-04T07:42:48Z</time>
      </trkpt>
      <trkpt lat="38.241197" lon="30.888480">
        <ele>1240.000000</ele>
        <time>2010-05-04T07:42:50Z</time>
      </trkpt>
      <trkpt lat="38.241197" lon="30.888467">
        <ele>1239.000000</ele>
        <time>2010-05-04T07:42:51Z</time>
      </trkpt>
      <trkpt lat="38.241162" lon="30.888474">
        <ele>1239.000000</ele>
        <time>2010-05-04T07:42:53Z</time>
      </trkpt>
      <trkpt lat="38.241123" lon="30.888480">
        <ele>1239.000000</ele>
        <time>2010-05-04T07:42:54Z</time>
      </trkpt>
      <trkpt lat="38.241104" lon="30.888486">
        <ele>1238.000000</ele>
        <time>2010-05-04T07:42:55Z</time>
      </trkpt>
      <trkpt lat="38.241085" lon="30.888480">
        <ele>1239.000000</ele>
        <time>2010-05-04T07:42:56Z</time>
      </trkpt>
      <trkpt lat="38.241075" lon="30.888467">
        <ele>1240.000000</ele>
        <time>2010-05-04T07:42:57Z</time>
      </trkpt>
      <trkpt lat="38.241066" lon="30.888451">
        <ele>1238.000000</ele>
        <time>2010-05-04T07:42:58Z</time>
      </trkpt>
      <trkpt lat="38.241056" lon="30.888438">
        <ele>1239.000000</ele>
        <time>2010-05-04T07:42:59Z</time>
      </trkpt>
      <trkpt lat="38.241040" lon="30.888435">
        <ele>1240.000000</ele>
        <time>2010-05-04T07:43:00Z</time>
      </trkpt>
      <trkpt lat="38.241005" lon="30.888416">
        <ele>1240.000000</ele>
        <time>2010-05-04T07:43:04Z</time>
      </trkpt>
      <trkpt lat="38.241008" lon="30.888400">
        <ele>1241.000000</ele>
        <time>2010-05-04T07:43:05Z</time>
      </trkpt>
      <trkpt lat="38.240992" lon="30.888394">
        <ele>1240.000000</ele>
        <time>2010-05-04T07:43:07Z</time>
      </trkpt>
      <trkpt lat="38.240986" lon="30.888368">
        <ele>1240.000000</ele>
        <time>2010-05-04T07:43:10Z</time>
      </trkpt>
      <trkpt lat="38.240966" lon="30.888346">
        <ele>1239.000000</ele>
        <time>2010-05-04T07:43:12Z</time>
      </trkpt>
      <trkpt lat="38.240966" lon="30.888333">
        <ele>1239.000000</ele>
        <time>2010-05-04T07:43:13Z</time>
      </trkpt>
      <trkpt lat="38.240912" lon="30.888307">
        <ele>1239.000000</ele>
        <time>2010-05-04T07:43:19Z</time>
      </trkpt>
      <trkpt lat="38.240899" lon="30.888298">
        <ele>1239.000000</ele>
        <time>2010-05-04T07:43:20Z</time>
      </trkpt>
      <trkpt lat="38.240870" lon="30.888301">
        <ele>1240.000000</ele>
        <time>2010-05-04T07:43:21Z</time>
      </trkpt>
      <trkpt lat="38.240858" lon="30.888291">
        <ele>1240.000000</ele>
        <time>2010-05-04T07:43:22Z</time>
      </trkpt>
      <trkpt lat="38.240832" lon="30.888294">
        <ele>1240.000000</ele>
        <time>2010-05-04T07:43:23Z</time>
      </trkpt>
      <trkpt lat="38.240787" lon="30.888301">
        <ele>1240.000000</ele>
        <time>2010-05-04T07:43:24Z</time>
      </trkpt>
      <trkpt lat="38.240707" lon="30.888320">
        <ele>1240.000000</ele>
        <time>2010-05-04T07:43:25Z</time>
      </trkpt>
      <trkpt lat="38.240685" lon="30.888307">
        <ele>1239.000000</ele>
        <time>2010-05-04T07:43:27Z</time>
      </trkpt>
      <trkpt lat="38.240678" lon="30.888294">
        <ele>1241.000000</ele>
        <time>2010-05-04T07:43:28Z</time>
      </trkpt>
      <trkpt lat="38.240701" lon="30.888288">
        <ele>1240.000000</ele>
        <time>2010-05-04T07:43:29Z</time>
      </trkpt>
      <trkpt lat="38.240694" lon="30.888282">
        <ele>1239.000000</ele>
        <time>2010-05-04T07:43:30Z</time>
      </trkpt>
      <trkpt lat="38.240678" lon="30.888278">
        <ele>1241.000000</ele>
        <time>2010-05-04T07:43:33Z</time>
      </trkpt>
      <trkpt lat="38.240662" lon="30.888275">
        <ele>1240.000000</ele>
        <time>2010-05-04T07:43:34Z</time>
      </trkpt>
      <trkpt lat="38.240646" lon="30.888272">
        <ele>1239.000000</ele>
        <time>2010-05-04T07:43:35Z</time>
      </trkpt>
      <trkpt lat="38.240630" lon="30.888250">
        <ele>1239.000000</ele>
        <time>2010-05-04T07:43:37Z</time>
      </trkpt>
      <trkpt lat="38.240624" lon="30.888234">
        <ele>1240.000000</ele>
        <time>2010-05-04T07:43:38Z</time>
      </trkpt>
      <trkpt lat="38.240595" lon="30.888192">
        <ele>1240.000000</ele>
        <time>2010-05-04T07:43:40Z</time>
      </trkpt>
      <trkpt lat="38.240566" lon="30.888173">
        <ele>1240.000000</ele>
        <time>2010-05-04T07:43:44Z</time>
      </trkpt>
      <trkpt lat="38.240554" lon="30.888166">
        <ele>1240.000000</ele>
        <time>2010-05-04T07:43:45Z</time>
      </trkpt>
      <trkpt lat="38.240547" lon="30.888163">
        <ele>1239.000000</ele>
        <time>2010-05-04T07:43:46Z</time>
      </trkpt>
      <trkpt lat="38.240544" lon="30.888150">
        <ele>1239.000000</ele>
        <time>2010-05-04T07:43:47Z</time>
      </trkpt>
      <trkpt lat="38.240515" lon="30.888134">
        <ele>1240.000000</ele>
        <time>2010-05-04T07:43:49Z</time>
      </trkpt>
      <trkpt lat="38.240522" lon="30.888125">
        <ele>1240.000000</ele>
        <time>2010-05-04T07:43:50Z</time>
      </trkpt>
      <trkpt lat="38.240506" lon="30.888131">
        <ele>1240.000000</ele>
        <time>2010-05-04T07:43:51Z</time>
      </trkpt>
      <trkpt lat="38.240490" lon="30.888125">
        <ele>1240.000000</ele>
        <time>2010-05-04T07:43:52Z</time>
      </trkpt>
      <trkpt lat="38.240480" lon="30.888122">
        <ele>1240.000000</ele>
        <time>2010-05-04T07:43:53Z</time>
      </trkpt>
      <trkpt lat="38.240470" lon="30.888112">
        <ele>1241.000000</ele>
        <time>2010-05-04T07:43:54Z</time>
      </trkpt>
      <trkpt lat="38.240470" lon="30.888093">
        <ele>1241.000000</ele>
        <time>2010-05-04T07:43:55Z</time>
      </trkpt>
      <trkpt lat="38.240461" lon="30.888070">
        <ele>1242.000000</ele>
        <time>2010-05-04T07:43:56Z</time>
      </trkpt>
      <trkpt lat="38.240435" lon="30.888051">
        <ele>1241.000000</ele>
        <time>2010-05-04T07:43:58Z</time>
      </trkpt>
      <trkpt lat="38.240371" lon="30.888064">
        <ele>1240.000000</ele>
        <time>2010-05-04T07:44:01Z</time>
      </trkpt>
      <trkpt lat="38.240365" lon="30.888058">
        <ele>1240.000000</ele>
        <time>2010-05-04T07:44:02Z</time>
      </trkpt>
      <trkpt lat="38.240362" lon="30.888042">
        <ele>1241.000000</ele>
        <time>2010-05-04T07:44:03Z</time>
      </trkpt>
      <trkpt lat="38.240349" lon="30.888035">
        <ele>1239.000000</ele>
        <time>2010-05-04T07:44:04Z</time>
      </trkpt>
      <trkpt lat="38.240333" lon="30.888029">
        <ele>1239.000000</ele>
        <time>2010-05-04T07:44:05Z</time>
      </trkpt>
      <trkpt lat="38.240323" lon="30.888032">
        <ele>1239.000000</ele>
        <time>2010-05-04T07:44:06Z</time>
      </trkpt>
      <trkpt lat="38.240317" lon="30.888038">
        <ele>1240.000000</ele>
        <time>2010-05-04T07:44:07Z</time>
      </trkpt>
      <trkpt lat="38.240314" lon="30.888035">
        <ele>1240.000000</ele>
        <time>2010-05-04T07:44:08Z</time>
      </trkpt>
      <trkpt lat="38.240294" lon="30.888035">
        <ele>1241.000000</ele>
        <time>2010-05-04T07:44:09Z</time>
      </trkpt>
      <trkpt lat="38.240275" lon="30.888042">
        <ele>1240.000000</ele>
        <time>2010-05-04T07:44:10Z</time>
      </trkpt>
      <trkpt lat="38.240256" lon="30.888045">
        <ele>1240.000000</ele>
        <time>2010-05-04T07:44:11Z</time>
      </trkpt>
      <trkpt lat="38.240237" lon="30.888035">
        <ele>1239.000000</ele>
        <time>2010-05-04T07:44:13Z</time>
      </trkpt>
      <trkpt lat="38.240224" lon="30.888042">
        <ele>1240.000000</ele>
        <time>2010-05-04T07:44:14Z</time>
      </trkpt>
      <trkpt lat="38.240208" lon="30.888051">
        <ele>1239.000000</ele>
        <time>2010-05-04T07:44:15Z</time>
      </trkpt>
      <trkpt lat="38.240202" lon="30.888029">
        <ele>1240.000000</ele>
        <time>2010-05-04T07:44:16Z</time>
      </trkpt>
      <trkpt lat="38.240208" lon="30.888003">
        <ele>1239.000000</ele>
        <time>2010-05-04T07:44:17Z</time>
      </trkpt>
      <trkpt lat="38.240195" lon="30.887997">
        <ele>1241.000000</ele>
        <time>2010-05-04T07:44:18Z</time>
      </trkpt>
      <trkpt lat="38.240208" lon="30.887942">
        <ele>1240.000000</ele>
        <time>2010-05-04T07:44:21Z</time>
      </trkpt>
      <trkpt lat="38.240202" lon="30.887920">
        <ele>1239.000000</ele>
        <time>2010-05-04T07:44:23Z</time>
      </trkpt>
      <trkpt lat="38.240205" lon="30.887894">
        <ele>1239.000000</ele>
        <time>2010-05-04T07:44:24Z</time>
      </trkpt>
      <trkpt lat="38.240186" lon="30.887888">
        <ele>1238.000000</ele>
        <time>2010-05-04T07:44:25Z</time>
      </trkpt>
      <trkpt lat="38.240147" lon="30.887885">
        <ele>1240.000000</ele>
        <time>2010-05-04T07:44:27Z</time>
      </trkpt>
      <trkpt lat="38.240138" lon="30.887872">
        <ele>1240.000000</ele>
        <time>2010-05-04T07:44:28Z</time>
      </trkpt>
      <trkpt lat="38.240109" lon="30.887866">
        <ele>1239.000000</ele>
        <time>2010-05-04T07:44:30Z</time>
      </trkpt>
      <trkpt lat="38.240067" lon="30.887872">
        <ele>1240.000000</ele>
        <time>2010-05-04T07:44:32Z</time>
      </trkpt>
      <trkpt lat="38.240045" lon="30.887862">
        <ele>1239.000000</ele>
        <time>2010-05-04T07:44:34Z</time>
      </trkpt>
      <trkpt lat="38.240045" lon="30.887853">
        <ele>1240.000000</ele>
        <time>2010-05-04T07:44:35Z</time>
      </trkpt>
      <trkpt lat="38.239990" lon="30.887875">
        <ele>1239.000000</ele>
        <time>2010-05-04T07:44:37Z</time>
      </trkpt>
      <trkpt lat="38.239968" lon="30.887885">
        <ele>1241.000000</ele>
        <time>2010-05-04T07:44:38Z</time>
      </trkpt>
      <trkpt lat="38.239949" lon="30.887882">
        <ele>1239.000000</ele>
        <time>2010-05-04T07:44:39Z</time>
      </trkpt>
      <trkpt lat="38.239926" lon="30.887882">
        <ele>1240.000000</ele>
        <time>2010-05-04T07:44:40Z</time>
      </trkpt>
      <trkpt lat="38.239834" lon="30.887872">
        <ele>1240.000000</ele>
        <time>2010-05-04T07:44:44Z</time>
      </trkpt>
      <trkpt lat="38.239814" lon="30.887872">
        <ele>1240.000000</ele>
        <time>2010-05-04T07:44:45Z</time>
      </trkpt>
      <trkpt lat="38.239734" lon="30.887910">
        <ele>1241.000000</ele>
        <time>2010-05-04T07:44:46Z</time>
      </trkpt>
      <trkpt lat="38.239686" lon="30.887933">
        <ele>1240.000000</ele>
        <time>2010-05-04T07:44:47Z</time>
      </trkpt>
      <trkpt lat="38.239606" lon="30.887936">
        <ele>1239.000000</ele>
        <time>2010-05-04T07:44:51Z</time>
      </trkpt>
      <trkpt lat="38.239552" lon="30.887962">
        <ele>1240.000000</ele>
        <time>2010-05-04T07:44:52Z</time>
      </trkpt>
      <trkpt lat="38.239542" lon="30.887952">
        <ele>1240.000000</ele>
        <time>2010-05-04T07:44:53Z</time>
      </trkpt>
      <trkpt lat="38.239536" lon="30.887933">
        <ele>1240.000000</ele>
        <time>2010-05-04T07:44:55Z</time>
      </trkpt>
      <trkpt lat="38.239555" lon="30.887885">
        <ele>1241.000000</ele>
        <time>2010-05-04T07:44:57Z</time>
      </trkpt>
      <trkpt lat="38.239568" lon="30.887862">
        <ele>1240.000000</ele>
        <time>2010-05-04T07:44:58Z</time>
      </trkpt>
      <trkpt lat="38.239549" lon="30.887824">
        <ele>1240.000000</ele>
        <time>2010-05-04T07:45:01Z</time>
      </trkpt>
      <trkpt lat="38.239526" lon="30.887795">
        <ele>1240.000000</ele>
        <time>2010-05-04T07:45:03Z</time>
      </trkpt>
      <trkpt lat="38.239526" lon="30.887789">
        <ele>1241.000000</ele>
        <time>2010-05-04T07:45:04Z</time>
      </trkpt>
      <trkpt lat="38.239530" lon="30.887773">
        <ele>1240.000000</ele>
        <time>2010-05-04T07:45:05Z</time>
      </trkpt>
      <trkpt lat="38.239526" lon="30.887763">
        <ele>1240.000000</ele>
        <time>2010-05-04T07:45:06Z</time>
      </trkpt>
      <trkpt lat="38.239530" lon="30.887699">
        <ele>1240.000000</ele>
        <time>2010-05-04T07:45:12Z</time>
      </trkpt>
      <trkpt lat="38.239510" lon="30.887699">
        <ele>1242.000000</ele>
        <time>2010-05-04T07:45:13Z</time>
      </trkpt>
      <trkpt lat="38.239440" lon="30.887734">
        <ele>1241.000000</ele>
        <time>2010-05-04T07:45:14Z</time>
      </trkpt>
      <trkpt lat="38.239421" lon="30.887734">
        <ele>1242.000000</ele>
        <time>2010-05-04T07:45:15Z</time>
      </trkpt>
      <trkpt lat="38.239402" lon="30.887734">
        <ele>1242.000000</ele>
        <time>2010-05-04T07:45:16Z</time>
      </trkpt>
      <trkpt lat="38.239392" lon="30.887728">
        <ele>1240.000000</ele>
        <time>2010-05-04T07:45:17Z</time>
      </trkpt>
      <trkpt lat="38.239373" lon="30.887715">
        <ele>1240.000000</ele>
        <time>2010-05-04T07:45:19Z</time>
      </trkpt>
      <trkpt lat="38.239370" lon="30.887699">
        <ele>1241.000000</ele>
        <time>2010-05-04T07:45:20Z</time>
      </trkpt>
      <trkpt lat="38.239360" lon="30.887683">
        <ele>1240.000000</ele>
        <time>2010-05-04T07:45:21Z</time>
      </trkpt>
      <trkpt lat="38.239357" lon="30.887661">
        <ele>1240.000000</ele>
        <time>2010-05-04T07:45:22Z</time>
      </trkpt>
      <trkpt lat="38.239357" lon="30.887645">
        <ele>1240.000000</ele>
        <time>2010-05-04T07:45:23Z</time>
      </trkpt>
      <trkpt lat="38.239341" lon="30.887651">
        <ele>1241.000000</ele>
        <time>2010-05-04T07:45:24Z</time>
      </trkpt>
      <trkpt lat="38.239338" lon="30.887603">
        <ele>1241.000000</ele>
        <time>2010-05-04T07:45:25Z</time>
      </trkpt>
      <trkpt lat="38.239315" lon="30.887616">
        <ele>1240.000000</ele>
        <time>2010-05-04T07:45:26Z</time>
      </trkpt>
      <trkpt lat="38.239328" lon="30.887597">
        <ele>1242.000000</ele>
        <time>2010-05-04T07:45:27Z</time>
      </trkpt>
      <trkpt lat="38.239328" lon="30.887587">
        <ele>1241.000000</ele>
        <time>2010-05-04T07:45:28Z</time>
      </trkpt>
      <trkpt lat="38.239338" lon="30.887523">
        <ele>1241.000000</ele>
        <time>2010-05-04T07:45:32Z</time>
      </trkpt>
      <trkpt lat="38.239331" lon="30.887510">
        <ele>1242.000000</ele>
        <time>2010-05-04T07:45:33Z</time>
      </trkpt>
      <trkpt lat="38.239302" lon="30.887514">
        <ele>1242.000000</ele>
        <time>2010-05-04T07:45:34Z</time>
      </trkpt>
      <trkpt lat="38.239184" lon="30.887536">
        <ele>1241.000000</ele>
        <time>2010-05-04T07:45:40Z</time>
      </trkpt>
      <trkpt lat="38.239181" lon="30.887526">
        <ele>1241.000000</ele>
        <time>2010-05-04T07:45:41Z</time>
      </trkpt>
      <trkpt lat="38.239162" lon="30.887526">
        <ele>1242.000000</ele>
        <time>2010-05-04T07:45:42Z</time>
      </trkpt>
      <trkpt lat="38.239142" lon="30.887523">
        <ele>1242.000000</ele>
        <time>2010-05-04T07:45:43Z</time>
      </trkpt>
      <trkpt lat="38.239091" lon="30.887488">
        <ele>1243.000000</ele>
        <time>2010-05-04T07:45:47Z</time>
      </trkpt>
      <trkpt lat="38.239085" lon="30.887475">
        <ele>1242.000000</ele>
        <time>2010-05-04T07:45:48Z</time>
      </trkpt>
      <trkpt lat="38.239075" lon="30.887469">
        <ele>1242.000000</ele>
        <time>2010-05-04T07:45:49Z</time>
      </trkpt>
      <trkpt lat="38.239062" lon="30.887462">
        <ele>1242.000000</ele>
        <time>2010-05-04T07:45:50Z</time>
      </trkpt>
      <trkpt lat="38.239053" lon="30.887421">
        <ele>1241.000000</ele>
        <time>2010-05-04T07:45:53Z</time>
      </trkpt>
      <trkpt lat="38.239037" lon="30.887395">
        <ele>1241.000000</ele>
        <time>2010-05-04T07:45:57Z</time>
      </trkpt>
      <trkpt lat="38.239021" lon="30.887386">
        <ele>1242.000000</ele>
        <time>2010-05-04T07:45:58Z</time>
      </trkpt>
      <trkpt lat="38.239014" lon="30.887370">
        <ele>1241.000000</ele>
        <time>2010-05-04T07:45:59Z</time>
      </trkpt>
      <trkpt lat="38.238998" lon="30.887328">
        <ele>1242.000000</ele>
        <time>2010-05-04T07:46:01Z</time>
      </trkpt>
      <trkpt lat="38.238966" lon="30.887299">
        <ele>1242.000000</ele>
        <time>2010-05-04T07:46:03Z</time>
      </trkpt>
      <trkpt lat="38.238954" lon="30.887290">
        <ele>1242.000000</ele>
        <time>2010-05-04T07:46:04Z</time>
      </trkpt>
      <trkpt lat="38.238944" lon="30.887286">
        <ele>1243.000000</ele>
        <time>2010-05-04T07:46:05Z</time>
      </trkpt>
      <trkpt lat="38.238925" lon="30.887270">
        <ele>1243.000000</ele>
        <time>2010-05-04T07:46:07Z</time>
      </trkpt>
      <trkpt lat="38.238944" lon="30.887245">
        <ele>1242.000000</ele>
        <time>2010-05-04T07:46:08Z</time>
      </trkpt>
      <trkpt lat="38.238902" lon="30.887232">
        <ele>1242.000000</ele>
        <time>2010-05-04T07:46:11Z</time>
      </trkpt>
      <trkpt lat="38.238874" lon="30.887245">
        <ele>1242.000000</ele>
        <time>2010-05-04T07:46:12Z</time>
      </trkpt>
      <trkpt lat="38.238854" lon="30.887245">
        <ele>1243.000000</ele>
        <time>2010-05-04T07:46:13Z</time>
      </trkpt>
      <trkpt lat="38.238826" lon="30.887248">
        <ele>1242.000000</ele>
        <time>2010-05-04T07:46:14Z</time>
      </trkpt>
      <trkpt lat="38.238813" lon="30.887245">
        <ele>1242.000000</ele>
        <time>2010-05-04T07:46:15Z</time>
      </trkpt>
      <trkpt lat="38.238813" lon="30.887232">
        <ele>1243.000000</ele>
        <time>2010-05-04T07:46:16Z</time>
      </trkpt>
      <trkpt lat="38.238806" lon="30.887226">
        <ele>1244.000000</ele>
        <time>2010-05-04T07:46:17Z</time>
      </trkpt>
      <trkpt lat="38.238787" lon="30.887235">
        <ele>1242.000000</ele>
        <time>2010-05-04T07:46:18Z</time>
      </trkpt>
      <trkpt lat="38.238739" lon="30.887226">
        <ele>1242.000000</ele>
        <time>2010-05-04T07:46:21Z</time>
      </trkpt>
      <trkpt lat="38.238707" lon="30.887194">
        <ele>1244.000000</ele>
        <time>2010-05-04T07:46:24Z</time>
      </trkpt>
      <trkpt lat="38.238707" lon="30.887174">
        <ele>1244.000000</ele>
        <time>2010-05-04T07:46:25Z</time>
      </trkpt>
      <trkpt lat="38.238694" lon="30.887168">
        <ele>1244.000000</ele>
        <time>2010-05-04T07:46:26Z</time>
      </trkpt>
      <trkpt lat="38.238688" lon="30.887155">
        <ele>1245.000000</ele>
        <time>2010-05-04T07:46:27Z</time>
      </trkpt>
      <trkpt lat="38.238682" lon="30.887146">
        <ele>1244.000000</ele>
        <time>2010-05-04T07:46:28Z</time>
      </trkpt>
      <trkpt lat="38.238675" lon="30.887130">
        <ele>1244.000000</ele>
        <time>2010-05-04T07:46:29Z</time>
      </trkpt>
      <trkpt lat="38.238662" lon="30.887117">
        <ele>1243.000000</ele>
        <time>2010-05-04T07:46:30Z</time>
      </trkpt>
      <trkpt lat="38.238653" lon="30.887104">
        <ele>1246.000000</ele>
        <time>2010-05-04T07:46:31Z</time>
      </trkpt>
      <trkpt lat="38.238640" lon="30.887094">
        <ele>1246.000000</ele>
        <time>2010-05-04T07:46:32Z</time>
      </trkpt>
      <trkpt lat="38.238627" lon="30.887091">
        <ele>1244.000000</ele>
        <time>2010-05-04T07:46:33Z</time>
      </trkpt>
      <trkpt lat="38.238579" lon="30.887072">
        <ele>1245.000000</ele>
        <time>2010-05-04T07:46:36Z</time>
      </trkpt>
      <trkpt lat="38.238538" lon="30.887069">
        <ele>1244.000000</ele>
        <time>2010-05-04T07:46:38Z</time>
      </trkpt>
      <trkpt lat="38.238509" lon="30.887078">
        <ele>1245.000000</ele>
        <time>2010-05-04T07:46:39Z</time>
      </trkpt>
      <trkpt lat="38.238486" lon="30.887056">
        <ele>1245.000000</ele>
        <time>2010-05-04T07:46:41Z</time>
      </trkpt>
      <trkpt lat="38.238477" lon="30.887040">
        <ele>1243.000000</ele>
        <time>2010-05-04T07:46:42Z</time>
      </trkpt>
      <trkpt lat="38.238467" lon="30.887021">
        <ele>1245.000000</ele>
        <time>2010-05-04T07:46:43Z</time>
      </trkpt>
      <trkpt lat="38.238464" lon="30.887005">
        <ele>1245.000000</ele>
        <time>2010-05-04T07:46:44Z</time>
      </trkpt>
      <trkpt lat="38.238458" lon="30.886989">
        <ele>1246.000000</ele>
        <time>2010-05-04T07:46:45Z</time>
      </trkpt>
      <trkpt lat="38.238454" lon="30.886973">
        <ele>1245.000000</ele>
        <time>2010-05-04T07:46:46Z</time>
      </trkpt>
      <trkpt lat="38.238429" lon="30.886922">
        <ele>1246.000000</ele>
        <time>2010-05-04T07:46:49Z</time>
      </trkpt>
      <trkpt lat="38.238419" lon="30.886915">
        <ele>1246.000000</ele>
        <time>2010-05-04T07:46:50Z</time>
      </trkpt>
      <trkpt lat="38.238342" lon="30.886957">
        <ele>1245.000000</ele>
        <time>2010-05-04T07:46:51Z</time>
      </trkpt>
      <trkpt lat="38.238323" lon="30.886944">
        <ele>1246.000000</ele>
        <time>2010-05-04T07:46:52Z</time>
      </trkpt>
      <trkpt lat="38.238323" lon="30.886925">
        <ele>1246.000000</ele>
        <time>2010-05-04T07:46:53Z</time>
      </trkpt>
      <trkpt lat="38.238330" lon="30.886906">
        <ele>1246.000000</ele>
        <time>2010-05-04T07:46:54Z</time>
      </trkpt>
      <trkpt lat="38.238339" lon="30.886883">
        <ele>1245.000000</ele>
        <time>2010-05-04T07:46:55Z</time>
      </trkpt>
      <trkpt lat="38.238355" lon="30.886851">
        <ele>1244.000000</ele>
        <time>2010-05-04T07:46:56Z</time>
      </trkpt>
      <trkpt lat="38.238349" lon="30.886838">
        <ele>1246.000000</ele>
        <time>2010-05-04T07:46:57Z</time>
      </trkpt>
      <trkpt lat="38.238365" lon="30.886806">
        <ele>1245.000000</ele>
        <time>2010-05-04T07:46:58Z</time>
      </trkpt>
      <trkpt lat="38.238365" lon="30.886790">
        <ele>1247.000000</ele>
        <time>2010-05-04T07:46:59Z</time>
      </trkpt>
      <trkpt lat="38.238355" lon="30.886781">
        <ele>1247.000000</ele>
        <time>2010-05-04T07:47:00Z</time>
      </trkpt>
      <trkpt lat="38.238339" lon="30.886787">
        <ele>1247.000000</ele>
        <time>2010-05-04T07:47:01Z</time>
      </trkpt>
      <trkpt lat="38.238326" lon="30.886771">
        <ele>1245.000000</ele>
        <time>2010-05-04T07:47:03Z</time>
      </trkpt>
      <trkpt lat="38.238320" lon="30.886758">
        <ele>1246.000000</ele>
        <time>2010-05-04T07:47:04Z</time>
      </trkpt>
      <trkpt lat="38.238317" lon="30.886739">
        <ele>1246.000000</ele>
        <time>2010-05-04T07:47:05Z</time>
      </trkpt>
      <trkpt lat="38.238307" lon="30.886726">
        <ele>1245.000000</ele>
        <time>2010-05-04T07:47:06Z</time>
      </trkpt>
      <trkpt lat="38.238304" lon="30.886714">
        <ele>1247.000000</ele>
        <time>2010-05-04T07:47:07Z</time>
      </trkpt>
      <trkpt lat="38.238365" lon="30.886640">
        <ele>1246.000000</ele>
        <time>2010-05-04T07:47:09Z</time>
      </trkpt>
      <trkpt lat="38.238374" lon="30.886621">
        <ele>1246.000000</ele>
        <time>2010-05-04T07:47:10Z</time>
      </trkpt>
      <trkpt lat="38.238368" lon="30.886611">
        <ele>1245.000000</ele>
        <time>2010-05-04T07:47:11Z</time>
      </trkpt>
      <trkpt lat="38.238349" lon="30.886570">
        <ele>1246.000000</ele>
        <time>2010-05-04T07:47:14Z</time>
      </trkpt>
      <trkpt lat="38.238330" lon="30.886563">
        <ele>1248.000000</ele>
        <time>2010-05-04T07:47:15Z</time>
      </trkpt>
      <trkpt lat="38.238298" lon="30.886570">
        <ele>1248.000000</ele>
        <time>2010-05-04T07:47:16Z</time>
      </trkpt>
      <trkpt lat="38.238275" lon="30.886570">
        <ele>1246.000000</ele>
        <time>2010-05-04T07:47:17Z</time>
      </trkpt>
      <trkpt lat="38.238221" lon="30.886579">
        <ele>1246.000000</ele>
        <time>2010-05-04T07:47:19Z</time>
      </trkpt>
      <trkpt lat="38.238179" lon="30.886579">
        <ele>1246.000000</ele>
        <time>2010-05-04T07:47:21Z</time>
      </trkpt>
      <trkpt lat="38.238163" lon="30.886563">
        <ele>1245.000000</ele>
        <time>2010-05-04T07:47:32Z</time>
      </trkpt>
      <trkpt lat="38.238160" lon="30.886538">
        <ele>1247.000000</ele>
        <time>2010-05-04T07:47:34Z</time>
      </trkpt>
      <trkpt lat="38.238170" lon="30.886486">
        <ele>1248.000000</ele>
        <time>2010-05-04T07:47:36Z</time>
      </trkpt>
      <trkpt lat="38.238179" lon="30.886445">
        <ele>1246.000000</ele>
        <time>2010-05-04T07:47:45Z</time>
      </trkpt>
      <trkpt lat="38.238182" lon="30.886445">
        <ele>1246.000000</ele>
        <time>2010-05-04T07:47:47Z</time>
      </trkpt>
      <trkpt lat="38.238170" lon="30.886445">
        <ele>1247.000000</ele>
        <time>2010-05-04T07:47:49Z</time>
      </trkpt>
      <trkpt lat="38.238160" lon="30.886448">
        <ele>1246.000000</ele>
        <time>2010-05-04T07:47:51Z</time>
      </trkpt>
      <trkpt lat="38.238147" lon="30.886448">
        <ele>1247.000000</ele>
        <time>2010-05-04T07:47:52Z</time>
      </trkpt>
      <trkpt lat="38.238112" lon="30.886451">
        <ele>1248.000000</ele>
        <time>2010-05-04T07:47:54Z</time>
      </trkpt>
      <trkpt lat="38.238099" lon="30.886448">
        <ele>1247.000000</ele>
        <time>2010-05-04T07:47:55Z</time>
      </trkpt>
      <trkpt lat="38.238045" lon="30.886461">
        <ele>1248.000000</ele>
        <time>2010-05-04T07:47:57Z</time>
      </trkpt>
      <trkpt lat="38.238029" lon="30.886454">
        <ele>1248.000000</ele>
        <time>2010-05-04T07:47:58Z</time>
      </trkpt>
      <trkpt lat="38.237978" lon="30.886477">
        <ele>1248.000000</ele>
        <time>2010-05-04T07:47:59Z</time>
      </trkpt>
      <trkpt lat="38.237933" lon="30.886480">
        <ele>1249.000000</ele>
        <time>2010-05-04T07:48:01Z</time>
      </trkpt>
      <trkpt lat="38.237939" lon="30.886445">
        <ele>1247.000000</ele>
        <time>2010-05-04T07:48:03Z</time>
      </trkpt>
      <trkpt lat="38.237923" lon="30.886451">
        <ele>1247.000000</ele>
        <time>2010-05-04T07:48:04Z</time>
      </trkpt>
      <trkpt lat="38.237920" lon="30.886461">
        <ele>1248.000000</ele>
        <time>2010-05-04T07:48:06Z</time>
      </trkpt>
      <trkpt lat="38.237926" lon="30.886458">
        <ele>1249.000000</ele>
        <time>2010-05-04T07:48:07Z</time>
      </trkpt>
      <trkpt lat="38.237946" lon="30.886416">
        <ele>1249.000000</ele>
        <time>2010-05-04T07:48:24Z</time>
      </trkpt>
      <trkpt lat="38.237952" lon="30.886394">
        <ele>1248.000000</ele>
        <time>2010-05-04T07:48:25Z</time>
      </trkpt>
      <trkpt lat="38.237962" lon="30.886355">
        <ele>1248.000000</ele>
        <time>2010-05-04T07:48:27Z</time>
      </trkpt>
      <trkpt lat="38.237907" lon="30.886346">
        <ele>1249.000000</ele>
        <time>2010-05-04T07:48:29Z</time>
      </trkpt>
      <trkpt lat="38.237888" lon="30.886314">
        <ele>1249.000000</ele>
        <time>2010-05-04T07:48:31Z</time>
      </trkpt>
      <trkpt lat="38.237901" lon="30.886285">
        <ele>1250.000000</ele>
        <time>2010-05-04T07:48:32Z</time>
      </trkpt>
      <trkpt lat="38.237894" lon="30.886278">
        <ele>1249.000000</ele>
        <time>2010-05-04T07:48:33Z</time>
      </trkpt>
      <trkpt lat="38.237891" lon="30.886266">
        <ele>1250.000000</ele>
        <time>2010-05-04T07:48:34Z</time>
      </trkpt>
      <trkpt lat="38.237923" lon="30.886221">
        <ele>1249.000000</ele>
        <time>2010-05-04T07:48:36Z</time>
      </trkpt>
      <trkpt lat="38.237914" lon="30.886202">
        <ele>1249.000000</ele>
        <time>2010-05-04T07:48:38Z</time>
      </trkpt>
      <trkpt lat="38.237894" lon="30.886214">
        <ele>1250.000000</ele>
        <time>2010-05-04T07:48:39Z</time>
      </trkpt>
      <trkpt lat="38.237872" lon="30.886214">
        <ele>1249.000000</ele>
        <time>2010-05-04T07:48:41Z</time>
      </trkpt>
      <trkpt lat="38.237795" lon="30.886218">
        <ele>1250.000000</ele>
        <time>2010-05-04T07:48:46Z</time>
      </trkpt>
      <trkpt lat="38.237760" lon="30.886227">
        <ele>1251.000000</ele>
        <time>2010-05-04T07:48:49Z</time>
      </trkpt>
      <trkpt lat="38.237725" lon="30.886227">
        <ele>1249.000000</ele>
        <time>2010-05-04T07:48:51Z</time>
      </trkpt>
      <trkpt lat="38.237722" lon="30.886195">
        <ele>1250.000000</ele>
        <time>2010-05-04T07:48:55Z</time>
      </trkpt>
      <trkpt lat="38.237712" lon="30.886186">
        <ele>1249.000000</ele>
        <time>2010-05-04T07:48:56Z</time>
      </trkpt>
      <trkpt lat="38.237686" lon="30.886208">
        <ele>1250.000000</ele>
        <time>2010-05-04T07:48:57Z</time>
      </trkpt>
      <trkpt lat="38.237632" lon="30.886214">
        <ele>1249.000000</ele>
        <time>2010-05-04T07:49:00Z</time>
      </trkpt>
      <trkpt lat="38.237546" lon="30.886221">
        <ele>1250.000000</ele>
        <time>2010-05-04T07:49:04Z</time>
      </trkpt>
      <trkpt lat="38.237536" lon="30.886218">
        <ele>1251.000000</ele>
        <time>2010-05-04T07:49:05Z</time>
      </trkpt>
      <trkpt lat="38.237501" lon="30.886218">
        <ele>1251.000000</ele>
        <time>2010-05-04T07:49:08Z</time>
      </trkpt>
      <trkpt lat="38.237373" lon="30.886237">
        <ele>1248.000000</ele>
        <time>2010-05-04T07:49:15Z</time>
      </trkpt>
      <trkpt lat="38.237357" lon="30.886256">
        <ele>1249.000000</ele>
        <time>2010-05-04T07:49:17Z</time>
      </trkpt>
      <trkpt lat="38.237344" lon="30.886246">
        <ele>1249.000000</ele>
        <time>2010-05-04T07:49:20Z</time>
      </trkpt>
      <trkpt lat="38.237331" lon="30.886250">
        <ele>1249.000000</ele>
        <time>2010-05-04T07:49:21Z</time>
      </trkpt>
      <trkpt lat="38.237302" lon="30.886262">
        <ele>1248.000000</ele>
        <time>2010-05-04T07:49:22Z</time>
      </trkpt>
      <trkpt lat="38.237283" lon="30.886269">
        <ele>1248.000000</ele>
        <time>2010-05-04T07:49:23Z</time>
      </trkpt>
      <trkpt lat="38.237258" lon="30.886278">
        <ele>1248.000000</ele>
        <time>2010-05-04T07:49:24Z</time>
      </trkpt>
      <trkpt lat="38.237248" lon="30.886282">
        <ele>1249.000000</ele>
        <time>2010-05-04T07:49:25Z</time>
      </trkpt>
      <trkpt lat="38.237187" lon="30.886294">
        <ele>1248.000000</ele>
        <time>2010-05-04T07:49:29Z</time>
      </trkpt>
      <trkpt lat="38.237171" lon="30.886304">
        <ele>1248.000000</ele>
        <time>2010-05-04T07:49:30Z</time>
      </trkpt>
      <trkpt lat="38.237126" lon="30.886314">
        <ele>1249.000000</ele>
        <time>2010-05-04T07:49:32Z</time>
      </trkpt>
      <trkpt lat="38.237110" lon="30.886314">
        <ele>1248.000000</ele>
        <time>2010-05-04T07:49:33Z</time>
      </trkpt>
      <trkpt lat="38.237094" lon="30.886314">
        <ele>1249.000000</ele>
        <time>2010-05-04T07:49:34Z</time>
      </trkpt>
      <trkpt lat="38.237088" lon="30.886310">
        <ele>1248.000000</ele>
        <time>2010-05-04T07:49:35Z</time>
      </trkpt>
      <trkpt lat="38.237069" lon="30.886298">
        <ele>1249.000000</ele>
        <time>2010-05-04T07:49:37Z</time>
      </trkpt>
      <trkpt lat="38.237059" lon="30.886298">
        <ele>1248.000000</ele>
        <time>2010-05-04T07:49:38Z</time>
      </trkpt>
      <trkpt lat="38.237056" lon="30.886278">
        <ele>1248.000000</ele>
        <time>2010-05-04T07:49:39Z</time>
      </trkpt>
      <trkpt lat="38.237050" lon="30.886275">
        <ele>1249.000000</ele>
        <time>2010-05-04T07:49:40Z</time>
      </trkpt>
      <trkpt lat="38.237069" lon="30.886208">
        <ele>1249.000000</ele>
        <time>2010-05-04T07:49:41Z</time>
      </trkpt>
      <trkpt lat="38.237056" lon="30.886198">
        <ele>1249.000000</ele>
        <time>2010-05-04T07:49:42Z</time>
      </trkpt>
      <trkpt lat="38.236973" lon="30.886253">
        <ele>1249.000000</ele>
        <time>2010-05-04T07:49:43Z</time>
      </trkpt>
      <trkpt lat="38.236938" lon="30.886262">
        <ele>1249.000000</ele>
        <time>2010-05-04T07:49:45Z</time>
      </trkpt>
      <trkpt lat="38.236938" lon="30.886269">
        <ele>1248.000000</ele>
        <time>2010-05-04T07:49:46Z</time>
      </trkpt>
      <trkpt lat="38.236896" lon="30.886298">
        <ele>1248.000000</ele>
        <time>2010-05-04T07:49:49Z</time>
      </trkpt>
      <trkpt lat="38.236890" lon="30.886285">
        <ele>1248.000000</ele>
        <time>2010-05-04T07:49:50Z</time>
      </trkpt>
      <trkpt lat="38.236906" lon="30.886243">
        <ele>1248.000000</ele>
        <time>2010-05-04T07:49:51Z</time>
      </trkpt>
      <trkpt lat="38.236970" lon="30.886189">
        <ele>1248.000000</ele>
        <time>2010-05-04T07:49:52Z</time>
      </trkpt>
      <trkpt lat="38.236966" lon="30.886176">
        <ele>1249.000000</ele>
        <time>2010-05-04T07:49:53Z</time>
      </trkpt>
      <trkpt lat="38.236928" lon="30.886182">
        <ele>1249.000000</ele>
        <time>2010-05-04T07:49:56Z</time>
      </trkpt>
      <trkpt lat="38.236912" lon="30.886195">
        <ele>1249.000000</ele>
        <time>2010-05-04T07:49:57Z</time>
      </trkpt>
      <trkpt lat="38.236909" lon="30.886173">
        <ele>1247.000000</ele>
        <time>2010-05-04T07:49:58Z</time>
      </trkpt>
      <trkpt lat="38.236890" lon="30.886179">
        <ele>1248.000000</ele>
        <time>2010-05-04T07:49:59Z</time>
      </trkpt>
      <trkpt lat="38.236861" lon="30.886179">
        <ele>1249.000000</ele>
        <time>2010-05-04T07:50:01Z</time>
      </trkpt>
      <trkpt lat="38.236848" lon="30.886166">
        <ele>1249.000000</ele>
        <time>2010-05-04T07:50:02Z</time>
      </trkpt>
      <trkpt lat="38.236819" lon="30.886134">
        <ele>1249.000000</ele>
        <time>2010-05-04T07:50:05Z</time>
      </trkpt>
      <trkpt lat="38.236790" lon="30.886109">
        <ele>1248.000000</ele>
        <time>2010-05-04T07:50:08Z</time>
      </trkpt>
      <trkpt lat="38.236762" lon="30.886115">
        <ele>1249.000000</ele>
        <time>2010-05-04T07:50:09Z</time>
      </trkpt>
      <trkpt lat="38.236627" lon="30.886106">
        <ele>1250.000000</ele>
        <time>2010-05-04T07:50:16Z</time>
      </trkpt>
      <trkpt lat="38.236592" lon="30.886109">
        <ele>1250.000000</ele>
        <time>2010-05-04T07:50:17Z</time>
      </trkpt>
      <trkpt lat="38.236541" lon="30.886109">
        <ele>1248.000000</ele>
        <time>2010-05-04T07:50:18Z</time>
      </trkpt>
      <trkpt lat="38.236509" lon="30.886080">
        <ele>1249.000000</ele>
        <time>2010-05-04T07:50:21Z</time>
      </trkpt>
      <trkpt lat="38.236499" lon="30.886067">
        <ele>1248.000000</ele>
        <time>2010-05-04T07:50:22Z</time>
      </trkpt>
      <trkpt lat="38.236512" lon="30.886035">
        <ele>1250.000000</ele>
        <time>2010-05-04T07:50:24Z</time>
      </trkpt>
      <trkpt lat="38.236509" lon="30.886026">
        <ele>1249.000000</ele>
        <time>2010-05-04T07:50:25Z</time>
      </trkpt>
      <trkpt lat="38.236515" lon="30.885990">
        <ele>1248.000000</ele>
        <time>2010-05-04T07:50:28Z</time>
      </trkpt>
      <trkpt lat="38.236496" lon="30.885997">
        <ele>1249.000000</ele>
        <time>2010-05-04T07:50:30Z</time>
      </trkpt>
      <trkpt lat="38.236493" lon="30.885984">
        <ele>1248.000000</ele>
        <time>2010-05-04T07:50:31Z</time>
      </trkpt>
      <trkpt lat="38.236493" lon="30.885955">
        <ele>1248.000000</ele>
        <time>2010-05-04T07:50:33Z</time>
      </trkpt>
      <trkpt lat="38.236480" lon="30.885968">
        <ele>1247.000000</ele>
        <time>2010-05-04T07:50:34Z</time>
      </trkpt>
      <trkpt lat="38.236480" lon="30.885955">
        <ele>1249.000000</ele>
        <time>2010-05-04T07:50:35Z</time>
      </trkpt>
      <trkpt lat="38.236454" lon="30.885939">
        <ele>1249.000000</ele>
        <time>2010-05-04T07:50:37Z</time>
      </trkpt>
      <trkpt lat="38.236419" lon="30.885933">
        <ele>1247.000000</ele>
        <time>2010-05-04T07:50:40Z</time>
      </trkpt>
      <trkpt lat="38.236390" lon="30.885926">
        <ele>1248.000000</ele>
        <time>2010-05-04T07:50:42Z</time>
      </trkpt>
      <trkpt lat="38.236330" lon="30.885939">
        <ele>1249.000000</ele>
        <time>2010-05-04T07:50:45Z</time>
      </trkpt>
      <trkpt lat="38.236310" lon="30.885933">
        <ele>1249.000000</ele>
        <time>2010-05-04T07:50:46Z</time>
      </trkpt>
      <trkpt lat="38.236304" lon="30.885923">
        <ele>1248.000000</ele>
        <time>2010-05-04T07:50:47Z</time>
      </trkpt>
      <trkpt lat="38.236291" lon="30.885917">
        <ele>1248.000000</ele>
        <time>2010-05-04T07:50:49Z</time>
      </trkpt>
      <trkpt lat="38.236262" lon="30.885930">
        <ele>1248.000000</ele>
        <time>2010-05-04T07:50:50Z</time>
      </trkpt>
      <trkpt lat="38.236234" lon="30.885898">
        <ele>1248.000000</ele>
        <time>2010-05-04T07:50:53Z</time>
      </trkpt>
      <trkpt lat="38.236214" lon="30.885885">
        <ele>1248.000000</ele>
        <time>2010-05-04T07:50:55Z</time>
      </trkpt>
      <trkpt lat="38.236211" lon="30.885878">
        <ele>1248.000000</ele>
        <time>2010-05-04T07:50:56Z</time>
      </trkpt>
      <trkpt lat="38.236202" lon="30.885866">
        <ele>1248.000000</ele>
        <time>2010-05-04T07:50:57Z</time>
      </trkpt>
      <trkpt lat="38.236182" lon="30.885837">
        <ele>1246.000000</ele>
        <time>2010-05-04T07:51:01Z</time>
      </trkpt>
      <trkpt lat="38.236166" lon="30.885840">
        <ele>1247.000000</ele>
        <time>2010-05-04T07:51:02Z</time>
      </trkpt>
      <trkpt lat="38.236138" lon="30.885856">
        <ele>1247.000000</ele>
        <time>2010-05-04T07:51:04Z</time>
      </trkpt>
      <trkpt lat="38.236074" lon="30.885837">
        <ele>1247.000000</ele>
        <time>2010-05-04T07:51:11Z</time>
      </trkpt>
      <trkpt lat="38.236061" lon="30.885840">
        <ele>1247.000000</ele>
        <time>2010-05-04T07:51:13Z</time>
      </trkpt>
      <trkpt lat="38.236019" lon="30.885834">
        <ele>1247.000000</ele>
        <time>2010-05-04T07:51:32Z</time>
      </trkpt>
      <trkpt lat="38.235984" lon="30.885770">
        <ele>1245.000000</ele>
        <time>2010-05-04T07:52:09Z</time>
      </trkpt>
      <trkpt lat="38.235962" lon="30.885770">
        <ele>1247.000000</ele>
        <time>2010-05-04T07:52:11Z</time>
      </trkpt>
      <trkpt lat="38.235946" lon="30.885760">
        <ele>1246.000000</ele>
        <time>2010-05-04T07:52:12Z</time>
      </trkpt>
      <trkpt lat="38.235923" lon="30.885744">
        <ele>1247.000000</ele>
        <time>2010-05-04T07:52:14Z</time>
      </trkpt>
      <trkpt lat="38.235907" lon="30.885744">
        <ele>1246.000000</ele>
        <time>2010-05-04T07:52:15Z</time>
      </trkpt>
      <trkpt lat="38.235888" lon="30.885728">
        <ele>1246.000000</ele>
        <time>2010-05-04T07:52:17Z</time>
      </trkpt>
      <trkpt lat="38.235834" lon="30.885722">
        <ele>1246.000000</ele>
        <time>2010-05-04T07:52:20Z</time>
      </trkpt>
      <trkpt lat="38.235786" lon="30.885731">
        <ele>1245.000000</ele>
        <time>2010-05-04T07:52:22Z</time>
      </trkpt>
      <trkpt lat="38.235747" lon="30.885718">
        <ele>1247.000000</ele>
        <time>2010-05-04T07:52:24Z</time>
      </trkpt>
      <trkpt lat="38.235706" lon="30.885709">
        <ele>1248.000000</ele>
        <time>2010-05-04T07:52:27Z</time>
      </trkpt>
      <trkpt lat="38.235699" lon="30.885696">
        <ele>1247.000000</ele>
        <time>2010-05-04T07:52:28Z</time>
      </trkpt>
      <trkpt lat="38.235661" lon="30.885757">
        <ele>1247.000000</ele>
        <time>2010-05-04T07:52:29Z</time>
      </trkpt>
      <trkpt lat="38.235574" lon="30.885824">
        <ele>1248.000000</ele>
        <time>2010-05-04T07:52:33Z</time>
      </trkpt>
      <trkpt lat="38.235549" lon="30.885827">
        <ele>1248.000000</ele>
        <time>2010-05-04T07:52:34Z</time>
      </trkpt>
      <trkpt lat="38.235520" lon="30.885843">
        <ele>1248.000000</ele>
        <time>2010-05-04T07:52:35Z</time>
      </trkpt>
      <trkpt lat="38.235498" lon="30.885837">
        <ele>1248.000000</ele>
        <time>2010-05-04T07:52:36Z</time>
      </trkpt>
      <trkpt lat="38.235408" lon="30.885805">
        <ele>1247.000000</ele>
        <time>2010-05-04T07:52:41Z</time>
      </trkpt>
      <trkpt lat="38.235418" lon="30.885766">
        <ele>1247.000000</ele>
        <time>2010-05-04T07:52:42Z</time>
      </trkpt>
      <trkpt lat="38.235405" lon="30.885731">
        <ele>1247.000000</ele>
        <time>2010-05-04T07:52:45Z</time>
      </trkpt>
      <trkpt lat="38.235392" lon="30.885728">
        <ele>1248.000000</ele>
        <time>2010-05-04T07:52:46Z</time>
      </trkpt>
      <trkpt lat="38.235392" lon="30.885670">
        <ele>1245.000000</ele>
        <time>2010-05-04T07:52:49Z</time>
      </trkpt>
      <trkpt lat="38.235389" lon="30.885667">
        <ele>1247.000000</ele>
        <time>2010-05-04T07:52:50Z</time>
      </trkpt>
      <trkpt lat="38.235370" lon="30.885651">
        <ele>1247.000000</ele>
        <time>2010-05-04T07:52:53Z</time>
      </trkpt>
      <trkpt lat="38.235386" lon="30.885600">
        <ele>1247.000000</ele>
        <time>2010-05-04T07:52:55Z</time>
      </trkpt>
      <trkpt lat="38.235382" lon="30.885587">
        <ele>1246.000000</ele>
        <time>2010-05-04T07:52:56Z</time>
      </trkpt>
      <trkpt lat="38.235386" lon="30.885571">
        <ele>1246.000000</ele>
        <time>2010-05-04T07:52:57Z</time>
      </trkpt>
      <trkpt lat="38.235392" lon="30.885562">
        <ele>1246.000000</ele>
        <time>2010-05-04T07:52:58Z</time>
      </trkpt>
      <trkpt lat="38.235411" lon="30.885507">
        <ele>1245.000000</ele>
        <time>2010-05-04T07:53:01Z</time>
      </trkpt>
      <trkpt lat="38.235402" lon="30.885498">
        <ele>1246.000000</ele>
        <time>2010-05-04T07:53:02Z</time>
      </trkpt>
      <trkpt lat="38.235392" lon="30.885478">
        <ele>1246.000000</ele>
        <time>2010-05-04T07:53:03Z</time>
      </trkpt>
      <trkpt lat="38.235382" lon="30.885469">
        <ele>1247.000000</ele>
        <time>2010-05-04T07:53:04Z</time>
      </trkpt>
      <trkpt lat="38.235363" lon="30.885469">
        <ele>1247.000000</ele>
        <time>2010-05-04T07:53:05Z</time>
      </trkpt>
      <trkpt lat="38.235325" lon="30.885453">
        <ele>1246.000000</ele>
        <time>2010-05-04T07:53:08Z</time>
      </trkpt>
      <trkpt lat="38.235251" lon="30.885443">
        <ele>1247.000000</ele>
        <time>2010-05-04T07:53:11Z</time>
      </trkpt>
      <trkpt lat="38.235238" lon="30.885421">
        <ele>1248.000000</ele>
        <time>2010-05-04T07:53:13Z</time>
      </trkpt>
      <trkpt lat="38.235232" lon="30.885408">
        <ele>1247.000000</ele>
        <time>2010-05-04T07:53:14Z</time>
      </trkpt>
      <trkpt lat="38.235232" lon="30.885389">
        <ele>1247.000000</ele>
        <time>2010-05-04T07:53:15Z</time>
      </trkpt>
      <trkpt lat="38.235171" lon="30.885370">
        <ele>1247.000000</ele>
        <time>2010-05-04T07:53:19Z</time>
      </trkpt>
      <trkpt lat="38.235168" lon="30.885354">
        <ele>1247.000000</ele>
        <time>2010-05-04T07:53:20Z</time>
      </trkpt>
      <trkpt lat="38.235158" lon="30.885344">
        <ele>1247.000000</ele>
        <time>2010-05-04T07:53:21Z</time>
      </trkpt>
      <trkpt lat="38.235139" lon="30.885338">
        <ele>1247.000000</ele>
        <time>2010-05-04T07:53:22Z</time>
      </trkpt>
      <trkpt lat="38.235120" lon="30.885350">
        <ele>1248.000000</ele>
        <time>2010-05-04T07:53:23Z</time>
      </trkpt>
      <trkpt lat="38.235024" lon="30.885373">
        <ele>1248.000000</ele>
        <time>2010-05-04T07:53:28Z</time>
      </trkpt>
      <trkpt lat="38.235011" lon="30.885366">
        <ele>1248.000000</ele>
        <time>2010-05-04T07:53:29Z</time>
      </trkpt>
      <trkpt lat="38.235005" lon="30.885357">
        <ele>1248.000000</ele>
        <time>2010-05-04T07:53:30Z</time>
      </trkpt>
      <trkpt lat="38.235002" lon="30.885325">
        <ele>1248.000000</ele>
        <time>2010-05-04T07:53:31Z</time>
      </trkpt>
      <trkpt lat="38.234979" lon="30.885302">
        <ele>1248.000000</ele>
        <time>2010-05-04T07:53:33Z</time>
      </trkpt>
      <trkpt lat="38.234960" lon="30.885280">
        <ele>1247.000000</ele>
        <time>2010-05-04T07:53:36Z</time>
      </trkpt>
      <trkpt lat="38.234970" lon="30.885251">
        <ele>1247.000000</ele>
        <time>2010-05-04T07:53:37Z</time>
      </trkpt>
      <trkpt lat="38.234963" lon="30.885242">
        <ele>1247.000000</ele>
        <time>2010-05-04T07:53:38Z</time>
      </trkpt>
      <trkpt lat="38.234954" lon="30.885235">
        <ele>1247.000000</ele>
        <time>2010-05-04T07:53:39Z</time>
      </trkpt>
      <trkpt lat="38.234931" lon="30.885203">
        <ele>1248.000000</ele>
        <time>2010-05-04T07:53:42Z</time>
      </trkpt>
      <trkpt lat="38.234915" lon="30.885194">
        <ele>1248.000000</ele>
        <time>2010-05-04T07:53:43Z</time>
      </trkpt>
      <trkpt lat="38.234899" lon="30.885181">
        <ele>1247.000000</ele>
        <time>2010-05-04T07:53:45Z</time>
      </trkpt>
      <trkpt lat="38.234890" lon="30.885181">
        <ele>1248.000000</ele>
        <time>2010-05-04T07:53:46Z</time>
      </trkpt>
      <trkpt lat="38.234874" lon="30.885181">
        <ele>1248.000000</ele>
        <time>2010-05-04T07:53:47Z</time>
      </trkpt>
      <trkpt lat="38.234864" lon="30.885181">
        <ele>1247.000000</ele>
        <time>2010-05-04T07:53:48Z</time>
      </trkpt>
      <trkpt lat="38.234851" lon="30.885171">
        <ele>1248.000000</ele>
        <time>2010-05-04T07:53:49Z</time>
      </trkpt>
      <trkpt lat="38.234810" lon="30.885216">
        <ele>1249.000000</ele>
        <time>2010-05-04T07:53:50Z</time>
      </trkpt>
      <trkpt lat="38.234726" lon="30.885274">
        <ele>1248.000000</ele>
        <time>2010-05-04T07:53:51Z</time>
      </trkpt>
      <trkpt lat="38.234714" lon="30.885290">
        <ele>1248.000000</ele>
        <time>2010-05-04T07:53:52Z</time>
      </trkpt>
      <trkpt lat="38.234714" lon="30.885261">
        <ele>1249.000000</ele>
        <time>2010-05-04T07:53:55Z</time>
      </trkpt>
      <trkpt lat="38.234714" lon="30.885242">
        <ele>1248.000000</ele>
        <time>2010-05-04T07:53:56Z</time>
      </trkpt>
      <trkpt lat="38.234781" lon="30.885174">
        <ele>1247.000000</ele>
        <time>2010-05-04T07:53:57Z</time>
      </trkpt>
      <trkpt lat="38.234781" lon="30.885152">
        <ele>1247.000000</ele>
        <time>2010-05-04T07:53:58Z</time>
      </trkpt>
      <trkpt lat="38.234771" lon="30.885133">
        <ele>1247.000000</ele>
        <time>2010-05-04T07:53:59Z</time>
      </trkpt>
      <trkpt lat="38.234742" lon="30.885152">
        <ele>1247.000000</ele>
        <time>2010-05-04T07:54:00Z</time>
      </trkpt>
      <trkpt lat="38.234726" lon="30.885146">
        <ele>1247.000000</ele>
        <time>2010-05-04T07:54:01Z</time>
      </trkpt>
      <trkpt lat="38.234675" lon="30.885162">
        <ele>1248.000000</ele>
        <time>2010-05-04T07:54:02Z</time>
      </trkpt>
      <trkpt lat="38.234656" lon="30.885162">
        <ele>1247.000000</ele>
        <time>2010-05-04T07:54:03Z</time>
      </trkpt>
      <trkpt lat="38.234643" lon="30.885152">
        <ele>1247.000000</ele>
        <time>2010-05-04T07:54:04Z</time>
      </trkpt>
      <trkpt lat="38.234634" lon="30.885142">
        <ele>1247.000000</ele>
        <time>2010-05-04T07:54:05Z</time>
      </trkpt>
      <trkpt lat="38.234570" lon="30.885120">
        <ele>1250.000000</ele>
        <time>2010-05-04T07:54:09Z</time>
      </trkpt>
      <trkpt lat="38.234557" lon="30.885098">
        <ele>1249.000000</ele>
        <time>2010-05-04T07:54:10Z</time>
      </trkpt>
      <trkpt lat="38.234550" lon="30.885085">
        <ele>1249.000000</ele>
        <time>2010-05-04T07:54:11Z</time>
      </trkpt>
      <trkpt lat="38.234518" lon="30.885043">
        <ele>1249.000000</ele>
        <time>2010-05-04T07:54:15Z</time>
      </trkpt>
      <trkpt lat="38.234467" lon="30.885040">
        <ele>1248.000000</ele>
        <time>2010-05-04T07:54:22Z</time>
      </trkpt>
      <trkpt lat="38.234445" lon="30.885050">
        <ele>1248.000000</ele>
        <time>2010-05-04T07:54:23Z</time>
      </trkpt>
      <trkpt lat="38.234435" lon="30.885043">
        <ele>1248.000000</ele>
        <time>2010-05-04T07:54:24Z</time>
      </trkpt>
      <trkpt lat="38.234429" lon="30.885024">
        <ele>1249.000000</ele>
        <time>2010-05-04T07:54:25Z</time>
      </trkpt>
      <trkpt lat="38.234416" lon="30.885018">
        <ele>1248.000000</ele>
        <time>2010-05-04T07:54:26Z</time>
      </trkpt>
      <trkpt lat="38.234403" lon="30.885014">
        <ele>1248.000000</ele>
        <time>2010-05-04T07:54:27Z</time>
      </trkpt>
      <trkpt lat="38.234387" lon="30.885018">
        <ele>1249.000000</ele>
        <time>2010-05-04T07:54:28Z</time>
      </trkpt>
      <trkpt lat="38.234374" lon="30.885021">
        <ele>1249.000000</ele>
        <time>2010-05-04T07:54:29Z</time>
      </trkpt>
      <trkpt lat="38.234358" lon="30.885021">
        <ele>1248.000000</ele>
        <time>2010-05-04T07:54:30Z</time>
      </trkpt>
      <trkpt lat="38.234336" lon="30.885030">
        <ele>1248.000000</ele>
        <time>2010-05-04T07:54:31Z</time>
      </trkpt>
      <trkpt lat="38.234317" lon="30.885021">
        <ele>1249.000000</ele>
        <time>2010-05-04T07:54:33Z</time>
      </trkpt>
      <trkpt lat="38.234294" lon="30.885002">
        <ele>1249.000000</ele>
        <time>2010-05-04T07:54:36Z</time>
      </trkpt>
      <trkpt lat="38.234285" lon="30.884995">
        <ele>1249.000000</ele>
        <time>2010-05-04T07:54:37Z</time>
      </trkpt>
      <trkpt lat="38.234259" lon="30.884982">
        <ele>1250.000000</ele>
        <time>2010-05-04T07:54:39Z</time>
      </trkpt>
      <trkpt lat="38.234246" lon="30.884970">
        <ele>1250.000000</ele>
        <time>2010-05-04T07:54:41Z</time>
      </trkpt>
      <trkpt lat="38.234240" lon="30.884957">
        <ele>1248.000000</ele>
        <time>2010-05-04T07:54:42Z</time>
      </trkpt>
      <trkpt lat="38.234211" lon="30.884963">
        <ele>1249.000000</ele>
        <time>2010-05-04T07:54:43Z</time>
      </trkpt>
      <trkpt lat="38.234205" lon="30.884954">
        <ele>1248.000000</ele>
        <time>2010-05-04T07:54:44Z</time>
      </trkpt>
      <trkpt lat="38.234166" lon="30.884922">
        <ele>1249.000000</ele>
        <time>2010-05-04T07:54:48Z</time>
      </trkpt>
      <trkpt lat="38.234125" lon="30.884944">
        <ele>1250.000000</ele>
        <time>2010-05-04T07:54:50Z</time>
      </trkpt>
      <trkpt lat="38.234128" lon="30.884925">
        <ele>1247.000000</ele>
        <time>2010-05-04T07:54:51Z</time>
      </trkpt>
      <trkpt lat="38.234128" lon="30.884928">
        <ele>1248.000000</ele>
        <time>2010-05-04T07:54:52Z</time>
      </trkpt>
      <trkpt lat="38.234118" lon="30.884912">
        <ele>1248.000000</ele>
        <time>2010-05-04T07:54:54Z</time>
      </trkpt>
      <trkpt lat="38.234115" lon="30.884893">
        <ele>1248.000000</ele>
        <time>2010-05-04T07:54:55Z</time>
      </trkpt>
      <trkpt lat="38.234099" lon="30.884864">
        <ele>1249.000000</ele>
        <time>2010-05-04T07:54:57Z</time>
      </trkpt>
      <trkpt lat="38.234086" lon="30.884848">
        <ele>1249.000000</ele>
        <time>2010-05-04T07:54:59Z</time>
      </trkpt>
      <trkpt lat="38.234077" lon="30.884842">
        <ele>1249.000000</ele>
        <time>2010-05-04T07:55:00Z</time>
      </trkpt>
      <trkpt lat="38.234074" lon="30.884832">
        <ele>1248.000000</ele>
        <time>2010-05-04T07:55:01Z</time>
      </trkpt>
      <trkpt lat="38.234042" lon="30.884784">
        <ele>1250.000000</ele>
        <time>2010-05-04T07:55:05Z</time>
      </trkpt>
      <trkpt lat="38.233990" lon="30.884826">
        <ele>1249.000000</ele>
        <time>2010-05-04T07:55:15Z</time>
      </trkpt>
      <trkpt lat="38.233978" lon="30.884822">
        <ele>1247.000000</ele>
        <time>2010-05-04T07:55:16Z</time>
      </trkpt>
      <trkpt lat="38.233968" lon="30.884826">
        <ele>1247.000000</ele>
        <time>2010-05-04T07:55:17Z</time>
      </trkpt>
      <trkpt lat="38.233949" lon="30.884816">
        <ele>1247.000000</ele>
        <time>2010-05-04T07:55:19Z</time>
      </trkpt>
      <trkpt lat="38.233939" lon="30.884806">
        <ele>1247.000000</ele>
        <time>2010-05-04T07:55:20Z</time>
      </trkpt>
      <trkpt lat="38.233926" lon="30.884800">
        <ele>1248.000000</ele>
        <time>2010-05-04T07:55:21Z</time>
      </trkpt>
      <trkpt lat="38.233910" lon="30.884803">
        <ele>1248.000000</ele>
        <time>2010-05-04T07:55:22Z</time>
      </trkpt>
      <trkpt lat="38.233894" lon="30.884803">
        <ele>1248.000000</ele>
        <time>2010-05-04T07:55:23Z</time>
      </trkpt>
      <trkpt lat="38.233862" lon="30.884810">
        <ele>1248.000000</ele>
        <time>2010-05-04T07:55:24Z</time>
      </trkpt>
      <trkpt lat="38.233843" lon="30.884806">
        <ele>1248.000000</ele>
        <time>2010-05-04T07:55:25Z</time>
      </trkpt>
      <trkpt lat="38.233818" lon="30.884806">
        <ele>1249.000000</ele>
        <time>2010-05-04T07:55:26Z</time>
      </trkpt>
      <trkpt lat="38.233802" lon="30.884790">
        <ele>1248.000000</ele>
        <time>2010-05-04T07:55:28Z</time>
      </trkpt>
      <trkpt lat="38.233795" lon="30.884784">
        <ele>1248.000000</ele>
        <time>2010-05-04T07:55:29Z</time>
      </trkpt>
      <trkpt lat="38.233770" lon="30.884778">
        <ele>1245.000000</ele>
        <time>2010-05-04T07:55:31Z</time>
      </trkpt>
      <trkpt lat="38.233744" lon="30.884781">
        <ele>1246.000000</ele>
        <time>2010-05-04T07:55:32Z</time>
      </trkpt>
      <trkpt lat="38.233731" lon="30.884787">
        <ele>1246.000000</ele>
        <time>2010-05-04T07:55:33Z</time>
      </trkpt>
      <trkpt lat="38.233683" lon="30.884806">
        <ele>1247.000000</ele>
        <time>2010-05-04T07:55:35Z</time>
      </trkpt>
      <trkpt lat="38.233664" lon="30.884813">
        <ele>1247.000000</ele>
        <time>2010-05-04T07:55:36Z</time>
      </trkpt>
      <trkpt lat="38.233635" lon="30.884806">
        <ele>1246.000000</ele>
        <time>2010-05-04T07:55:37Z</time>
      </trkpt>
      <trkpt lat="38.233613" lon="30.884819">
        <ele>1246.000000</ele>
        <time>2010-05-04T07:55:38Z</time>
      </trkpt>
      <trkpt lat="38.233600" lon="30.884822">
        <ele>1247.000000</ele>
        <time>2010-05-04T07:55:39Z</time>
      </trkpt>
      <trkpt lat="38.233581" lon="30.884832">
        <ele>1248.000000</ele>
        <time>2010-05-04T07:55:40Z</time>
      </trkpt>
      <trkpt lat="38.233555" lon="30.884842">
        <ele>1248.000000</ele>
        <time>2010-05-04T07:55:41Z</time>
      </trkpt>
      <trkpt lat="38.233539" lon="30.884832">
        <ele>1245.000000</ele>
        <time>2010-05-04T07:55:42Z</time>
      </trkpt>
      <trkpt lat="38.233533" lon="30.884803">
        <ele>1246.000000</ele>
        <time>2010-05-04T07:55:43Z</time>
      </trkpt>
      <trkpt lat="38.233510" lon="30.884813">
        <ele>1247.000000</ele>
        <time>2010-05-04T07:55:44Z</time>
      </trkpt>
      <trkpt lat="38.233494" lon="30.884768">
        <ele>1245.000000</ele>
        <time>2010-05-04T07:55:46Z</time>
      </trkpt>
      <trkpt lat="38.233491" lon="30.884730">
        <ele>1246.000000</ele>
        <time>2010-05-04T07:55:47Z</time>
      </trkpt>
      <trkpt lat="38.233466" lon="30.884765">
        <ele>1247.000000</ele>
        <time>2010-05-04T07:55:48Z</time>
      </trkpt>
      <trkpt lat="38.233456" lon="30.884778">
        <ele>1246.000000</ele>
        <time>2010-05-04T07:55:49Z</time>
      </trkpt>
      <trkpt lat="38.233443" lon="30.884781">
        <ele>1246.000000</ele>
        <time>2010-05-04T07:55:50Z</time>
      </trkpt>
      <trkpt lat="38.233434" lon="30.884768">
        <ele>1245.000000</ele>
        <time>2010-05-04T07:55:52Z</time>
      </trkpt>
      <trkpt lat="38.233434" lon="30.884755">
        <ele>1245.000000</ele>
        <time>2010-05-04T07:55:53Z</time>
      </trkpt>
      <trkpt lat="38.233424" lon="30.884749">
        <ele>1246.000000</ele>
        <time>2010-05-04T07:55:54Z</time>
      </trkpt>
      <trkpt lat="38.233421" lon="30.884746">
        <ele>1246.000000</ele>
        <time>2010-05-04T07:55:55Z</time>
      </trkpt>
      <trkpt lat="38.233405" lon="30.884749">
        <ele>1245.000000</ele>
        <time>2010-05-04T07:55:56Z</time>
      </trkpt>
      <trkpt lat="38.233395" lon="30.884736">
        <ele>1245.000000</ele>
        <time>2010-05-04T07:55:57Z</time>
      </trkpt>
      <trkpt lat="38.233382" lon="30.884707">
        <ele>1245.000000</ele>
        <time>2010-05-04T07:55:58Z</time>
      </trkpt>
      <trkpt lat="38.233379" lon="30.884678">
        <ele>1246.000000</ele>
        <time>2010-05-04T07:55:59Z</time>
      </trkpt>
      <trkpt lat="38.233366" lon="30.884643">
        <ele>1247.000000</ele>
        <time>2010-05-04T07:56:00Z</time>
      </trkpt>
      <trkpt lat="38.233354" lon="30.884624">
        <ele>1245.000000</ele>
        <time>2010-05-04T07:56:01Z</time>
      </trkpt>
      <trkpt lat="38.233267" lon="30.884611">
        <ele>1246.000000</ele>
        <time>2010-05-04T07:56:10Z</time>
      </trkpt>
      <trkpt lat="38.233264" lon="30.884595">
        <ele>1245.000000</ele>
        <time>2010-05-04T07:56:11Z</time>
      </trkpt>
      <trkpt lat="38.233264" lon="30.884573">
        <ele>1245.000000</ele>
        <time>2010-05-04T07:56:12Z</time>
      </trkpt>
      <trkpt lat="38.233258" lon="30.884541">
        <ele>1244.000000</ele>
        <time>2010-05-04T07:56:14Z</time>
      </trkpt>
      <trkpt lat="38.233258" lon="30.884525">
        <ele>1243.000000</ele>
        <time>2010-05-04T07:56:15Z</time>
      </trkpt>
      <trkpt lat="38.233245" lon="30.884499">
        <ele>1244.000000</ele>
        <time>2010-05-04T07:56:17Z</time>
      </trkpt>
      <trkpt lat="38.233242" lon="30.884486">
        <ele>1244.000000</ele>
        <time>2010-05-04T07:56:18Z</time>
      </trkpt>
      <trkpt lat="38.233222" lon="30.884515">
        <ele>1246.000000</ele>
        <time>2010-05-04T07:56:19Z</time>
      </trkpt>
      <trkpt lat="38.233213" lon="30.884502">
        <ele>1245.000000</ele>
        <time>2010-05-04T07:56:20Z</time>
      </trkpt>
      <trkpt lat="38.233203" lon="30.884483">
        <ele>1245.000000</ele>
        <time>2010-05-04T07:56:21Z</time>
      </trkpt>
      <trkpt lat="38.233181" lon="30.884480">
        <ele>1245.000000</ele>
        <time>2010-05-04T07:56:22Z</time>
      </trkpt>
      <trkpt lat="38.233168" lon="30.884470">
        <ele>1244.000000</ele>
        <time>2010-05-04T07:56:23Z</time>
      </trkpt>
      <trkpt lat="38.233162" lon="30.884454">
        <ele>1245.000000</ele>
        <time>2010-05-04T07:56:24Z</time>
      </trkpt>
      <trkpt lat="38.233146" lon="30.884461">
        <ele>1245.000000</ele>
        <time>2010-05-04T07:56:26Z</time>
      </trkpt>
      <trkpt lat="38.233123" lon="30.884477">
        <ele>1243.000000</ele>
        <time>2010-05-04T07:56:28Z</time>
      </trkpt>
      <trkpt lat="38.233094" lon="30.884477">
        <ele>1245.000000</ele>
        <time>2010-05-04T07:56:30Z</time>
      </trkpt>
      <trkpt lat="38.233066" lon="30.884480">
        <ele>1245.000000</ele>
        <time>2010-05-04T07:56:31Z</time>
      </trkpt>
      <trkpt lat="38.233043" lon="30.884490">
        <ele>1245.000000</ele>
        <time>2010-05-04T07:56:32Z</time>
      </trkpt>
      <trkpt lat="38.232966" lon="30.884496">
        <ele>1245.000000</ele>
        <time>2010-05-04T07:56:35Z</time>
      </trkpt>
      <trkpt lat="38.232970" lon="30.884480">
        <ele>1245.000000</ele>
        <time>2010-05-04T07:56:36Z</time>
      </trkpt>
      <trkpt lat="38.232922" lon="30.884426">
        <ele>1244.000000</ele>
        <time>2010-05-04T07:56:43Z</time>
      </trkpt>
      <trkpt lat="38.232902" lon="30.884438">
        <ele>1244.000000</ele>
        <time>2010-05-04T07:56:44Z</time>
      </trkpt>
      <trkpt lat="38.232896" lon="30.884416">
        <ele>1244.000000</ele>
        <time>2010-05-04T07:56:46Z</time>
      </trkpt>
      <trkpt lat="38.232918" lon="30.884397">
        <ele>1245.000000</ele>
        <time>2010-05-04T07:56:48Z</time>
      </trkpt>
      <trkpt lat="38.232902" lon="30.884384">
        <ele>1245.000000</ele>
        <time>2010-05-04T07:56:49Z</time>
      </trkpt>
      <trkpt lat="38.232896" lon="30.884371">
        <ele>1245.000000</ele>
        <time>2010-05-04T07:56:50Z</time>
      </trkpt>
      <trkpt lat="38.232886" lon="30.884346">
        <ele>1244.000000</ele>
        <time>2010-05-04T07:56:51Z</time>
      </trkpt>
      <trkpt lat="38.232886" lon="30.884326">
        <ele>1244.000000</ele>
        <time>2010-05-04T07:56:52Z</time>
      </trkpt>
      <trkpt lat="38.232880" lon="30.884314">
        <ele>1244.000000</ele>
        <time>2010-05-04T07:56:53Z</time>
      </trkpt>
      <trkpt lat="38.232864" lon="30.884307">
        <ele>1244.000000</ele>
        <time>2010-05-04T07:56:54Z</time>
      </trkpt>
      <trkpt lat="38.232835" lon="30.884320">
        <ele>1244.000000</ele>
        <time>2010-05-04T07:56:55Z</time>
      </trkpt>
      <trkpt lat="38.232810" lon="30.884326">
        <ele>1244.000000</ele>
        <time>2010-05-04T07:56:56Z</time>
      </trkpt>
      <trkpt lat="38.232787" lon="30.884317">
        <ele>1244.000000</ele>
        <time>2010-05-04T07:56:58Z</time>
      </trkpt>
      <trkpt lat="38.232800" lon="30.884291">
        <ele>1244.000000</ele>
        <time>2010-05-04T07:56:59Z</time>
      </trkpt>
      <trkpt lat="38.232774" lon="30.884362">
        <ele>1246.000000</ele>
        <time>2010-05-04T07:57:02Z</time>
      </trkpt>
      <trkpt lat="38.232755" lon="30.884339">
        <ele>1246.000000</ele>
        <time>2010-05-04T07:57:04Z</time>
      </trkpt>
      <trkpt lat="38.232749" lon="30.884320">
        <ele>1245.000000</ele>
        <time>2010-05-04T07:57:05Z</time>
      </trkpt>
      <trkpt lat="38.232726" lon="30.884291">
        <ele>1245.000000</ele>
        <time>2010-05-04T07:57:07Z</time>
      </trkpt>
      <trkpt lat="38.232723" lon="30.884278">
        <ele>1245.000000</ele>
        <time>2010-05-04T07:57:08Z</time>
      </trkpt>
      <trkpt lat="38.232736" lon="30.884224">
        <ele>1245.000000</ele>
        <time>2010-05-04T07:57:10Z</time>
      </trkpt>
      <trkpt lat="38.232730" lon="30.884205">
        <ele>1245.000000</ele>
        <time>2010-05-04T07:57:11Z</time>
      </trkpt>
      <trkpt lat="38.232726" lon="30.884192">
        <ele>1244.000000</ele>
        <time>2010-05-04T07:57:12Z</time>
      </trkpt>
      <trkpt lat="38.232726" lon="30.884179">
        <ele>1244.000000</ele>
        <time>2010-05-04T07:57:13Z</time>
      </trkpt>
      <trkpt lat="38.232710" lon="30.884160">
        <ele>1244.000000</ele>
        <time>2010-05-04T07:57:15Z</time>
      </trkpt>
      <trkpt lat="38.232710" lon="30.884112">
        <ele>1246.000000</ele>
        <time>2010-05-04T07:57:18Z</time>
      </trkpt>
      <trkpt lat="38.232691" lon="30.884102">
        <ele>1245.000000</ele>
        <time>2010-05-04T07:57:19Z</time>
      </trkpt>
      <trkpt lat="38.232688" lon="30.884083">
        <ele>1245.000000</ele>
        <time>2010-05-04T07:57:20Z</time>
      </trkpt>
      <trkpt lat="38.232682" lon="30.884070">
        <ele>1247.000000</ele>
        <time>2010-05-04T07:57:21Z</time>
      </trkpt>
      <trkpt lat="38.232640" lon="30.884058">
        <ele>1245.000000</ele>
        <time>2010-05-04T07:57:24Z</time>
      </trkpt>
      <trkpt lat="38.232627" lon="30.884051">
        <ele>1245.000000</ele>
        <time>2010-05-04T07:57:25Z</time>
      </trkpt>
      <trkpt lat="38.232624" lon="30.883994">
        <ele>1244.000000</ele>
        <time>2010-05-04T07:57:27Z</time>
      </trkpt>
      <trkpt lat="38.232640" lon="30.883978">
        <ele>1246.000000</ele>
        <time>2010-05-04T07:57:28Z</time>
      </trkpt>
      <trkpt lat="38.232630" lon="30.883968">
        <ele>1246.000000</ele>
        <time>2010-05-04T07:57:29Z</time>
      </trkpt>
      <trkpt lat="38.232624" lon="30.883958">
        <ele>1245.000000</ele>
        <time>2010-05-04T07:57:30Z</time>
      </trkpt>
      <trkpt lat="38.232547" lon="30.883987">
        <ele>1244.000000</ele>
        <time>2010-05-04T07:57:33Z</time>
      </trkpt>
      <trkpt lat="38.232525" lon="30.884010">
        <ele>1246.000000</ele>
        <time>2010-05-04T07:57:37Z</time>
      </trkpt>
      <trkpt lat="38.232480" lon="30.883965">
        <ele>1246.000000</ele>
        <time>2010-05-04T07:57:57Z</time>
      </trkpt>
      <trkpt lat="38.232422" lon="30.883958">
        <ele>1247.000000</ele>
        <time>2010-05-04T07:58:02Z</time>
      </trkpt>
      <trkpt lat="38.232426" lon="30.883907">
        <ele>1246.000000</ele>
        <time>2010-05-04T07:58:04Z</time>
      </trkpt>
      <trkpt lat="38.232394" lon="30.883904">
        <ele>1246.000000</ele>
        <time>2010-05-04T07:58:05Z</time>
      </trkpt>
      <trkpt lat="38.232387" lon="30.883885">
        <ele>1246.000000</ele>
        <time>2010-05-04T07:58:06Z</time>
      </trkpt>
      <trkpt lat="38.232381" lon="30.883869">
        <ele>1248.000000</ele>
        <time>2010-05-04T07:58:07Z</time>
      </trkpt>
      <trkpt lat="38.232362" lon="30.883869">
        <ele>1245.000000</ele>
        <time>2010-05-04T07:58:08Z</time>
      </trkpt>
      <trkpt lat="38.232342" lon="30.883891">
        <ele>1245.000000</ele>
        <time>2010-05-04T07:58:09Z</time>
      </trkpt>
      <trkpt lat="38.232326" lon="30.883894">
        <ele>1245.000000</ele>
        <time>2010-05-04T07:58:10Z</time>
      </trkpt>
      <trkpt lat="38.232272" lon="30.883885">
        <ele>1246.000000</ele>
        <time>2010-05-04T07:58:14Z</time>
      </trkpt>
      <trkpt lat="38.232253" lon="30.883933">
        <ele>1247.000000</ele>
        <time>2010-05-04T07:58:15Z</time>
      </trkpt>
      <trkpt lat="38.232250" lon="30.883920">
        <ele>1245.000000</ele>
        <time>2010-05-04T07:58:16Z</time>
      </trkpt>
      <trkpt lat="38.232246" lon="30.883910">
        <ele>1246.000000</ele>
        <time>2010-05-04T07:58:17Z</time>
      </trkpt>
      <trkpt lat="38.232208" lon="30.883923">
        <ele>1246.000000</ele>
        <time>2010-05-04T07:58:18Z</time>
      </trkpt>
      <trkpt lat="38.232170" lon="30.883952">
        <ele>1247.000000</ele>
        <time>2010-05-04T07:58:19Z</time>
      </trkpt>
      <trkpt lat="38.232211" lon="30.883869">
        <ele>1246.000000</ele>
        <time>2010-05-04T07:58:22Z</time>
      </trkpt>
      <trkpt lat="38.232214" lon="30.883830">
        <ele>1246.000000</ele>
        <time>2010-05-04T07:58:24Z</time>
      </trkpt>
      <trkpt lat="38.232211" lon="30.883827">
        <ele>1246.000000</ele>
        <time>2010-05-04T07:58:25Z</time>
      </trkpt>
      <trkpt lat="38.232208" lon="30.883808">
        <ele>1245.000000</ele>
        <time>2010-05-04T07:58:27Z</time>
      </trkpt>
      <trkpt lat="38.232208" lon="30.883795">
        <ele>1246.000000</ele>
        <time>2010-05-04T07:58:28Z</time>
      </trkpt>
      <trkpt lat="38.232202" lon="30.883789">
        <ele>1246.000000</ele>
        <time>2010-05-04T07:58:29Z</time>
      </trkpt>
      <trkpt lat="38.232189" lon="30.883773">
        <ele>1247.000000</ele>
        <time>2010-05-04T07:58:31Z</time>
      </trkpt>
      <trkpt lat="38.232173" lon="30.883776">
        <ele>1246.000000</ele>
        <time>2010-05-04T07:58:32Z</time>
      </trkpt>
      <trkpt lat="38.232163" lon="30.883776">
        <ele>1246.000000</ele>
        <time>2010-05-04T07:58:33Z</time>
      </trkpt>
      <trkpt lat="38.232144" lon="30.883792">
        <ele>1246.000000</ele>
        <time>2010-05-04T07:58:34Z</time>
      </trkpt>
      <trkpt lat="38.232128" lon="30.883798">
        <ele>1246.000000</ele>
        <time>2010-05-04T07:58:35Z</time>
      </trkpt>
      <trkpt lat="38.232109" lon="30.883795">
        <ele>1244.000000</ele>
        <time>2010-05-04T07:58:36Z</time>
      </trkpt>
      <trkpt lat="38.232090" lon="30.883750">
        <ele>1245.000000</ele>
        <time>2010-05-04T07:58:39Z</time>
      </trkpt>
      <trkpt lat="38.232074" lon="30.883712">
        <ele>1245.000000</ele>
        <time>2010-05-04T07:58:42Z</time>
      </trkpt>
      <trkpt lat="38.231994" lon="30.883696">
        <ele>1245.000000</ele>
        <time>2010-05-04T07:58:46Z</time>
      </trkpt>
      <trkpt lat="38.231962" lon="30.883699">
        <ele>1246.000000</ele>
        <time>2010-05-04T07:58:48Z</time>
      </trkpt>
      <trkpt lat="38.231952" lon="30.883693">
        <ele>1247.000000</ele>
        <time>2010-05-04T07:58:49Z</time>
      </trkpt>
      <trkpt lat="38.231930" lon="30.883683">
        <ele>1246.000000</ele>
        <time>2010-05-04T07:58:51Z</time>
      </trkpt>
      <trkpt lat="38.231923" lon="30.883696">
        <ele>1246.000000</ele>
        <time>2010-05-04T07:58:52Z</time>
      </trkpt>
      <trkpt lat="38.231907" lon="30.883690">
        <ele>1246.000000</ele>
        <time>2010-05-04T07:58:54Z</time>
      </trkpt>
      <trkpt lat="38.231904" lon="30.883683">
        <ele>1246.000000</ele>
        <time>2010-05-04T07:58:55Z</time>
      </trkpt>
      <trkpt lat="38.231904" lon="30.883632">
        <ele>1246.000000</ele>
        <time>2010-05-04T07:58:58Z</time>
      </trkpt>
      <trkpt lat="38.231888" lon="30.883622">
        <ele>1246.000000</ele>
        <time>2010-05-04T07:58:59Z</time>
      </trkpt>
      <trkpt lat="38.231875" lon="30.883613">
        <ele>1247.000000</ele>
        <time>2010-05-04T07:59:00Z</time>
      </trkpt>
      <trkpt lat="38.231888" lon="30.883584">
        <ele>1246.000000</ele>
        <time>2010-05-04T07:59:01Z</time>
      </trkpt>
      <trkpt lat="38.231891" lon="30.883562">
        <ele>1245.000000</ele>
        <time>2010-05-04T07:59:02Z</time>
      </trkpt>
      <trkpt lat="38.231888" lon="30.883539">
        <ele>1247.000000</ele>
        <time>2010-05-04T07:59:03Z</time>
      </trkpt>
      <trkpt lat="38.231907" lon="30.883482">
        <ele>1246.000000</ele>
        <time>2010-05-04T07:59:05Z</time>
      </trkpt>
      <trkpt lat="38.231882" lon="30.883475">
        <ele>1246.000000</ele>
        <time>2010-05-04T07:59:08Z</time>
      </trkpt>
      <trkpt lat="38.231843" lon="30.883498">
        <ele>1245.000000</ele>
        <time>2010-05-04T07:59:09Z</time>
      </trkpt>
      <trkpt lat="38.231789" lon="30.883533">
        <ele>1246.000000</ele>
        <time>2010-05-04T07:59:11Z</time>
      </trkpt>
      <trkpt lat="38.231782" lon="30.883530">
        <ele>1247.000000</ele>
        <time>2010-05-04T07:59:12Z</time>
      </trkpt>
      <trkpt lat="38.231792" lon="30.883498">
        <ele>1246.000000</ele>
        <time>2010-05-04T07:59:14Z</time>
      </trkpt>
      <trkpt lat="38.231773" lon="30.883485">
        <ele>1247.000000</ele>
        <time>2010-05-04T07:59:16Z</time>
      </trkpt>
      <trkpt lat="38.231776" lon="30.883466">
        <ele>1246.000000</ele>
        <time>2010-05-04T07:59:17Z</time>
      </trkpt>
      <trkpt lat="38.231789" lon="30.883450">
        <ele>1245.000000</ele>
        <time>2010-05-04T07:59:18Z</time>
      </trkpt>
      <trkpt lat="38.231789" lon="30.883446">
        <ele>1246.000000</ele>
        <time>2010-05-04T07:59:19Z</time>
      </trkpt>
      <trkpt lat="38.231837" lon="30.883398">
        <ele>1245.000000</ele>
        <time>2010-05-04T07:59:20Z</time>
      </trkpt>
      <trkpt lat="38.231910" lon="30.883315">
        <ele>1245.000000</ele>
        <time>2010-05-04T07:59:23Z</time>
      </trkpt>
      <trkpt lat="38.231862" lon="30.883341">
        <ele>1245.000000</ele>
        <time>2010-05-04T07:59:25Z</time>
      </trkpt>
      <trkpt lat="38.231827" lon="30.883338">
        <ele>1246.000000</ele>
        <time>2010-05-04T07:59:27Z</time>
      </trkpt>
      <trkpt lat="38.231789" lon="30.883338">
        <ele>1245.000000</ele>
        <time>2010-05-04T07:59:29Z</time>
      </trkpt>
      <trkpt lat="38.231802" lon="30.883322">
        <ele>1245.000000</ele>
        <time>2010-05-04T07:59:30Z</time>
      </trkpt>
      <trkpt lat="38.231802" lon="30.883299">
        <ele>1244.000000</ele>
        <time>2010-05-04T07:59:31Z</time>
      </trkpt>
      <trkpt lat="38.231814" lon="30.883267">
        <ele>1245.000000</ele>
        <time>2010-05-04T07:59:32Z</time>
      </trkpt>
      <trkpt lat="38.231808" lon="30.883251">
        <ele>1246.000000</ele>
        <time>2010-05-04T07:59:34Z</time>
      </trkpt>
      <trkpt lat="38.231728" lon="30.883283">
        <ele>1245.000000</ele>
        <time>2010-05-04T07:59:36Z</time>
      </trkpt>
      <trkpt lat="38.231670" lon="30.883274">
        <ele>1245.000000</ele>
        <time>2010-05-04T07:59:39Z</time>
      </trkpt>
      <trkpt lat="38.231632" lon="30.883274">
        <ele>1245.000000</ele>
        <time>2010-05-04T07:59:42Z</time>
      </trkpt>
      <trkpt lat="38.231546" lon="30.883299">
        <ele>1244.000000</ele>
        <time>2010-05-04T07:59:46Z</time>
      </trkpt>
      <trkpt lat="38.231526" lon="30.883306">
        <ele>1244.000000</ele>
        <time>2010-05-04T07:59:47Z</time>
      </trkpt>
      <trkpt lat="38.231526" lon="30.883286">
        <ele>1244.000000</ele>
        <time>2010-05-04T07:59:49Z</time>
      </trkpt>
      <trkpt lat="38.231491" lon="30.883315">
        <ele>1243.000000</ele>
        <time>2010-05-04T07:59:51Z</time>
      </trkpt>
      <trkpt lat="38.231485" lon="30.883315">
        <ele>1245.000000</ele>
        <time>2010-05-04T07:59:52Z</time>
      </trkpt>
      <trkpt lat="38.231469" lon="30.883312">
        <ele>1244.000000</ele>
        <time>2010-05-04T07:59:53Z</time>
      </trkpt>
      <trkpt lat="38.231453" lon="30.883299">
        <ele>1243.000000</ele>
        <time>2010-05-04T07:59:55Z</time>
      </trkpt>
      <trkpt lat="38.231440" lon="30.883290">
        <ele>1244.000000</ele>
        <time>2010-05-04T07:59:56Z</time>
      </trkpt>
      <trkpt lat="38.231427" lon="30.883267">
        <ele>1244.000000</ele>
        <time>2010-05-04T07:59:58Z</time>
      </trkpt>
      <trkpt lat="38.231405" lon="30.883267">
        <ele>1243.000000</ele>
        <time>2010-05-04T07:59:59Z</time>
      </trkpt>
      <trkpt lat="38.231405" lon="30.883248">
        <ele>1243.000000</ele>
        <time>2010-05-04T08:00:00Z</time>
      </trkpt>
      <trkpt lat="38.231418" lon="30.883197">
        <ele>1243.000000</ele>
        <time>2010-05-04T08:00:03Z</time>
      </trkpt>
      <trkpt lat="38.231414" lon="30.883120">
        <ele>1244.000000</ele>
        <time>2010-05-04T08:00:07Z</time>
      </trkpt>
      <trkpt lat="38.231325" lon="30.883158">
        <ele>1244.000000</ele>
        <time>2010-05-04T08:00:08Z</time>
      </trkpt>
      <trkpt lat="38.231315" lon="30.883120">
        <ele>1241.000000</ele>
        <time>2010-05-04T08:00:10Z</time>
      </trkpt>
      <trkpt lat="38.231277" lon="30.883104">
        <ele>1243.000000</ele>
        <time>2010-05-04T08:00:13Z</time>
      </trkpt>
      <trkpt lat="38.231270" lon="30.883104">
        <ele>1244.000000</ele>
        <time>2010-05-04T08:00:14Z</time>
      </trkpt>
      <trkpt lat="38.231254" lon="30.883104">
        <ele>1244.000000</ele>
        <time>2010-05-04T08:00:15Z</time>
      </trkpt>
      <trkpt lat="38.231232" lon="30.883107">
        <ele>1244.000000</ele>
        <time>2010-05-04T08:00:16Z</time>
      </trkpt>
      <trkpt lat="38.231213" lon="30.883114">
        <ele>1242.000000</ele>
        <time>2010-05-04T08:00:17Z</time>
      </trkpt>
      <trkpt lat="38.231210" lon="30.883101">
        <ele>1243.000000</ele>
        <time>2010-05-04T08:00:18Z</time>
      </trkpt>
      <trkpt lat="38.231178" lon="30.883085">
        <ele>1242.000000</ele>
        <time>2010-05-04T08:00:20Z</time>
      </trkpt>
      <trkpt lat="38.231162" lon="30.883085">
        <ele>1243.000000</ele>
        <time>2010-05-04T08:00:21Z</time>
      </trkpt>
      <trkpt lat="38.231155" lon="30.883018">
        <ele>1243.000000</ele>
        <time>2010-05-04T08:00:25Z</time>
      </trkpt>
      <trkpt lat="38.231152" lon="30.883002">
        <ele>1243.000000</ele>
        <time>2010-05-04T08:00:26Z</time>
      </trkpt>
      <trkpt lat="38.231088" lon="30.883018">
        <ele>1242.000000</ele>
        <time>2010-05-04T08:00:27Z</time>
      </trkpt>
      <trkpt lat="38.231078" lon="30.882979">
        <ele>1244.000000</ele>
        <time>2010-05-04T08:00:29Z</time>
      </trkpt>
      <trkpt lat="38.231098" lon="30.882947">
        <ele>1242.000000</ele>
        <time>2010-05-04T08:00:30Z</time>
      </trkpt>
      <trkpt lat="38.231101" lon="30.882922">
        <ele>1241.000000</ele>
        <time>2010-05-04T08:00:31Z</time>
      </trkpt>
      <trkpt lat="38.231107" lon="30.882906">
        <ele>1241.000000</ele>
        <time>2010-05-04T08:00:32Z</time>
      </trkpt>
      <trkpt lat="38.231101" lon="30.882883">
        <ele>1242.000000</ele>
        <time>2010-05-04T08:00:34Z</time>
      </trkpt>
      <trkpt lat="38.231075" lon="30.882870">
        <ele>1242.000000</ele>
        <time>2010-05-04T08:00:36Z</time>
      </trkpt>
      <trkpt lat="38.231072" lon="30.882858">
        <ele>1242.000000</ele>
        <time>2010-05-04T08:00:37Z</time>
      </trkpt>
      <trkpt lat="38.231069" lon="30.882842">
        <ele>1243.000000</ele>
        <time>2010-05-04T08:00:38Z</time>
      </trkpt>
      <trkpt lat="38.231056" lon="30.882842">
        <ele>1242.000000</ele>
        <time>2010-05-04T08:00:39Z</time>
      </trkpt>
      <trkpt lat="38.231034" lon="30.882842">
        <ele>1242.000000</ele>
        <time>2010-05-04T08:00:40Z</time>
      </trkpt>
      <trkpt lat="38.231021" lon="30.882845">
        <ele>1242.000000</ele>
        <time>2010-05-04T08:00:41Z</time>
      </trkpt>
      <trkpt lat="38.231018" lon="30.882838">
        <ele>1243.000000</ele>
        <time>2010-05-04T08:00:42Z</time>
      </trkpt>
      <trkpt lat="38.231008" lon="30.882813">
        <ele>1240.000000</ele>
        <time>2010-05-04T08:00:44Z</time>
      </trkpt>
      <trkpt lat="38.231002" lon="30.882806">
        <ele>1244.000000</ele>
        <time>2010-05-04T08:00:45Z</time>
      </trkpt>
      <trkpt lat="38.231008" lon="30.882778">
        <ele>1242.000000</ele>
        <time>2010-05-04T08:00:46Z</time>
      </trkpt>
      <trkpt lat="38.230995" lon="30.882758">
        <ele>1242.000000</ele>
        <time>2010-05-04T08:00:48Z</time>
      </trkpt>
      <trkpt lat="38.230982" lon="30.882765">
        <ele>1243.000000</ele>
        <time>2010-05-04T08:00:49Z</time>
      </trkpt>
      <trkpt lat="38.230976" lon="30.882758">
        <ele>1242.000000</ele>
        <time>2010-05-04T08:00:50Z</time>
      </trkpt>
      <trkpt lat="38.230970" lon="30.882752">
        <ele>1242.000000</ele>
        <time>2010-05-04T08:00:51Z</time>
      </trkpt>
      <trkpt lat="38.230941" lon="30.882707">
        <ele>1241.000000</ele>
        <time>2010-05-04T08:00:55Z</time>
      </trkpt>
      <trkpt lat="38.230918" lon="30.882717">
        <ele>1241.000000</ele>
        <time>2010-05-04T08:00:56Z</time>
      </trkpt>
      <trkpt lat="38.230915" lon="30.882707">
        <ele>1241.000000</ele>
        <time>2010-05-04T08:00:57Z</time>
      </trkpt>
      <trkpt lat="38.230861" lon="30.882701">
        <ele>1241.000000</ele>
        <time>2010-05-04T08:01:00Z</time>
      </trkpt>
      <trkpt lat="38.230838" lon="30.882688">
        <ele>1242.000000</ele>
        <time>2010-05-04T08:01:02Z</time>
      </trkpt>
      <trkpt lat="38.230832" lon="30.882682">
        <ele>1242.000000</ele>
        <time>2010-05-04T08:01:03Z</time>
      </trkpt>
      <trkpt lat="38.230819" lon="30.882675">
        <ele>1243.000000</ele>
        <time>2010-05-04T08:01:04Z</time>
      </trkpt>
      <trkpt lat="38.230803" lon="30.882662">
        <ele>1241.000000</ele>
        <time>2010-05-04T08:01:06Z</time>
      </trkpt>
      <trkpt lat="38.230810" lon="30.882634">
        <ele>1242.000000</ele>
        <time>2010-05-04T08:01:07Z</time>
      </trkpt>
      <trkpt lat="38.230803" lon="30.882614">
        <ele>1242.000000</ele>
        <time>2010-05-04T08:01:08Z</time>
      </trkpt>
      <trkpt lat="38.230800" lon="30.882595">
        <ele>1242.000000</ele>
        <time>2010-05-04T08:01:09Z</time>
      </trkpt>
      <trkpt lat="38.230790" lon="30.882589">
        <ele>1242.000000</ele>
        <time>2010-05-04T08:01:10Z</time>
      </trkpt>
      <trkpt lat="38.230778" lon="30.882586">
        <ele>1242.000000</ele>
        <time>2010-05-04T08:01:11Z</time>
      </trkpt>
      <trkpt lat="38.230771" lon="30.882570">
        <ele>1242.000000</ele>
        <time>2010-05-04T08:01:12Z</time>
      </trkpt>
      <trkpt lat="38.230710" lon="30.882550">
        <ele>1242.000000</ele>
        <time>2010-05-04T08:01:17Z</time>
      </trkpt>
      <trkpt lat="38.230691" lon="30.882560">
        <ele>1242.000000</ele>
        <time>2010-05-04T08:01:18Z</time>
      </trkpt>
      <trkpt lat="38.230682" lon="30.882554">
        <ele>1242.000000</ele>
        <time>2010-05-04T08:01:19Z</time>
      </trkpt>
      <trkpt lat="38.230672" lon="30.882550">
        <ele>1242.000000</ele>
        <time>2010-05-04T08:01:20Z</time>
      </trkpt>
      <trkpt lat="38.230666" lon="30.882534">
        <ele>1242.000000</ele>
        <time>2010-05-04T08:01:21Z</time>
      </trkpt>
      <trkpt lat="38.230662" lon="30.882518">
        <ele>1242.000000</ele>
        <time>2010-05-04T08:01:22Z</time>
      </trkpt>
      <trkpt lat="38.230662" lon="30.882509">
        <ele>1242.000000</ele>
        <time>2010-05-04T08:01:23Z</time>
      </trkpt>
      <trkpt lat="38.230666" lon="30.882477">
        <ele>1242.000000</ele>
        <time>2010-05-04T08:01:25Z</time>
      </trkpt>
      <trkpt lat="38.230650" lon="30.882474">
        <ele>1241.000000</ele>
        <time>2010-05-04T08:01:27Z</time>
      </trkpt>
      <trkpt lat="38.230637" lon="30.882470">
        <ele>1241.000000</ele>
        <time>2010-05-04T08:01:28Z</time>
      </trkpt>
      <trkpt lat="38.230634" lon="30.882458">
        <ele>1240.000000</ele>
        <time>2010-05-04T08:01:29Z</time>
      </trkpt>
      <trkpt lat="38.230618" lon="30.882448">
        <ele>1241.000000</ele>
        <time>2010-05-04T08:01:30Z</time>
      </trkpt>
      <trkpt lat="38.230595" lon="30.882442">
        <ele>1242.000000</ele>
        <time>2010-05-04T08:01:32Z</time>
      </trkpt>
      <trkpt lat="38.230704" lon="30.882320">
        <ele>1241.000000</ele>
        <time>2010-05-04T08:01:34Z</time>
      </trkpt>
      <trkpt lat="38.230723" lon="30.882285">
        <ele>1242.000000</ele>
        <time>2010-05-04T08:01:35Z</time>
      </trkpt>
      <trkpt lat="38.230720" lon="30.882272">
        <ele>1243.000000</ele>
        <time>2010-05-04T08:01:36Z</time>
      </trkpt>
      <trkpt lat="38.230698" lon="30.882269">
        <ele>1242.000000</ele>
        <time>2010-05-04T08:01:37Z</time>
      </trkpt>
      <trkpt lat="38.230634" lon="30.882298">
        <ele>1242.000000</ele>
        <time>2010-05-04T08:01:38Z</time>
      </trkpt>
      <trkpt lat="38.230621" lon="30.882285">
        <ele>1241.000000</ele>
        <time>2010-05-04T08:01:39Z</time>
      </trkpt>
      <trkpt lat="38.230538" lon="30.882250">
        <ele>1241.000000</ele>
        <time>2010-05-04T08:01:43Z</time>
      </trkpt>
      <trkpt lat="38.230445" lon="30.882282">
        <ele>1241.000000</ele>
        <time>2010-05-04T08:01:45Z</time>
      </trkpt>
      <trkpt lat="38.230426" lon="30.882272">
        <ele>1240.000000</ele>
        <time>2010-05-04T08:01:46Z</time>
      </trkpt>
      <trkpt lat="38.230365" lon="30.882294">
        <ele>1239.000000</ele>
        <time>2010-05-04T08:01:47Z</time>
      </trkpt>
      <trkpt lat="38.230358" lon="30.882285">
        <ele>1240.000000</ele>
        <time>2010-05-04T08:01:48Z</time>
      </trkpt>
      <trkpt lat="38.230352" lon="30.882282">
        <ele>1241.000000</ele>
        <time>2010-05-04T08:01:49Z</time>
      </trkpt>
      <trkpt lat="38.230352" lon="30.882262">
        <ele>1241.000000</ele>
        <time>2010-05-04T08:01:50Z</time>
      </trkpt>
      <trkpt lat="38.230346" lon="30.882227">
        <ele>1241.000000</ele>
        <time>2010-05-04T08:01:52Z</time>
      </trkpt>
      <trkpt lat="38.230346" lon="30.882208">
        <ele>1241.000000</ele>
        <time>2010-05-04T08:01:53Z</time>
      </trkpt>
      <trkpt lat="38.230342" lon="30.882205">
        <ele>1241.000000</ele>
        <time>2010-05-04T08:01:54Z</time>
      </trkpt>
      <trkpt lat="38.230336" lon="30.882202">
        <ele>1240.000000</ele>
        <time>2010-05-04T08:01:55Z</time>
      </trkpt>
      <trkpt lat="38.230304" lon="30.882182">
        <ele>1240.000000</ele>
        <time>2010-05-04T08:02:00Z</time>
      </trkpt>
      <trkpt lat="38.230256" lon="30.882202">
        <ele>1240.000000</ele>
        <time>2010-05-04T08:02:03Z</time>
      </trkpt>
      <trkpt lat="38.230198" lon="30.882243">
        <ele>1239.000000</ele>
        <time>2010-05-04T08:02:04Z</time>
      </trkpt>
      <trkpt lat="38.230202" lon="30.882211">
        <ele>1241.000000</ele>
        <time>2010-05-04T08:02:05Z</time>
      </trkpt>
      <trkpt lat="38.230195" lon="30.882198">
        <ele>1241.000000</ele>
        <time>2010-05-04T08:02:06Z</time>
      </trkpt>
      <trkpt lat="38.230195" lon="30.882186">
        <ele>1240.000000</ele>
        <time>2010-05-04T08:02:07Z</time>
      </trkpt>
      <trkpt lat="38.230179" lon="30.882166">
        <ele>1239.000000</ele>
        <time>2010-05-04T08:02:11Z</time>
      </trkpt>
      <trkpt lat="38.230144" lon="30.882230">
        <ele>1239.000000</ele>
        <time>2010-05-04T08:02:12Z</time>
      </trkpt>
      <trkpt lat="38.230134" lon="30.882230">
        <ele>1239.000000</ele>
        <time>2010-05-04T08:02:13Z</time>
      </trkpt>
      <trkpt lat="38.230128" lon="30.882202">
        <ele>1240.000000</ele>
        <time>2010-05-04T08:02:15Z</time>
      </trkpt>
      <trkpt lat="38.230138" lon="30.882176">
        <ele>1241.000000</ele>
        <time>2010-05-04T08:02:16Z</time>
      </trkpt>
      <trkpt lat="38.230141" lon="30.882154">
        <ele>1241.000000</ele>
        <time>2010-05-04T08:02:17Z</time>
      </trkpt>
      <trkpt lat="38.230128" lon="30.882147">
        <ele>1241.000000</ele>
        <time>2010-05-04T08:02:18Z</time>
      </trkpt>
      <trkpt lat="38.230080" lon="30.882118">
        <ele>1239.000000</ele>
        <time>2010-05-04T08:02:21Z</time>
      </trkpt>
      <trkpt lat="38.230058" lon="30.882077">
        <ele>1240.000000</ele>
        <time>2010-05-04T08:02:23Z</time>
      </trkpt>
      <trkpt lat="38.230026" lon="30.882035">
        <ele>1241.000000</ele>
        <time>2010-05-04T08:02:26Z</time>
      </trkpt>
      <trkpt lat="38.230022" lon="30.882006">
        <ele>1241.000000</ele>
        <time>2010-05-04T08:02:27Z</time>
      </trkpt>
      <trkpt lat="38.230026" lon="30.881968">
        <ele>1239.000000</ele>
        <time>2010-05-04T08:02:28Z</time>
      </trkpt>
      <trkpt lat="38.229997" lon="30.881894">
        <ele>1242.000000</ele>
        <time>2010-05-04T08:02:32Z</time>
      </trkpt>
      <trkpt lat="38.229987" lon="30.881885">
        <ele>1240.000000</ele>
        <time>2010-05-04T08:02:33Z</time>
      </trkpt>
      <trkpt lat="38.229949" lon="30.881955">
        <ele>1239.000000</ele>
        <time>2010-05-04T08:02:35Z</time>
      </trkpt>
      <trkpt lat="38.229939" lon="30.881942">
        <ele>1241.000000</ele>
        <time>2010-05-04T08:02:36Z</time>
      </trkpt>
      <trkpt lat="38.229936" lon="30.881926">
        <ele>1241.000000</ele>
        <time>2010-05-04T08:02:37Z</time>
      </trkpt>
      <trkpt lat="38.229923" lon="30.881914">
        <ele>1241.000000</ele>
        <time>2010-05-04T08:02:38Z</time>
      </trkpt>
      <trkpt lat="38.229898" lon="30.881862">
        <ele>1240.000000</ele>
        <time>2010-05-04T08:02:41Z</time>
      </trkpt>
      <trkpt lat="38.229888" lon="30.881856">
        <ele>1238.000000</ele>
        <time>2010-05-04T08:02:42Z</time>
      </trkpt>
      <trkpt lat="38.229888" lon="30.881830">
        <ele>1239.000000</ele>
        <time>2010-05-04T08:02:43Z</time>
      </trkpt>
      <trkpt lat="38.229882" lon="30.881818">
        <ele>1239.000000</ele>
        <time>2010-05-04T08:02:44Z</time>
      </trkpt>
      <trkpt lat="38.229869" lon="30.881808">
        <ele>1239.000000</ele>
        <time>2010-05-04T08:02:45Z</time>
      </trkpt>
      <trkpt lat="38.229843" lon="30.881789">
        <ele>1240.000000</ele>
        <time>2010-05-04T08:02:48Z</time>
      </trkpt>
      <trkpt lat="38.229827" lon="30.881766">
        <ele>1240.000000</ele>
        <time>2010-05-04T08:02:50Z</time>
      </trkpt>
      <trkpt lat="38.229750" lon="30.881677">
        <ele>1240.000000</ele>
        <time>2010-05-04T08:02:59Z</time>
      </trkpt>
      <trkpt lat="38.229744" lon="30.881664">
        <ele>1239.000000</ele>
        <time>2010-05-04T08:03:00Z</time>
      </trkpt>
      <trkpt lat="38.229731" lon="30.881654">
        <ele>1240.000000</ele>
        <time>2010-05-04T08:03:02Z</time>
      </trkpt>
      <trkpt lat="38.229693" lon="30.881635">
        <ele>1240.000000</ele>
        <time>2010-05-04T08:03:05Z</time>
      </trkpt>
      <trkpt lat="38.229686" lon="30.881622">
        <ele>1239.000000</ele>
        <time>2010-05-04T08:03:06Z</time>
      </trkpt>
      <trkpt lat="38.229680" lon="30.881610">
        <ele>1240.000000</ele>
        <time>2010-05-04T08:03:07Z</time>
      </trkpt>
      <trkpt lat="38.229667" lon="30.881597">
        <ele>1239.000000</ele>
        <time>2010-05-04T08:03:08Z</time>
      </trkpt>
      <trkpt lat="38.229658" lon="30.881594">
        <ele>1239.000000</ele>
        <time>2010-05-04T08:03:09Z</time>
      </trkpt>
      <trkpt lat="38.229638" lon="30.881571">
        <ele>1240.000000</ele>
        <time>2010-05-04T08:03:11Z</time>
      </trkpt>
      <trkpt lat="38.229613" lon="30.881552">
        <ele>1238.000000</ele>
        <time>2010-05-04T08:03:13Z</time>
      </trkpt>
      <trkpt lat="38.229594" lon="30.881530">
        <ele>1239.000000</ele>
        <time>2010-05-04T08:03:15Z</time>
      </trkpt>
      <trkpt lat="38.229584" lon="30.881526">
        <ele>1241.000000</ele>
        <time>2010-05-04T08:03:16Z</time>
      </trkpt>
      <trkpt lat="38.229571" lon="30.881526">
        <ele>1241.000000</ele>
        <time>2010-05-04T08:03:17Z</time>
      </trkpt>
      <trkpt lat="38.229562" lon="30.881526">
        <ele>1241.000000</ele>
        <time>2010-05-04T08:03:18Z</time>
      </trkpt>
      <trkpt lat="38.229546" lon="30.881520">
        <ele>1239.000000</ele>
        <time>2010-05-04T08:03:19Z</time>
      </trkpt>
      <trkpt lat="38.229542" lon="30.881462">
        <ele>1241.000000</ele>
        <time>2010-05-04T08:03:21Z</time>
      </trkpt>
      <trkpt lat="38.229549" lon="30.881382">
        <ele>1239.000000</ele>
        <time>2010-05-04T08:03:24Z</time>
      </trkpt>
      <trkpt lat="38.229546" lon="30.881360">
        <ele>1239.000000</ele>
        <time>2010-05-04T08:03:25Z</time>
      </trkpt>
      <trkpt lat="38.229530" lon="30.881354">
        <ele>1239.000000</ele>
        <time>2010-05-04T08:03:26Z</time>
      </trkpt>
      <trkpt lat="38.229546" lon="30.881302">
        <ele>1242.000000</ele>
        <time>2010-05-04T08:03:27Z</time>
      </trkpt>
      <trkpt lat="38.229533" lon="30.881267">
        <ele>1240.000000</ele>
        <time>2010-05-04T08:03:29Z</time>
      </trkpt>
      <trkpt lat="38.229520" lon="30.881270">
        <ele>1239.000000</ele>
        <time>2010-05-04T08:03:30Z</time>
      </trkpt>
      <trkpt lat="38.229498" lon="30.881251">
        <ele>1241.000000</ele>
        <time>2010-05-04T08:03:32Z</time>
      </trkpt>
      <trkpt lat="38.229485" lon="30.881248">
        <ele>1239.000000</ele>
        <time>2010-05-04T08:03:34Z</time>
      </trkpt>
      <trkpt lat="38.229478" lon="30.881242">
        <ele>1242.000000</ele>
        <time>2010-05-04T08:03:35Z</time>
      </trkpt>
      <trkpt lat="38.229462" lon="30.881235">
        <ele>1241.000000</ele>
        <time>2010-05-04T08:03:36Z</time>
      </trkpt>
      <trkpt lat="38.229450" lon="30.881232">
        <ele>1241.000000</ele>
        <time>2010-05-04T08:03:37Z</time>
      </trkpt>
      <trkpt lat="38.229434" lon="30.881232">
        <ele>1241.000000</ele>
        <time>2010-05-04T08:03:38Z</time>
      </trkpt>
      <trkpt lat="38.229424" lon="30.881229">
        <ele>1240.000000</ele>
        <time>2010-05-04T08:03:39Z</time>
      </trkpt>
      <trkpt lat="38.229408" lon="30.881219">
        <ele>1241.000000</ele>
        <time>2010-05-04T08:03:40Z</time>
      </trkpt>
      <trkpt lat="38.229392" lon="30.881210">
        <ele>1241.000000</ele>
        <time>2010-05-04T08:03:41Z</time>
      </trkpt>
      <trkpt lat="38.229370" lon="30.881210">
        <ele>1240.000000</ele>
        <time>2010-05-04T08:03:42Z</time>
      </trkpt>
      <trkpt lat="38.229354" lon="30.881213">
        <ele>1240.000000</ele>
        <time>2010-05-04T08:03:43Z</time>
      </trkpt>
      <trkpt lat="38.229315" lon="30.881203">
        <ele>1241.000000</ele>
        <time>2010-05-04T08:03:46Z</time>
      </trkpt>
      <trkpt lat="38.229302" lon="30.881181">
        <ele>1241.000000</ele>
        <time>2010-05-04T08:03:48Z</time>
      </trkpt>
      <trkpt lat="38.229290" lon="30.881152">
        <ele>1241.000000</ele>
        <time>2010-05-04T08:03:50Z</time>
      </trkpt>
      <trkpt lat="38.229290" lon="30.881133">
        <ele>1242.000000</ele>
        <time>2010-05-04T08:03:51Z</time>
      </trkpt>
      <trkpt lat="38.229290" lon="30.881110">
        <ele>1241.000000</ele>
        <time>2010-05-04T08:03:52Z</time>
      </trkpt>
      <trkpt lat="38.229286" lon="30.881098">
        <ele>1240.000000</ele>
        <time>2010-05-04T08:03:53Z</time>
      </trkpt>
      <trkpt lat="38.229251" lon="30.881050">
        <ele>1240.000000</ele>
        <time>2010-05-04T08:03:57Z</time>
      </trkpt>
      <trkpt lat="38.229242" lon="30.881046">
        <ele>1240.000000</ele>
        <time>2010-05-04T08:03:58Z</time>
      </trkpt>
      <trkpt lat="38.229226" lon="30.881046">
        <ele>1240.000000</ele>
        <time>2010-05-04T08:03:59Z</time>
      </trkpt>
      <trkpt lat="38.229146" lon="30.881078">
        <ele>1241.000000</ele>
        <time>2010-05-04T08:04:04Z</time>
      </trkpt>
      <trkpt lat="38.229133" lon="30.881078">
        <ele>1239.000000</ele>
        <time>2010-05-04T08:04:05Z</time>
      </trkpt>
      <trkpt lat="38.229101" lon="30.881046">
        <ele>1240.000000</ele>
        <time>2010-05-04T08:04:09Z</time>
      </trkpt>
      <trkpt lat="38.229069" lon="30.881018">
        <ele>1240.000000</ele>
        <time>2010-05-04T08:04:12Z</time>
      </trkpt>
      <trkpt lat="38.229066" lon="30.881002">
        <ele>1241.000000</ele>
        <time>2010-05-04T08:04:13Z</time>
      </trkpt>
      <trkpt lat="38.229069" lon="30.880954">
        <ele>1242.000000</ele>
        <time>2010-05-04T08:04:15Z</time>
      </trkpt>
      <trkpt lat="38.229066" lon="30.880934">
        <ele>1242.000000</ele>
        <time>2010-05-04T08:04:16Z</time>
      </trkpt>
      <trkpt lat="38.229072" lon="30.880906">
        <ele>1242.000000</ele>
        <time>2010-05-04T08:04:17Z</time>
      </trkpt>
      <trkpt lat="38.229072" lon="30.880883">
        <ele>1241.000000</ele>
        <time>2010-05-04T08:04:18Z</time>
      </trkpt>
      <trkpt lat="38.229069" lon="30.880864">
        <ele>1243.000000</ele>
        <time>2010-05-04T08:04:19Z</time>
      </trkpt>
      <trkpt lat="38.229062" lon="30.880854">
        <ele>1241.000000</ele>
        <time>2010-05-04T08:04:20Z</time>
      </trkpt>
      <trkpt lat="38.229053" lon="30.880845">
        <ele>1241.000000</ele>
        <time>2010-05-04T08:04:21Z</time>
      </trkpt>
      <trkpt lat="38.229043" lon="30.880835">
        <ele>1242.000000</ele>
        <time>2010-05-04T08:04:22Z</time>
      </trkpt>
      <trkpt lat="38.229034" lon="30.880826">
        <ele>1242.000000</ele>
        <time>2010-05-04T08:04:23Z</time>
      </trkpt>
      <trkpt lat="38.229027" lon="30.880816">
        <ele>1241.000000</ele>
        <time>2010-05-04T08:04:24Z</time>
      </trkpt>
      <trkpt lat="38.229011" lon="30.880813">
        <ele>1241.000000</ele>
        <time>2010-05-04T08:04:25Z</time>
      </trkpt>
      <trkpt lat="38.229005" lon="30.880778">
        <ele>1241.000000</ele>
        <time>2010-05-04T08:04:27Z</time>
      </trkpt>
      <trkpt lat="38.229005" lon="30.880758">
        <ele>1242.000000</ele>
        <time>2010-05-04T08:04:28Z</time>
      </trkpt>
      <trkpt lat="38.229002" lon="30.880733">
        <ele>1242.000000</ele>
        <time>2010-05-04T08:04:29Z</time>
      </trkpt>
      <trkpt lat="38.228982" lon="30.880739">
        <ele>1242.000000</ele>
        <time>2010-05-04T08:04:30Z</time>
      </trkpt>
      <trkpt lat="38.228938" lon="30.880774">
        <ele>1242.000000</ele>
        <time>2010-05-04T08:04:32Z</time>
      </trkpt>
      <trkpt lat="38.228938" lon="30.880746">
        <ele>1242.000000</ele>
        <time>2010-05-04T08:04:33Z</time>
      </trkpt>
      <trkpt lat="38.228931" lon="30.880723">
        <ele>1241.000000</ele>
        <time>2010-05-04T08:04:34Z</time>
      </trkpt>
      <trkpt lat="38.228912" lon="30.880717">
        <ele>1242.000000</ele>
        <time>2010-05-04T08:04:35Z</time>
      </trkpt>
      <trkpt lat="38.228896" lon="30.880704">
        <ele>1242.000000</ele>
        <time>2010-05-04T08:04:36Z</time>
      </trkpt>
      <trkpt lat="38.228886" lon="30.880698">
        <ele>1242.000000</ele>
        <time>2010-05-04T08:04:37Z</time>
      </trkpt>
      <trkpt lat="38.228867" lon="30.880707">
        <ele>1242.000000</ele>
        <time>2010-05-04T08:04:38Z</time>
      </trkpt>
      <trkpt lat="38.228854" lon="30.880717">
        <ele>1244.000000</ele>
        <time>2010-05-04T08:04:40Z</time>
      </trkpt>
      <trkpt lat="38.228848" lon="30.880714">
        <ele>1241.000000</ele>
        <time>2010-05-04T08:04:41Z</time>
      </trkpt>
      <trkpt lat="38.228851" lon="30.880685">
        <ele>1242.000000</ele>
        <time>2010-05-04T08:04:42Z</time>
      </trkpt>
      <trkpt lat="38.228826" lon="30.880694">
        <ele>1240.000000</ele>
        <time>2010-05-04T08:04:44Z</time>
      </trkpt>
      <trkpt lat="38.228813" lon="30.880691">
        <ele>1242.000000</ele>
        <time>2010-05-04T08:04:45Z</time>
      </trkpt>
      <trkpt lat="38.228784" lon="30.880694">
        <ele>1243.000000</ele>
        <time>2010-05-04T08:04:47Z</time>
      </trkpt>
      <trkpt lat="38.228774" lon="30.880685">
        <ele>1242.000000</ele>
        <time>2010-05-04T08:04:48Z</time>
      </trkpt>
      <trkpt lat="38.228736" lon="30.880637">
        <ele>1242.000000</ele>
        <time>2010-05-04T08:04:52Z</time>
      </trkpt>
      <trkpt lat="38.228650" lon="30.880579">
        <ele>1242.000000</ele>
        <time>2010-05-04T08:04:59Z</time>
      </trkpt>
      <trkpt lat="38.228595" lon="30.880566">
        <ele>1243.000000</ele>
        <time>2010-05-04T08:05:03Z</time>
      </trkpt>
      <trkpt lat="38.228579" lon="30.880566">
        <ele>1241.000000</ele>
        <time>2010-05-04T08:05:04Z</time>
      </trkpt>
      <trkpt lat="38.228528" lon="30.880563">
        <ele>1243.000000</ele>
        <time>2010-05-04T08:05:08Z</time>
      </trkpt>
      <trkpt lat="38.228518" lon="30.880560">
        <ele>1242.000000</ele>
        <time>2010-05-04T08:05:09Z</time>
      </trkpt>
      <trkpt lat="38.228506" lon="30.880557">
        <ele>1242.000000</ele>
        <time>2010-05-04T08:05:10Z</time>
      </trkpt>
      <trkpt lat="38.228470" lon="30.880534">
        <ele>1241.000000</ele>
        <time>2010-05-04T08:05:13Z</time>
      </trkpt>
      <trkpt lat="38.228442" lon="30.880515">
        <ele>1242.000000</ele>
        <time>2010-05-04T08:05:15Z</time>
      </trkpt>
      <trkpt lat="38.228416" lon="30.880499">
        <ele>1242.000000</ele>
        <time>2010-05-04T08:05:17Z</time>
      </trkpt>
      <trkpt lat="38.228413" lon="30.880483">
        <ele>1243.000000</ele>
        <time>2010-05-04T08:05:18Z</time>
      </trkpt>
      <trkpt lat="38.228394" lon="30.880448">
        <ele>1241.000000</ele>
        <time>2010-05-04T08:05:21Z</time>
      </trkpt>
      <trkpt lat="38.228355" lon="30.880429">
        <ele>1242.000000</ele>
        <time>2010-05-04T08:05:23Z</time>
      </trkpt>
      <trkpt lat="38.228326" lon="30.880426">
        <ele>1243.000000</ele>
        <time>2010-05-04T08:05:25Z</time>
      </trkpt>
      <trkpt lat="38.228294" lon="30.880426">
        <ele>1241.000000</ele>
        <time>2010-05-04T08:05:27Z</time>
      </trkpt>
      <trkpt lat="38.228282" lon="30.880419">
        <ele>1243.000000</ele>
        <time>2010-05-04T08:05:28Z</time>
      </trkpt>
      <trkpt lat="38.228275" lon="30.880403">
        <ele>1242.000000</ele>
        <time>2010-05-04T08:05:29Z</time>
      </trkpt>
      <trkpt lat="38.228262" lon="30.880387">
        <ele>1241.000000</ele>
        <time>2010-05-04T08:05:30Z</time>
      </trkpt>
      <trkpt lat="38.228282" lon="30.880330">
        <ele>1241.000000</ele>
        <time>2010-05-04T08:05:31Z</time>
      </trkpt>
      <trkpt lat="38.228256" lon="30.880336">
        <ele>1241.000000</ele>
        <time>2010-05-04T08:05:32Z</time>
      </trkpt>
      <trkpt lat="38.228240" lon="30.880326">
        <ele>1242.000000</ele>
        <time>2010-05-04T08:05:33Z</time>
      </trkpt>
      <trkpt lat="38.228198" lon="30.880323">
        <ele>1241.000000</ele>
        <time>2010-05-04T08:05:36Z</time>
      </trkpt>
      <trkpt lat="38.228157" lon="30.880317">
        <ele>1241.000000</ele>
        <time>2010-05-04T08:05:38Z</time>
      </trkpt>
      <trkpt lat="38.228150" lon="30.880301">
        <ele>1242.000000</ele>
        <time>2010-05-04T08:05:39Z</time>
      </trkpt>
      <trkpt lat="38.228141" lon="30.880291">
        <ele>1242.000000</ele>
        <time>2010-05-04T08:05:40Z</time>
      </trkpt>
      <trkpt lat="38.228163" lon="30.880205">
        <ele>1241.000000</ele>
        <time>2010-05-04T08:05:42Z</time>
      </trkpt>
      <trkpt lat="38.228144" lon="30.880221">
        <ele>1242.000000</ele>
        <time>2010-05-04T08:05:43Z</time>
      </trkpt>
      <trkpt lat="38.228115" lon="30.880234">
        <ele>1242.000000</ele>
        <time>2010-05-04T08:05:45Z</time>
      </trkpt>
      <trkpt lat="38.228099" lon="30.880234">
        <ele>1242.000000</ele>
        <time>2010-05-04T08:05:46Z</time>
      </trkpt>
      <trkpt lat="38.228090" lon="30.880230">
        <ele>1242.000000</ele>
        <time>2010-05-04T08:05:47Z</time>
      </trkpt>
      <trkpt lat="38.228090" lon="30.880205">
        <ele>1242.000000</ele>
        <time>2010-05-04T08:05:48Z</time>
      </trkpt>
      <trkpt lat="38.228061" lon="30.880176">
        <ele>1240.000000</ele>
        <time>2010-05-04T08:05:52Z</time>
      </trkpt>
      <trkpt lat="38.228048" lon="30.880176">
        <ele>1240.000000</ele>
        <time>2010-05-04T08:05:53Z</time>
      </trkpt>
      <trkpt lat="38.228070" lon="30.880106">
        <ele>1240.000000</ele>
        <time>2010-05-04T08:05:56Z</time>
      </trkpt>
      <trkpt lat="38.228035" lon="30.880096">
        <ele>1241.000000</ele>
        <time>2010-05-04T08:05:59Z</time>
      </trkpt>
      <trkpt lat="38.228022" lon="30.880086">
        <ele>1242.000000</ele>
        <time>2010-05-04T08:06:00Z</time>
      </trkpt>
      <trkpt lat="38.228016" lon="30.880077">
        <ele>1242.000000</ele>
        <time>2010-05-04T08:06:01Z</time>
      </trkpt>
      <trkpt lat="38.228010" lon="30.880054">
        <ele>1242.000000</ele>
        <time>2010-05-04T08:06:03Z</time>
      </trkpt>
      <trkpt lat="38.228010" lon="30.880042">
        <ele>1242.000000</ele>
        <time>2010-05-04T08:06:04Z</time>
      </trkpt>
      <trkpt lat="38.228013" lon="30.880013">
        <ele>1242.000000</ele>
        <time>2010-05-04T08:06:05Z</time>
      </trkpt>
      <trkpt lat="38.228019" lon="30.879958">
        <ele>1243.000000</ele>
        <time>2010-05-04T08:06:07Z</time>
      </trkpt>
      <trkpt lat="38.228010" lon="30.879920">
        <ele>1240.000000</ele>
        <time>2010-05-04T08:06:08Z</time>
      </trkpt>
      <trkpt lat="38.228003" lon="30.879910">
        <ele>1242.000000</ele>
        <time>2010-05-04T08:06:09Z</time>
      </trkpt>
      <trkpt lat="38.227994" lon="30.879901">
        <ele>1243.000000</ele>
        <time>2010-05-04T08:06:10Z</time>
      </trkpt>
      <trkpt lat="38.227958" lon="30.879882">
        <ele>1243.000000</ele>
        <time>2010-05-04T08:06:12Z</time>
      </trkpt>
      <trkpt lat="38.227949" lon="30.879840">
        <ele>1240.000000</ele>
        <time>2010-05-04T08:06:15Z</time>
      </trkpt>
      <trkpt lat="38.227939" lon="30.879827">
        <ele>1241.000000</ele>
        <time>2010-05-04T08:06:16Z</time>
      </trkpt>
      <trkpt lat="38.227930" lon="30.879811">
        <ele>1241.000000</ele>
        <time>2010-05-04T08:06:18Z</time>
      </trkpt>
      <trkpt lat="38.227920" lon="30.879798">
        <ele>1242.000000</ele>
        <time>2010-05-04T08:06:19Z</time>
      </trkpt>
      <trkpt lat="38.227843" lon="30.879734">
        <ele>1241.000000</ele>
        <time>2010-05-04T08:06:28Z</time>
      </trkpt>
      <trkpt lat="38.227837" lon="30.879706">
        <ele>1244.000000</ele>
        <time>2010-05-04T08:06:30Z</time>
      </trkpt>
      <trkpt lat="38.227802" lon="30.879654">
        <ele>1244.000000</ele>
        <time>2010-05-04T08:06:52Z</time>
      </trkpt>
      <trkpt lat="38.227776" lon="30.879619">
        <ele>1242.000000</ele>
        <time>2010-05-04T08:06:56Z</time>
      </trkpt>
      <trkpt lat="38.227760" lon="30.879597">
        <ele>1241.000000</ele>
        <time>2010-05-04T08:06:58Z</time>
      </trkpt>
      <trkpt lat="38.227754" lon="30.879552">
        <ele>1242.000000</ele>
        <time>2010-05-04T08:07:00Z</time>
      </trkpt>
      <trkpt lat="38.227741" lon="30.879530">
        <ele>1241.000000</ele>
        <time>2010-05-04T08:07:01Z</time>
      </trkpt>
      <trkpt lat="38.227734" lon="30.879507">
        <ele>1240.000000</ele>
        <time>2010-05-04T08:07:02Z</time>
      </trkpt>
      <trkpt lat="38.227734" lon="30.879478">
        <ele>1242.000000</ele>
        <time>2010-05-04T08:07:03Z</time>
      </trkpt>
      <trkpt lat="38.227715" lon="30.879446">
        <ele>1242.000000</ele>
        <time>2010-05-04T08:07:05Z</time>
      </trkpt>
      <trkpt lat="38.227706" lon="30.879437">
        <ele>1241.000000</ele>
        <time>2010-05-04T08:07:06Z</time>
      </trkpt>
      <trkpt lat="38.227696" lon="30.879430">
        <ele>1241.000000</ele>
        <time>2010-05-04T08:07:07Z</time>
      </trkpt>
      <trkpt lat="38.227683" lon="30.879434">
        <ele>1242.000000</ele>
        <time>2010-05-04T08:07:08Z</time>
      </trkpt>
      <trkpt lat="38.227680" lon="30.879421">
        <ele>1243.000000</ele>
        <time>2010-05-04T08:07:09Z</time>
      </trkpt>
      <trkpt lat="38.227677" lon="30.879408">
        <ele>1243.000000</ele>
        <time>2010-05-04T08:07:10Z</time>
      </trkpt>
      <trkpt lat="38.227667" lon="30.879386">
        <ele>1242.000000</ele>
        <time>2010-05-04T08:07:12Z</time>
      </trkpt>
      <trkpt lat="38.227638" lon="30.879405">
        <ele>1242.000000</ele>
        <time>2010-05-04T08:07:15Z</time>
      </trkpt>
      <trkpt lat="38.227632" lon="30.879395">
        <ele>1243.000000</ele>
        <time>2010-05-04T08:07:16Z</time>
      </trkpt>
      <trkpt lat="38.227619" lon="30.879382">
        <ele>1242.000000</ele>
        <time>2010-05-04T08:07:17Z</time>
      </trkpt>
      <trkpt lat="38.227616" lon="30.879366">
        <ele>1241.000000</ele>
        <time>2010-05-04T08:07:18Z</time>
      </trkpt>
      <trkpt lat="38.227613" lon="30.879354">
        <ele>1240.000000</ele>
        <time>2010-05-04T08:07:19Z</time>
      </trkpt>
      <trkpt lat="38.227603" lon="30.879341">
        <ele>1242.000000</ele>
        <time>2010-05-04T08:07:20Z</time>
      </trkpt>
      <trkpt lat="38.227600" lon="30.879315">
        <ele>1241.000000</ele>
        <time>2010-05-04T08:07:21Z</time>
      </trkpt>
      <trkpt lat="38.227587" lon="30.879312">
        <ele>1241.000000</ele>
        <time>2010-05-04T08:07:22Z</time>
      </trkpt>
      <trkpt lat="38.227568" lon="30.879274">
        <ele>1242.000000</ele>
        <time>2010-05-04T08:07:24Z</time>
      </trkpt>
      <trkpt lat="38.227520" lon="30.879174">
        <ele>1240.000000</ele>
        <time>2010-05-04T08:07:34Z</time>
      </trkpt>
      <trkpt lat="38.227514" lon="30.879162">
        <ele>1243.000000</ele>
        <time>2010-05-04T08:07:35Z</time>
      </trkpt>
      <trkpt lat="38.227501" lon="30.879126">
        <ele>1242.000000</ele>
        <time>2010-05-04T08:07:38Z</time>
      </trkpt>
      <trkpt lat="38.227475" lon="30.879104">
        <ele>1240.000000</ele>
        <time>2010-05-04T08:07:41Z</time>
      </trkpt>
      <trkpt lat="38.227478" lon="30.879078">
        <ele>1241.000000</ele>
        <time>2010-05-04T08:07:42Z</time>
      </trkpt>
      <trkpt lat="38.227453" lon="30.879059">
        <ele>1241.000000</ele>
        <time>2010-05-04T08:07:44Z</time>
      </trkpt>
      <trkpt lat="38.227446" lon="30.879046">
        <ele>1241.000000</ele>
        <time>2010-05-04T08:07:45Z</time>
      </trkpt>
      <trkpt lat="38.227427" lon="30.879040">
        <ele>1244.000000</ele>
        <time>2010-05-04T08:07:47Z</time>
      </trkpt>
      <trkpt lat="38.227424" lon="30.879027">
        <ele>1243.000000</ele>
        <time>2010-05-04T08:07:48Z</time>
      </trkpt>
      <trkpt lat="38.227427" lon="30.878982">
        <ele>1243.000000</ele>
        <time>2010-05-04T08:07:50Z</time>
      </trkpt>
      <trkpt lat="38.227408" lon="30.878890">
        <ele>1242.000000</ele>
        <time>2010-05-04T08:07:55Z</time>
      </trkpt>
      <trkpt lat="38.227366" lon="30.878899">
        <ele>1241.000000</ele>
        <time>2010-05-04T08:07:57Z</time>
      </trkpt>
      <trkpt lat="38.227318" lon="30.878899">
        <ele>1243.000000</ele>
        <time>2010-05-04T08:08:01Z</time>
      </trkpt>
      <trkpt lat="38.227309" lon="30.878883">
        <ele>1242.000000</ele>
        <time>2010-05-04T08:08:02Z</time>
      </trkpt>
      <trkpt lat="38.227302" lon="30.878864">
        <ele>1242.000000</ele>
        <time>2010-05-04T08:08:03Z</time>
      </trkpt>
      <trkpt lat="38.227296" lon="30.878848">
        <ele>1241.000000</ele>
        <time>2010-05-04T08:08:04Z</time>
      </trkpt>
      <trkpt lat="38.227283" lon="30.878861">
        <ele>1242.000000</ele>
        <time>2010-05-04T08:08:05Z</time>
      </trkpt>
      <trkpt lat="38.227277" lon="30.878848">
        <ele>1242.000000</ele>
        <time>2010-05-04T08:08:06Z</time>
      </trkpt>
      <trkpt lat="38.227267" lon="30.878826">
        <ele>1242.000000</ele>
        <time>2010-05-04T08:08:08Z</time>
      </trkpt>
      <trkpt lat="38.227242" lon="30.878797">
        <ele>1242.000000</ele>
        <time>2010-05-04T08:08:10Z</time>
      </trkpt>
      <trkpt lat="38.227238" lon="30.878787">
        <ele>1245.000000</ele>
        <time>2010-05-04T08:08:11Z</time>
      </trkpt>
      <trkpt lat="38.227229" lon="30.878758">
        <ele>1240.000000</ele>
        <time>2010-05-04T08:08:13Z</time>
      </trkpt>
      <trkpt lat="38.227187" lon="30.878755">
        <ele>1244.000000</ele>
        <time>2010-05-04T08:08:15Z</time>
      </trkpt>
      <trkpt lat="38.227174" lon="30.878746">
        <ele>1242.000000</ele>
        <time>2010-05-04T08:08:16Z</time>
      </trkpt>
      <trkpt lat="38.227158" lon="30.878701">
        <ele>1242.000000</ele>
        <time>2010-05-04T08:08:19Z</time>
      </trkpt>
      <trkpt lat="38.227158" lon="30.878653">
        <ele>1244.000000</ele>
        <time>2010-05-04T08:08:21Z</time>
      </trkpt>
      <trkpt lat="38.227146" lon="30.878637">
        <ele>1242.000000</ele>
        <time>2010-05-04T08:08:22Z</time>
      </trkpt>
      <trkpt lat="38.227136" lon="30.878630">
        <ele>1241.000000</ele>
        <time>2010-05-04T08:08:23Z</time>
      </trkpt>
      <trkpt lat="38.227117" lon="30.878624">
        <ele>1241.000000</ele>
        <time>2010-05-04T08:08:24Z</time>
      </trkpt>
      <trkpt lat="38.227088" lon="30.878608">
        <ele>1242.000000</ele>
        <time>2010-05-04T08:08:26Z</time>
      </trkpt>
      <trkpt lat="38.227040" lon="30.878573">
        <ele>1241.000000</ele>
        <time>2010-05-04T08:08:29Z</time>
      </trkpt>
      <trkpt lat="38.227043" lon="30.878531">
        <ele>1242.000000</ele>
        <time>2010-05-04T08:08:30Z</time>
      </trkpt>
      <trkpt lat="38.227005" lon="30.878528">
        <ele>1241.000000</ele>
        <time>2010-05-04T08:08:31Z</time>
      </trkpt>
      <trkpt lat="38.226982" lon="30.878480">
        <ele>1242.000000</ele>
        <time>2010-05-04T08:08:33Z</time>
      </trkpt>
      <trkpt lat="38.226976" lon="30.878432">
        <ele>1242.000000</ele>
        <time>2010-05-04T08:08:36Z</time>
      </trkpt>
      <trkpt lat="38.226963" lon="30.878429">
        <ele>1243.000000</ele>
        <time>2010-05-04T08:08:37Z</time>
      </trkpt>
      <trkpt lat="38.226922" lon="30.878410">
        <ele>1243.000000</ele>
        <time>2010-05-04T08:08:40Z</time>
      </trkpt>
      <trkpt lat="38.226893" lon="30.878400">
        <ele>1243.000000</ele>
        <time>2010-05-04T08:08:42Z</time>
      </trkpt>
      <trkpt lat="38.226867" lon="30.878387">
        <ele>1242.000000</ele>
        <time>2010-05-04T08:08:44Z</time>
      </trkpt>
      <trkpt lat="38.226864" lon="30.878371">
        <ele>1241.000000</ele>
        <time>2010-05-04T08:08:45Z</time>
      </trkpt>
      <trkpt lat="38.226848" lon="30.878349">
        <ele>1241.000000</ele>
        <time>2010-05-04T08:08:47Z</time>
      </trkpt>
      <trkpt lat="38.226838" lon="30.878346">
        <ele>1242.000000</ele>
        <time>2010-05-04T08:08:48Z</time>
      </trkpt>
      <trkpt lat="38.226832" lon="30.878330">
        <ele>1241.000000</ele>
        <time>2010-05-04T08:08:49Z</time>
      </trkpt>
      <trkpt lat="38.226826" lon="30.878320">
        <ele>1241.000000</ele>
        <time>2010-05-04T08:08:50Z</time>
      </trkpt>
      <trkpt lat="38.226806" lon="30.878310">
        <ele>1241.000000</ele>
        <time>2010-05-04T08:08:52Z</time>
      </trkpt>
      <trkpt lat="38.226806" lon="30.878288">
        <ele>1240.000000</ele>
        <time>2010-05-04T08:08:53Z</time>
      </trkpt>
      <trkpt lat="38.226778" lon="30.878288">
        <ele>1240.000000</ele>
        <time>2010-05-04T08:08:54Z</time>
      </trkpt>
      <trkpt lat="38.226752" lon="30.878294">
        <ele>1240.000000</ele>
        <time>2010-05-04T08:08:55Z</time>
      </trkpt>
      <trkpt lat="38.226730" lon="30.878301">
        <ele>1240.000000</ele>
        <time>2010-05-04T08:08:56Z</time>
      </trkpt>
      <trkpt lat="38.226723" lon="30.878298">
        <ele>1240.000000</ele>
        <time>2010-05-04T08:08:57Z</time>
      </trkpt>
      <trkpt lat="38.226720" lon="30.878285">
        <ele>1241.000000</ele>
        <time>2010-05-04T08:08:58Z</time>
      </trkpt>
      <trkpt lat="38.226714" lon="30.878272">
        <ele>1242.000000</ele>
        <time>2010-05-04T08:08:59Z</time>
      </trkpt>
      <trkpt lat="38.226707" lon="30.878230">
        <ele>1243.000000</ele>
        <time>2010-05-04T08:09:01Z</time>
      </trkpt>
      <trkpt lat="38.226704" lon="30.878214">
        <ele>1240.000000</ele>
        <time>2010-05-04T08:09:02Z</time>
      </trkpt>
      <trkpt lat="38.226698" lon="30.878214">
        <ele>1242.000000</ele>
        <time>2010-05-04T08:09:03Z</time>
      </trkpt>
      <trkpt lat="38.226685" lon="30.878214">
        <ele>1242.000000</ele>
        <time>2010-05-04T08:09:04Z</time>
      </trkpt>
      <trkpt lat="38.226682" lon="30.878182">
        <ele>1241.000000</ele>
        <time>2010-05-04T08:09:09Z</time>
      </trkpt>
      <trkpt lat="38.226646" lon="30.878198">
        <ele>1242.000000</ele>
        <time>2010-05-04T08:09:12Z</time>
      </trkpt>
      <trkpt lat="38.226634" lon="30.878202">
        <ele>1241.000000</ele>
        <time>2010-05-04T08:09:13Z</time>
      </trkpt>
      <trkpt lat="38.226634" lon="30.878179">
        <ele>1240.000000</ele>
        <time>2010-05-04T08:09:15Z</time>
      </trkpt>
      <trkpt lat="38.226627" lon="30.878173">
        <ele>1242.000000</ele>
        <time>2010-05-04T08:09:16Z</time>
      </trkpt>
      <trkpt lat="38.226614" lon="30.878125">
        <ele>1242.000000</ele>
        <time>2010-05-04T08:09:20Z</time>
      </trkpt>
      <trkpt lat="38.226630" lon="30.878083">
        <ele>1242.000000</ele>
        <time>2010-05-04T08:09:22Z</time>
      </trkpt>
      <trkpt lat="38.226602" lon="30.878090">
        <ele>1242.000000</ele>
        <time>2010-05-04T08:09:23Z</time>
      </trkpt>
      <trkpt lat="38.226579" lon="30.878080">
        <ele>1242.000000</ele>
        <time>2010-05-04T08:09:24Z</time>
      </trkpt>
      <trkpt lat="38.226515" lon="30.878086">
        <ele>1242.000000</ele>
        <time>2010-05-04T08:09:26Z</time>
      </trkpt>
      <trkpt lat="38.226506" lon="30.878074">
        <ele>1241.000000</ele>
        <time>2010-05-04T08:09:28Z</time>
      </trkpt>
      <trkpt lat="38.226502" lon="30.878067">
        <ele>1241.000000</ele>
        <time>2010-05-04T08:09:29Z</time>
      </trkpt>
      <trkpt lat="38.226499" lon="30.878058">
        <ele>1242.000000</ele>
        <time>2010-05-04T08:09:30Z</time>
      </trkpt>
      <trkpt lat="38.226493" lon="30.878035">
        <ele>1242.000000</ele>
        <time>2010-05-04T08:09:31Z</time>
      </trkpt>
      <trkpt lat="38.226480" lon="30.877997">
        <ele>1242.000000</ele>
        <time>2010-05-04T08:09:33Z</time>
      </trkpt>
      <trkpt lat="38.226470" lon="30.877981">
        <ele>1242.000000</ele>
        <time>2010-05-04T08:09:34Z</time>
      </trkpt>
      <trkpt lat="38.226467" lon="30.877965">
        <ele>1242.000000</ele>
        <time>2010-05-04T08:09:35Z</time>
      </trkpt>
      <trkpt lat="38.226461" lon="30.877946">
        <ele>1240.000000</ele>
        <time>2010-05-04T08:09:37Z</time>
      </trkpt>
      <trkpt lat="38.226448" lon="30.877926">
        <ele>1240.000000</ele>
        <time>2010-05-04T08:09:38Z</time>
      </trkpt>
      <trkpt lat="38.226422" lon="30.877904">
        <ele>1242.000000</ele>
        <time>2010-05-04T08:09:41Z</time>
      </trkpt>
      <trkpt lat="38.226406" lon="30.877898">
        <ele>1241.000000</ele>
        <time>2010-05-04T08:09:42Z</time>
      </trkpt>
      <trkpt lat="38.226394" lon="30.877891">
        <ele>1241.000000</ele>
        <time>2010-05-04T08:09:43Z</time>
      </trkpt>
      <trkpt lat="38.226387" lon="30.877875">
        <ele>1241.000000</ele>
        <time>2010-05-04T08:09:44Z</time>
      </trkpt>
      <trkpt lat="38.226371" lon="30.877834">
        <ele>1242.000000</ele>
        <time>2010-05-04T08:09:48Z</time>
      </trkpt>
      <trkpt lat="38.226384" lon="30.877766">
        <ele>1242.000000</ele>
        <time>2010-05-04T08:09:49Z</time>
      </trkpt>
      <trkpt lat="38.226384" lon="30.877722">
        <ele>1242.000000</ele>
        <time>2010-05-04T08:09:51Z</time>
      </trkpt>
      <trkpt lat="38.226406" lon="30.877686">
        <ele>1242.000000</ele>
        <time>2010-05-04T08:09:52Z</time>
      </trkpt>
      <trkpt lat="38.226406" lon="30.877670">
        <ele>1242.000000</ele>
        <time>2010-05-04T08:09:53Z</time>
      </trkpt>
      <trkpt lat="38.226394" lon="30.877658">
        <ele>1242.000000</ele>
        <time>2010-05-04T08:09:54Z</time>
      </trkpt>
      <trkpt lat="38.226410" lon="30.877626">
        <ele>1241.000000</ele>
        <time>2010-05-04T08:09:56Z</time>
      </trkpt>
      <trkpt lat="38.226403" lon="30.877610">
        <ele>1241.000000</ele>
        <time>2010-05-04T08:09:57Z</time>
      </trkpt>
      <trkpt lat="38.226384" lon="30.877600">
        <ele>1242.000000</ele>
        <time>2010-05-04T08:09:59Z</time>
      </trkpt>
      <trkpt lat="38.226362" lon="30.877603">
        <ele>1242.000000</ele>
        <time>2010-05-04T08:10:00Z</time>
      </trkpt>
      <trkpt lat="38.226330" lon="30.877610">
        <ele>1241.000000</ele>
        <time>2010-05-04T08:10:01Z</time>
      </trkpt>
      <trkpt lat="38.226285" lon="30.877603">
        <ele>1242.000000</ele>
        <time>2010-05-04T08:10:03Z</time>
      </trkpt>
      <trkpt lat="38.226282" lon="30.877578">
        <ele>1240.000000</ele>
        <time>2010-05-04T08:10:04Z</time>
      </trkpt>
      <trkpt lat="38.226272" lon="30.877568">
        <ele>1242.000000</ele>
        <time>2010-05-04T08:10:05Z</time>
      </trkpt>
      <trkpt lat="38.226256" lon="30.877565">
        <ele>1240.000000</ele>
        <time>2010-05-04T08:10:06Z</time>
      </trkpt>
      <trkpt lat="38.226224" lon="30.877555">
        <ele>1241.000000</ele>
        <time>2010-05-04T08:10:08Z</time>
      </trkpt>
      <trkpt lat="38.226211" lon="30.877552">
        <ele>1242.000000</ele>
        <time>2010-05-04T08:10:09Z</time>
      </trkpt>
      <trkpt lat="38.226205" lon="30.877536">
        <ele>1241.000000</ele>
        <time>2010-05-04T08:10:10Z</time>
      </trkpt>
      <trkpt lat="38.226202" lon="30.877504">
        <ele>1241.000000</ele>
        <time>2010-05-04T08:10:12Z</time>
      </trkpt>
      <trkpt lat="38.226202" lon="30.877494">
        <ele>1240.000000</ele>
        <time>2010-05-04T08:10:13Z</time>
      </trkpt>
      <trkpt lat="38.226182" lon="30.877491">
        <ele>1240.000000</ele>
        <time>2010-05-04T08:10:14Z</time>
      </trkpt>
      <trkpt lat="38.226173" lon="30.877504">
        <ele>1240.000000</ele>
        <time>2010-05-04T08:10:15Z</time>
      </trkpt>
      <trkpt lat="38.226163" lon="30.877498">
        <ele>1241.000000</ele>
        <time>2010-05-04T08:10:16Z</time>
      </trkpt>
      <trkpt lat="38.226150" lon="30.877456">
        <ele>1240.000000</ele>
        <time>2010-05-04T08:10:19Z</time>
      </trkpt>
      <trkpt lat="38.226147" lon="30.877437">
        <ele>1241.000000</ele>
        <time>2010-05-04T08:10:20Z</time>
      </trkpt>
      <trkpt lat="38.226147" lon="30.877408">
        <ele>1241.000000</ele>
        <time>2010-05-04T08:10:21Z</time>
      </trkpt>
      <trkpt lat="38.226134" lon="30.877398">
        <ele>1239.000000</ele>
        <time>2010-05-04T08:10:22Z</time>
      </trkpt>
      <trkpt lat="38.226102" lon="30.877392">
        <ele>1241.000000</ele>
        <time>2010-05-04T08:10:24Z</time>
      </trkpt>
      <trkpt lat="38.226086" lon="30.877360">
        <ele>1241.000000</ele>
        <time>2010-05-04T08:10:26Z</time>
      </trkpt>
      <trkpt lat="38.226083" lon="30.877344">
        <ele>1243.000000</ele>
        <time>2010-05-04T08:10:27Z</time>
      </trkpt>
      <trkpt lat="38.226067" lon="30.877309">
        <ele>1242.000000</ele>
        <time>2010-05-04T08:10:29Z</time>
      </trkpt>
      <trkpt lat="38.226064" lon="30.877286">
        <ele>1243.000000</ele>
        <time>2010-05-04T08:10:30Z</time>
      </trkpt>
      <trkpt lat="38.226058" lon="30.877267">
        <ele>1243.000000</ele>
        <time>2010-05-04T08:10:31Z</time>
      </trkpt>
      <trkpt lat="38.226064" lon="30.877238">
        <ele>1241.000000</ele>
        <time>2010-05-04T08:10:32Z</time>
      </trkpt>
      <trkpt lat="38.226038" lon="30.877248">
        <ele>1241.000000</ele>
        <time>2010-05-04T08:10:33Z</time>
      </trkpt>
      <trkpt lat="38.226026" lon="30.877238">
        <ele>1241.000000</ele>
        <time>2010-05-04T08:10:34Z</time>
      </trkpt>
      <trkpt lat="38.226016" lon="30.877238">
        <ele>1242.000000</ele>
        <time>2010-05-04T08:10:35Z</time>
      </trkpt>
      <trkpt lat="38.225997" lon="30.877251">
        <ele>1241.000000</ele>
        <time>2010-05-04T08:10:36Z</time>
      </trkpt>
      <trkpt lat="38.225974" lon="30.877251">
        <ele>1239.000000</ele>
        <time>2010-05-04T08:10:37Z</time>
      </trkpt>
      <trkpt lat="38.225974" lon="30.877242">
        <ele>1240.000000</ele>
        <time>2010-05-04T08:10:38Z</time>
      </trkpt>
      <trkpt lat="38.225958" lon="30.877229">
        <ele>1240.000000</ele>
        <time>2010-05-04T08:10:39Z</time>
      </trkpt>
      <trkpt lat="38.225926" lon="30.877206">
        <ele>1240.000000</ele>
        <time>2010-05-04T08:10:42Z</time>
      </trkpt>
      <trkpt lat="38.225917" lon="30.877194">
        <ele>1241.000000</ele>
        <time>2010-05-04T08:10:43Z</time>
      </trkpt>
      <trkpt lat="38.225930" lon="30.877146">
        <ele>1240.000000</ele>
        <time>2010-05-04T08:10:44Z</time>
      </trkpt>
      <trkpt lat="38.225926" lon="30.877120">
        <ele>1240.000000</ele>
        <time>2010-05-04T08:10:45Z</time>
      </trkpt>
      <trkpt lat="38.225923" lon="30.877110">
        <ele>1240.000000</ele>
        <time>2010-05-04T08:10:46Z</time>
      </trkpt>
      <trkpt lat="38.225891" lon="30.877098">
        <ele>1240.000000</ele>
        <time>2010-05-04T08:10:48Z</time>
      </trkpt>
      <trkpt lat="38.225885" lon="30.877088">
        <ele>1240.000000</ele>
        <time>2010-05-04T08:10:49Z</time>
      </trkpt>
      <trkpt lat="38.225878" lon="30.877056">
        <ele>1240.000000</ele>
        <time>2010-05-04T08:10:50Z</time>
      </trkpt>
      <trkpt lat="38.225869" lon="30.877050">
        <ele>1240.000000</ele>
        <time>2010-05-04T08:10:51Z</time>
      </trkpt>
      <trkpt lat="38.225840" lon="30.877053">
        <ele>1238.000000</ele>
        <time>2010-05-04T08:10:53Z</time>
      </trkpt>
      <trkpt lat="38.225834" lon="30.877046">
        <ele>1239.000000</ele>
        <time>2010-05-04T08:10:54Z</time>
      </trkpt>
      <trkpt lat="38.225808" lon="30.877040">
        <ele>1239.000000</ele>
        <time>2010-05-04T08:10:57Z</time>
      </trkpt>
      <trkpt lat="38.225795" lon="30.877011">
        <ele>1238.000000</ele>
        <time>2010-05-04T08:11:00Z</time>
      </trkpt>
      <trkpt lat="38.225789" lon="30.877002">
        <ele>1238.000000</ele>
        <time>2010-05-04T08:11:01Z</time>
      </trkpt>
      <trkpt lat="38.225760" lon="30.876954">
        <ele>1239.000000</ele>
        <time>2010-05-04T08:11:05Z</time>
      </trkpt>
      <trkpt lat="38.225757" lon="30.876941">
        <ele>1238.000000</ele>
        <time>2010-05-04T08:11:06Z</time>
      </trkpt>
      <trkpt lat="38.225750" lon="30.876931">
        <ele>1238.000000</ele>
        <time>2010-05-04T08:11:07Z</time>
      </trkpt>
      <trkpt lat="38.225750" lon="30.876906">
        <ele>1237.000000</ele>
        <time>2010-05-04T08:11:09Z</time>
      </trkpt>
      <trkpt lat="38.225728" lon="30.876909">
        <ele>1239.000000</ele>
        <time>2010-05-04T08:11:11Z</time>
      </trkpt>
      <trkpt lat="38.225690" lon="30.876899">
        <ele>1237.000000</ele>
        <time>2010-05-04T08:11:14Z</time>
      </trkpt>
      <trkpt lat="38.225677" lon="30.876896">
        <ele>1237.000000</ele>
        <time>2010-05-04T08:11:15Z</time>
      </trkpt>
      <trkpt lat="38.225638" lon="30.876896">
        <ele>1238.000000</ele>
        <time>2010-05-04T08:11:17Z</time>
      </trkpt>
      <trkpt lat="38.225632" lon="30.876877">
        <ele>1239.000000</ele>
        <time>2010-05-04T08:11:18Z</time>
      </trkpt>
      <trkpt lat="38.225616" lon="30.876880">
        <ele>1239.000000</ele>
        <time>2010-05-04T08:11:19Z</time>
      </trkpt>
      <trkpt lat="38.225606" lon="30.876874">
        <ele>1239.000000</ele>
        <time>2010-05-04T08:11:20Z</time>
      </trkpt>
      <trkpt lat="38.225568" lon="30.876845">
        <ele>1239.000000</ele>
        <time>2010-05-04T08:11:23Z</time>
      </trkpt>
      <trkpt lat="38.225558" lon="30.876810">
        <ele>1239.000000</ele>
        <time>2010-05-04T08:11:25Z</time>
      </trkpt>
      <trkpt lat="38.225558" lon="30.876790">
        <ele>1237.000000</ele>
        <time>2010-05-04T08:11:26Z</time>
      </trkpt>
      <trkpt lat="38.225555" lon="30.876774">
        <ele>1237.000000</ele>
        <time>2010-05-04T08:11:27Z</time>
      </trkpt>
      <trkpt lat="38.225549" lon="30.876746">
        <ele>1238.000000</ele>
        <time>2010-05-04T08:11:28Z</time>
      </trkpt>
      <trkpt lat="38.225517" lon="30.876714">
        <ele>1238.000000</ele>
        <time>2010-05-04T08:11:31Z</time>
      </trkpt>
      <trkpt lat="38.225478" lon="30.876701">
        <ele>1238.000000</ele>
        <time>2010-05-04T08:11:33Z</time>
      </trkpt>
      <trkpt lat="38.225478" lon="30.876678">
        <ele>1238.000000</ele>
        <time>2010-05-04T08:11:34Z</time>
      </trkpt>
      <trkpt lat="38.225475" lon="30.876656">
        <ele>1238.000000</ele>
        <time>2010-05-04T08:11:35Z</time>
      </trkpt>
      <trkpt lat="38.225469" lon="30.876630">
        <ele>1240.000000</ele>
        <time>2010-05-04T08:11:37Z</time>
      </trkpt>
      <trkpt lat="38.225469" lon="30.876598">
        <ele>1239.000000</ele>
        <time>2010-05-04T08:11:38Z</time>
      </trkpt>
      <trkpt lat="38.225475" lon="30.876566">
        <ele>1239.000000</ele>
        <time>2010-05-04T08:11:39Z</time>
      </trkpt>
      <trkpt lat="38.225472" lon="30.876541">
        <ele>1240.000000</ele>
        <time>2010-05-04T08:11:41Z</time>
      </trkpt>
      <trkpt lat="38.225443" lon="30.876486">
        <ele>1239.000000</ele>
        <time>2010-05-04T08:11:44Z</time>
      </trkpt>
      <trkpt lat="38.225430" lon="30.876422">
        <ele>1240.000000</ele>
        <time>2010-05-04T08:11:48Z</time>
      </trkpt>
      <trkpt lat="38.225434" lon="30.876406">
        <ele>1238.000000</ele>
        <time>2010-05-04T08:11:49Z</time>
      </trkpt>
      <trkpt lat="38.225453" lon="30.876368">
        <ele>1238.000000</ele>
        <time>2010-05-04T08:11:50Z</time>
      </trkpt>
      <trkpt lat="38.225418" lon="30.876326">
        <ele>1240.000000</ele>
        <time>2010-05-04T08:11:54Z</time>
      </trkpt>
      <trkpt lat="38.225421" lon="30.876291">
        <ele>1240.000000</ele>
        <time>2010-05-04T08:11:55Z</time>
      </trkpt>
      <trkpt lat="38.225421" lon="30.876266">
        <ele>1239.000000</ele>
        <time>2010-05-04T08:11:56Z</time>
      </trkpt>
      <trkpt lat="38.225411" lon="30.876259">
        <ele>1239.000000</ele>
        <time>2010-05-04T08:11:57Z</time>
      </trkpt>
      <trkpt lat="38.225389" lon="30.876266">
        <ele>1240.000000</ele>
        <time>2010-05-04T08:11:58Z</time>
      </trkpt>
      <trkpt lat="38.225370" lon="30.876259">
        <ele>1240.000000</ele>
        <time>2010-05-04T08:11:59Z</time>
      </trkpt>
      <trkpt lat="38.225360" lon="30.876227">
        <ele>1241.000000</ele>
        <time>2010-05-04T08:12:00Z</time>
      </trkpt>
      <trkpt lat="38.225350" lon="30.876230">
        <ele>1241.000000</ele>
        <time>2010-05-04T08:12:01Z</time>
      </trkpt>
      <trkpt lat="38.225309" lon="30.876218">
        <ele>1240.000000</ele>
        <time>2010-05-04T08:12:03Z</time>
      </trkpt>
      <trkpt lat="38.225290" lon="30.876214">
        <ele>1240.000000</ele>
        <time>2010-05-04T08:12:04Z</time>
      </trkpt>
      <trkpt lat="38.225264" lon="30.876195">
        <ele>1239.000000</ele>
        <time>2010-05-04T08:12:06Z</time>
      </trkpt>
      <trkpt lat="38.225258" lon="30.876186">
        <ele>1241.000000</ele>
        <time>2010-05-04T08:12:07Z</time>
      </trkpt>
      <trkpt lat="38.225254" lon="30.876176">
        <ele>1241.000000</ele>
        <time>2010-05-04T08:12:08Z</time>
      </trkpt>
      <trkpt lat="38.225238" lon="30.876160">
        <ele>1240.000000</ele>
        <time>2010-05-04T08:12:10Z</time>
      </trkpt>
      <trkpt lat="38.225242" lon="30.876112">
        <ele>1243.000000</ele>
        <time>2010-05-04T08:12:13Z</time>
      </trkpt>
      <trkpt lat="38.225242" lon="30.876090">
        <ele>1243.000000</ele>
        <time>2010-05-04T08:12:14Z</time>
      </trkpt>
      <trkpt lat="38.225210" lon="30.876019">
        <ele>1241.000000</ele>
        <time>2010-05-04T08:12:20Z</time>
      </trkpt>
      <trkpt lat="38.225194" lon="30.876010">
        <ele>1241.000000</ele>
        <time>2010-05-04T08:12:21Z</time>
      </trkpt>
      <trkpt lat="38.225181" lon="30.875949">
        <ele>1241.000000</ele>
        <time>2010-05-04T08:12:25Z</time>
      </trkpt>
      <trkpt lat="38.225171" lon="30.875930">
        <ele>1242.000000</ele>
        <time>2010-05-04T08:12:26Z</time>
      </trkpt>
      <trkpt lat="38.225155" lon="30.875942">
        <ele>1241.000000</ele>
        <time>2010-05-04T08:12:27Z</time>
      </trkpt>
      <trkpt lat="38.225136" lon="30.875939">
        <ele>1241.000000</ele>
        <time>2010-05-04T08:12:30Z</time>
      </trkpt>
      <trkpt lat="38.225130" lon="30.875923">
        <ele>1243.000000</ele>
        <time>2010-05-04T08:12:31Z</time>
      </trkpt>
      <trkpt lat="38.225130" lon="30.875904">
        <ele>1242.000000</ele>
        <time>2010-05-04T08:12:32Z</time>
      </trkpt>
      <trkpt lat="38.225114" lon="30.875843">
        <ele>1243.000000</ele>
        <time>2010-05-04T08:12:35Z</time>
      </trkpt>
      <trkpt lat="38.225094" lon="30.875827">
        <ele>1243.000000</ele>
        <time>2010-05-04T08:12:37Z</time>
      </trkpt>
      <trkpt lat="38.225066" lon="30.875830">
        <ele>1243.000000</ele>
        <time>2010-05-04T08:12:39Z</time>
      </trkpt>
      <trkpt lat="38.225059" lon="30.875811">
        <ele>1242.000000</ele>
        <time>2010-05-04T08:12:40Z</time>
      </trkpt>
      <trkpt lat="38.225034" lon="30.875789">
        <ele>1243.000000</ele>
        <time>2010-05-04T08:12:42Z</time>
      </trkpt>
      <trkpt lat="38.225024" lon="30.875766">
        <ele>1242.000000</ele>
        <time>2010-05-04T08:12:43Z</time>
      </trkpt>
      <trkpt lat="38.225014" lon="30.875757">
        <ele>1242.000000</ele>
        <time>2010-05-04T08:12:44Z</time>
      </trkpt>
      <trkpt lat="38.224976" lon="30.875731">
        <ele>1242.000000</ele>
        <time>2010-05-04T08:12:47Z</time>
      </trkpt>
      <trkpt lat="38.224966" lon="30.875725">
        <ele>1244.000000</ele>
        <time>2010-05-04T08:12:48Z</time>
      </trkpt>
      <trkpt lat="38.224950" lon="30.875709">
        <ele>1243.000000</ele>
        <time>2010-05-04T08:12:53Z</time>
      </trkpt>
      <trkpt lat="38.224912" lon="30.875715">
        <ele>1243.000000</ele>
        <time>2010-05-04T08:12:55Z</time>
      </trkpt>
      <trkpt lat="38.224893" lon="30.875706">
        <ele>1242.000000</ele>
        <time>2010-05-04T08:12:57Z</time>
      </trkpt>
      <trkpt lat="38.224784" lon="30.875747">
        <ele>1242.000000</ele>
        <time>2010-05-04T08:13:02Z</time>
      </trkpt>
      <trkpt lat="38.224762" lon="30.875750">
        <ele>1243.000000</ele>
        <time>2010-05-04T08:13:03Z</time>
      </trkpt>
      <trkpt lat="38.224742" lon="30.875760">
        <ele>1242.000000</ele>
        <time>2010-05-04T08:13:05Z</time>
      </trkpt>
      <trkpt lat="38.224723" lon="30.875766">
        <ele>1243.000000</ele>
        <time>2010-05-04T08:13:06Z</time>
      </trkpt>
      <trkpt lat="38.224627" lon="30.875802">
        <ele>1242.000000</ele>
        <time>2010-05-04T08:13:10Z</time>
      </trkpt>
      <trkpt lat="38.224614" lon="30.875802">
        <ele>1241.000000</ele>
        <time>2010-05-04T08:13:11Z</time>
      </trkpt>
      <trkpt lat="38.224598" lon="30.875802">
        <ele>1242.000000</ele>
        <time>2010-05-04T08:13:12Z</time>
      </trkpt>
      <trkpt lat="38.224586" lon="30.875802">
        <ele>1241.000000</ele>
        <time>2010-05-04T08:13:13Z</time>
      </trkpt>
      <trkpt lat="38.224573" lon="30.875798">
        <ele>1242.000000</ele>
        <time>2010-05-04T08:13:14Z</time>
      </trkpt>
      <trkpt lat="38.224573" lon="30.875779">
        <ele>1241.000000</ele>
        <time>2010-05-04T08:13:15Z</time>
      </trkpt>
      <trkpt lat="38.224579" lon="30.875770">
        <ele>1242.000000</ele>
        <time>2010-05-04T08:13:16Z</time>
      </trkpt>
      <trkpt lat="38.224595" lon="30.875747">
        <ele>1242.000000</ele>
        <time>2010-05-04T08:13:17Z</time>
      </trkpt>
      <trkpt lat="38.224602" lon="30.875731">
        <ele>1242.000000</ele>
        <time>2010-05-04T08:13:18Z</time>
      </trkpt>
      <trkpt lat="38.224589" lon="30.875699">
        <ele>1242.000000</ele>
        <time>2010-05-04T08:13:20Z</time>
      </trkpt>
      <trkpt lat="38.224573" lon="30.875677">
        <ele>1241.000000</ele>
        <time>2010-05-04T08:13:22Z</time>
      </trkpt>
      <trkpt lat="38.224557" lon="30.875677">
        <ele>1242.000000</ele>
        <time>2010-05-04T08:13:23Z</time>
      </trkpt>
      <trkpt lat="38.224528" lon="30.875680">
        <ele>1242.000000</ele>
        <time>2010-05-04T08:13:25Z</time>
      </trkpt>
      <trkpt lat="38.224518" lon="30.875680">
        <ele>1242.000000</ele>
        <time>2010-05-04T08:13:26Z</time>
      </trkpt>
      <trkpt lat="38.224483" lon="30.875683">
        <ele>1242.000000</ele>
        <time>2010-05-04T08:13:27Z</time>
      </trkpt>
      <trkpt lat="38.224467" lon="30.875683">
        <ele>1244.000000</ele>
        <time>2010-05-04T08:13:28Z</time>
      </trkpt>
      <trkpt lat="38.224448" lon="30.875674">
        <ele>1242.000000</ele>
        <time>2010-05-04T08:13:30Z</time>
      </trkpt>
      <trkpt lat="38.224442" lon="30.875667">
        <ele>1242.000000</ele>
        <time>2010-05-04T08:13:31Z</time>
      </trkpt>
      <trkpt lat="38.224429" lon="30.875664">
        <ele>1243.000000</ele>
        <time>2010-05-04T08:13:32Z</time>
      </trkpt>
      <trkpt lat="38.224416" lon="30.875648">
        <ele>1243.000000</ele>
        <time>2010-05-04T08:13:33Z</time>
      </trkpt>
      <trkpt lat="38.224400" lon="30.875603">
        <ele>1241.000000</ele>
        <time>2010-05-04T08:13:36Z</time>
      </trkpt>
      <trkpt lat="38.224381" lon="30.875597">
        <ele>1243.000000</ele>
        <time>2010-05-04T08:13:37Z</time>
      </trkpt>
      <trkpt lat="38.224374" lon="30.875590">
        <ele>1242.000000</ele>
        <time>2010-05-04T08:13:38Z</time>
      </trkpt>
      <trkpt lat="38.224365" lon="30.875578">
        <ele>1243.000000</ele>
        <time>2010-05-04T08:13:39Z</time>
      </trkpt>
      <trkpt lat="38.224336" lon="30.875558">
        <ele>1243.000000</ele>
        <time>2010-05-04T08:13:42Z</time>
      </trkpt>
      <trkpt lat="38.224291" lon="30.875568">
        <ele>1242.000000</ele>
        <time>2010-05-04T08:13:44Z</time>
      </trkpt>
      <trkpt lat="38.224269" lon="30.875571">
        <ele>1243.000000</ele>
        <time>2010-05-04T08:13:45Z</time>
      </trkpt>
      <trkpt lat="38.224250" lon="30.875578">
        <ele>1242.000000</ele>
        <time>2010-05-04T08:13:46Z</time>
      </trkpt>
      <trkpt lat="38.224250" lon="30.875568">
        <ele>1241.000000</ele>
        <time>2010-05-04T08:13:47Z</time>
      </trkpt>
      <trkpt lat="38.224250" lon="30.875549">
        <ele>1241.000000</ele>
        <time>2010-05-04T08:13:48Z</time>
      </trkpt>
      <trkpt lat="38.224282" lon="30.875469">
        <ele>1240.000000</ele>
        <time>2010-05-04T08:13:49Z</time>
      </trkpt>
      <trkpt lat="38.224282" lon="30.875427">
        <ele>1242.000000</ele>
        <time>2010-05-04T08:13:51Z</time>
      </trkpt>
      <trkpt lat="38.224269" lon="30.875414">
        <ele>1242.000000</ele>
        <time>2010-05-04T08:13:52Z</time>
      </trkpt>
      <trkpt lat="38.224269" lon="30.875402">
        <ele>1242.000000</ele>
        <time>2010-05-04T08:13:53Z</time>
      </trkpt>
      <trkpt lat="38.224240" lon="30.875392">
        <ele>1243.000000</ele>
        <time>2010-05-04T08:13:55Z</time>
      </trkpt>
      <trkpt lat="38.224211" lon="30.875379">
        <ele>1243.000000</ele>
        <time>2010-05-04T08:13:57Z</time>
      </trkpt>
      <trkpt lat="38.224192" lon="30.875350">
        <ele>1242.000000</ele>
        <time>2010-05-04T08:13:59Z</time>
      </trkpt>
      <trkpt lat="38.224176" lon="30.875360">
        <ele>1241.000000</ele>
        <time>2010-05-04T08:14:00Z</time>
      </trkpt>
      <trkpt lat="38.224160" lon="30.875354">
        <ele>1243.000000</ele>
        <time>2010-05-04T08:14:01Z</time>
      </trkpt>
      <trkpt lat="38.224150" lon="30.875347">
        <ele>1241.000000</ele>
        <time>2010-05-04T08:14:02Z</time>
      </trkpt>
      <trkpt lat="38.224141" lon="30.875344">
        <ele>1242.000000</ele>
        <time>2010-05-04T08:14:03Z</time>
      </trkpt>
      <trkpt lat="38.224138" lon="30.875331">
        <ele>1242.000000</ele>
        <time>2010-05-04T08:14:04Z</time>
      </trkpt>
      <trkpt lat="38.224118" lon="30.875347">
        <ele>1242.000000</ele>
        <time>2010-05-04T08:14:05Z</time>
      </trkpt>
      <trkpt lat="38.224099" lon="30.875350">
        <ele>1242.000000</ele>
        <time>2010-05-04T08:14:06Z</time>
      </trkpt>
      <trkpt lat="38.224090" lon="30.875334">
        <ele>1241.000000</ele>
        <time>2010-05-04T08:14:07Z</time>
      </trkpt>
      <trkpt lat="38.224086" lon="30.875325">
        <ele>1243.000000</ele>
        <time>2010-05-04T08:14:08Z</time>
      </trkpt>
      <trkpt lat="38.224080" lon="30.875290">
        <ele>1242.000000</ele>
        <time>2010-05-04T08:14:10Z</time>
      </trkpt>
      <trkpt lat="38.224042" lon="30.875315">
        <ele>1243.000000</ele>
        <time>2010-05-04T08:14:12Z</time>
      </trkpt>
      <trkpt lat="38.224070" lon="30.875267">
        <ele>1242.000000</ele>
        <time>2010-05-04T08:14:15Z</time>
      </trkpt>
      <trkpt lat="38.224070" lon="30.875254">
        <ele>1243.000000</ele>
        <time>2010-05-04T08:14:16Z</time>
      </trkpt>
      <trkpt lat="38.224061" lon="30.875245">
        <ele>1243.000000</ele>
        <time>2010-05-04T08:14:17Z</time>
      </trkpt>
      <trkpt lat="38.224038" lon="30.875245">
        <ele>1243.000000</ele>
        <time>2010-05-04T08:14:18Z</time>
      </trkpt>
      <trkpt lat="38.224022" lon="30.875238">
        <ele>1242.000000</ele>
        <time>2010-05-04T08:14:19Z</time>
      </trkpt>
      <trkpt lat="38.224000" lon="30.875232">
        <ele>1241.000000</ele>
        <time>2010-05-04T08:14:21Z</time>
      </trkpt>
      <trkpt lat="38.223990" lon="30.875219">
        <ele>1240.000000</ele>
        <time>2010-05-04T08:14:22Z</time>
      </trkpt>
      <trkpt lat="38.223981" lon="30.875213">
        <ele>1240.000000</ele>
        <time>2010-05-04T08:14:23Z</time>
      </trkpt>
      <trkpt lat="38.223958" lon="30.875165">
        <ele>1241.000000</ele>
        <time>2010-05-04T08:14:26Z</time>
      </trkpt>
      <trkpt lat="38.223930" lon="30.875149">
        <ele>1242.000000</ele>
        <time>2010-05-04T08:14:28Z</time>
      </trkpt>
      <trkpt lat="38.223910" lon="30.875146">
        <ele>1241.000000</ele>
        <time>2010-05-04T08:14:29Z</time>
      </trkpt>
      <trkpt lat="38.223882" lon="30.875152">
        <ele>1241.000000</ele>
        <time>2010-05-04T08:14:30Z</time>
      </trkpt>
      <trkpt lat="38.223872" lon="30.875133">
        <ele>1242.000000</ele>
        <time>2010-05-04T08:14:31Z</time>
      </trkpt>
      <trkpt lat="38.223834" lon="30.875114">
        <ele>1243.000000</ele>
        <time>2010-05-04T08:14:33Z</time>
      </trkpt>
      <trkpt lat="38.223827" lon="30.875075">
        <ele>1241.000000</ele>
        <time>2010-05-04T08:14:35Z</time>
      </trkpt>
      <trkpt lat="38.223827" lon="30.875056">
        <ele>1241.000000</ele>
        <time>2010-05-04T08:14:36Z</time>
      </trkpt>
      <trkpt lat="38.223814" lon="30.875050">
        <ele>1241.000000</ele>
        <time>2010-05-04T08:14:38Z</time>
      </trkpt>
      <trkpt lat="38.223824" lon="30.875030">
        <ele>1242.000000</ele>
        <time>2010-05-04T08:14:39Z</time>
      </trkpt>
      <trkpt lat="38.223821" lon="30.875034">
        <ele>1241.000000</ele>
        <time>2010-05-04T08:14:40Z</time>
      </trkpt>
      <trkpt lat="38.223805" lon="30.875037">
        <ele>1240.000000</ele>
        <time>2010-05-04T08:14:41Z</time>
      </trkpt>
      <trkpt lat="38.223744" lon="30.875085">
        <ele>1241.000000</ele>
        <time>2010-05-04T08:14:42Z</time>
      </trkpt>
      <trkpt lat="38.223715" lon="30.875098">
        <ele>1241.000000</ele>
        <time>2010-05-04T08:14:43Z</time>
      </trkpt>
      <trkpt lat="38.223683" lon="30.875075">
        <ele>1241.000000</ele>
        <time>2010-05-04T08:14:46Z</time>
      </trkpt>
      <trkpt lat="38.223686" lon="30.875062">
        <ele>1242.000000</ele>
        <time>2010-05-04T08:14:47Z</time>
      </trkpt>
      <trkpt lat="38.223670" lon="30.875037">
        <ele>1240.000000</ele>
        <time>2010-05-04T08:14:49Z</time>
      </trkpt>
      <trkpt lat="38.223667" lon="30.875024">
        <ele>1241.000000</ele>
        <time>2010-05-04T08:14:50Z</time>
      </trkpt>
      <trkpt lat="38.223664" lon="30.875018">
        <ele>1239.000000</ele>
        <time>2010-05-04T08:14:51Z</time>
      </trkpt>
      <trkpt lat="38.223664" lon="30.874957">
        <ele>1239.000000</ele>
        <time>2010-05-04T08:14:53Z</time>
      </trkpt>
      <trkpt lat="38.223651" lon="30.874883">
        <ele>1240.000000</ele>
        <time>2010-05-04T08:14:56Z</time>
      </trkpt>
      <trkpt lat="38.223667" lon="30.874832">
        <ele>1241.000000</ele>
        <time>2010-05-04T08:14:57Z</time>
      </trkpt>
      <trkpt lat="38.223664" lon="30.874810">
        <ele>1239.000000</ele>
        <time>2010-05-04T08:14:58Z</time>
      </trkpt>
      <trkpt lat="38.223651" lon="30.874797">
        <ele>1239.000000</ele>
        <time>2010-05-04T08:14:59Z</time>
      </trkpt>
      <trkpt lat="38.223645" lon="30.874755">
        <ele>1238.000000</ele>
        <time>2010-05-04T08:15:01Z</time>
      </trkpt>
      <trkpt lat="38.223645" lon="30.874730">
        <ele>1238.000000</ele>
        <time>2010-05-04T08:15:02Z</time>
      </trkpt>
      <trkpt lat="38.223642" lon="30.874710">
        <ele>1238.000000</ele>
        <time>2010-05-04T08:15:03Z</time>
      </trkpt>
      <trkpt lat="38.223635" lon="30.874698">
        <ele>1238.000000</ele>
        <time>2010-05-04T08:15:04Z</time>
      </trkpt>
      <trkpt lat="38.223626" lon="30.874691">
        <ele>1237.000000</ele>
        <time>2010-05-04T08:15:05Z</time>
      </trkpt>
      <trkpt lat="38.223610" lon="30.874666">
        <ele>1240.000000</ele>
        <time>2010-05-04T08:15:08Z</time>
      </trkpt>
      <trkpt lat="38.223590" lon="30.874640">
        <ele>1236.000000</ele>
        <time>2010-05-04T08:15:10Z</time>
      </trkpt>
      <trkpt lat="38.223574" lon="30.874637">
        <ele>1238.000000</ele>
        <time>2010-05-04T08:15:11Z</time>
      </trkpt>
      <trkpt lat="38.223555" lon="30.874650">
        <ele>1237.000000</ele>
        <time>2010-05-04T08:15:12Z</time>
      </trkpt>
      <trkpt lat="38.223542" lon="30.874646">
        <ele>1238.000000</ele>
        <time>2010-05-04T08:15:13Z</time>
      </trkpt>
      <trkpt lat="38.223530" lon="30.874643">
        <ele>1237.000000</ele>
        <time>2010-05-04T08:15:14Z</time>
      </trkpt>
      <trkpt lat="38.223510" lon="30.874643">
        <ele>1238.000000</ele>
        <time>2010-05-04T08:15:15Z</time>
      </trkpt>
      <trkpt lat="38.223491" lon="30.874643">
        <ele>1239.000000</ele>
        <time>2010-05-04T08:15:16Z</time>
      </trkpt>
      <trkpt lat="38.223488" lon="30.874627">
        <ele>1238.000000</ele>
        <time>2010-05-04T08:15:17Z</time>
      </trkpt>
      <trkpt lat="38.223453" lon="30.874573">
        <ele>1238.000000</ele>
        <time>2010-05-04T08:15:22Z</time>
      </trkpt>
      <trkpt lat="38.223456" lon="30.874512">
        <ele>1236.000000</ele>
        <time>2010-05-04T08:15:26Z</time>
      </trkpt>
      <trkpt lat="38.223446" lon="30.874451">
        <ele>1238.000000</ele>
        <time>2010-05-04T08:15:30Z</time>
      </trkpt>
      <trkpt lat="38.223427" lon="30.874458">
        <ele>1236.000000</ele>
        <time>2010-05-04T08:15:31Z</time>
      </trkpt>
      <trkpt lat="38.223405" lon="30.874480">
        <ele>1236.000000</ele>
        <time>2010-05-04T08:15:32Z</time>
      </trkpt>
      <trkpt lat="38.223338" lon="30.874506">
        <ele>1237.000000</ele>
        <time>2010-05-04T08:15:34Z</time>
      </trkpt>
      <trkpt lat="38.223306" lon="30.874531">
        <ele>1237.000000</ele>
        <time>2010-05-04T08:15:36Z</time>
      </trkpt>
      <trkpt lat="38.223293" lon="30.874525">
        <ele>1239.000000</ele>
        <time>2010-05-04T08:15:38Z</time>
      </trkpt>
      <trkpt lat="38.223306" lon="30.874486">
        <ele>1238.000000</ele>
        <time>2010-05-04T08:15:39Z</time>
      </trkpt>
      <trkpt lat="38.223309" lon="30.874387">
        <ele>1239.000000</ele>
        <time>2010-05-04T08:15:48Z</time>
      </trkpt>
      <trkpt lat="38.223309" lon="30.874371">
        <ele>1239.000000</ele>
        <time>2010-05-04T08:15:49Z</time>
      </trkpt>
      <trkpt lat="38.223286" lon="30.874339">
        <ele>1240.000000</ele>
        <time>2010-05-04T08:15:53Z</time>
      </trkpt>
      <trkpt lat="38.223277" lon="30.874278">
        <ele>1238.000000</ele>
        <time>2010-05-04T08:15:57Z</time>
      </trkpt>
      <trkpt lat="38.223258" lon="30.874234">
        <ele>1240.000000</ele>
        <time>2010-05-04T08:16:00Z</time>
      </trkpt>
      <trkpt lat="38.223229" lon="30.874230">
        <ele>1238.000000</ele>
        <time>2010-05-04T08:16:03Z</time>
      </trkpt>
      <trkpt lat="38.223226" lon="30.874211">
        <ele>1239.000000</ele>
        <time>2010-05-04T08:16:04Z</time>
      </trkpt>
      <trkpt lat="38.223213" lon="30.874198">
        <ele>1239.000000</ele>
        <time>2010-05-04T08:16:05Z</time>
      </trkpt>
      <trkpt lat="38.223203" lon="30.874189">
        <ele>1239.000000</ele>
        <time>2010-05-04T08:16:06Z</time>
      </trkpt>
      <trkpt lat="38.223194" lon="30.874160">
        <ele>1240.000000</ele>
        <time>2010-05-04T08:16:08Z</time>
      </trkpt>
      <trkpt lat="38.223184" lon="30.874160">
        <ele>1238.000000</ele>
        <time>2010-05-04T08:16:09Z</time>
      </trkpt>
      <trkpt lat="38.223178" lon="30.874160">
        <ele>1238.000000</ele>
        <time>2010-05-04T08:16:10Z</time>
      </trkpt>
      <trkpt lat="38.223174" lon="30.874163">
        <ele>1239.000000</ele>
        <time>2010-05-04T08:16:11Z</time>
      </trkpt>
      <trkpt lat="38.223155" lon="30.874154">
        <ele>1239.000000</ele>
        <time>2010-05-04T08:16:13Z</time>
      </trkpt>
      <trkpt lat="38.223117" lon="30.874160">
        <ele>1240.000000</ele>
        <time>2010-05-04T08:16:20Z</time>
      </trkpt>
      <trkpt lat="38.223123" lon="30.874099">
        <ele>1241.000000</ele>
        <time>2010-05-04T08:16:24Z</time>
      </trkpt>
      <trkpt lat="38.223104" lon="30.874099">
        <ele>1241.000000</ele>
        <time>2010-05-04T08:16:31Z</time>
      </trkpt>
      <trkpt lat="38.223085" lon="30.874109">
        <ele>1242.000000</ele>
        <time>2010-05-04T08:16:32Z</time>
      </trkpt>
      <trkpt lat="38.223075" lon="30.874109">
        <ele>1241.000000</ele>
        <time>2010-05-04T08:16:33Z</time>
      </trkpt>
      <trkpt lat="38.223066" lon="30.874115">
        <ele>1241.000000</ele>
        <time>2010-05-04T08:16:34Z</time>
      </trkpt>
      <trkpt lat="38.223030" lon="30.874099">
        <ele>1242.000000</ele>
        <time>2010-05-04T08:16:37Z</time>
      </trkpt>
      <trkpt lat="38.223014" lon="30.874106">
        <ele>1241.000000</ele>
        <time>2010-05-04T08:16:38Z</time>
      </trkpt>
      <trkpt lat="38.223005" lon="30.874102">
        <ele>1240.000000</ele>
        <time>2010-05-04T08:16:39Z</time>
      </trkpt>
      <trkpt lat="38.222995" lon="30.874083">
        <ele>1240.000000</ele>
        <time>2010-05-04T08:16:40Z</time>
      </trkpt>
      <trkpt lat="38.222989" lon="30.874074">
        <ele>1241.000000</ele>
        <time>2010-05-04T08:16:41Z</time>
      </trkpt>
      <trkpt lat="38.222970" lon="30.874064">
        <ele>1240.000000</ele>
        <time>2010-05-04T08:16:43Z</time>
      </trkpt>
      <trkpt lat="38.222925" lon="30.874080">
        <ele>1241.000000</ele>
        <time>2010-05-04T08:16:46Z</time>
      </trkpt>
      <trkpt lat="38.222957" lon="30.874045">
        <ele>1242.000000</ele>
        <time>2010-05-04T08:16:50Z</time>
      </trkpt>
      <trkpt lat="38.222954" lon="30.874035">
        <ele>1241.000000</ele>
        <time>2010-05-04T08:16:55Z</time>
      </trkpt>
      <trkpt lat="38.222938" lon="30.874016">
        <ele>1243.000000</ele>
        <time>2010-05-04T08:16:57Z</time>
      </trkpt>
      <trkpt lat="38.222918" lon="30.873997">
        <ele>1241.000000</ele>
        <time>2010-05-04T08:17:01Z</time>
      </trkpt>
      <trkpt lat="38.222925" lon="30.873990">
        <ele>1243.000000</ele>
        <time>2010-05-04T08:17:03Z</time>
      </trkpt>
      <trkpt lat="38.222896" lon="30.873994">
        <ele>1243.000000</ele>
        <time>2010-05-04T08:17:23Z</time>
      </trkpt>
      <trkpt lat="38.222870" lon="30.873974">
        <ele>1241.000000</ele>
        <time>2010-05-04T08:17:25Z</time>
      </trkpt>
      <trkpt lat="38.222810" lon="30.873971">
        <ele>1242.000000</ele>
        <time>2010-05-04T08:17:28Z</time>
      </trkpt>
      <trkpt lat="38.222797" lon="30.873936">
        <ele>1240.000000</ele>
        <time>2010-05-04T08:17:30Z</time>
      </trkpt>
      <trkpt lat="38.222790" lon="30.873933">
        <ele>1241.000000</ele>
        <time>2010-05-04T08:17:31Z</time>
      </trkpt>
      <trkpt lat="38.222787" lon="30.873933">
        <ele>1241.000000</ele>
        <time>2010-05-04T08:17:32Z</time>
      </trkpt>
      <trkpt lat="38.222778" lon="30.873923">
        <ele>1241.000000</ele>
        <time>2010-05-04T08:17:33Z</time>
      </trkpt>
      <trkpt lat="38.222768" lon="30.873930">
        <ele>1241.000000</ele>
        <time>2010-05-04T08:17:34Z</time>
      </trkpt>
      <trkpt lat="38.222752" lon="30.873933">
        <ele>1240.000000</ele>
        <time>2010-05-04T08:17:35Z</time>
      </trkpt>
      <trkpt lat="38.222736" lon="30.873949">
        <ele>1242.000000</ele>
        <time>2010-05-04T08:17:39Z</time>
      </trkpt>
      <trkpt lat="38.222739" lon="30.873971">
        <ele>1242.000000</ele>
        <time>2010-05-04T08:18:13Z</time>
      </trkpt>
      <trkpt lat="38.222742" lon="30.873965">
        <ele>1242.000000</ele>
        <time>2010-05-04T08:18:15Z</time>
      </trkpt>
      <trkpt lat="38.222742" lon="30.873965">
        <ele>1242.000000</ele>
        <time>2010-05-04T08:18:16Z</time>
      </trkpt>
      <trkpt lat="38.222656" lon="30.874032">
        <ele>1241.000000</ele>
        <time>2010-05-04T08:30:42Z</time>
      </trkpt>
      <trkpt lat="38.222650" lon="30.874013">
        <ele>1239.000000</ele>
        <time>2010-05-04T08:30:43Z</time>
      </trkpt>
      <trkpt lat="38.222637" lon="30.873978">
        <ele>1240.000000</ele>
        <time>2010-05-04T08:30:47Z</time>
      </trkpt>
      <trkpt lat="38.222595" lon="30.873936">
        <ele>1239.000000</ele>
        <time>2010-05-04T08:30:54Z</time>
      </trkpt>
      <trkpt lat="38.222528" lon="30.873856">
        <ele>1240.000000</ele>
        <time>2010-05-04T08:31:05Z</time>
      </trkpt>
      <trkpt lat="38.222496" lon="30.873846">
        <ele>1240.000000</ele>
        <time>2010-05-04T08:31:09Z</time>
      </trkpt>
      <trkpt lat="38.222458" lon="30.873859">
        <ele>1241.000000</ele>
        <time>2010-05-04T08:31:11Z</time>
      </trkpt>
      <trkpt lat="38.222438" lon="30.873846">
        <ele>1240.000000</ele>
        <time>2010-05-04T08:31:13Z</time>
      </trkpt>
      <trkpt lat="38.222435" lon="30.873827">
        <ele>1240.000000</ele>
        <time>2010-05-04T08:31:16Z</time>
      </trkpt>
      <trkpt lat="38.222429" lon="30.873818">
        <ele>1239.000000</ele>
        <time>2010-05-04T08:31:17Z</time>
      </trkpt>
      <trkpt lat="38.222355" lon="30.873795">
        <ele>1238.000000</ele>
        <time>2010-05-04T08:31:21Z</time>
      </trkpt>
      <trkpt lat="38.222342" lon="30.873792">
        <ele>1241.000000</ele>
        <time>2010-05-04T08:31:22Z</time>
      </trkpt>
      <trkpt lat="38.222330" lon="30.873789">
        <ele>1241.000000</ele>
        <time>2010-05-04T08:31:27Z</time>
      </trkpt>
      <trkpt lat="38.222314" lon="30.873766">
        <ele>1241.000000</ele>
        <time>2010-05-04T08:31:47Z</time>
      </trkpt>
      <trkpt lat="38.222298" lon="30.873766">
        <ele>1240.000000</ele>
        <time>2010-05-04T08:31:48Z</time>
      </trkpt>
      <trkpt lat="38.222275" lon="30.873773">
        <ele>1240.000000</ele>
        <time>2010-05-04T08:31:49Z</time>
      </trkpt>
      <trkpt lat="38.222259" lon="30.873763">
        <ele>1240.000000</ele>
        <time>2010-05-04T08:31:51Z</time>
      </trkpt>
      <trkpt lat="38.222243" lon="30.873760">
        <ele>1239.000000</ele>
        <time>2010-05-04T08:31:52Z</time>
      </trkpt>
      <trkpt lat="38.222192" lon="30.873731">
        <ele>1240.000000</ele>
        <time>2010-05-04T08:31:58Z</time>
      </trkpt>
      <trkpt lat="38.222179" lon="30.873718">
        <ele>1241.000000</ele>
        <time>2010-05-04T08:31:59Z</time>
      </trkpt>
      <trkpt lat="38.222166" lon="30.873693">
        <ele>1239.000000</ele>
        <time>2010-05-04T08:32:02Z</time>
      </trkpt>
      <trkpt lat="38.222122" lon="30.873712">
        <ele>1238.000000</ele>
        <time>2010-05-04T08:32:07Z</time>
      </trkpt>
      <trkpt lat="38.222077" lon="30.873674">
        <ele>1239.000000</ele>
        <time>2010-05-04T08:32:14Z</time>
      </trkpt>
      <trkpt lat="38.222042" lon="30.873658">
        <ele>1240.000000</ele>
        <time>2010-05-04T08:32:21Z</time>
      </trkpt>
      <trkpt lat="38.222003" lon="30.873651">
        <ele>1240.000000</ele>
        <time>2010-05-04T08:32:28Z</time>
      </trkpt>
      <trkpt lat="38.221997" lon="30.873606">
        <ele>1240.000000</ele>
        <time>2010-05-04T08:32:45Z</time>
      </trkpt>
      <trkpt lat="38.221965" lon="30.873594">
        <ele>1239.000000</ele>
        <time>2010-05-04T08:32:47Z</time>
      </trkpt>
      <trkpt lat="38.221920" lon="30.873542">
        <ele>1240.000000</ele>
        <time>2010-05-04T08:33:08Z</time>
      </trkpt>
      <trkpt lat="38.221907" lon="30.873514">
        <ele>1240.000000</ele>
        <time>2010-05-04T08:33:10Z</time>
      </trkpt>
      <trkpt lat="38.221875" lon="30.873514">
        <ele>1240.000000</ele>
        <time>2010-05-04T08:33:11Z</time>
      </trkpt>
      <trkpt lat="38.221866" lon="30.873507">
        <ele>1240.000000</ele>
        <time>2010-05-04T08:33:12Z</time>
      </trkpt>
      <trkpt lat="38.221827" lon="30.873510">
        <ele>1239.000000</ele>
        <time>2010-05-04T08:33:15Z</time>
      </trkpt>
      <trkpt lat="38.221757" lon="30.873507">
        <ele>1239.000000</ele>
        <time>2010-05-04T08:33:44Z</time>
      </trkpt>
      <trkpt lat="38.221760" lon="30.873472">
        <ele>1239.000000</ele>
        <time>2010-05-04T08:33:48Z</time>
      </trkpt>
      <trkpt lat="38.221747" lon="30.873437">
        <ele>1238.000000</ele>
        <time>2010-05-04T08:33:52Z</time>
      </trkpt>
      <trkpt lat="38.221699" lon="30.873398">
        <ele>1239.000000</ele>
        <time>2010-05-04T08:33:56Z</time>
      </trkpt>
      <trkpt lat="38.221674" lon="30.873389">
        <ele>1238.000000</ele>
        <time>2010-05-04T08:33:58Z</time>
      </trkpt>
      <trkpt lat="38.221654" lon="30.873370">
        <ele>1236.000000</ele>
        <time>2010-05-04T08:34:00Z</time>
      </trkpt>
      <trkpt lat="38.221606" lon="30.873344">
        <ele>1238.000000</ele>
        <time>2010-05-04T08:34:02Z</time>
      </trkpt>
      <trkpt lat="38.221597" lon="30.873286">
        <ele>1238.000000</ele>
        <time>2010-05-04T08:34:20Z</time>
      </trkpt>
      <trkpt lat="38.221581" lon="30.873261">
        <ele>1237.000000</ele>
        <time>2010-05-04T08:34:24Z</time>
      </trkpt>
      <trkpt lat="38.221590" lon="30.873267">
        <ele>1237.000000</ele>
        <time>2010-05-04T08:34:26Z</time>
      </trkpt>
      <trkpt lat="38.221546" lon="30.873251">
        <ele>1236.000000</ele>
        <time>2010-05-04T08:34:28Z</time>
      </trkpt>
      <trkpt lat="38.221536" lon="30.873245">
        <ele>1236.000000</ele>
        <time>2010-05-04T08:34:29Z</time>
      </trkpt>
      <trkpt lat="38.221510" lon="30.873242">
        <ele>1238.000000</ele>
        <time>2010-05-04T08:34:30Z</time>
      </trkpt>
      <trkpt lat="38.221478" lon="30.873184">
        <ele>1237.000000</ele>
        <time>2010-05-04T08:34:37Z</time>
      </trkpt>
      <trkpt lat="38.221440" lon="30.873190">
        <ele>1238.000000</ele>
        <time>2010-05-04T08:34:42Z</time>
      </trkpt>
      <trkpt lat="38.221446" lon="30.873187">
        <ele>1237.000000</ele>
        <time>2010-05-04T08:34:44Z</time>
      </trkpt>
      <trkpt lat="38.221450" lon="30.873171">
        <ele>1237.000000</ele>
        <time>2010-05-04T08:34:46Z</time>
      </trkpt>
      <trkpt lat="38.221450" lon="30.873158">
        <ele>1238.000000</ele>
        <time>2010-05-04T08:34:50Z</time>
      </trkpt>
      <trkpt lat="38.221418" lon="30.873146">
        <ele>1239.000000</ele>
        <time>2010-05-04T08:34:55Z</time>
      </trkpt>
      <trkpt lat="38.221405" lon="30.873110">
        <ele>1238.000000</ele>
        <time>2010-05-04T08:34:59Z</time>
      </trkpt>
      <trkpt lat="38.221405" lon="30.873088">
        <ele>1236.000000</ele>
        <time>2010-05-04T08:35:00Z</time>
      </trkpt>
      <trkpt lat="38.221370" lon="30.873085">
        <ele>1238.000000</ele>
        <time>2010-05-04T08:35:04Z</time>
      </trkpt>
      <trkpt lat="38.221376" lon="30.873088">
        <ele>1239.000000</ele>
        <time>2010-05-04T08:35:05Z</time>
      </trkpt>
      <trkpt lat="38.221344" lon="30.873069">
        <ele>1239.000000</ele>
        <time>2010-05-04T08:35:09Z</time>
      </trkpt>
      <trkpt lat="38.221267" lon="30.873011">
        <ele>1239.000000</ele>
        <time>2010-05-04T08:35:15Z</time>
      </trkpt>
      <trkpt lat="38.221248" lon="30.873018">
        <ele>1238.000000</ele>
        <time>2010-05-04T08:35:18Z</time>
      </trkpt>
      <trkpt lat="38.221238" lon="30.873011">
        <ele>1238.000000</ele>
        <time>2010-05-04T08:35:19Z</time>
      </trkpt>
      <trkpt lat="38.221222" lon="30.873021">
        <ele>1238.000000</ele>
        <time>2010-05-04T08:35:24Z</time>
      </trkpt>
      <trkpt lat="38.221190" lon="30.873021">
        <ele>1238.000000</ele>
        <time>2010-05-04T08:35:26Z</time>
      </trkpt>
      <trkpt lat="38.221187" lon="30.872998">
        <ele>1239.000000</ele>
        <time>2010-05-04T08:35:27Z</time>
      </trkpt>
      <trkpt lat="38.221168" lon="30.872973">
        <ele>1238.000000</ele>
        <time>2010-05-04T08:35:30Z</time>
      </trkpt>
      <trkpt lat="38.221120" lon="30.872931">
        <ele>1239.000000</ele>
        <time>2010-05-04T08:35:38Z</time>
      </trkpt>
      <trkpt lat="38.221091" lon="30.872899">
        <ele>1239.000000</ele>
        <time>2010-05-04T08:35:43Z</time>
      </trkpt>
      <trkpt lat="38.221082" lon="30.872883">
        <ele>1239.000000</ele>
        <time>2010-05-04T08:35:44Z</time>
      </trkpt>
      <trkpt lat="38.221066" lon="30.872861">
        <ele>1238.000000</ele>
        <time>2010-05-04T08:35:45Z</time>
      </trkpt>
      <trkpt lat="38.221050" lon="30.872851">
        <ele>1238.000000</ele>
        <time>2010-05-04T08:35:46Z</time>
      </trkpt>
      <trkpt lat="38.221046" lon="30.872829">
        <ele>1239.000000</ele>
        <time>2010-05-04T08:35:47Z</time>
      </trkpt>
      <trkpt lat="38.221021" lon="30.872867">
        <ele>1237.000000</ele>
        <time>2010-05-04T08:35:48Z</time>
      </trkpt>
      <trkpt lat="38.221008" lon="30.872890">
        <ele>1237.000000</ele>
        <time>2010-05-04T08:35:49Z</time>
      </trkpt>
      <trkpt lat="38.220998" lon="30.872906">
        <ele>1238.000000</ele>
        <time>2010-05-04T08:35:50Z</time>
      </trkpt>
      <trkpt lat="38.220989" lon="30.872922">
        <ele>1239.000000</ele>
        <time>2010-05-04T08:35:51Z</time>
      </trkpt>
      <trkpt lat="38.220982" lon="30.872931">
        <ele>1239.000000</ele>
        <time>2010-05-04T08:35:52Z</time>
      </trkpt>
      <trkpt lat="38.220966" lon="30.872918">
        <ele>1238.000000</ele>
        <time>2010-05-04T08:35:54Z</time>
      </trkpt>
      <trkpt lat="38.220902" lon="30.872880">
        <ele>1239.000000</ele>
        <time>2010-05-04T08:36:03Z</time>
      </trkpt>
      <trkpt lat="38.220902" lon="30.872842">
        <ele>1238.000000</ele>
        <time>2010-05-04T08:36:04Z</time>
      </trkpt>
      <trkpt lat="38.220886" lon="30.872819">
        <ele>1239.000000</ele>
        <time>2010-05-04T08:36:07Z</time>
      </trkpt>
      <trkpt lat="38.220870" lon="30.872813">
        <ele>1238.000000</ele>
        <time>2010-05-04T08:36:08Z</time>
      </trkpt>
      <trkpt lat="38.220816" lon="30.872810">
        <ele>1239.000000</ele>
        <time>2010-05-04T08:36:11Z</time>
      </trkpt>
      <trkpt lat="38.220803" lon="30.872800">
        <ele>1238.000000</ele>
        <time>2010-05-04T08:36:13Z</time>
      </trkpt>
      <trkpt lat="38.220794" lon="30.872784">
        <ele>1238.000000</ele>
        <time>2010-05-04T08:36:15Z</time>
      </trkpt>
      <trkpt lat="38.220784" lon="30.872771">
        <ele>1237.000000</ele>
        <time>2010-05-04T08:36:16Z</time>
      </trkpt>
      <trkpt lat="38.220771" lon="30.872758">
        <ele>1238.000000</ele>
        <time>2010-05-04T08:36:17Z</time>
      </trkpt>
      <trkpt lat="38.220736" lon="30.872662">
        <ele>1240.000000</ele>
        <time>2010-05-04T08:36:24Z</time>
      </trkpt>
      <trkpt lat="38.220726" lon="30.872640">
        <ele>1237.000000</ele>
        <time>2010-05-04T08:36:28Z</time>
      </trkpt>
      <trkpt lat="38.220717" lon="30.872624">
        <ele>1237.000000</ele>
        <time>2010-05-04T08:36:29Z</time>
      </trkpt>
      <trkpt lat="38.220691" lon="30.872560">
        <ele>1239.000000</ele>
        <time>2010-05-04T08:36:38Z</time>
      </trkpt>
      <trkpt lat="38.220688" lon="30.872541">
        <ele>1238.000000</ele>
        <time>2010-05-04T08:36:39Z</time>
      </trkpt>
      <trkpt lat="38.220653" lon="30.872554">
        <ele>1239.000000</ele>
        <time>2010-05-04T08:36:43Z</time>
      </trkpt>
      <trkpt lat="38.220630" lon="30.872550">
        <ele>1240.000000</ele>
        <time>2010-05-04T08:36:44Z</time>
      </trkpt>
      <trkpt lat="38.220608" lon="30.872515">
        <ele>1239.000000</ele>
        <time>2010-05-04T08:36:50Z</time>
      </trkpt>
      <trkpt lat="38.220595" lon="30.872512">
        <ele>1238.000000</ele>
        <time>2010-05-04T08:36:51Z</time>
      </trkpt>
      <trkpt lat="38.220576" lon="30.872506">
        <ele>1241.000000</ele>
        <time>2010-05-04T08:36:53Z</time>
      </trkpt>
      <trkpt lat="38.220547" lon="30.872496">
        <ele>1240.000000</ele>
        <time>2010-05-04T08:36:56Z</time>
      </trkpt>
      <trkpt lat="38.220483" lon="30.872486">
        <ele>1239.000000</ele>
        <time>2010-05-04T08:37:02Z</time>
      </trkpt>
      <trkpt lat="38.220474" lon="30.872483">
        <ele>1240.000000</ele>
        <time>2010-05-04T08:37:04Z</time>
      </trkpt>
      <trkpt lat="38.220451" lon="30.872464">
        <ele>1240.000000</ele>
        <time>2010-05-04T08:37:07Z</time>
      </trkpt>
      <trkpt lat="38.220406" lon="30.872448">
        <ele>1242.000000</ele>
        <time>2010-05-04T08:37:15Z</time>
      </trkpt>
      <trkpt lat="38.220371" lon="30.872445">
        <ele>1241.000000</ele>
        <time>2010-05-04T08:37:17Z</time>
      </trkpt>
      <trkpt lat="38.220358" lon="30.872442">
        <ele>1241.000000</ele>
        <time>2010-05-04T08:37:18Z</time>
      </trkpt>
      <trkpt lat="38.220336" lon="30.872432">
        <ele>1243.000000</ele>
        <time>2010-05-04T08:37:20Z</time>
      </trkpt>
      <trkpt lat="38.220288" lon="30.872426">
        <ele>1241.000000</ele>
        <time>2010-05-04T08:37:24Z</time>
      </trkpt>
      <trkpt lat="38.220285" lon="30.872413">
        <ele>1242.000000</ele>
        <time>2010-05-04T08:37:25Z</time>
      </trkpt>
      <trkpt lat="38.220266" lon="30.872394">
        <ele>1244.000000</ele>
        <time>2010-05-04T08:37:27Z</time>
      </trkpt>
      <trkpt lat="38.220266" lon="30.872387">
        <ele>1242.000000</ele>
        <time>2010-05-04T08:37:28Z</time>
      </trkpt>
      <trkpt lat="38.220253" lon="30.872384">
        <ele>1242.000000</ele>
        <time>2010-05-04T08:37:29Z</time>
      </trkpt>
      <trkpt lat="38.220234" lon="30.872394">
        <ele>1243.000000</ele>
        <time>2010-05-04T08:37:30Z</time>
      </trkpt>
      <trkpt lat="38.220179" lon="30.872416">
        <ele>1243.000000</ele>
        <time>2010-05-04T08:37:33Z</time>
      </trkpt>
      <trkpt lat="38.220170" lon="30.872416">
        <ele>1243.000000</ele>
        <time>2010-05-04T08:37:34Z</time>
      </trkpt>
      <trkpt lat="38.220157" lon="30.872416">
        <ele>1243.000000</ele>
        <time>2010-05-04T08:37:35Z</time>
      </trkpt>
      <trkpt lat="38.220150" lon="30.872410">
        <ele>1244.000000</ele>
        <time>2010-05-04T08:37:36Z</time>
      </trkpt>
      <trkpt lat="38.220125" lon="30.872406">
        <ele>1245.000000</ele>
        <time>2010-05-04T08:37:39Z</time>
      </trkpt>
      <trkpt lat="38.220109" lon="30.872416">
        <ele>1245.000000</ele>
        <time>2010-05-04T08:37:40Z</time>
      </trkpt>
      <trkpt lat="38.220106" lon="30.872403">
        <ele>1245.000000</ele>
        <time>2010-05-04T08:37:41Z</time>
      </trkpt>
      <trkpt lat="38.220106" lon="30.872403">
        <ele>1245.000000</ele>
        <time>2010-05-04T08:37:43Z</time>
      </trkpt>
      <trkpt lat="38.220067" lon="30.872403">
        <ele>1245.000000</ele>
        <time>2010-05-04T08:37:45Z</time>
      </trkpt>
      <trkpt lat="38.220054" lon="30.872406">
        <ele>1245.000000</ele>
        <time>2010-05-04T08:37:46Z</time>
      </trkpt>
      <trkpt lat="38.220026" lon="30.872397">
        <ele>1243.000000</ele>
        <time>2010-05-04T08:37:49Z</time>
      </trkpt>
      <trkpt lat="38.220010" lon="30.872384">
        <ele>1244.000000</ele>
        <time>2010-05-04T08:37:51Z</time>
      </trkpt>
      <trkpt lat="38.219949" lon="30.872403">
        <ele>1246.000000</ele>
        <time>2010-05-04T08:38:02Z</time>
      </trkpt>
      <trkpt lat="38.219933" lon="30.872406">
        <ele>1246.000000</ele>
        <time>2010-05-04T08:38:03Z</time>
      </trkpt>
      <trkpt lat="38.219907" lon="30.872394">
        <ele>1246.000000</ele>
        <time>2010-05-04T08:38:09Z</time>
      </trkpt>
      <trkpt lat="38.219869" lon="30.872304">
        <ele>1248.000000</ele>
        <time>2010-05-04T08:38:14Z</time>
      </trkpt>
      <trkpt lat="38.219859" lon="30.872298">
        <ele>1245.000000</ele>
        <time>2010-05-04T08:38:15Z</time>
      </trkpt>
      <trkpt lat="38.219837" lon="30.872288">
        <ele>1247.000000</ele>
        <time>2010-05-04T08:38:17Z</time>
      </trkpt>
      <trkpt lat="38.219827" lon="30.872275">
        <ele>1247.000000</ele>
        <time>2010-05-04T08:38:18Z</time>
      </trkpt>
      <trkpt lat="38.219808" lon="30.872272">
        <ele>1247.000000</ele>
        <time>2010-05-04T08:38:19Z</time>
      </trkpt>
      <trkpt lat="38.219773" lon="30.872237">
        <ele>1247.000000</ele>
        <time>2010-05-04T08:38:22Z</time>
      </trkpt>
      <trkpt lat="38.219763" lon="30.872234">
        <ele>1247.000000</ele>
        <time>2010-05-04T08:38:23Z</time>
      </trkpt>
      <trkpt lat="38.219728" lon="30.872237">
        <ele>1247.000000</ele>
        <time>2010-05-04T08:38:26Z</time>
      </trkpt>
      <trkpt lat="38.219734" lon="30.872224">
        <ele>1247.000000</ele>
        <time>2010-05-04T08:38:30Z</time>
      </trkpt>
      <trkpt lat="38.219728" lon="30.872234">
        <ele>1248.000000</ele>
        <time>2010-05-04T08:38:32Z</time>
      </trkpt>
      <trkpt lat="38.219747" lon="30.872262">
        <ele>1248.000000</ele>
        <time>2010-05-04T08:38:38Z</time>
      </trkpt>
      <trkpt lat="38.219741" lon="30.872266">
        <ele>1246.000000</ele>
        <time>2010-05-04T08:38:39Z</time>
      </trkpt>
      <trkpt lat="38.219731" lon="30.872272">
        <ele>1247.000000</ele>
        <time>2010-05-04T08:38:40Z</time>
      </trkpt>
      <trkpt lat="38.219709" lon="30.872246">
        <ele>1247.000000</ele>
        <time>2010-05-04T08:38:53Z</time>
      </trkpt>
      <trkpt lat="38.219683" lon="30.872246">
        <ele>1248.000000</ele>
        <time>2010-05-04T08:38:55Z</time>
      </trkpt>
      <trkpt lat="38.219670" lon="30.872227">
        <ele>1248.000000</ele>
        <time>2010-05-04T08:39:04Z</time>
      </trkpt>
      <trkpt lat="38.219658" lon="30.872218">
        <ele>1248.000000</ele>
        <time>2010-05-04T08:39:07Z</time>
      </trkpt>
      <trkpt lat="38.219619" lon="30.872192">
        <ele>1250.000000</ele>
        <time>2010-05-04T08:39:10Z</time>
      </trkpt>
      <trkpt lat="38.219542" lon="30.872157">
        <ele>1250.000000</ele>
        <time>2010-05-04T08:39:15Z</time>
      </trkpt>
      <trkpt lat="38.219510" lon="30.872128">
        <ele>1251.000000</ele>
        <time>2010-05-04T08:39:19Z</time>
      </trkpt>
      <trkpt lat="38.219494" lon="30.872118">
        <ele>1249.000000</ele>
        <time>2010-05-04T08:39:20Z</time>
      </trkpt>
      <trkpt lat="38.219485" lon="30.872106">
        <ele>1250.000000</ele>
        <time>2010-05-04T08:39:21Z</time>
      </trkpt>
      <trkpt lat="38.219475" lon="30.872074">
        <ele>1250.000000</ele>
        <time>2010-05-04T08:39:24Z</time>
      </trkpt>
      <trkpt lat="38.219462" lon="30.872067">
        <ele>1250.000000</ele>
        <time>2010-05-04T08:39:25Z</time>
      </trkpt>
      <trkpt lat="38.219478" lon="30.872048">
        <ele>1250.000000</ele>
        <time>2010-05-04T08:39:27Z</time>
      </trkpt>
      <trkpt lat="38.219472" lon="30.872048">
        <ele>1252.000000</ele>
        <time>2010-05-04T08:39:29Z</time>
      </trkpt>
      <trkpt lat="38.219501" lon="30.872035">
        <ele>1250.000000</ele>
        <time>2010-05-04T08:39:32Z</time>
      </trkpt>
      <trkpt lat="38.219491" lon="30.872019">
        <ele>1251.000000</ele>
        <time>2010-05-04T08:39:33Z</time>
      </trkpt>
      <trkpt lat="38.219478" lon="30.872003">
        <ele>1250.000000</ele>
        <time>2010-05-04T08:39:34Z</time>
      </trkpt>
      <trkpt lat="38.219453" lon="30.871984">
        <ele>1252.000000</ele>
        <time>2010-05-04T08:39:36Z</time>
      </trkpt>
      <trkpt lat="38.219437" lon="30.871974">
        <ele>1249.000000</ele>
        <time>2010-05-04T08:39:37Z</time>
      </trkpt>
      <trkpt lat="38.219411" lon="30.871955">
        <ele>1251.000000</ele>
        <time>2010-05-04T08:39:39Z</time>
      </trkpt>
      <trkpt lat="38.219386" lon="30.871926">
        <ele>1252.000000</ele>
        <time>2010-05-04T08:39:40Z</time>
      </trkpt>
      <trkpt lat="38.219302" lon="30.871888">
        <ele>1251.000000</ele>
        <time>2010-05-04T08:39:45Z</time>
      </trkpt>
      <trkpt lat="38.219261" lon="30.871885">
        <ele>1251.000000</ele>
        <time>2010-05-04T08:39:57Z</time>
      </trkpt>
      <trkpt lat="38.219245" lon="30.871888">
        <ele>1251.000000</ele>
        <time>2010-05-04T08:39:59Z</time>
      </trkpt>
      <trkpt lat="38.219226" lon="30.871888">
        <ele>1254.000000</ele>
        <time>2010-05-04T08:40:00Z</time>
      </trkpt>
      <trkpt lat="38.219213" lon="30.871910">
        <ele>1254.000000</ele>
        <time>2010-05-04T08:40:02Z</time>
      </trkpt>
      <trkpt lat="38.219203" lon="30.871930">
        <ele>1253.000000</ele>
        <time>2010-05-04T08:40:03Z</time>
      </trkpt>
      <trkpt lat="38.219197" lon="30.871946">
        <ele>1253.000000</ele>
        <time>2010-05-04T08:40:04Z</time>
      </trkpt>
      <trkpt lat="38.219158" lon="30.871974">
        <ele>1253.000000</ele>
        <time>2010-05-04T08:40:08Z</time>
      </trkpt>
      <trkpt lat="38.219133" lon="30.872013">
        <ele>1254.000000</ele>
        <time>2010-05-04T08:40:13Z</time>
      </trkpt>
      <trkpt lat="38.219133" lon="30.872006">
        <ele>1254.000000</ele>
        <time>2010-05-04T08:40:24Z</time>
      </trkpt>
      <trkpt lat="38.219094" lon="30.871978">
        <ele>1254.000000</ele>
        <time>2010-05-04T08:40:28Z</time>
      </trkpt>
      <trkpt lat="38.219085" lon="30.871971">
        <ele>1254.000000</ele>
        <time>2010-05-04T08:40:29Z</time>
      </trkpt>
      <trkpt lat="38.219066" lon="30.871939">
        <ele>1254.000000</ele>
        <time>2010-05-04T08:40:32Z</time>
      </trkpt>
      <trkpt lat="38.219062" lon="30.871926">
        <ele>1254.000000</ele>
        <time>2010-05-04T08:40:33Z</time>
      </trkpt>
      <trkpt lat="38.219053" lon="30.871907">
        <ele>1255.000000</ele>
        <time>2010-05-04T08:40:35Z</time>
      </trkpt>
      <trkpt lat="38.219043" lon="30.871898">
        <ele>1253.000000</ele>
        <time>2010-05-04T08:40:36Z</time>
      </trkpt>
      <trkpt lat="38.219027" lon="30.871888">
        <ele>1252.000000</ele>
        <time>2010-05-04T08:40:38Z</time>
      </trkpt>
      <trkpt lat="38.219014" lon="30.871885">
        <ele>1253.000000</ele>
        <time>2010-05-04T08:40:39Z</time>
      </trkpt>
      <trkpt lat="38.218989" lon="30.871888">
        <ele>1253.000000</ele>
        <time>2010-05-04T08:40:40Z</time>
      </trkpt>
      <trkpt lat="38.218976" lon="30.871875">
        <ele>1254.000000</ele>
        <time>2010-05-04T08:40:42Z</time>
      </trkpt>
      <trkpt lat="38.218960" lon="30.871866">
        <ele>1253.000000</ele>
        <time>2010-05-04T08:40:44Z</time>
      </trkpt>
      <trkpt lat="38.218909" lon="30.871862">
        <ele>1255.000000</ele>
        <time>2010-05-04T08:40:48Z</time>
      </trkpt>
      <trkpt lat="38.218906" lon="30.871856">
        <ele>1254.000000</ele>
        <time>2010-05-04T08:40:49Z</time>
      </trkpt>
      <trkpt lat="38.218896" lon="30.871853">
        <ele>1254.000000</ele>
        <time>2010-05-04T08:40:50Z</time>
      </trkpt>
      <trkpt lat="38.218877" lon="30.871856">
        <ele>1254.000000</ele>
        <time>2010-05-04T08:40:52Z</time>
      </trkpt>
      <trkpt lat="38.218867" lon="30.871853">
        <ele>1255.000000</ele>
        <time>2010-05-04T08:40:53Z</time>
      </trkpt>
      <trkpt lat="38.218854" lon="30.871850">
        <ele>1254.000000</ele>
        <time>2010-05-04T08:40:55Z</time>
      </trkpt>
      <trkpt lat="38.218829" lon="30.871856">
        <ele>1255.000000</ele>
        <time>2010-05-04T08:40:58Z</time>
      </trkpt>
      <trkpt lat="38.218803" lon="30.871834">
        <ele>1253.000000</ele>
        <time>2010-05-04T08:41:04Z</time>
      </trkpt>
      <trkpt lat="38.218787" lon="30.871802">
        <ele>1252.000000</ele>
        <time>2010-05-04T08:41:08Z</time>
      </trkpt>
      <trkpt lat="38.218739" lon="30.871789">
        <ele>1254.000000</ele>
        <time>2010-05-04T08:41:10Z</time>
      </trkpt>
      <trkpt lat="38.218726" lon="30.871795">
        <ele>1252.000000</ele>
        <time>2010-05-04T08:41:11Z</time>
      </trkpt>
      <trkpt lat="38.218720" lon="30.871795">
        <ele>1252.000000</ele>
        <time>2010-05-04T08:41:12Z</time>
      </trkpt>
      <trkpt lat="38.218678" lon="30.871792">
        <ele>1252.000000</ele>
        <time>2010-05-04T08:41:17Z</time>
      </trkpt>
      <trkpt lat="38.218666" lon="30.871770">
        <ele>1253.000000</ele>
        <time>2010-05-04T08:41:19Z</time>
      </trkpt>
      <trkpt lat="38.218659" lon="30.871757">
        <ele>1253.000000</ele>
        <time>2010-05-04T08:41:20Z</time>
      </trkpt>
      <trkpt lat="38.218630" lon="30.871709">
        <ele>1252.000000</ele>
        <time>2010-05-04T08:41:24Z</time>
      </trkpt>
      <trkpt lat="38.218618" lon="30.871709">
        <ele>1253.000000</ele>
        <time>2010-05-04T08:41:26Z</time>
      </trkpt>
      <trkpt lat="38.218598" lon="30.871706">
        <ele>1251.000000</ele>
        <time>2010-05-04T08:41:28Z</time>
      </trkpt>
      <trkpt lat="38.218570" lon="30.871696">
        <ele>1251.000000</ele>
        <time>2010-05-04T08:41:30Z</time>
      </trkpt>
      <trkpt lat="38.218538" lon="30.871706">
        <ele>1252.000000</ele>
        <time>2010-05-04T08:41:32Z</time>
      </trkpt>
      <trkpt lat="38.218502" lon="30.871715">
        <ele>1251.000000</ele>
        <time>2010-05-04T08:41:34Z</time>
      </trkpt>
      <trkpt lat="38.218486" lon="30.871718">
        <ele>1251.000000</ele>
        <time>2010-05-04T08:41:35Z</time>
      </trkpt>
      <trkpt lat="38.218477" lon="30.871715">
        <ele>1252.000000</ele>
        <time>2010-05-04T08:41:36Z</time>
      </trkpt>
      <trkpt lat="38.218470" lon="30.871712">
        <ele>1252.000000</ele>
        <time>2010-05-04T08:41:37Z</time>
      </trkpt>
      <trkpt lat="38.218464" lon="30.871706">
        <ele>1252.000000</ele>
        <time>2010-05-04T08:41:38Z</time>
      </trkpt>
      <trkpt lat="38.218410" lon="30.871664">
        <ele>1251.000000</ele>
        <time>2010-05-04T08:41:48Z</time>
      </trkpt>
      <trkpt lat="38.218403" lon="30.871658">
        <ele>1249.000000</ele>
        <time>2010-05-04T08:41:49Z</time>
      </trkpt>
      <trkpt lat="38.218371" lon="30.871642">
        <ele>1251.000000</ele>
        <time>2010-05-04T08:41:53Z</time>
      </trkpt>
      <trkpt lat="38.218291" lon="30.871622">
        <ele>1252.000000</ele>
        <time>2010-05-04T08:42:01Z</time>
      </trkpt>
      <trkpt lat="38.218272" lon="30.871603">
        <ele>1249.000000</ele>
        <time>2010-05-04T08:42:05Z</time>
      </trkpt>
      <trkpt lat="38.218262" lon="30.871597">
        <ele>1251.000000</ele>
        <time>2010-05-04T08:42:06Z</time>
      </trkpt>
      <trkpt lat="38.218186" lon="30.871571">
        <ele>1249.000000</ele>
        <time>2010-05-04T08:42:12Z</time>
      </trkpt>
      <trkpt lat="38.218192" lon="30.871565">
        <ele>1249.000000</ele>
        <time>2010-05-04T08:42:13Z</time>
      </trkpt>
      <trkpt lat="38.218131" lon="30.871546">
        <ele>1250.000000</ele>
        <time>2010-05-04T08:42:19Z</time>
      </trkpt>
      <trkpt lat="38.218064" lon="30.871539">
        <ele>1250.000000</ele>
        <time>2010-05-04T08:42:24Z</time>
      </trkpt>
      <trkpt lat="38.218048" lon="30.871546">
        <ele>1251.000000</ele>
        <time>2010-05-04T08:42:25Z</time>
      </trkpt>
      <trkpt lat="38.218003" lon="30.871565">
        <ele>1251.000000</ele>
        <time>2010-05-04T08:42:28Z</time>
      </trkpt>
      <trkpt lat="38.217990" lon="30.871533">
        <ele>1250.000000</ele>
        <time>2010-05-04T08:42:35Z</time>
      </trkpt>
      <trkpt lat="38.217968" lon="30.871514">
        <ele>1250.000000</ele>
        <time>2010-05-04T08:42:38Z</time>
      </trkpt>
      <trkpt lat="38.217955" lon="30.871507">
        <ele>1249.000000</ele>
        <time>2010-05-04T08:42:40Z</time>
      </trkpt>
      <trkpt lat="38.217936" lon="30.871507">
        <ele>1249.000000</ele>
        <time>2010-05-04T08:42:41Z</time>
      </trkpt>
      <trkpt lat="38.217942" lon="30.871507">
        <ele>1250.000000</ele>
        <time>2010-05-04T08:42:43Z</time>
      </trkpt>
      <trkpt lat="38.217933" lon="30.871510">
        <ele>1249.000000</ele>
        <time>2010-05-04T08:42:44Z</time>
      </trkpt>
      <trkpt lat="38.217910" lon="30.871507">
        <ele>1251.000000</ele>
        <time>2010-05-04T08:42:48Z</time>
      </trkpt>
      <trkpt lat="38.217901" lon="30.871485">
        <ele>1250.000000</ele>
        <time>2010-05-04T08:42:51Z</time>
      </trkpt>
      <trkpt lat="38.217894" lon="30.871469">
        <ele>1249.000000</ele>
        <time>2010-05-04T08:42:52Z</time>
      </trkpt>
      <trkpt lat="38.217853" lon="30.871453">
        <ele>1249.000000</ele>
        <time>2010-05-04T08:42:53Z</time>
      </trkpt>
      <trkpt lat="38.217837" lon="30.871440">
        <ele>1247.000000</ele>
        <time>2010-05-04T08:42:54Z</time>
      </trkpt>
      <trkpt lat="38.217866" lon="30.871421">
        <ele>1248.000000</ele>
        <time>2010-05-04T08:42:56Z</time>
      </trkpt>
      <trkpt lat="38.217802" lon="30.871421">
        <ele>1248.000000</ele>
        <time>2010-05-04T08:43:00Z</time>
      </trkpt>
      <trkpt lat="38.217805" lon="30.871395">
        <ele>1248.000000</ele>
        <time>2010-05-04T08:43:01Z</time>
      </trkpt>
      <trkpt lat="38.217802" lon="30.871389">
        <ele>1247.000000</ele>
        <time>2010-05-04T08:43:03Z</time>
      </trkpt>
      <trkpt lat="38.217782" lon="30.871382">
        <ele>1248.000000</ele>
        <time>2010-05-04T08:43:04Z</time>
      </trkpt>
      <trkpt lat="38.217750" lon="30.871373">
        <ele>1249.000000</ele>
        <time>2010-05-04T08:43:06Z</time>
      </trkpt>
      <trkpt lat="38.217728" lon="30.871344">
        <ele>1249.000000</ele>
        <time>2010-05-04T08:43:11Z</time>
      </trkpt>
      <trkpt lat="38.217734" lon="30.871312">
        <ele>1249.000000</ele>
        <time>2010-05-04T08:43:13Z</time>
      </trkpt>
      <trkpt lat="38.217667" lon="30.871299">
        <ele>1250.000000</ele>
        <time>2010-05-04T08:43:19Z</time>
      </trkpt>
      <trkpt lat="38.217654" lon="30.871296">
        <ele>1250.000000</ele>
        <time>2010-05-04T08:43:20Z</time>
      </trkpt>
      <trkpt lat="38.217654" lon="30.871283">
        <ele>1250.000000</ele>
        <time>2010-05-04T08:43:23Z</time>
      </trkpt>
      <trkpt lat="38.217587" lon="30.871299">
        <ele>1251.000000</ele>
        <time>2010-05-04T08:43:33Z</time>
      </trkpt>
      <trkpt lat="38.217549" lon="30.871302">
        <ele>1253.000000</ele>
        <time>2010-05-04T08:43:36Z</time>
      </trkpt>
      <trkpt lat="38.217494" lon="30.871302">
        <ele>1253.000000</ele>
        <time>2010-05-04T08:43:40Z</time>
      </trkpt>
      <trkpt lat="38.217459" lon="30.871296">
        <ele>1254.000000</ele>
        <time>2010-05-04T08:43:43Z</time>
      </trkpt>
      <trkpt lat="38.217446" lon="30.871280">
        <ele>1254.000000</ele>
        <time>2010-05-04T08:43:45Z</time>
      </trkpt>
      <trkpt lat="38.217430" lon="30.871274">
        <ele>1254.000000</ele>
        <time>2010-05-04T08:43:47Z</time>
      </trkpt>
      <trkpt lat="38.217418" lon="30.871258">
        <ele>1254.000000</ele>
        <time>2010-05-04T08:43:49Z</time>
      </trkpt>
      <trkpt lat="38.217405" lon="30.871254">
        <ele>1254.000000</ele>
        <time>2010-05-04T08:43:50Z</time>
      </trkpt>
      <trkpt lat="38.217386" lon="30.871238">
        <ele>1254.000000</ele>
        <time>2010-05-04T08:43:52Z</time>
      </trkpt>
      <trkpt lat="38.217341" lon="30.871219">
        <ele>1254.000000</ele>
        <time>2010-05-04T08:43:55Z</time>
      </trkpt>
      <trkpt lat="38.217347" lon="30.871203">
        <ele>1254.000000</ele>
        <time>2010-05-04T08:43:56Z</time>
      </trkpt>
      <trkpt lat="38.217328" lon="30.871213">
        <ele>1254.000000</ele>
        <time>2010-05-04T08:43:59Z</time>
      </trkpt>
      <trkpt lat="38.217309" lon="30.871226">
        <ele>1255.000000</ele>
        <time>2010-05-04T08:44:00Z</time>
      </trkpt>
      <trkpt lat="38.217293" lon="30.871238">
        <ele>1255.000000</ele>
        <time>2010-05-04T08:44:01Z</time>
      </trkpt>
      <trkpt lat="38.217286" lon="30.871245">
        <ele>1256.000000</ele>
        <time>2010-05-04T08:44:02Z</time>
      </trkpt>
      <trkpt lat="38.217267" lon="30.871238">
        <ele>1255.000000</ele>
        <time>2010-05-04T08:44:04Z</time>
      </trkpt>
      <trkpt lat="38.217229" lon="30.871190">
        <ele>1256.000000</ele>
        <time>2010-05-04T08:44:10Z</time>
      </trkpt>
      <trkpt lat="38.217226" lon="30.871146">
        <ele>1257.000000</ele>
        <time>2010-05-04T08:44:16Z</time>
      </trkpt>
      <trkpt lat="38.217232" lon="30.871078">
        <ele>1257.000000</ele>
        <time>2010-05-04T08:44:20Z</time>
      </trkpt>
      <trkpt lat="38.217232" lon="30.871056">
        <ele>1258.000000</ele>
        <time>2010-05-04T08:44:21Z</time>
      </trkpt>
      <trkpt lat="38.217178" lon="30.871043">
        <ele>1259.000000</ele>
        <time>2010-05-04T08:44:25Z</time>
      </trkpt>
      <trkpt lat="38.217126" lon="30.871072">
        <ele>1260.000000</ele>
        <time>2010-05-04T08:44:30Z</time>
      </trkpt>
      <trkpt lat="38.217117" lon="30.871066">
        <ele>1261.000000</ele>
        <time>2010-05-04T08:44:31Z</time>
      </trkpt>
      <trkpt lat="38.217098" lon="30.871075">
        <ele>1261.000000</ele>
        <time>2010-05-04T08:44:32Z</time>
      </trkpt>
      <trkpt lat="38.217059" lon="30.871075">
        <ele>1261.000000</ele>
        <time>2010-05-04T08:44:34Z</time>
      </trkpt>
      <trkpt lat="38.217002" lon="30.871114">
        <ele>1262.000000</ele>
        <time>2010-05-04T08:44:38Z</time>
      </trkpt>
      <trkpt lat="38.216998" lon="30.871110">
        <ele>1262.000000</ele>
        <time>2010-05-04T08:44:39Z</time>
      </trkpt>
      <trkpt lat="38.216970" lon="30.871130">
        <ele>1261.000000</ele>
        <time>2010-05-04T08:44:45Z</time>
      </trkpt>
      <trkpt lat="38.216960" lon="30.871117">
        <ele>1262.000000</ele>
        <time>2010-05-04T08:44:47Z</time>
      </trkpt>
      <trkpt lat="38.216934" lon="30.871101">
        <ele>1262.000000</ele>
        <time>2010-05-04T08:44:53Z</time>
      </trkpt>
      <trkpt lat="38.216819" lon="30.871088">
        <ele>1263.000000</ele>
        <time>2010-05-04T08:45:02Z</time>
      </trkpt>
      <trkpt lat="38.216822" lon="30.871094">
        <ele>1263.000000</ele>
        <time>2010-05-04T08:45:04Z</time>
      </trkpt>
      <trkpt lat="38.216829" lon="30.871094">
        <ele>1263.000000</ele>
        <time>2010-05-04T08:45:10Z</time>
      </trkpt>
      <trkpt lat="38.216790" lon="30.871078">
        <ele>1260.000000</ele>
        <time>2010-05-04T08:45:42Z</time>
      </trkpt>
      <trkpt lat="38.216781" lon="30.871085">
        <ele>1262.000000</ele>
        <time>2010-05-04T08:45:48Z</time>
      </trkpt>
      <trkpt lat="38.216765" lon="30.871072">
        <ele>1263.000000</ele>
        <time>2010-05-04T08:45:49Z</time>
      </trkpt>
      <trkpt lat="38.216717" lon="30.871034">
        <ele>1263.000000</ele>
        <time>2010-05-04T08:45:58Z</time>
      </trkpt>
      <trkpt lat="38.216701" lon="30.871043">
        <ele>1263.000000</ele>
        <time>2010-05-04T08:46:01Z</time>
      </trkpt>
      <trkpt lat="38.216538" lon="30.870995">
        <ele>1268.000000</ele>
        <time>2010-05-04T08:53:28Z</time>
      </trkpt>
      <trkpt lat="38.216518" lon="30.870979">
        <ele>1265.000000</ele>
        <time>2010-05-04T08:53:38Z</time>
      </trkpt>
      <trkpt lat="38.216499" lon="30.870963">
        <ele>1265.000000</ele>
        <time>2010-05-04T08:53:41Z</time>
      </trkpt>
      <trkpt lat="38.216470" lon="30.870941">
        <ele>1265.000000</ele>
        <time>2010-05-04T08:53:45Z</time>
      </trkpt>
      <trkpt lat="38.216442" lon="30.870922">
        <ele>1267.000000</ele>
        <time>2010-05-04T08:53:48Z</time>
      </trkpt>
      <trkpt lat="38.216438" lon="30.870912">
        <ele>1265.000000</ele>
        <time>2010-05-04T08:53:50Z</time>
      </trkpt>
      <trkpt lat="38.216435" lon="30.870912">
        <ele>1267.000000</ele>
        <time>2010-05-04T08:53:51Z</time>
      </trkpt>
      <trkpt lat="38.216432" lon="30.870886">
        <ele>1266.000000</ele>
        <time>2010-05-04T08:53:53Z</time>
      </trkpt>
      <trkpt lat="38.216384" lon="30.870832">
        <ele>1264.000000</ele>
        <time>2010-05-04T08:54:00Z</time>
      </trkpt>
      <trkpt lat="38.216342" lon="30.870794">
        <ele>1266.000000</ele>
        <time>2010-05-04T08:54:04Z</time>
      </trkpt>
      <trkpt lat="38.216272" lon="30.870768">
        <ele>1264.000000</ele>
        <time>2010-05-04T08:54:15Z</time>
      </trkpt>
      <trkpt lat="38.216234" lon="30.870701">
        <ele>1263.000000</ele>
        <time>2010-05-04T08:54:21Z</time>
      </trkpt>
      <trkpt lat="38.216224" lon="30.870688">
        <ele>1263.000000</ele>
        <time>2010-05-04T08:54:22Z</time>
      </trkpt>
      <trkpt lat="38.216234" lon="30.870659">
        <ele>1263.000000</ele>
        <time>2010-05-04T08:54:39Z</time>
      </trkpt>
      <trkpt lat="38.216256" lon="30.870666">
        <ele>1264.000000</ele>
        <time>2010-05-04T08:54:40Z</time>
      </trkpt>
      <trkpt lat="38.216266" lon="30.870672">
        <ele>1263.000000</ele>
        <time>2010-05-04T08:54:58Z</time>
      </trkpt>
      <trkpt lat="38.216262" lon="30.870637">
        <ele>1264.000000</ele>
        <time>2010-05-04T08:55:00Z</time>
      </trkpt>
      <trkpt lat="38.216256" lon="30.870608">
        <ele>1264.000000</ele>
        <time>2010-05-04T08:55:02Z</time>
      </trkpt>
      <trkpt lat="38.216214" lon="30.870480">
        <ele>1263.000000</ele>
        <time>2010-05-04T08:55:12Z</time>
      </trkpt>
      <trkpt lat="38.216173" lon="30.870448">
        <ele>1263.000000</ele>
        <time>2010-05-04T08:55:18Z</time>
      </trkpt>
      <trkpt lat="38.216147" lon="30.870445">
        <ele>1263.000000</ele>
        <time>2010-05-04T08:55:20Z</time>
      </trkpt>
      <trkpt lat="38.216122" lon="30.870406">
        <ele>1263.000000</ele>
        <time>2010-05-04T08:55:24Z</time>
      </trkpt>
      <trkpt lat="38.216106" lon="30.870400">
        <ele>1263.000000</ele>
        <time>2010-05-04T08:55:26Z</time>
      </trkpt>
      <trkpt lat="38.216074" lon="30.870390">
        <ele>1264.000000</ele>
        <time>2010-05-04T08:55:32Z</time>
      </trkpt>
      <trkpt lat="38.216035" lon="30.870371">
        <ele>1266.000000</ele>
        <time>2010-05-04T08:55:44Z</time>
      </trkpt>
      <trkpt lat="38.216022" lon="30.870349">
        <ele>1266.000000</ele>
        <time>2010-05-04T08:55:45Z</time>
      </trkpt>
      <trkpt lat="38.216016" lon="30.870336">
        <ele>1265.000000</ele>
        <time>2010-05-04T08:55:46Z</time>
      </trkpt>
      <trkpt lat="38.215987" lon="30.870304">
        <ele>1268.000000</ele>
        <time>2010-05-04T08:55:50Z</time>
      </trkpt>
      <trkpt lat="38.215955" lon="30.870253">
        <ele>1267.000000</ele>
        <time>2010-05-04T08:55:53Z</time>
      </trkpt>
      <trkpt lat="38.215946" lon="30.870250">
        <ele>1267.000000</ele>
        <time>2010-05-04T08:55:54Z</time>
      </trkpt>
      <trkpt lat="38.215936" lon="30.870256">
        <ele>1267.000000</ele>
        <time>2010-05-04T08:55:55Z</time>
      </trkpt>
      <trkpt lat="38.215898" lon="30.870301">
        <ele>1271.000000</ele>
        <time>2010-05-04T08:56:08Z</time>
      </trkpt>
      <trkpt lat="38.215885" lon="30.870298">
        <ele>1271.000000</ele>
        <time>2010-05-04T08:56:09Z</time>
      </trkpt>
      <trkpt lat="38.215882" lon="30.870307">
        <ele>1269.000000</ele>
        <time>2010-05-04T08:56:13Z</time>
      </trkpt>
      <trkpt lat="38.215862" lon="30.870298">
        <ele>1271.000000</ele>
        <time>2010-05-04T08:56:15Z</time>
      </trkpt>
      <trkpt lat="38.215862" lon="30.870278">
        <ele>1271.000000</ele>
        <time>2010-05-04T08:56:16Z</time>
      </trkpt>
      <trkpt lat="38.215850" lon="30.870282">
        <ele>1271.000000</ele>
        <time>2010-05-04T08:56:19Z</time>
      </trkpt>
      <trkpt lat="38.215837" lon="30.870266">
        <ele>1273.000000</ele>
        <time>2010-05-04T08:56:21Z</time>
      </trkpt>
      <trkpt lat="38.215818" lon="30.870262">
        <ele>1273.000000</ele>
        <time>2010-05-04T08:56:23Z</time>
      </trkpt>
      <trkpt lat="38.215789" lon="30.870278">
        <ele>1274.000000</ele>
        <time>2010-05-04T08:56:30Z</time>
      </trkpt>
      <trkpt lat="38.215766" lon="30.870291">
        <ele>1275.000000</ele>
        <time>2010-05-04T08:56:33Z</time>
      </trkpt>
      <trkpt lat="38.215696" lon="30.870272">
        <ele>1275.000000</ele>
        <time>2010-05-04T08:56:39Z</time>
      </trkpt>
      <trkpt lat="38.215677" lon="30.870326">
        <ele>1276.000000</ele>
        <time>2010-05-04T08:56:42Z</time>
      </trkpt>
      <trkpt lat="38.215670" lon="30.870346">
        <ele>1276.000000</ele>
        <time>2010-05-04T08:56:43Z</time>
      </trkpt>
      <trkpt lat="38.215629" lon="30.870317">
        <ele>1278.000000</ele>
        <time>2010-05-04T08:56:57Z</time>
      </trkpt>
      <trkpt lat="38.215622" lon="30.870298">
        <ele>1277.000000</ele>
        <time>2010-05-04T08:57:01Z</time>
      </trkpt>
      <trkpt lat="38.215619" lon="30.870291">
        <ele>1277.000000</ele>
        <time>2010-05-04T08:57:02Z</time>
      </trkpt>
      <trkpt lat="38.215590" lon="30.870278">
        <ele>1276.000000</ele>
        <time>2010-05-04T08:57:07Z</time>
      </trkpt>
      <trkpt lat="38.215552" lon="30.870301">
        <ele>1278.000000</ele>
        <time>2010-05-04T08:57:16Z</time>
      </trkpt>
      <trkpt lat="38.215552" lon="30.870326">
        <ele>1280.000000</ele>
        <time>2010-05-04T08:57:20Z</time>
      </trkpt>
      <trkpt lat="38.215514" lon="30.870336">
        <ele>1284.000000</ele>
        <time>2010-05-04T08:57:46Z</time>
      </trkpt>
      <trkpt lat="38.215472" lon="30.870346">
        <ele>1284.000000</ele>
        <time>2010-05-04T08:57:47Z</time>
      </trkpt>
      <trkpt lat="38.215430" lon="30.870390">
        <ele>1284.000000</ele>
        <time>2010-05-04T08:57:50Z</time>
      </trkpt>
      <trkpt lat="38.215392" lon="30.870438">
        <ele>1286.000000</ele>
        <time>2010-05-04T08:58:11Z</time>
      </trkpt>
      <trkpt lat="38.215370" lon="30.870435">
        <ele>1286.000000</ele>
        <time>2010-05-04T08:58:12Z</time>
      </trkpt>
      <trkpt lat="38.215366" lon="30.870429">
        <ele>1286.000000</ele>
        <time>2010-05-04T08:58:13Z</time>
      </trkpt>
      <trkpt lat="38.215315" lon="30.870365">
        <ele>1285.000000</ele>
        <time>2010-05-04T08:58:31Z</time>
      </trkpt>
      <trkpt lat="38.215306" lon="30.870358">
        <ele>1284.000000</ele>
        <time>2010-05-04T08:58:32Z</time>
      </trkpt>
      <trkpt lat="38.215210" lon="30.870368">
        <ele>1284.000000</ele>
        <time>2010-05-04T08:58:40Z</time>
      </trkpt>
      <trkpt lat="38.215200" lon="30.870349">
        <ele>1286.000000</ele>
        <time>2010-05-04T08:58:43Z</time>
      </trkpt>
      <trkpt lat="38.215194" lon="30.870278">
        <ele>1285.000000</ele>
        <time>2010-05-04T08:58:49Z</time>
      </trkpt>
      <trkpt lat="38.215184" lon="30.870269">
        <ele>1285.000000</ele>
        <time>2010-05-04T08:58:50Z</time>
      </trkpt>
      <trkpt lat="38.215184" lon="30.870282">
        <ele>1286.000000</ele>
        <time>2010-05-04T08:58:51Z</time>
      </trkpt>
      <trkpt lat="38.215174" lon="30.870301">
        <ele>1286.000000</ele>
        <time>2010-05-04T08:58:52Z</time>
      </trkpt>
      <trkpt lat="38.215168" lon="30.870304">
        <ele>1286.000000</ele>
        <time>2010-05-04T08:58:54Z</time>
      </trkpt>
      <trkpt lat="38.215104" lon="30.870298">
        <ele>1287.000000</ele>
        <time>2010-05-04T08:59:02Z</time>
      </trkpt>
      <trkpt lat="38.215110" lon="30.870275">
        <ele>1288.000000</ele>
        <time>2010-05-04T08:59:05Z</time>
      </trkpt>
      <trkpt lat="38.215123" lon="30.870272">
        <ele>1287.000000</ele>
        <time>2010-05-04T08:59:09Z</time>
      </trkpt>
      <trkpt lat="38.215110" lon="30.870259">
        <ele>1288.000000</ele>
        <time>2010-05-04T08:59:11Z</time>
      </trkpt>
      <trkpt lat="38.215088" lon="30.870211">
        <ele>1288.000000</ele>
        <time>2010-05-04T08:59:14Z</time>
      </trkpt>
      <trkpt lat="38.215085" lon="30.870192">
        <ele>1288.000000</ele>
        <time>2010-05-04T08:59:15Z</time>
      </trkpt>
      <trkpt lat="38.215120" lon="30.870176">
        <ele>1289.000000</ele>
        <time>2010-05-04T08:59:16Z</time>
      </trkpt>
      <trkpt lat="38.215152" lon="30.870166">
        <ele>1288.000000</ele>
        <time>2010-05-04T08:59:17Z</time>
      </trkpt>
      <trkpt lat="38.215162" lon="30.870160">
        <ele>1288.000000</ele>
        <time>2010-05-04T08:59:18Z</time>
      </trkpt>
      <trkpt lat="38.215171" lon="30.870147">
        <ele>1287.000000</ele>
        <time>2010-05-04T08:59:19Z</time>
      </trkpt>
      <trkpt lat="38.215075" lon="30.870125">
        <ele>1288.000000</ele>
        <time>2010-05-04T08:59:21Z</time>
      </trkpt>
      <trkpt lat="38.214877" lon="30.870029">
        <ele>1292.000000</ele>
        <time>2010-05-04T08:59:44Z</time>
      </trkpt>
      <trkpt lat="38.214854" lon="30.870080">
        <ele>1292.000000</ele>
        <time>2010-05-04T08:59:56Z</time>
      </trkpt>
      <trkpt lat="38.214835" lon="30.870090">
        <ele>1290.000000</ele>
        <time>2010-05-04T08:59:58Z</time>
      </trkpt>
      <trkpt lat="38.214829" lon="30.870086">
        <ele>1293.000000</ele>
        <time>2010-05-04T09:00:00Z</time>
      </trkpt>
      <trkpt lat="38.214813" lon="30.870077">
        <ele>1291.000000</ele>
        <time>2010-05-04T09:00:02Z</time>
      </trkpt>
      <trkpt lat="38.214794" lon="30.870093">
        <ele>1292.000000</ele>
        <time>2010-05-04T09:00:33Z</time>
      </trkpt>
      <trkpt lat="38.214797" lon="30.870099">
        <ele>1294.000000</ele>
        <time>2010-05-04T09:00:39Z</time>
      </trkpt>
      <trkpt lat="38.214733" lon="30.870141">
        <ele>1296.000000</ele>
        <time>2010-05-04T09:00:42Z</time>
      </trkpt>
      <trkpt lat="38.214758" lon="30.870125">
        <ele>1295.000000</ele>
        <time>2010-05-04T09:00:43Z</time>
      </trkpt>
      <trkpt lat="38.214768" lon="30.870112">
        <ele>1295.000000</ele>
        <time>2010-05-04T09:00:44Z</time>
      </trkpt>
      <trkpt lat="38.214784" lon="30.870115">
        <ele>1295.000000</ele>
        <time>2010-05-04T09:00:45Z</time>
      </trkpt>
      <trkpt lat="38.214790" lon="30.870109">
        <ele>1296.000000</ele>
        <time>2010-05-04T09:00:46Z</time>
      </trkpt>
      <trkpt lat="38.214797" lon="30.870070">
        <ele>1296.000000</ele>
        <time>2010-05-04T09:00:47Z</time>
      </trkpt>
      <trkpt lat="38.214608" lon="30.870080">
        <ele>1302.000000</ele>
        <time>2010-05-04T09:01:28Z</time>
      </trkpt>
      <trkpt lat="38.214163" lon="30.870131">
        <ele>1304.000000</ele>
        <time>2010-05-04T09:04:17Z</time>
      </trkpt>
      <trkpt lat="38.214154" lon="30.870141">
        <ele>1304.000000</ele>
        <time>2010-05-04T09:04:18Z</time>
      </trkpt>
      <trkpt lat="38.214042" lon="30.870269">
        <ele>1304.000000</ele>
        <time>2010-05-04T09:04:34Z</time>
      </trkpt>
      <trkpt lat="38.213990" lon="30.870339">
        <ele>1305.000000</ele>
        <time>2010-05-04T09:04:40Z</time>
      </trkpt>
      <trkpt lat="38.213933" lon="30.870464">
        <ele>1305.000000</ele>
        <time>2010-05-04T09:04:48Z</time>
      </trkpt>
      <trkpt lat="38.213917" lon="30.870467">
        <ele>1305.000000</ele>
        <time>2010-05-04T09:04:49Z</time>
      </trkpt>
      <trkpt lat="38.213910" lon="30.870464">
        <ele>1305.000000</ele>
        <time>2010-05-04T09:04:50Z</time>
      </trkpt>
      <trkpt lat="38.213891" lon="30.870461">
        <ele>1305.000000</ele>
        <time>2010-05-04T09:04:59Z</time>
      </trkpt>
      <trkpt lat="38.213891" lon="30.870458">
        <ele>1306.000000</ele>
        <time>2010-05-04T09:05:01Z</time>
      </trkpt>
      <trkpt lat="38.213875" lon="30.870448">
        <ele>1305.000000</ele>
        <time>2010-05-04T09:05:03Z</time>
      </trkpt>
      <trkpt lat="38.213872" lon="30.870486">
        <ele>1306.000000</ele>
        <time>2010-05-04T09:05:10Z</time>
      </trkpt>
      <trkpt lat="38.213811" lon="30.870464">
        <ele>1307.000000</ele>
        <time>2010-05-04T09:05:30Z</time>
      </trkpt>
      <trkpt lat="38.213802" lon="30.870438">
        <ele>1306.000000</ele>
        <time>2010-05-04T09:05:34Z</time>
      </trkpt>
      <trkpt lat="38.213738" lon="30.870426">
        <ele>1309.000000</ele>
        <time>2010-05-04T09:05:54Z</time>
      </trkpt>
      <trkpt lat="38.213763" lon="30.870506">
        <ele>1311.000000</ele>
        <time>2010-05-04T09:06:00Z</time>
      </trkpt>
      <trkpt lat="38.213798" lon="30.870563">
        <ele>1310.000000</ele>
        <time>2010-05-04T09:06:02Z</time>
      </trkpt>
      <trkpt lat="38.213738" lon="30.870573">
        <ele>1311.000000</ele>
        <time>2010-05-04T09:06:09Z</time>
      </trkpt>
      <trkpt lat="38.213712" lon="30.870586">
        <ele>1312.000000</ele>
        <time>2010-05-04T09:06:15Z</time>
      </trkpt>
      <trkpt lat="38.213683" lon="30.870586">
        <ele>1312.000000</ele>
        <time>2010-05-04T09:06:17Z</time>
      </trkpt>
      <trkpt lat="38.213664" lon="30.870570">
        <ele>1314.000000</ele>
        <time>2010-05-04T09:06:18Z</time>
      </trkpt>
      <trkpt lat="38.213597" lon="30.870525">
        <ele>1315.000000</ele>
        <time>2010-05-04T09:06:28Z</time>
      </trkpt>
      <trkpt lat="38.213565" lon="30.870493">
        <ele>1315.000000</ele>
        <time>2010-05-04T09:06:39Z</time>
      </trkpt>
      <trkpt lat="38.213552" lon="30.870477">
        <ele>1317.000000</ele>
        <time>2010-05-04T09:06:41Z</time>
      </trkpt>
      <trkpt lat="38.213539" lon="30.870464">
        <ele>1317.000000</ele>
        <time>2010-05-04T09:06:42Z</time>
      </trkpt>
      <trkpt lat="38.213536" lon="30.870451">
        <ele>1317.000000</ele>
        <time>2010-05-04T09:06:43Z</time>
      </trkpt>
      <trkpt lat="38.213520" lon="30.870448">
        <ele>1317.000000</ele>
        <time>2010-05-04T09:06:44Z</time>
      </trkpt>
      <trkpt lat="38.213504" lon="30.870464">
        <ele>1318.000000</ele>
        <time>2010-05-04T09:06:47Z</time>
      </trkpt>
      <trkpt lat="38.213494" lon="30.870506">
        <ele>1320.000000</ele>
        <time>2010-05-04T09:06:55Z</time>
      </trkpt>
      <trkpt lat="38.213421" lon="30.870477">
        <ele>1322.000000</ele>
        <time>2010-05-04T09:06:57Z</time>
      </trkpt>
      <trkpt lat="38.213434" lon="30.870378">
        <ele>1322.000000</ele>
        <time>2010-05-04T09:07:04Z</time>
      </trkpt>
      <trkpt lat="38.213414" lon="30.870381">
        <ele>1321.000000</ele>
        <time>2010-05-04T09:07:05Z</time>
      </trkpt>
      <trkpt lat="38.213347" lon="30.870445">
        <ele>1322.000000</ele>
        <time>2010-05-04T09:07:17Z</time>
      </trkpt>
      <trkpt lat="38.213242" lon="30.870413">
        <ele>1323.000000</ele>
        <time>2010-05-04T09:07:31Z</time>
      </trkpt>
      <trkpt lat="38.213226" lon="30.870400">
        <ele>1321.000000</ele>
        <time>2010-05-04T09:07:33Z</time>
      </trkpt>
      <trkpt lat="38.213190" lon="30.870378">
        <ele>1323.000000</ele>
        <time>2010-05-04T09:07:36Z</time>
      </trkpt>
      <trkpt lat="38.213146" lon="30.870339">
        <ele>1325.000000</ele>
        <time>2010-05-04T09:07:46Z</time>
      </trkpt>
      <trkpt lat="38.213142" lon="30.870291">
        <ele>1326.000000</ele>
        <time>2010-05-04T09:07:55Z</time>
      </trkpt>
      <trkpt lat="38.213107" lon="30.870326">
        <ele>1331.000000</ele>
        <time>2010-05-04T09:08:24Z</time>
      </trkpt>
      <trkpt lat="38.213069" lon="30.870397">
        <ele>1332.000000</ele>
        <time>2010-05-04T09:08:31Z</time>
      </trkpt>
      <trkpt lat="38.213059" lon="30.870413">
        <ele>1332.000000</ele>
        <time>2010-05-04T09:08:34Z</time>
      </trkpt>
      <trkpt lat="38.213059" lon="30.870419">
        <ele>1334.000000</ele>
        <time>2010-05-04T09:08:36Z</time>
      </trkpt>
      <trkpt lat="38.213056" lon="30.870419">
        <ele>1334.000000</ele>
        <time>2010-05-04T09:08:37Z</time>
      </trkpt>
      <trkpt lat="38.213030" lon="30.870438">
        <ele>1333.000000</ele>
        <time>2010-05-04T09:08:45Z</time>
      </trkpt>
      <trkpt lat="38.213002" lon="30.870448">
        <ele>1334.000000</ele>
        <time>2010-05-04T09:08:49Z</time>
      </trkpt>
      <trkpt lat="38.212979" lon="30.870486">
        <ele>1336.000000</ele>
        <time>2010-05-04T09:09:01Z</time>
      </trkpt>
      <trkpt lat="38.212950" lon="30.870509">
        <ele>1336.000000</ele>
        <time>2010-05-04T09:09:04Z</time>
      </trkpt>
      <trkpt lat="38.212989" lon="30.870515">
        <ele>1334.000000</ele>
        <time>2010-05-04T09:09:05Z</time>
      </trkpt>
      <trkpt lat="38.213005" lon="30.870502">
        <ele>1335.000000</ele>
        <time>2010-05-04T09:09:07Z</time>
      </trkpt>
      <trkpt lat="38.212979" lon="30.870544">
        <ele>1336.000000</ele>
        <time>2010-05-04T09:09:10Z</time>
      </trkpt>
      <trkpt lat="38.212966" lon="30.870554">
        <ele>1336.000000</ele>
        <time>2010-05-04T09:09:12Z</time>
      </trkpt>
      <trkpt lat="38.212998" lon="30.870582">
        <ele>1338.000000</ele>
        <time>2010-05-04T09:09:15Z</time>
      </trkpt>
      <trkpt lat="38.212986" lon="30.870598">
        <ele>1338.000000</ele>
        <time>2010-05-04T09:09:18Z</time>
      </trkpt>
      <trkpt lat="38.212966" lon="30.870666">
        <ele>1339.000000</ele>
        <time>2010-05-04T09:09:28Z</time>
      </trkpt>
      <trkpt lat="38.212944" lon="30.870634">
        <ele>1340.000000</ele>
        <time>2010-05-04T09:09:31Z</time>
      </trkpt>
      <trkpt lat="38.212912" lon="30.870518">
        <ele>1340.000000</ele>
        <time>2010-05-04T09:09:41Z</time>
      </trkpt>
      <trkpt lat="38.212912" lon="30.870515">
        <ele>1341.000000</ele>
        <time>2010-05-04T09:09:43Z</time>
      </trkpt>
      <trkpt lat="38.212883" lon="30.870515">
        <ele>1342.000000</ele>
        <time>2010-05-04T09:09:50Z</time>
      </trkpt>
      <trkpt lat="38.212861" lon="30.870490">
        <ele>1344.000000</ele>
        <time>2010-05-04T09:09:53Z</time>
      </trkpt>
      <trkpt lat="38.212848" lon="30.870506">
        <ele>1345.000000</ele>
        <time>2010-05-04T09:09:56Z</time>
      </trkpt>
      <trkpt lat="38.212749" lon="30.870528">
        <ele>1346.000000</ele>
        <time>2010-05-04T09:10:10Z</time>
      </trkpt>
      <trkpt lat="38.212733" lon="30.870525">
        <ele>1347.000000</ele>
        <time>2010-05-04T09:10:12Z</time>
      </trkpt>
      <trkpt lat="38.212746" lon="30.870544">
        <ele>1347.000000</ele>
        <time>2010-05-04T09:10:13Z</time>
      </trkpt>
      <trkpt lat="38.212758" lon="30.870557">
        <ele>1349.000000</ele>
        <time>2010-05-04T09:10:14Z</time>
      </trkpt>
      <trkpt lat="38.212822" lon="30.870592">
        <ele>1348.000000</ele>
        <time>2010-05-04T09:10:17Z</time>
      </trkpt>
      <trkpt lat="38.212842" lon="30.870605">
        <ele>1348.000000</ele>
        <time>2010-05-04T09:10:19Z</time>
      </trkpt>
      <trkpt lat="38.212845" lon="30.870634">
        <ele>1347.000000</ele>
        <time>2010-05-04T09:10:21Z</time>
      </trkpt>
      <trkpt lat="38.212845" lon="30.870650">
        <ele>1349.000000</ele>
        <time>2010-05-04T09:10:23Z</time>
      </trkpt>
      <trkpt lat="38.212838" lon="30.870643">
        <ele>1350.000000</ele>
        <time>2010-05-04T09:10:25Z</time>
      </trkpt>
      <trkpt lat="38.212829" lon="30.870627">
        <ele>1351.000000</ele>
        <time>2010-05-04T09:10:28Z</time>
      </trkpt>
      <trkpt lat="38.212822" lon="30.870634">
        <ele>1350.000000</ele>
        <time>2010-05-04T09:10:30Z</time>
      </trkpt>
      <trkpt lat="38.212822" lon="30.870643">
        <ele>1352.000000</ele>
        <time>2010-05-04T09:10:31Z</time>
      </trkpt>
      <trkpt lat="38.212813" lon="30.870653">
        <ele>1352.000000</ele>
        <time>2010-05-04T09:10:32Z</time>
      </trkpt>
      <trkpt lat="38.212806" lon="30.870662">
        <ele>1353.000000</ele>
        <time>2010-05-04T09:10:33Z</time>
      </trkpt>
      <trkpt lat="38.212797" lon="30.870659">
        <ele>1352.000000</ele>
        <time>2010-05-04T09:10:34Z</time>
      </trkpt>
      <trkpt lat="38.212787" lon="30.870666">
        <ele>1351.000000</ele>
        <time>2010-05-04T09:10:35Z</time>
      </trkpt>
      <trkpt lat="38.212784" lon="30.870675">
        <ele>1351.000000</ele>
        <time>2010-05-04T09:10:37Z</time>
      </trkpt>
      <trkpt lat="38.212781" lon="30.870659">
        <ele>1352.000000</ele>
        <time>2010-05-04T09:10:38Z</time>
      </trkpt>
      <trkpt lat="38.212778" lon="30.870662">
        <ele>1354.000000</ele>
        <time>2010-05-04T09:10:39Z</time>
      </trkpt>
      <trkpt lat="38.212768" lon="30.870669">
        <ele>1353.000000</ele>
        <time>2010-05-04T09:10:41Z</time>
      </trkpt>
      <trkpt lat="38.212762" lon="30.870678">
        <ele>1353.000000</ele>
        <time>2010-05-04T09:10:44Z</time>
      </trkpt>
      <trkpt lat="38.212698" lon="30.870742">
        <ele>1358.000000</ele>
        <time>2010-05-04T09:12:15Z</time>
      </trkpt>
      <trkpt lat="38.212426" lon="30.870893">
        <ele>1370.000000</ele>
        <time>2010-05-04T09:18:09Z</time>
      </trkpt>
      <trkpt lat="38.212419" lon="30.870886">
        <ele>1370.000000</ele>
        <time>2010-05-04T09:18:10Z</time>
      </trkpt>
      <trkpt lat="38.212285" lon="30.870864">
        <ele>1375.000000</ele>
        <time>2010-05-04T09:20:33Z</time>
      </trkpt>
      <trkpt lat="38.212227" lon="30.870845">
        <ele>1375.000000</ele>
        <time>2010-05-04T09:20:38Z</time>
      </trkpt>
      <trkpt lat="38.212147" lon="30.870848">
        <ele>1375.000000</ele>
        <time>2010-05-04T09:20:43Z</time>
      </trkpt>
      <trkpt lat="38.212093" lon="30.870864">
        <ele>1376.000000</ele>
        <time>2010-05-04T09:20:45Z</time>
      </trkpt>
      <trkpt lat="38.212054" lon="30.870870">
        <ele>1377.000000</ele>
        <time>2010-05-04T09:20:48Z</time>
      </trkpt>
      <trkpt lat="38.212003" lon="30.870893">
        <ele>1376.000000</ele>
        <time>2010-05-04T09:20:52Z</time>
      </trkpt>
      <trkpt lat="38.211974" lon="30.870931">
        <ele>1377.000000</ele>
        <time>2010-05-04T09:20:56Z</time>
      </trkpt>
      <trkpt lat="38.211898" lon="30.870896">
        <ele>1379.000000</ele>
        <time>2010-05-04T09:21:06Z</time>
      </trkpt>
      <trkpt lat="38.211872" lon="30.870886">
        <ele>1379.000000</ele>
        <time>2010-05-04T09:21:09Z</time>
      </trkpt>
      <trkpt lat="38.211798" lon="30.870845">
        <ele>1380.000000</ele>
        <time>2010-05-04T09:21:21Z</time>
      </trkpt>
      <trkpt lat="38.211670" lon="30.870733">
        <ele>1381.000000</ele>
        <time>2010-05-04T09:21:28Z</time>
      </trkpt>
      <trkpt lat="38.211658" lon="30.870707">
        <ele>1382.000000</ele>
        <time>2010-05-04T09:21:30Z</time>
      </trkpt>
      <trkpt lat="38.211606" lon="30.870643">
        <ele>1381.000000</ele>
        <time>2010-05-04T09:21:44Z</time>
      </trkpt>
      <trkpt lat="38.211597" lon="30.870582">
        <ele>1382.000000</ele>
        <time>2010-05-04T09:21:45Z</time>
      </trkpt>
      <trkpt lat="38.211571" lon="30.870570">
        <ele>1384.000000</ele>
        <time>2010-05-04T09:22:00Z</time>
      </trkpt>
      <trkpt lat="38.211562" lon="30.870515">
        <ele>1385.000000</ele>
        <time>2010-05-04T09:22:13Z</time>
      </trkpt>
      <trkpt lat="38.211578" lon="30.870426">
        <ele>1384.000000</ele>
        <time>2010-05-04T09:22:16Z</time>
      </trkpt>
      <trkpt lat="38.211482" lon="30.870365">
        <ele>1383.000000</ele>
        <time>2010-05-04T09:22:28Z</time>
      </trkpt>
      <trkpt lat="38.211475" lon="30.870378">
        <ele>1385.000000</ele>
        <time>2010-05-04T09:22:31Z</time>
      </trkpt>
      <trkpt lat="38.211462" lon="30.870406">
        <ele>1383.000000</ele>
        <time>2010-05-04T09:22:32Z</time>
      </trkpt>
      <trkpt lat="38.211462" lon="30.870496">
        <ele>1385.000000</ele>
        <time>2010-05-04T09:22:33Z</time>
      </trkpt>
      <trkpt lat="38.211446" lon="30.870563">
        <ele>1385.000000</ele>
        <time>2010-05-04T09:22:37Z</time>
      </trkpt>
      <trkpt lat="38.211421" lon="30.870566">
        <ele>1386.000000</ele>
        <time>2010-05-04T09:22:40Z</time>
      </trkpt>
      <trkpt lat="38.211414" lon="30.870566">
        <ele>1387.000000</ele>
        <time>2010-05-04T09:22:41Z</time>
      </trkpt>
      <trkpt lat="38.211389" lon="30.870560">
        <ele>1384.000000</ele>
        <time>2010-05-04T09:22:43Z</time>
      </trkpt>
      <trkpt lat="38.211341" lon="30.870598">
        <ele>1386.000000</ele>
        <time>2010-05-04T09:22:48Z</time>
      </trkpt>
      <trkpt lat="38.211322" lon="30.870579">
        <ele>1385.000000</ele>
        <time>2010-05-04T09:22:50Z</time>
      </trkpt>
      <trkpt lat="38.211328" lon="30.870544">
        <ele>1385.000000</ele>
        <time>2010-05-04T09:22:51Z</time>
      </trkpt>
      <trkpt lat="38.211318" lon="30.870506">
        <ele>1385.000000</ele>
        <time>2010-05-04T09:22:54Z</time>
      </trkpt>
      <trkpt lat="38.211328" lon="30.870496">
        <ele>1385.000000</ele>
        <time>2010-05-04T09:22:55Z</time>
      </trkpt>
      <trkpt lat="38.211322" lon="30.870486">
        <ele>1387.000000</ele>
        <time>2010-05-04T09:22:56Z</time>
      </trkpt>
      <trkpt lat="38.211322" lon="30.870480">
        <ele>1386.000000</ele>
        <time>2010-05-04T09:22:57Z</time>
      </trkpt>
      <trkpt lat="38.211315" lon="30.870477">
        <ele>1387.000000</ele>
        <time>2010-05-04T09:22:58Z</time>
      </trkpt>
      <trkpt lat="38.211299" lon="30.870458">
        <ele>1387.000000</ele>
        <time>2010-05-04T09:22:59Z</time>
      </trkpt>
      <trkpt lat="38.211283" lon="30.870458">
        <ele>1387.000000</ele>
        <time>2010-05-04T09:23:00Z</time>
      </trkpt>
      <trkpt lat="38.211280" lon="30.870467">
        <ele>1387.000000</ele>
        <time>2010-05-04T09:23:01Z</time>
      </trkpt>
      <trkpt lat="38.211254" lon="30.870458">
        <ele>1388.000000</ele>
        <time>2010-05-04T09:23:07Z</time>
      </trkpt>
      <trkpt lat="38.211248" lon="30.870429">
        <ele>1387.000000</ele>
        <time>2010-05-04T09:23:09Z</time>
      </trkpt>
      <trkpt lat="38.211232" lon="30.870403">
        <ele>1388.000000</ele>
        <time>2010-05-04T09:23:11Z</time>
      </trkpt>
      <trkpt lat="38.211213" lon="30.870381">
        <ele>1389.000000</ele>
        <time>2010-05-04T09:23:12Z</time>
      </trkpt>
      <trkpt lat="38.211210" lon="30.870317">
        <ele>1389.000000</ele>
        <time>2010-05-04T09:23:18Z</time>
      </trkpt>
      <trkpt lat="38.211216" lon="30.870314">
        <ele>1386.000000</ele>
        <time>2010-05-04T09:23:19Z</time>
      </trkpt>
      <trkpt lat="38.211213" lon="30.870278">
        <ele>1389.000000</ele>
        <time>2010-05-04T09:23:22Z</time>
      </trkpt>
      <trkpt lat="38.211174" lon="30.870227">
        <ele>1391.000000</ele>
        <time>2010-05-04T09:23:24Z</time>
      </trkpt>
      <trkpt lat="38.211114" lon="30.870269">
        <ele>1397.000000</ele>
        <time>2010-05-04T09:24:15Z</time>
      </trkpt>
      <trkpt lat="38.211142" lon="30.870298">
        <ele>1398.000000</ele>
        <time>2010-05-04T09:24:17Z</time>
      </trkpt>
      <trkpt lat="38.211117" lon="30.870390">
        <ele>1396.000000</ele>
        <time>2010-05-04T09:24:19Z</time>
      </trkpt>
      <trkpt lat="38.211082" lon="30.870394">
        <ele>1397.000000</ele>
        <time>2010-05-04T09:24:28Z</time>
      </trkpt>
      <trkpt lat="38.211075" lon="30.870330">
        <ele>1398.000000</ele>
        <time>2010-05-04T09:24:33Z</time>
      </trkpt>
      <trkpt lat="38.211050" lon="30.870410">
        <ele>1400.000000</ele>
        <time>2010-05-04T09:24:37Z</time>
      </trkpt>
      <trkpt lat="38.211014" lon="30.870448">
        <ele>1400.000000</ele>
        <time>2010-05-04T09:24:50Z</time>
      </trkpt>
      <trkpt lat="38.210973" lon="30.870528">
        <ele>1399.000000</ele>
        <time>2010-05-04T09:24:56Z</time>
      </trkpt>
      <trkpt lat="38.210960" lon="30.870515">
        <ele>1402.000000</ele>
        <time>2010-05-04T09:25:02Z</time>
      </trkpt>
      <trkpt lat="38.210944" lon="30.870506">
        <ele>1401.000000</ele>
        <time>2010-05-04T09:25:05Z</time>
      </trkpt>
      <trkpt lat="38.210934" lon="30.870573">
        <ele>1402.000000</ele>
        <time>2010-05-04T09:25:08Z</time>
      </trkpt>
      <trkpt lat="38.210922" lon="30.870627">
        <ele>1401.000000</ele>
        <time>2010-05-04T09:25:13Z</time>
      </trkpt>
      <trkpt lat="38.210886" lon="30.870630">
        <ele>1403.000000</ele>
        <time>2010-05-04T09:25:29Z</time>
      </trkpt>
      <trkpt lat="38.210870" lon="30.870678">
        <ele>1402.000000</ele>
        <time>2010-05-04T09:25:30Z</time>
      </trkpt>
      <trkpt lat="38.210794" lon="30.870608">
        <ele>1400.000000</ele>
        <time>2010-05-04T09:25:40Z</time>
      </trkpt>
      <trkpt lat="38.210778" lon="30.870592">
        <ele>1402.000000</ele>
        <time>2010-05-04T09:25:41Z</time>
      </trkpt>
      <trkpt lat="38.210746" lon="30.870582">
        <ele>1402.000000</ele>
        <time>2010-05-04T09:25:43Z</time>
      </trkpt>
      <trkpt lat="38.210733" lon="30.870618">
        <ele>1402.000000</ele>
        <time>2010-05-04T09:25:46Z</time>
      </trkpt>
      <trkpt lat="38.210701" lon="30.870710">
        <ele>1404.000000</ele>
        <time>2010-05-04T09:25:50Z</time>
      </trkpt>
      <trkpt lat="38.210627" lon="30.870742">
        <ele>1405.000000</ele>
        <time>2010-05-04T09:26:17Z</time>
      </trkpt>
      <trkpt lat="38.210624" lon="30.870768">
        <ele>1405.000000</ele>
        <time>2010-05-04T09:26:18Z</time>
      </trkpt>
      <trkpt lat="38.210483" lon="30.870835">
        <ele>1409.000000</ele>
        <time>2010-05-04T09:27:11Z</time>
      </trkpt>
      <trkpt lat="38.210445" lon="30.870822">
        <ele>1409.000000</ele>
        <time>2010-05-04T09:27:13Z</time>
      </trkpt>
      <trkpt lat="38.210384" lon="30.870851">
        <ele>1408.000000</ele>
        <time>2010-05-04T09:27:18Z</time>
      </trkpt>
      <trkpt lat="38.210346" lon="30.870880">
        <ele>1411.000000</ele>
        <time>2010-05-04T09:27:43Z</time>
      </trkpt>
      <trkpt lat="38.210298" lon="30.870906">
        <ele>1412.000000</ele>
        <time>2010-05-04T09:27:47Z</time>
      </trkpt>
      <trkpt lat="38.210266" lon="30.870867">
        <ele>1412.000000</ele>
        <time>2010-05-04T09:27:55Z</time>
      </trkpt>
      <trkpt lat="38.210266" lon="30.870822">
        <ele>1414.000000</ele>
        <time>2010-05-04T09:28:17Z</time>
      </trkpt>
      <trkpt lat="38.210230" lon="30.870803">
        <ele>1413.000000</ele>
        <time>2010-05-04T09:28:22Z</time>
      </trkpt>
      <trkpt lat="38.210221" lon="30.870784">
        <ele>1413.000000</ele>
        <time>2010-05-04T09:28:24Z</time>
      </trkpt>
      <trkpt lat="38.210160" lon="30.870755">
        <ele>1413.000000</ele>
        <time>2010-05-04T09:28:29Z</time>
      </trkpt>
      <trkpt lat="38.210096" lon="30.870678">
        <ele>1413.000000</ele>
        <time>2010-05-04T09:28:54Z</time>
      </trkpt>
      <trkpt lat="38.210070" lon="30.870675">
        <ele>1413.000000</ele>
        <time>2010-05-04T09:28:57Z</time>
      </trkpt>
      <trkpt lat="38.210045" lon="30.870656">
        <ele>1413.000000</ele>
        <time>2010-05-04T09:28:58Z</time>
      </trkpt>
      <trkpt lat="38.210061" lon="30.870646">
        <ele>1413.000000</ele>
        <time>2010-05-04T09:28:59Z</time>
      </trkpt>
      <trkpt lat="38.210058" lon="30.870659">
        <ele>1414.000000</ele>
        <time>2010-05-04T09:29:00Z</time>
      </trkpt>
      <trkpt lat="38.210058" lon="30.870672">
        <ele>1414.000000</ele>
        <time>2010-05-04T09:29:02Z</time>
      </trkpt>
      <trkpt lat="38.209802" lon="30.870368">
        <ele>1424.000000</ele>
        <time>2010-05-04T09:59:12Z</time>
      </trkpt>
      <trkpt lat="38.209789" lon="30.870362">
        <ele>1424.000000</ele>
        <time>2010-05-04T09:59:15Z</time>
      </trkpt>
      <trkpt lat="38.209782" lon="30.870358">
        <ele>1424.000000</ele>
        <time>2010-05-04T09:59:16Z</time>
      </trkpt>
      <trkpt lat="38.209741" lon="30.870362">
        <ele>1425.000000</ele>
        <time>2010-05-04T09:59:25Z</time>
      </trkpt>
      <trkpt lat="38.209725" lon="30.870323">
        <ele>1423.000000</ele>
        <time>2010-05-04T09:59:32Z</time>
      </trkpt>
      <trkpt lat="38.209722" lon="30.870320">
        <ele>1424.000000</ele>
        <time>2010-05-04T09:59:34Z</time>
      </trkpt>
      <trkpt lat="38.209702" lon="30.870314">
        <ele>1421.000000</ele>
        <time>2010-05-04T09:59:50Z</time>
      </trkpt>
      <trkpt lat="38.209670" lon="30.870310">
        <ele>1418.000000</ele>
        <time>2010-05-04T09:59:56Z</time>
      </trkpt>
      <trkpt lat="38.209651" lon="30.870307">
        <ele>1421.000000</ele>
        <time>2010-05-04T10:00:00Z</time>
      </trkpt>
      <trkpt lat="38.209507" lon="30.870307">
        <ele>1419.000000</ele>
        <time>2010-05-04T10:00:18Z</time>
      </trkpt>
      <trkpt lat="38.209424" lon="30.870208">
        <ele>1419.000000</ele>
        <time>2010-05-04T10:00:32Z</time>
      </trkpt>
      <trkpt lat="38.209411" lon="30.870186">
        <ele>1418.000000</ele>
        <time>2010-05-04T10:00:36Z</time>
      </trkpt>
      <trkpt lat="38.209357" lon="30.870179">
        <ele>1416.000000</ele>
        <time>2010-05-04T10:00:53Z</time>
      </trkpt>
      <trkpt lat="38.209293" lon="30.870157">
        <ele>1415.000000</ele>
        <time>2010-05-04T10:01:01Z</time>
      </trkpt>
      <trkpt lat="38.209258" lon="30.870125">
        <ele>1414.000000</ele>
        <time>2010-05-04T10:01:08Z</time>
      </trkpt>
      <trkpt lat="38.209229" lon="30.870080">
        <ele>1416.000000</ele>
        <time>2010-05-04T10:01:13Z</time>
      </trkpt>
      <trkpt lat="38.209229" lon="30.870067">
        <ele>1415.000000</ele>
        <time>2010-05-04T10:01:14Z</time>
      </trkpt>
      <trkpt lat="38.209232" lon="30.870019">
        <ele>1415.000000</ele>
        <time>2010-05-04T10:01:16Z</time>
      </trkpt>
      <trkpt lat="38.209222" lon="30.869949">
        <ele>1416.000000</ele>
        <time>2010-05-04T10:01:19Z</time>
      </trkpt>
      <trkpt lat="38.209190" lon="30.869888">
        <ele>1416.000000</ele>
        <time>2010-05-04T10:01:22Z</time>
      </trkpt>
      <trkpt lat="38.209158" lon="30.869872">
        <ele>1414.000000</ele>
        <time>2010-05-04T10:01:25Z</time>
      </trkpt>
      <trkpt lat="38.209139" lon="30.869869">
        <ele>1415.000000</ele>
        <time>2010-05-04T10:01:27Z</time>
      </trkpt>
      <trkpt lat="38.209107" lon="30.869882">
        <ele>1416.000000</ele>
        <time>2010-05-04T10:01:38Z</time>
      </trkpt>
      <trkpt lat="38.209069" lon="30.869907">
        <ele>1418.000000</ele>
        <time>2010-05-04T10:01:44Z</time>
      </trkpt>
      <trkpt lat="38.209059" lon="30.869910">
        <ele>1418.000000</ele>
        <time>2010-05-04T10:01:46Z</time>
      </trkpt>
      <trkpt lat="38.209030" lon="30.869869">
        <ele>1416.000000</ele>
        <time>2010-05-04T10:01:52Z</time>
      </trkpt>
      <trkpt lat="38.208986" lon="30.869856">
        <ele>1414.000000</ele>
        <time>2010-05-04T10:02:02Z</time>
      </trkpt>
      <trkpt lat="38.208976" lon="30.869840">
        <ele>1415.000000</ele>
        <time>2010-05-04T10:02:05Z</time>
      </trkpt>
      <trkpt lat="38.208976" lon="30.869821">
        <ele>1417.000000</ele>
        <time>2010-05-04T10:02:06Z</time>
      </trkpt>
      <trkpt lat="38.208976" lon="30.869811">
        <ele>1417.000000</ele>
        <time>2010-05-04T10:02:07Z</time>
      </trkpt>
      <trkpt lat="38.208960" lon="30.869814">
        <ele>1416.000000</ele>
        <time>2010-05-04T10:02:13Z</time>
      </trkpt>
      <trkpt lat="38.208954" lon="30.869814">
        <ele>1418.000000</ele>
        <time>2010-05-04T10:02:25Z</time>
      </trkpt>
      <trkpt lat="38.208950" lon="30.869792">
        <ele>1417.000000</ele>
        <time>2010-05-04T10:02:34Z</time>
      </trkpt>
      <trkpt lat="38.208950" lon="30.869770">
        <ele>1416.000000</ele>
        <time>2010-05-04T10:02:37Z</time>
      </trkpt>
      <trkpt lat="38.208886" lon="30.869715">
        <ele>1418.000000</ele>
        <time>2010-05-04T10:02:40Z</time>
      </trkpt>
      <trkpt lat="38.208861" lon="30.869690">
        <ele>1418.000000</ele>
        <time>2010-05-04T10:02:42Z</time>
      </trkpt>
      <trkpt lat="38.208845" lon="30.869680">
        <ele>1417.000000</ele>
        <time>2010-05-04T10:02:43Z</time>
      </trkpt>
      <trkpt lat="38.208794" lon="30.869632">
        <ele>1417.000000</ele>
        <time>2010-05-04T10:02:48Z</time>
      </trkpt>
      <trkpt lat="38.208790" lon="30.869571">
        <ele>1417.000000</ele>
        <time>2010-05-04T10:02:53Z</time>
      </trkpt>
      <trkpt lat="38.208714" lon="30.869466">
        <ele>1418.000000</ele>
        <time>2010-05-04T10:03:04Z</time>
      </trkpt>
      <trkpt lat="38.208688" lon="30.869472">
        <ele>1418.000000</ele>
        <time>2010-05-04T10:03:08Z</time>
      </trkpt>
      <trkpt lat="38.208682" lon="30.869494">
        <ele>1420.000000</ele>
        <time>2010-05-04T10:03:11Z</time>
      </trkpt>
      <trkpt lat="38.208634" lon="30.869478">
        <ele>1419.000000</ele>
        <time>2010-05-04T10:03:15Z</time>
      </trkpt>
      <trkpt lat="38.208499" lon="30.869533">
        <ele>1419.000000</ele>
        <time>2010-05-04T10:03:30Z</time>
      </trkpt>
      <trkpt lat="38.208474" lon="30.869514">
        <ele>1418.000000</ele>
        <time>2010-05-04T10:03:34Z</time>
      </trkpt>
      <trkpt lat="38.208349" lon="30.869498">
        <ele>1419.000000</ele>
        <time>2010-05-04T10:03:59Z</time>
      </trkpt>
      <trkpt lat="38.208336" lon="30.869446">
        <ele>1419.000000</ele>
        <time>2010-05-04T10:04:02Z</time>
      </trkpt>
      <trkpt lat="38.208323" lon="30.869434">
        <ele>1419.000000</ele>
        <time>2010-05-04T10:04:03Z</time>
      </trkpt>
      <trkpt lat="38.208294" lon="30.869418">
        <ele>1420.000000</ele>
        <time>2010-05-04T10:04:05Z</time>
      </trkpt>
      <trkpt lat="38.208234" lon="30.869392">
        <ele>1420.000000</ele>
        <time>2010-05-04T10:04:11Z</time>
      </trkpt>
      <trkpt lat="38.208234" lon="30.869382">
        <ele>1420.000000</ele>
        <time>2010-05-04T10:04:16Z</time>
      </trkpt>
      <trkpt lat="38.208170" lon="30.869392">
        <ele>1420.000000</ele>
        <time>2010-05-04T10:04:21Z</time>
      </trkpt>
      <trkpt lat="38.208150" lon="30.869392">
        <ele>1420.000000</ele>
        <time>2010-05-04T10:04:23Z</time>
      </trkpt>
      <trkpt lat="38.208051" lon="30.869373">
        <ele>1420.000000</ele>
        <time>2010-05-04T10:04:34Z</time>
      </trkpt>
      <trkpt lat="38.207997" lon="30.869370">
        <ele>1420.000000</ele>
        <time>2010-05-04T10:04:37Z</time>
      </trkpt>
      <trkpt lat="38.207978" lon="30.869341">
        <ele>1418.000000</ele>
        <time>2010-05-04T10:04:42Z</time>
      </trkpt>
      <trkpt lat="38.207901" lon="30.869344">
        <ele>1418.000000</ele>
        <time>2010-05-04T10:04:52Z</time>
      </trkpt>
      <trkpt lat="38.207894" lon="30.869338">
        <ele>1418.000000</ele>
        <time>2010-05-04T10:04:53Z</time>
      </trkpt>
      <trkpt lat="38.207776" lon="30.869318">
        <ele>1417.000000</ele>
        <time>2010-05-04T10:05:16Z</time>
      </trkpt>
      <trkpt lat="38.207763" lon="30.869325">
        <ele>1418.000000</ele>
        <time>2010-05-04T10:05:18Z</time>
      </trkpt>
      <trkpt lat="38.207741" lon="30.869328">
        <ele>1417.000000</ele>
        <time>2010-05-04T10:05:21Z</time>
      </trkpt>
      <trkpt lat="38.207690" lon="30.869328">
        <ele>1416.000000</ele>
        <time>2010-05-04T10:05:29Z</time>
      </trkpt>
      <trkpt lat="38.207677" lon="30.869328">
        <ele>1416.000000</ele>
        <time>2010-05-04T10:05:31Z</time>
      </trkpt>
      <trkpt lat="38.207629" lon="30.869299">
        <ele>1416.000000</ele>
        <time>2010-05-04T10:05:36Z</time>
      </trkpt>
      <trkpt lat="38.207600" lon="30.869261">
        <ele>1413.000000</ele>
        <time>2010-05-04T10:05:47Z</time>
      </trkpt>
      <trkpt lat="38.207568" lon="30.869248">
        <ele>1414.000000</ele>
        <time>2010-05-04T10:05:58Z</time>
      </trkpt>
      <trkpt lat="38.207520" lon="30.869235">
        <ele>1414.000000</ele>
        <time>2010-05-04T10:06:08Z</time>
      </trkpt>
      <trkpt lat="38.207488" lon="30.869203">
        <ele>1414.000000</ele>
        <time>2010-05-04T10:06:20Z</time>
      </trkpt>
      <trkpt lat="38.207379" lon="30.869258">
        <ele>1418.000000</ele>
        <time>2010-05-04T10:06:30Z</time>
      </trkpt>
      <trkpt lat="38.207325" lon="30.869274">
        <ele>1415.000000</ele>
        <time>2010-05-04T10:06:38Z</time>
      </trkpt>
      <trkpt lat="38.207251" lon="30.869267">
        <ele>1416.000000</ele>
        <time>2010-05-04T10:06:49Z</time>
      </trkpt>
      <trkpt lat="38.207213" lon="30.869258">
        <ele>1415.000000</ele>
        <time>2010-05-04T10:06:59Z</time>
      </trkpt>
      <trkpt lat="38.207187" lon="30.869248">
        <ele>1414.000000</ele>
        <time>2010-05-04T10:07:02Z</time>
      </trkpt>
      <trkpt lat="38.207162" lon="30.869235">
        <ele>1413.000000</ele>
        <time>2010-05-04T10:07:08Z</time>
      </trkpt>
      <trkpt lat="38.207126" lon="30.869235">
        <ele>1414.000000</ele>
        <time>2010-05-04T10:07:13Z</time>
      </trkpt>
      <trkpt lat="38.206982" lon="30.869155">
        <ele>1414.000000</ele>
        <time>2010-05-04T10:07:34Z</time>
      </trkpt>
      <trkpt lat="38.206960" lon="30.869149">
        <ele>1413.000000</ele>
        <time>2010-05-04T10:07:38Z</time>
      </trkpt>
      <trkpt lat="38.206922" lon="30.869139">
        <ele>1412.000000</ele>
        <time>2010-05-04T10:07:43Z</time>
      </trkpt>
      <trkpt lat="38.206909" lon="30.869130">
        <ele>1409.000000</ele>
        <time>2010-05-04T10:07:45Z</time>
      </trkpt>
      <trkpt lat="38.206899" lon="30.869123">
        <ele>1411.000000</ele>
        <time>2010-05-04T10:07:47Z</time>
      </trkpt>
      <trkpt lat="38.206851" lon="30.869142">
        <ele>1411.000000</ele>
        <time>2010-05-04T10:07:53Z</time>
      </trkpt>
      <trkpt lat="38.206784" lon="30.869085">
        <ele>1411.000000</ele>
        <time>2010-05-04T10:08:43Z</time>
      </trkpt>
      <trkpt lat="38.206736" lon="30.869075">
        <ele>1413.000000</ele>
        <time>2010-05-04T10:08:51Z</time>
      </trkpt>
      <trkpt lat="38.206714" lon="30.869078">
        <ele>1413.000000</ele>
        <time>2010-05-04T10:09:03Z</time>
      </trkpt>
      <trkpt lat="38.206694" lon="30.869088">
        <ele>1411.000000</ele>
        <time>2010-05-04T10:09:07Z</time>
      </trkpt>
      <trkpt lat="38.206669" lon="30.869075">
        <ele>1410.000000</ele>
        <time>2010-05-04T10:09:10Z</time>
      </trkpt>
      <trkpt lat="38.206646" lon="30.869050">
        <ele>1412.000000</ele>
        <time>2010-05-04T10:09:14Z</time>
      </trkpt>
      <trkpt lat="38.206624" lon="30.869037">
        <ele>1411.000000</ele>
        <time>2010-05-04T10:09:19Z</time>
      </trkpt>
      <trkpt lat="38.206467" lon="30.869027">
        <ele>1410.000000</ele>
        <time>2010-05-04T10:09:37Z</time>
      </trkpt>
      <trkpt lat="38.206454" lon="30.869021">
        <ele>1411.000000</ele>
        <time>2010-05-04T10:09:38Z</time>
      </trkpt>
      <trkpt lat="38.206403" lon="30.869040">
        <ele>1409.000000</ele>
        <time>2010-05-04T10:10:07Z</time>
      </trkpt>
      <trkpt lat="38.206374" lon="30.869034">
        <ele>1409.000000</ele>
        <time>2010-05-04T10:10:08Z</time>
      </trkpt>
      <trkpt lat="38.206355" lon="30.869021">
        <ele>1410.000000</ele>
        <time>2010-05-04T10:10:09Z</time>
      </trkpt>
      <trkpt lat="38.206349" lon="30.869018">
        <ele>1408.000000</ele>
        <time>2010-05-04T10:10:10Z</time>
      </trkpt>
      <trkpt lat="38.206256" lon="30.868941">
        <ele>1408.000000</ele>
        <time>2010-05-04T10:10:40Z</time>
      </trkpt>
      <trkpt lat="38.206234" lon="30.868915">
        <ele>1406.000000</ele>
        <time>2010-05-04T10:10:44Z</time>
      </trkpt>
      <trkpt lat="38.206214" lon="30.868906">
        <ele>1407.000000</ele>
        <time>2010-05-04T10:10:46Z</time>
      </trkpt>
      <trkpt lat="38.206208" lon="30.868899">
        <ele>1407.000000</ele>
        <time>2010-05-04T10:10:47Z</time>
      </trkpt>
      <trkpt lat="38.206166" lon="30.868915">
        <ele>1405.000000</ele>
        <time>2010-05-04T10:10:53Z</time>
      </trkpt>
      <trkpt lat="38.206077" lon="30.868883">
        <ele>1404.000000</ele>
        <time>2010-05-04T10:11:11Z</time>
      </trkpt>
      <trkpt lat="38.206061" lon="30.868890">
        <ele>1405.000000</ele>
        <time>2010-05-04T10:11:21Z</time>
      </trkpt>
      <trkpt lat="38.205981" lon="30.868906">
        <ele>1403.000000</ele>
        <time>2010-05-04T10:11:31Z</time>
      </trkpt>
      <trkpt lat="38.205878" lon="30.868890">
        <ele>1402.000000</ele>
        <time>2010-05-04T10:11:53Z</time>
      </trkpt>
      <trkpt lat="38.205738" lon="30.868877">
        <ele>1403.000000</ele>
        <time>2010-05-04T10:12:28Z</time>
      </trkpt>
      <trkpt lat="38.205699" lon="30.868854">
        <ele>1404.000000</ele>
        <time>2010-05-04T10:12:31Z</time>
      </trkpt>
      <trkpt lat="38.205658" lon="30.868851">
        <ele>1404.000000</ele>
        <time>2010-05-04T10:12:33Z</time>
      </trkpt>
      <trkpt lat="38.205619" lon="30.868835">
        <ele>1403.000000</ele>
        <time>2010-05-04T10:12:37Z</time>
      </trkpt>
      <trkpt lat="38.205610" lon="30.868826">
        <ele>1405.000000</ele>
        <time>2010-05-04T10:12:39Z</time>
      </trkpt>
      <trkpt lat="38.205597" lon="30.868822">
        <ele>1403.000000</ele>
        <time>2010-05-04T10:12:40Z</time>
      </trkpt>
      <trkpt lat="38.205590" lon="30.868816">
        <ele>1404.000000</ele>
        <time>2010-05-04T10:12:41Z</time>
      </trkpt>
      <trkpt lat="38.205542" lon="30.868800">
        <ele>1404.000000</ele>
        <time>2010-05-04T10:12:52Z</time>
      </trkpt>
      <trkpt lat="38.205306" lon="30.868842">
        <ele>1403.000000</ele>
        <time>2010-05-04T10:14:06Z</time>
      </trkpt>
      <trkpt lat="38.205264" lon="30.868842">
        <ele>1403.000000</ele>
        <time>2010-05-04T10:14:33Z</time>
      </trkpt>
      <trkpt lat="38.205258" lon="30.868867">
        <ele>1402.000000</ele>
        <time>2010-05-04T10:14:36Z</time>
      </trkpt>
      <trkpt lat="38.205254" lon="30.868922">
        <ele>1401.000000</ele>
        <time>2010-05-04T10:14:43Z</time>
      </trkpt>
      <trkpt lat="38.205274" lon="30.868970">
        <ele>1402.000000</ele>
        <time>2010-05-04T10:14:48Z</time>
      </trkpt>
      <trkpt lat="38.205274" lon="30.869050">
        <ele>1404.000000</ele>
        <time>2010-05-04T10:14:58Z</time>
      </trkpt>
      <trkpt lat="38.205293" lon="30.869194">
        <ele>1405.000000</ele>
        <time>2010-05-04T10:15:02Z</time>
      </trkpt>
      <trkpt lat="38.205222" lon="30.869203">
        <ele>1403.000000</ele>
        <time>2010-05-04T10:15:16Z</time>
      </trkpt>
      <trkpt lat="38.205184" lon="30.869210">
        <ele>1403.000000</ele>
        <time>2010-05-04T10:15:21Z</time>
      </trkpt>
      <trkpt lat="38.205158" lon="30.869213">
        <ele>1402.000000</ele>
        <time>2010-05-04T10:15:31Z</time>
      </trkpt>
      <trkpt lat="38.205155" lon="30.869248">
        <ele>1398.000000</ele>
        <time>2010-05-04T10:15:39Z</time>
      </trkpt>
      <trkpt lat="38.205056" lon="30.869235">
        <ele>1399.000000</ele>
        <time>2010-05-04T10:15:44Z</time>
      </trkpt>
      <trkpt lat="38.205040" lon="30.869229">
        <ele>1399.000000</ele>
        <time>2010-05-04T10:15:46Z</time>
      </trkpt>
      <trkpt lat="38.204966" lon="30.869248">
        <ele>1397.000000</ele>
        <time>2010-05-04T10:16:01Z</time>
      </trkpt>
      <trkpt lat="38.204944" lon="30.869245">
        <ele>1394.000000</ele>
        <time>2010-05-04T10:16:13Z</time>
      </trkpt>
      <trkpt lat="38.204941" lon="30.869235">
        <ele>1396.000000</ele>
        <time>2010-05-04T10:16:14Z</time>
      </trkpt>
      <trkpt lat="38.204928" lon="30.869232">
        <ele>1396.000000</ele>
        <time>2010-05-04T10:16:15Z</time>
      </trkpt>
      <trkpt lat="38.204922" lon="30.869229">
        <ele>1395.000000</ele>
        <time>2010-05-04T10:16:16Z</time>
      </trkpt>
      <trkpt lat="38.204867" lon="30.869235">
        <ele>1396.000000</ele>
        <time>2010-05-04T10:16:21Z</time>
      </trkpt>
      <trkpt lat="38.204845" lon="30.869226">
        <ele>1394.000000</ele>
        <time>2010-05-04T10:16:22Z</time>
      </trkpt>
      <trkpt lat="38.204749" lon="30.869206">
        <ele>1392.000000</ele>
        <time>2010-05-04T10:16:33Z</time>
      </trkpt>
      <trkpt lat="38.204675" lon="30.869219">
        <ele>1390.000000</ele>
        <time>2010-05-04T10:16:53Z</time>
      </trkpt>
      <trkpt lat="38.204608" lon="30.869187">
        <ele>1388.000000</ele>
        <time>2010-05-04T10:16:58Z</time>
      </trkpt>
      <trkpt lat="38.204589" lon="30.869178">
        <ele>1389.000000</ele>
        <time>2010-05-04T10:16:59Z</time>
      </trkpt>
      <trkpt lat="38.204506" lon="30.869158">
        <ele>1387.000000</ele>
        <time>2010-05-04T10:17:09Z</time>
      </trkpt>
      <trkpt lat="38.204445" lon="30.869152">
        <ele>1383.000000</ele>
        <time>2010-05-04T10:17:53Z</time>
      </trkpt>
      <trkpt lat="38.204438" lon="30.869155">
        <ele>1383.000000</ele>
        <time>2010-05-04T10:17:55Z</time>
      </trkpt>
      <trkpt lat="38.204426" lon="30.869142">
        <ele>1384.000000</ele>
        <time>2010-05-04T10:18:12Z</time>
      </trkpt>
      <trkpt lat="38.204432" lon="30.869142">
        <ele>1383.000000</ele>
        <time>2010-05-04T10:18:13Z</time>
      </trkpt>
      <trkpt lat="38.204400" lon="30.869136">
        <ele>1384.000000</ele>
        <time>2010-05-04T10:18:41Z</time>
      </trkpt>
      <trkpt lat="38.204371" lon="30.869114">
        <ele>1382.000000</ele>
        <time>2010-05-04T10:18:46Z</time>
      </trkpt>
      <trkpt lat="38.204301" lon="30.869098">
        <ele>1380.000000</ele>
        <time>2010-05-04T10:19:19Z</time>
      </trkpt>
      <trkpt lat="38.204221" lon="30.869069">
        <ele>1379.000000</ele>
        <time>2010-05-04T10:19:26Z</time>
      </trkpt>
      <trkpt lat="38.204147" lon="30.869072">
        <ele>1379.000000</ele>
        <time>2010-05-04T10:19:36Z</time>
      </trkpt>
      <trkpt lat="38.204131" lon="30.869075">
        <ele>1379.000000</ele>
        <time>2010-05-04T10:19:38Z</time>
      </trkpt>
      <trkpt lat="38.204125" lon="30.869094">
        <ele>1379.000000</ele>
        <time>2010-05-04T10:19:43Z</time>
      </trkpt>
      <trkpt lat="38.204102" lon="30.869107">
        <ele>1379.000000</ele>
        <time>2010-05-04T10:19:48Z</time>
      </trkpt>
      <trkpt lat="38.204054" lon="30.869088">
        <ele>1378.000000</ele>
        <time>2010-05-04T10:20:11Z</time>
      </trkpt>
      <trkpt lat="38.203914" lon="30.869174">
        <ele>1376.000000</ele>
        <time>2010-05-04T10:20:21Z</time>
      </trkpt>
      <trkpt lat="38.203894" lon="30.869184">
        <ele>1378.000000</ele>
        <time>2010-05-04T10:20:23Z</time>
      </trkpt>
      <trkpt lat="38.203872" lon="30.869178">
        <ele>1379.000000</ele>
        <time>2010-05-04T10:20:26Z</time>
      </trkpt>
      <trkpt lat="38.203866" lon="30.869197">
        <ele>1377.000000</ele>
        <time>2010-05-04T10:20:29Z</time>
      </trkpt>
      <trkpt lat="38.203866" lon="30.869197">
        <ele>1377.000000</ele>
        <time>2010-05-04T10:20:33Z</time>
      </trkpt>
      <trkpt lat="38.203846" lon="30.869187">
        <ele>1377.000000</ele>
        <time>2010-05-04T10:20:38Z</time>
      </trkpt>
      <trkpt lat="38.203834" lon="30.869184">
        <ele>1374.000000</ele>
        <time>2010-05-04T10:20:40Z</time>
      </trkpt>
      <trkpt lat="38.203843" lon="30.869190">
        <ele>1376.000000</ele>
        <time>2010-05-04T10:20:44Z</time>
      </trkpt>
      <trkpt lat="38.203811" lon="30.869187">
        <ele>1374.000000</ele>
        <time>2010-05-04T10:20:50Z</time>
      </trkpt>
      <trkpt lat="38.203770" lon="30.869219">
        <ele>1371.000000</ele>
        <time>2010-05-04T10:21:03Z</time>
      </trkpt>
      <trkpt lat="38.203757" lon="30.869235">
        <ele>1370.000000</ele>
        <time>2010-05-04T10:21:09Z</time>
      </trkpt>
      <trkpt lat="38.203654" lon="30.869235">
        <ele>1368.000000</ele>
        <time>2010-05-04T10:21:21Z</time>
      </trkpt>
      <trkpt lat="38.203594" lon="30.869219">
        <ele>1367.000000</ele>
        <time>2010-05-04T10:21:24Z</time>
      </trkpt>
      <trkpt lat="38.203571" lon="30.869219">
        <ele>1367.000000</ele>
        <time>2010-05-04T10:21:27Z</time>
      </trkpt>
      <trkpt lat="38.203558" lon="30.869235">
        <ele>1367.000000</ele>
        <time>2010-05-04T10:21:29Z</time>
      </trkpt>
      <trkpt lat="38.203510" lon="30.869264">
        <ele>1366.000000</ele>
        <time>2010-05-04T10:21:33Z</time>
      </trkpt>
      <trkpt lat="38.203472" lon="30.869245">
        <ele>1365.000000</ele>
        <time>2010-05-04T10:21:35Z</time>
      </trkpt>
      <trkpt lat="38.203456" lon="30.869280">
        <ele>1365.000000</ele>
        <time>2010-05-04T10:21:39Z</time>
      </trkpt>
      <trkpt lat="38.203450" lon="30.869293">
        <ele>1367.000000</ele>
        <time>2010-05-04T10:21:40Z</time>
      </trkpt>
      <trkpt lat="38.203450" lon="30.869306">
        <ele>1365.000000</ele>
        <time>2010-05-04T10:21:41Z</time>
      </trkpt>
      <trkpt lat="38.203443" lon="30.869312">
        <ele>1365.000000</ele>
        <time>2010-05-04T10:21:42Z</time>
      </trkpt>
      <trkpt lat="38.203434" lon="30.869331">
        <ele>1364.000000</ele>
        <time>2010-05-04T10:21:45Z</time>
      </trkpt>
      <trkpt lat="38.203395" lon="30.869363">
        <ele>1367.000000</ele>
        <time>2010-05-04T10:21:52Z</time>
      </trkpt>
      <trkpt lat="38.203389" lon="30.869434">
        <ele>1365.000000</ele>
        <time>2010-05-04T10:22:00Z</time>
      </trkpt>
      <trkpt lat="38.203238" lon="30.869536">
        <ele>1366.000000</ele>
        <time>2010-05-04T10:22:16Z</time>
      </trkpt>
      <trkpt lat="38.203206" lon="30.869552">
        <ele>1364.000000</ele>
        <time>2010-05-04T10:22:18Z</time>
      </trkpt>
      <trkpt lat="38.203194" lon="30.869555">
        <ele>1365.000000</ele>
        <time>2010-05-04T10:22:19Z</time>
      </trkpt>
      <trkpt lat="38.203187" lon="30.869558">
        <ele>1365.000000</ele>
        <time>2010-05-04T10:22:20Z</time>
      </trkpt>
      <trkpt lat="38.203101" lon="30.869642">
        <ele>1365.000000</ele>
        <time>2010-05-04T10:22:35Z</time>
      </trkpt>
      <trkpt lat="38.203088" lon="30.869654">
        <ele>1365.000000</ele>
        <time>2010-05-04T10:22:41Z</time>
      </trkpt>
      <trkpt lat="38.203078" lon="30.869670">
        <ele>1366.000000</ele>
        <time>2010-05-04T10:22:43Z</time>
      </trkpt>
      <trkpt lat="38.203072" lon="30.869680">
        <ele>1366.000000</ele>
        <time>2010-05-04T10:22:45Z</time>
      </trkpt>
      <trkpt lat="38.203034" lon="30.869792">
        <ele>1365.000000</ele>
        <time>2010-05-04T10:22:55Z</time>
      </trkpt>
      <trkpt lat="38.203030" lon="30.869814">
        <ele>1366.000000</ele>
        <time>2010-05-04T10:22:58Z</time>
      </trkpt>
      <trkpt lat="38.202973" lon="30.869846">
        <ele>1366.000000</ele>
        <time>2010-05-04T10:23:04Z</time>
      </trkpt>
      <trkpt lat="38.202957" lon="30.869872">
        <ele>1365.000000</ele>
        <time>2010-05-04T10:23:12Z</time>
      </trkpt>
      <trkpt lat="38.202957" lon="30.869891">
        <ele>1367.000000</ele>
        <time>2010-05-04T10:23:16Z</time>
      </trkpt>
      <trkpt lat="38.202922" lon="30.869920">
        <ele>1367.000000</ele>
        <time>2010-05-04T10:23:21Z</time>
      </trkpt>
      <trkpt lat="38.202909" lon="30.869914">
        <ele>1365.000000</ele>
        <time>2010-05-04T10:23:22Z</time>
      </trkpt>
      <trkpt lat="38.202883" lon="30.869920">
        <ele>1366.000000</ele>
        <time>2010-05-04T10:23:24Z</time>
      </trkpt>
      <trkpt lat="38.202861" lon="30.869926">
        <ele>1366.000000</ele>
        <time>2010-05-04T10:23:26Z</time>
      </trkpt>
      <trkpt lat="38.202797" lon="30.869930">
        <ele>1366.000000</ele>
        <time>2010-05-04T10:23:33Z</time>
      </trkpt>
      <trkpt lat="38.202749" lon="30.869853">
        <ele>1367.000000</ele>
        <time>2010-05-04T10:23:45Z</time>
      </trkpt>
      <trkpt lat="38.202691" lon="30.869830">
        <ele>1368.000000</ele>
        <time>2010-05-04T10:23:53Z</time>
      </trkpt>
      <trkpt lat="38.202672" lon="30.869814">
        <ele>1369.000000</ele>
        <time>2010-05-04T10:24:02Z</time>
      </trkpt>
      <trkpt lat="38.202656" lon="30.869834">
        <ele>1367.000000</ele>
        <time>2010-05-04T10:24:04Z</time>
      </trkpt>
      <trkpt lat="38.202605" lon="30.869805">
        <ele>1369.000000</ele>
        <time>2010-05-04T10:24:16Z</time>
      </trkpt>
      <trkpt lat="38.202550" lon="30.869798">
        <ele>1371.000000</ele>
        <time>2010-05-04T10:24:27Z</time>
      </trkpt>
      <trkpt lat="38.202560" lon="30.869792">
        <ele>1372.000000</ele>
        <time>2010-05-04T10:24:36Z</time>
      </trkpt>
      <trkpt lat="38.202499" lon="30.869779">
        <ele>1374.000000</ele>
        <time>2010-05-04T10:25:26Z</time>
      </trkpt>
      <trkpt lat="38.202451" lon="30.869805">
        <ele>1375.000000</ele>
        <time>2010-05-04T10:25:40Z</time>
      </trkpt>
      <trkpt lat="38.202419" lon="30.869837">
        <ele>1371.000000</ele>
        <time>2010-05-04T10:25:48Z</time>
      </trkpt>
      <trkpt lat="38.202282" lon="30.869837">
        <ele>1374.000000</ele>
        <time>2010-05-04T10:26:03Z</time>
      </trkpt>
      <trkpt lat="38.202266" lon="30.869830">
        <ele>1374.000000</ele>
        <time>2010-05-04T10:26:05Z</time>
      </trkpt>
      <trkpt lat="38.202227" lon="30.869827">
        <ele>1372.000000</ele>
        <time>2010-05-04T10:26:08Z</time>
      </trkpt>
      <trkpt lat="38.202202" lon="30.869834">
        <ele>1372.000000</ele>
        <time>2010-05-04T10:26:11Z</time>
      </trkpt>
      <trkpt lat="38.202134" lon="30.869878">
        <ele>1374.000000</ele>
        <time>2010-05-04T10:26:20Z</time>
      </trkpt>
      <trkpt lat="38.202122" lon="30.869882">
        <ele>1374.000000</ele>
        <time>2010-05-04T10:26:21Z</time>
      </trkpt>
      <trkpt lat="38.202061" lon="30.869862">
        <ele>1371.000000</ele>
        <time>2010-05-04T10:26:29Z</time>
      </trkpt>
      <trkpt lat="38.201994" lon="30.869866">
        <ele>1371.000000</ele>
        <time>2010-05-04T10:26:34Z</time>
      </trkpt>
      <trkpt lat="38.201946" lon="30.869901">
        <ele>1371.000000</ele>
        <time>2010-05-04T10:27:17Z</time>
      </trkpt>
      <trkpt lat="38.201946" lon="30.869904">
        <ele>1372.000000</ele>
        <time>2010-05-04T10:27:18Z</time>
      </trkpt>
      <trkpt lat="38.201949" lon="30.869910">
        <ele>1370.000000</ele>
        <time>2010-05-04T10:27:20Z</time>
      </trkpt>
      <trkpt lat="38.201907" lon="30.869926">
        <ele>1370.000000</ele>
        <time>2010-05-04T10:27:28Z</time>
      </trkpt>
      <trkpt lat="38.201882" lon="30.869907">
        <ele>1368.000000</ele>
        <time>2010-05-04T10:27:32Z</time>
      </trkpt>
      <trkpt lat="38.201875" lon="30.869901">
        <ele>1370.000000</ele>
        <time>2010-05-04T10:27:33Z</time>
      </trkpt>
      <trkpt lat="38.201859" lon="30.869882">
        <ele>1368.000000</ele>
        <time>2010-05-04T10:27:37Z</time>
      </trkpt>
      <trkpt lat="38.201805" lon="30.869894">
        <ele>1368.000000</ele>
        <time>2010-05-04T10:27:42Z</time>
      </trkpt>
      <trkpt lat="38.201789" lon="30.869901">
        <ele>1368.000000</ele>
        <time>2010-05-04T10:27:43Z</time>
      </trkpt>
      <trkpt lat="38.201725" lon="30.869878">
        <ele>1367.000000</ele>
        <time>2010-05-04T10:27:52Z</time>
      </trkpt>
      <trkpt lat="38.201712" lon="30.869869">
        <ele>1369.000000</ele>
        <time>2010-05-04T10:27:55Z</time>
      </trkpt>
      <trkpt lat="38.201712" lon="30.869869">
        <ele>1368.000000</ele>
        <time>2010-05-04T10:27:57Z</time>
      </trkpt>
      <trkpt lat="38.201712" lon="30.869872">
        <ele>1367.000000</ele>
        <time>2010-05-04T10:27:58Z</time>
      </trkpt>
      <trkpt lat="38.201510" lon="30.869859">
        <ele>1368.000000</ele>
        <time>2010-05-04T10:28:23Z</time>
      </trkpt>
      <trkpt lat="38.201488" lon="30.869888">
        <ele>1367.000000</ele>
        <time>2010-05-04T10:28:27Z</time>
      </trkpt>
      <trkpt lat="38.201430" lon="30.869850">
        <ele>1368.000000</ele>
        <time>2010-05-04T10:28:35Z</time>
      </trkpt>
      <trkpt lat="38.201363" lon="30.869827">
        <ele>1368.000000</ele>
        <time>2010-05-04T10:28:41Z</time>
      </trkpt>
      <trkpt lat="38.201309" lon="30.869792">
        <ele>1366.000000</ele>
        <time>2010-05-04T10:28:48Z</time>
      </trkpt>
      <trkpt lat="38.201270" lon="30.869763">
        <ele>1366.000000</ele>
        <time>2010-05-04T10:28:56Z</time>
      </trkpt>
      <trkpt lat="38.201210" lon="30.869683">
        <ele>1364.000000</ele>
        <time>2010-05-04T10:29:33Z</time>
      </trkpt>
      <trkpt lat="38.201104" lon="30.869648">
        <ele>1361.000000</ele>
        <time>2010-05-04T10:29:49Z</time>
      </trkpt>
      <trkpt lat="38.201101" lon="30.869648">
        <ele>1361.000000</ele>
        <time>2010-05-04T10:29:50Z</time>
      </trkpt>
      <trkpt lat="38.201050" lon="30.869645">
        <ele>1360.000000</ele>
        <time>2010-05-04T10:30:02Z</time>
      </trkpt>
      <trkpt lat="38.201043" lon="30.869651">
        <ele>1359.000000</ele>
        <time>2010-05-04T10:30:03Z</time>
      </trkpt>
      <trkpt lat="38.201030" lon="30.869654">
        <ele>1359.000000</ele>
        <time>2010-05-04T10:30:04Z</time>
      </trkpt>
      <trkpt lat="38.201011" lon="30.869654">
        <ele>1358.000000</ele>
        <time>2010-05-04T10:30:05Z</time>
      </trkpt>
      <trkpt lat="38.200986" lon="30.869658">
        <ele>1358.000000</ele>
        <time>2010-05-04T10:30:07Z</time>
      </trkpt>
      <trkpt lat="38.200957" lon="30.869661">
        <ele>1359.000000</ele>
        <time>2010-05-04T10:30:09Z</time>
      </trkpt>
      <trkpt lat="38.200922" lon="30.869706">
        <ele>1360.000000</ele>
        <time>2010-05-04T10:30:18Z</time>
      </trkpt>
      <trkpt lat="38.200909" lon="30.869709">
        <ele>1360.000000</ele>
        <time>2010-05-04T10:30:19Z</time>
      </trkpt>
      <trkpt lat="38.200838" lon="30.869709">
        <ele>1359.000000</ele>
        <time>2010-05-04T10:30:30Z</time>
      </trkpt>
      <trkpt lat="38.200774" lon="30.869763">
        <ele>1358.000000</ele>
        <time>2010-05-04T10:30:40Z</time>
      </trkpt>
      <trkpt lat="38.200694" lon="30.869779">
        <ele>1357.000000</ele>
        <time>2010-05-04T10:31:07Z</time>
      </trkpt>
      <trkpt lat="38.200630" lon="30.869766">
        <ele>1356.000000</ele>
        <time>2010-05-04T10:31:12Z</time>
      </trkpt>
      <trkpt lat="38.200595" lon="30.869821">
        <ele>1355.000000</ele>
        <time>2010-05-04T10:31:24Z</time>
      </trkpt>
      <trkpt lat="38.200576" lon="30.869811">
        <ele>1354.000000</ele>
        <time>2010-05-04T10:31:25Z</time>
      </trkpt>
      <trkpt lat="38.200544" lon="30.869795">
        <ele>1355.000000</ele>
        <time>2010-05-04T10:31:27Z</time>
      </trkpt>
      <trkpt lat="38.200461" lon="30.869837">
        <ele>1353.000000</ele>
        <time>2010-05-04T10:31:36Z</time>
      </trkpt>
      <trkpt lat="38.200448" lon="30.869869">
        <ele>1354.000000</ele>
        <time>2010-05-04T10:31:41Z</time>
      </trkpt>
      <trkpt lat="38.200330" lon="30.869888">
        <ele>1350.000000</ele>
        <time>2010-05-04T10:32:13Z</time>
      </trkpt>
      <trkpt lat="38.200314" lon="30.869885">
        <ele>1349.000000</ele>
        <time>2010-05-04T10:32:14Z</time>
      </trkpt>
      <trkpt lat="38.200250" lon="30.869949">
        <ele>1349.000000</ele>
        <time>2010-05-04T10:32:41Z</time>
      </trkpt>
      <trkpt lat="38.200230" lon="30.870003">
        <ele>1348.000000</ele>
        <time>2010-05-04T10:32:54Z</time>
      </trkpt>
      <trkpt lat="38.200214" lon="30.870013">
        <ele>1348.000000</ele>
        <time>2010-05-04T10:32:56Z</time>
      </trkpt>
      <trkpt lat="38.200102" lon="30.870010">
        <ele>1345.000000</ele>
        <time>2010-05-04T10:33:20Z</time>
      </trkpt>
      <trkpt lat="38.200054" lon="30.869958">
        <ele>1344.000000</ele>
        <time>2010-05-04T10:33:28Z</time>
      </trkpt>
      <trkpt lat="38.200061" lon="30.869933">
        <ele>1342.000000</ele>
        <time>2010-05-04T10:33:58Z</time>
      </trkpt>
      <trkpt lat="38.200061" lon="30.869914">
        <ele>1342.000000</ele>
        <time>2010-05-04T10:34:10Z</time>
      </trkpt>
      <trkpt lat="38.200051" lon="30.869882">
        <ele>1341.000000</ele>
        <time>2010-05-04T10:34:15Z</time>
      </trkpt>
      <trkpt lat="38.200019" lon="30.869850">
        <ele>1334.000000</ele>
        <time>2010-05-04T10:35:35Z</time>
      </trkpt>
      <trkpt lat="38.199994" lon="30.869750">
        <ele>1329.000000</ele>
        <time>2010-05-04T10:36:11Z</time>
      </trkpt>
      <trkpt lat="38.199942" lon="30.869750">
        <ele>1327.000000</ele>
        <time>2010-05-04T10:36:18Z</time>
      </trkpt>
      <trkpt lat="38.199910" lon="30.869757">
        <ele>1330.000000</ele>
        <time>2010-05-04T10:36:20Z</time>
      </trkpt>
      <trkpt lat="38.199901" lon="30.869853">
        <ele>1329.000000</ele>
        <time>2010-05-04T10:36:32Z</time>
      </trkpt>
      <trkpt lat="38.199901" lon="30.869846">
        <ele>1330.000000</ele>
        <time>2010-05-04T10:36:47Z</time>
      </trkpt>
      <trkpt lat="38.199882" lon="30.869878">
        <ele>1327.000000</ele>
        <time>2010-05-04T10:38:03Z</time>
      </trkpt>
      <trkpt lat="38.199872" lon="30.869933">
        <ele>1326.000000</ele>
        <time>2010-05-04T10:38:18Z</time>
      </trkpt>
      <trkpt lat="38.199821" lon="30.869962">
        <ele>1322.000000</ele>
        <time>2010-05-04T10:38:41Z</time>
      </trkpt>
      <trkpt lat="38.199773" lon="30.869933">
        <ele>1320.000000</ele>
        <time>2010-05-04T10:38:45Z</time>
      </trkpt>
      <trkpt lat="38.199734" lon="30.869930">
        <ele>1320.000000</ele>
        <time>2010-05-04T10:38:49Z</time>
      </trkpt>
      <trkpt lat="38.199683" lon="30.869926">
        <ele>1321.000000</ele>
        <time>2010-05-04T10:38:54Z</time>
      </trkpt>
      <trkpt lat="38.199696" lon="30.869840">
        <ele>1319.000000</ele>
        <time>2010-05-04T10:39:01Z</time>
      </trkpt>
      <trkpt lat="38.199693" lon="30.869824">
        <ele>1319.000000</ele>
        <time>2010-05-04T10:39:03Z</time>
      </trkpt>
      <trkpt lat="38.199664" lon="30.869837">
        <ele>1317.000000</ele>
        <time>2010-05-04T10:39:08Z</time>
      </trkpt>
      <trkpt lat="38.199654" lon="30.869850">
        <ele>1317.000000</ele>
        <time>2010-05-04T10:39:09Z</time>
      </trkpt>
      <trkpt lat="38.199632" lon="30.869859">
        <ele>1317.000000</ele>
        <time>2010-05-04T10:39:13Z</time>
      </trkpt>
      <trkpt lat="38.199613" lon="30.869904">
        <ele>1314.000000</ele>
        <time>2010-05-04T10:39:19Z</time>
      </trkpt>
      <trkpt lat="38.199584" lon="30.869885">
        <ele>1312.000000</ele>
        <time>2010-05-04T10:39:24Z</time>
      </trkpt>
      <trkpt lat="38.199562" lon="30.869882">
        <ele>1314.000000</ele>
        <time>2010-05-04T10:39:28Z</time>
      </trkpt>
      <trkpt lat="38.199546" lon="30.869907">
        <ele>1314.000000</ele>
        <time>2010-05-04T10:39:30Z</time>
      </trkpt>
      <trkpt lat="38.199462" lon="30.869882">
        <ele>1311.000000</ele>
        <time>2010-05-04T10:39:39Z</time>
      </trkpt>
      <trkpt lat="38.199462" lon="30.869869">
        <ele>1311.000000</ele>
        <time>2010-05-04T10:39:40Z</time>
      </trkpt>
      <trkpt lat="38.199443" lon="30.869862">
        <ele>1311.000000</ele>
        <time>2010-05-04T10:39:41Z</time>
      </trkpt>
      <trkpt lat="38.199427" lon="30.869872">
        <ele>1312.000000</ele>
        <time>2010-05-04T10:39:42Z</time>
      </trkpt>
      <trkpt lat="38.199418" lon="30.869878">
        <ele>1313.000000</ele>
        <time>2010-05-04T10:39:43Z</time>
      </trkpt>
      <trkpt lat="38.199414" lon="30.869894">
        <ele>1311.000000</ele>
        <time>2010-05-04T10:39:45Z</time>
      </trkpt>
      <trkpt lat="38.199392" lon="30.869891">
        <ele>1311.000000</ele>
        <time>2010-05-04T10:39:47Z</time>
      </trkpt>
      <trkpt lat="38.199363" lon="30.869878">
        <ele>1311.000000</ele>
        <time>2010-05-04T10:39:49Z</time>
      </trkpt>
      <trkpt lat="38.199360" lon="30.869878">
        <ele>1312.000000</ele>
        <time>2010-05-04T10:39:50Z</time>
      </trkpt>
      <trkpt lat="38.199341" lon="30.869872">
        <ele>1311.000000</ele>
        <time>2010-05-04T10:39:51Z</time>
      </trkpt>
      <trkpt lat="38.199258" lon="30.869904">
        <ele>1306.000000</ele>
        <time>2010-05-04T10:40:43Z</time>
      </trkpt>
      <trkpt lat="38.199210" lon="30.869901">
        <ele>1307.000000</ele>
        <time>2010-05-04T10:40:48Z</time>
      </trkpt>
      <trkpt lat="38.199197" lon="30.869894">
        <ele>1307.000000</ele>
        <time>2010-05-04T10:40:49Z</time>
      </trkpt>
      <trkpt lat="38.199165" lon="30.869885">
        <ele>1307.000000</ele>
        <time>2010-05-04T10:40:51Z</time>
      </trkpt>
      <trkpt lat="38.199136" lon="30.869885">
        <ele>1307.000000</ele>
        <time>2010-05-04T10:40:53Z</time>
      </trkpt>
      <trkpt lat="38.199123" lon="30.869894">
        <ele>1307.000000</ele>
        <time>2010-05-04T10:40:54Z</time>
      </trkpt>
      <trkpt lat="38.199107" lon="30.869904">
        <ele>1307.000000</ele>
        <time>2010-05-04T10:40:55Z</time>
      </trkpt>
      <trkpt lat="38.199101" lon="30.869914">
        <ele>1306.000000</ele>
        <time>2010-05-04T10:40:56Z</time>
      </trkpt>
      <trkpt lat="38.199094" lon="30.869920">
        <ele>1306.000000</ele>
        <time>2010-05-04T10:40:57Z</time>
      </trkpt>
      <trkpt lat="38.198986" lon="30.869974">
        <ele>1304.000000</ele>
        <time>2010-05-04T10:41:19Z</time>
      </trkpt>
      <trkpt lat="38.198925" lon="30.869987">
        <ele>1303.000000</ele>
        <time>2010-05-04T10:41:28Z</time>
      </trkpt>
      <trkpt lat="38.198909" lon="30.869981">
        <ele>1303.000000</ele>
        <time>2010-05-04T10:41:32Z</time>
      </trkpt>
      <trkpt lat="38.198838" lon="30.869939">
        <ele>1301.000000</ele>
        <time>2010-05-04T10:41:43Z</time>
      </trkpt>
      <trkpt lat="38.198698" lon="30.869920">
        <ele>1296.000000</ele>
        <time>2010-05-04T10:43:14Z</time>
      </trkpt>
      <trkpt lat="38.198646" lon="30.869923">
        <ele>1296.000000</ele>
        <time>2010-05-04T10:43:20Z</time>
      </trkpt>
      <trkpt lat="38.198624" lon="30.869910">
        <ele>1295.000000</ele>
        <time>2010-05-04T10:43:23Z</time>
      </trkpt>
      <trkpt lat="38.198611" lon="30.869907">
        <ele>1294.000000</ele>
        <time>2010-05-04T10:43:27Z</time>
      </trkpt>
      <trkpt lat="38.198579" lon="30.869882">
        <ele>1292.000000</ele>
        <time>2010-05-04T10:43:40Z</time>
      </trkpt>
      <trkpt lat="38.198544" lon="30.869862">
        <ele>1291.000000</ele>
        <time>2010-05-04T10:44:01Z</time>
      </trkpt>
      <trkpt lat="38.198531" lon="30.869856">
        <ele>1291.000000</ele>
        <time>2010-05-04T10:44:10Z</time>
      </trkpt>
      <trkpt lat="38.198512" lon="30.869862">
        <ele>1290.000000</ele>
        <time>2010-05-04T10:44:13Z</time>
      </trkpt>
      <trkpt lat="38.198483" lon="30.869814">
        <ele>1290.000000</ele>
        <time>2010-05-04T10:44:18Z</time>
      </trkpt>
      <trkpt lat="38.198400" lon="30.869792">
        <ele>1285.000000</ele>
        <time>2010-05-04T10:44:41Z</time>
      </trkpt>
      <trkpt lat="38.198323" lon="30.869770">
        <ele>1280.000000</ele>
        <time>2010-05-04T10:45:39Z</time>
      </trkpt>
      <trkpt lat="38.198291" lon="30.869744">
        <ele>1278.000000</ele>
        <time>2010-05-04T10:46:03Z</time>
      </trkpt>
      <trkpt lat="38.198253" lon="30.869696">
        <ele>1270.000000</ele>
        <time>2010-05-04T10:46:33Z</time>
      </trkpt>
      <trkpt lat="38.198147" lon="30.869632">
        <ele>1270.000000</ele>
        <time>2010-05-04T10:46:47Z</time>
      </trkpt>
      <trkpt lat="38.198144" lon="30.869635">
        <ele>1270.000000</ele>
        <time>2010-05-04T10:46:53Z</time>
      </trkpt>
      <trkpt lat="38.198077" lon="30.869587">
        <ele>1266.000000</ele>
        <time>2010-05-04T10:47:45Z</time>
      </trkpt>
      <trkpt lat="38.198035" lon="30.869555">
        <ele>1264.000000</ele>
        <time>2010-05-04T10:48:06Z</time>
      </trkpt>
      <trkpt lat="38.198032" lon="30.869562">
        <ele>1262.000000</ele>
        <time>2010-05-04T10:48:11Z</time>
      </trkpt>
      <trkpt lat="38.198029" lon="30.869546">
        <ele>1263.000000</ele>
        <time>2010-05-04T10:48:14Z</time>
      </trkpt>
      <trkpt lat="38.198016" lon="30.869552">
        <ele>1262.000000</ele>
        <time>2010-05-04T10:48:18Z</time>
      </trkpt>
      <trkpt lat="38.197978" lon="30.869542">
        <ele>1262.000000</ele>
        <time>2010-05-04T10:48:24Z</time>
      </trkpt>
      <trkpt lat="38.197933" lon="30.869491">
        <ele>1259.000000</ele>
        <time>2010-05-04T10:48:48Z</time>
      </trkpt>
      <trkpt lat="38.197923" lon="30.869469">
        <ele>1256.000000</ele>
        <time>2010-05-04T10:49:00Z</time>
      </trkpt>
      <trkpt lat="38.197907" lon="30.869456">
        <ele>1254.000000</ele>
        <time>2010-05-04T10:49:03Z</time>
      </trkpt>
      <trkpt lat="38.197894" lon="30.869462">
        <ele>1254.000000</ele>
        <time>2010-05-04T10:49:05Z</time>
      </trkpt>
      <trkpt lat="38.197894" lon="30.869462">
        <ele>1254.000000</ele>
        <time>2010-05-04T10:49:06Z</time>
      </trkpt>
      <trkpt lat="38.197878" lon="30.869450">
        <ele>1254.000000</ele>
        <time>2010-05-04T10:49:09Z</time>
      </trkpt>
      <trkpt lat="38.197878" lon="30.869434">
        <ele>1254.000000</ele>
        <time>2010-05-04T10:49:12Z</time>
      </trkpt>
      <trkpt lat="38.197885" lon="30.869434">
        <ele>1252.000000</ele>
        <time>2010-05-04T10:49:13Z</time>
      </trkpt>
      <trkpt lat="38.197853" lon="30.869373">
        <ele>1251.000000</ele>
        <time>2010-05-04T10:49:25Z</time>
      </trkpt>
      <trkpt lat="38.197834" lon="30.869366">
        <ele>1252.000000</ele>
        <time>2010-05-04T10:49:28Z</time>
      </trkpt>
      <trkpt lat="38.197808" lon="30.869338">
        <ele>1250.000000</ele>
        <time>2010-05-04T10:49:32Z</time>
      </trkpt>
      <trkpt lat="38.197766" lon="30.869322">
        <ele>1249.000000</ele>
        <time>2010-05-04T10:49:37Z</time>
      </trkpt>
      <trkpt lat="38.197645" lon="30.869296">
        <ele>1246.000000</ele>
        <time>2010-05-04T10:49:55Z</time>
      </trkpt>
      <trkpt lat="38.197594" lon="30.869277">
        <ele>1247.000000</ele>
        <time>2010-05-04T10:50:05Z</time>
      </trkpt>
      <trkpt lat="38.197472" lon="30.869309">
        <ele>1247.000000</ele>
        <time>2010-05-04T10:58:11Z</time>
      </trkpt>
      <trkpt lat="38.197459" lon="30.869302">
        <ele>1247.000000</ele>
        <time>2010-05-04T10:58:12Z</time>
      </trkpt>
      <trkpt lat="38.197446" lon="30.869312">
        <ele>1246.000000</ele>
        <time>2010-05-04T10:58:15Z</time>
      </trkpt>
      <trkpt lat="38.197434" lon="30.869315">
        <ele>1248.000000</ele>
        <time>2010-05-04T10:58:17Z</time>
      </trkpt>
      <trkpt lat="38.197418" lon="30.869322">
        <ele>1246.000000</ele>
        <time>2010-05-04T10:58:19Z</time>
      </trkpt>
      <trkpt lat="38.197408" lon="30.869341">
        <ele>1247.000000</ele>
        <time>2010-05-04T10:58:21Z</time>
      </trkpt>
      <trkpt lat="38.197392" lon="30.869338">
        <ele>1247.000000</ele>
        <time>2010-05-04T10:58:22Z</time>
      </trkpt>
      <trkpt lat="38.197354" lon="30.869357">
        <ele>1249.000000</ele>
        <time>2010-05-04T10:58:30Z</time>
      </trkpt>
      <trkpt lat="38.197315" lon="30.869366">
        <ele>1250.000000</ele>
        <time>2010-05-04T10:58:35Z</time>
      </trkpt>
      <trkpt lat="38.197248" lon="30.869370">
        <ele>1250.000000</ele>
        <time>2010-05-04T10:58:44Z</time>
      </trkpt>
      <trkpt lat="38.197232" lon="30.869373">
        <ele>1251.000000</ele>
        <time>2010-05-04T10:58:47Z</time>
      </trkpt>
      <trkpt lat="38.197168" lon="30.869318">
        <ele>1251.000000</ele>
        <time>2010-05-04T10:58:51Z</time>
      </trkpt>
      <trkpt lat="38.197162" lon="30.869309">
        <ele>1251.000000</ele>
        <time>2010-05-04T10:58:55Z</time>
      </trkpt>
      <trkpt lat="38.197168" lon="30.869293">
        <ele>1251.000000</ele>
        <time>2010-05-04T10:58:56Z</time>
      </trkpt>
      <trkpt lat="38.197171" lon="30.869286">
        <ele>1251.000000</ele>
        <time>2010-05-04T10:58:58Z</time>
      </trkpt>
      <trkpt lat="38.197162" lon="30.869267">
        <ele>1251.000000</ele>
        <time>2010-05-04T10:59:02Z</time>
      </trkpt>
      <trkpt lat="38.197142" lon="30.869261">
        <ele>1249.000000</ele>
        <time>2010-05-04T10:59:04Z</time>
      </trkpt>
      <trkpt lat="38.197117" lon="30.869248">
        <ele>1250.000000</ele>
        <time>2010-05-04T10:59:07Z</time>
      </trkpt>
      <trkpt lat="38.197091" lon="30.869238">
        <ele>1252.000000</ele>
        <time>2010-05-04T10:59:09Z</time>
      </trkpt>
      <trkpt lat="38.197072" lon="30.869242">
        <ele>1252.000000</ele>
        <time>2010-05-04T10:59:13Z</time>
      </trkpt>
      <trkpt lat="38.197053" lon="30.869242">
        <ele>1253.000000</ele>
        <time>2010-05-04T10:59:15Z</time>
      </trkpt>
      <trkpt lat="38.197040" lon="30.869248">
        <ele>1253.000000</ele>
        <time>2010-05-04T10:59:16Z</time>
      </trkpt>
      <trkpt lat="38.197018" lon="30.869290">
        <ele>1252.000000</ele>
        <time>2010-05-04T10:59:22Z</time>
      </trkpt>
      <trkpt lat="38.197002" lon="30.869283">
        <ele>1253.000000</ele>
        <time>2010-05-04T10:59:24Z</time>
      </trkpt>
      <trkpt lat="38.196973" lon="30.869264">
        <ele>1255.000000</ele>
        <time>2010-05-04T10:59:31Z</time>
      </trkpt>
      <trkpt lat="38.196944" lon="30.869274">
        <ele>1254.000000</ele>
        <time>2010-05-04T10:59:34Z</time>
      </trkpt>
      <trkpt lat="38.196941" lon="30.869280">
        <ele>1252.000000</ele>
        <time>2010-05-04T10:59:35Z</time>
      </trkpt>
      <trkpt lat="38.196922" lon="30.869286">
        <ele>1253.000000</ele>
        <time>2010-05-04T10:59:39Z</time>
      </trkpt>
      <trkpt lat="38.196896" lon="30.869382">
        <ele>1257.000000</ele>
        <time>2010-05-04T10:59:48Z</time>
      </trkpt>
      <trkpt lat="38.196896" lon="30.869382">
        <ele>1256.000000</ele>
        <time>2010-05-04T10:59:51Z</time>
      </trkpt>
      <trkpt lat="38.196861" lon="30.869405">
        <ele>1255.000000</ele>
        <time>2010-05-04T10:59:54Z</time>
      </trkpt>
      <trkpt lat="38.196845" lon="30.869427">
        <ele>1257.000000</ele>
        <time>2010-05-04T10:59:55Z</time>
      </trkpt>
      <trkpt lat="38.196797" lon="30.869536">
        <ele>1260.000000</ele>
        <time>2010-05-04T11:00:18Z</time>
      </trkpt>
      <trkpt lat="38.196784" lon="30.869533">
        <ele>1261.000000</ele>
        <time>2010-05-04T11:00:19Z</time>
      </trkpt>
      <trkpt lat="38.196778" lon="30.869520">
        <ele>1259.000000</ele>
        <time>2010-05-04T11:00:20Z</time>
      </trkpt>
      <trkpt lat="38.196774" lon="30.869517">
        <ele>1259.000000</ele>
        <time>2010-05-04T11:00:21Z</time>
      </trkpt>
      <trkpt lat="38.196736" lon="30.869507">
        <ele>1259.000000</ele>
        <time>2010-05-04T11:00:24Z</time>
      </trkpt>
      <trkpt lat="38.196714" lon="30.869488">
        <ele>1258.000000</ele>
        <time>2010-05-04T11:00:28Z</time>
      </trkpt>
      <trkpt lat="38.196704" lon="30.869472">
        <ele>1258.000000</ele>
        <time>2010-05-04T11:00:30Z</time>
      </trkpt>
      <trkpt lat="38.196694" lon="30.869462">
        <ele>1257.000000</ele>
        <time>2010-05-04T11:00:34Z</time>
      </trkpt>
      <trkpt lat="38.196701" lon="30.869405">
        <ele>1256.000000</ele>
        <time>2010-05-04T11:00:39Z</time>
      </trkpt>
      <trkpt lat="38.196701" lon="30.869373">
        <ele>1258.000000</ele>
        <time>2010-05-04T11:00:43Z</time>
      </trkpt>
      <trkpt lat="38.196694" lon="30.869366">
        <ele>1258.000000</ele>
        <time>2010-05-04T11:00:44Z</time>
      </trkpt>
      <trkpt lat="38.196678" lon="30.869354">
        <ele>1258.000000</ele>
        <time>2010-05-04T11:00:46Z</time>
      </trkpt>
      <trkpt lat="38.196646" lon="30.869331">
        <ele>1256.000000</ele>
        <time>2010-05-04T11:00:51Z</time>
      </trkpt>
      <trkpt lat="38.196643" lon="30.869315">
        <ele>1257.000000</ele>
        <time>2010-05-04T11:00:53Z</time>
      </trkpt>
      <trkpt lat="38.196643" lon="30.869302">
        <ele>1255.000000</ele>
        <time>2010-05-04T11:00:55Z</time>
      </trkpt>
      <trkpt lat="38.196595" lon="30.869286">
        <ele>1257.000000</ele>
        <time>2010-05-04T11:01:04Z</time>
      </trkpt>
      <trkpt lat="38.196534" lon="30.869267">
        <ele>1255.000000</ele>
        <time>2010-05-04T11:01:09Z</time>
      </trkpt>
      <trkpt lat="38.196458" lon="30.869264">
        <ele>1257.000000</ele>
        <time>2010-05-04T11:01:18Z</time>
      </trkpt>
      <trkpt lat="38.196438" lon="30.869248">
        <ele>1257.000000</ele>
        <time>2010-05-04T11:01:21Z</time>
      </trkpt>
      <trkpt lat="38.196362" lon="30.869194">
        <ele>1255.000000</ele>
        <time>2010-05-04T11:01:32Z</time>
      </trkpt>
      <trkpt lat="38.196355" lon="30.869210">
        <ele>1256.000000</ele>
        <time>2010-05-04T11:01:37Z</time>
      </trkpt>
      <trkpt lat="38.196330" lon="30.869197">
        <ele>1256.000000</ele>
        <time>2010-05-04T11:01:42Z</time>
      </trkpt>
      <trkpt lat="38.196266" lon="30.869094">
        <ele>1256.000000</ele>
        <time>2010-05-04T11:01:59Z</time>
      </trkpt>
      <trkpt lat="38.196262" lon="30.869078">
        <ele>1254.000000</ele>
        <time>2010-05-04T11:02:01Z</time>
      </trkpt>
      <trkpt lat="38.196246" lon="30.869056">
        <ele>1255.000000</ele>
        <time>2010-05-04T11:02:03Z</time>
      </trkpt>
      <trkpt lat="38.196237" lon="30.869056">
        <ele>1254.000000</ele>
        <time>2010-05-04T11:02:05Z</time>
      </trkpt>
      <trkpt lat="38.196221" lon="30.869056">
        <ele>1255.000000</ele>
        <time>2010-05-04T11:02:07Z</time>
      </trkpt>
      <trkpt lat="38.196208" lon="30.869056">
        <ele>1254.000000</ele>
        <time>2010-05-04T11:02:08Z</time>
      </trkpt>
      <trkpt lat="38.196195" lon="30.869059">
        <ele>1253.000000</ele>
        <time>2010-05-04T11:02:09Z</time>
      </trkpt>
      <trkpt lat="38.196182" lon="30.869056">
        <ele>1255.000000</ele>
        <time>2010-05-04T11:02:10Z</time>
      </trkpt>
      <trkpt lat="38.196170" lon="30.869059">
        <ele>1255.000000</ele>
        <time>2010-05-04T11:02:11Z</time>
      </trkpt>
      <trkpt lat="38.196138" lon="30.869066">
        <ele>1255.000000</ele>
        <time>2010-05-04T11:02:16Z</time>
      </trkpt>
      <trkpt lat="38.196096" lon="30.869075">
        <ele>1256.000000</ele>
        <time>2010-05-04T11:02:54Z</time>
      </trkpt>
      <trkpt lat="38.196080" lon="30.869066">
        <ele>1256.000000</ele>
        <time>2010-05-04T11:03:00Z</time>
      </trkpt>
      <trkpt lat="38.196070" lon="30.869056">
        <ele>1257.000000</ele>
        <time>2010-05-04T11:03:01Z</time>
      </trkpt>
      <trkpt lat="38.196067" lon="30.869040">
        <ele>1257.000000</ele>
        <time>2010-05-04T11:03:06Z</time>
      </trkpt>
      <trkpt lat="38.196077" lon="30.869027">
        <ele>1257.000000</ele>
        <time>2010-05-04T11:03:08Z</time>
      </trkpt>
      <trkpt lat="38.196070" lon="30.869018">
        <ele>1257.000000</ele>
        <time>2010-05-04T11:03:10Z</time>
      </trkpt>
      <trkpt lat="38.196067" lon="30.869011">
        <ele>1257.000000</ele>
        <time>2010-05-04T11:03:11Z</time>
      </trkpt>
      <trkpt lat="38.196067" lon="30.868992">
        <ele>1256.000000</ele>
        <time>2010-05-04T11:03:12Z</time>
      </trkpt>
      <trkpt lat="38.196061" lon="30.868970">
        <ele>1255.000000</ele>
        <time>2010-05-04T11:03:14Z</time>
      </trkpt>
      <trkpt lat="38.196058" lon="30.868966">
        <ele>1255.000000</ele>
        <time>2010-05-04T11:03:15Z</time>
      </trkpt>
      <trkpt lat="38.196045" lon="30.868957">
        <ele>1257.000000</ele>
        <time>2010-05-04T11:03:17Z</time>
      </trkpt>
      <trkpt lat="38.196019" lon="30.868954">
        <ele>1256.000000</ele>
        <time>2010-05-04T11:03:19Z</time>
      </trkpt>
      <trkpt lat="38.196003" lon="30.868950">
        <ele>1256.000000</ele>
        <time>2010-05-04T11:03:20Z</time>
      </trkpt>
      <trkpt lat="38.195997" lon="30.868957">
        <ele>1256.000000</ele>
        <time>2010-05-04T11:03:21Z</time>
      </trkpt>
      <trkpt lat="38.195981" lon="30.868957">
        <ele>1256.000000</ele>
        <time>2010-05-04T11:03:22Z</time>
      </trkpt>
      <trkpt lat="38.195968" lon="30.868966">
        <ele>1257.000000</ele>
        <time>2010-05-04T11:03:25Z</time>
      </trkpt>
      <trkpt lat="38.195952" lon="30.868979">
        <ele>1258.000000</ele>
        <time>2010-05-04T11:03:31Z</time>
      </trkpt>
      <trkpt lat="38.195939" lon="30.868970">
        <ele>1258.000000</ele>
        <time>2010-05-04T11:03:34Z</time>
      </trkpt>
      <trkpt lat="38.195904" lon="30.868957">
        <ele>1257.000000</ele>
        <time>2010-05-04T11:03:38Z</time>
      </trkpt>
      <trkpt lat="38.195891" lon="30.868970">
        <ele>1259.000000</ele>
        <time>2010-05-04T11:04:11Z</time>
      </trkpt>
      <trkpt lat="38.195805" lon="30.868909">
        <ele>1258.000000</ele>
        <time>2010-05-04T11:04:24Z</time>
      </trkpt>
      <trkpt lat="38.195734" lon="30.868982">
        <ele>1257.000000</ele>
        <time>2010-05-04T11:04:29Z</time>
      </trkpt>
      <trkpt lat="38.195709" lon="30.869005">
        <ele>1259.000000</ele>
        <time>2010-05-04T11:04:31Z</time>
      </trkpt>
      <trkpt lat="38.195680" lon="30.869040">
        <ele>1258.000000</ele>
        <time>2010-05-04T11:04:34Z</time>
      </trkpt>
      <trkpt lat="38.195661" lon="30.869056">
        <ele>1259.000000</ele>
        <time>2010-05-04T11:04:36Z</time>
      </trkpt>
      <trkpt lat="38.195651" lon="30.869056">
        <ele>1257.000000</ele>
        <time>2010-05-04T11:04:37Z</time>
      </trkpt>
      <trkpt lat="38.195629" lon="30.869040">
        <ele>1258.000000</ele>
        <time>2010-05-04T11:04:43Z</time>
      </trkpt>
      <trkpt lat="38.195626" lon="30.869024">
        <ele>1258.000000</ele>
        <time>2010-05-04T11:04:45Z</time>
      </trkpt>
      <trkpt lat="38.195594" lon="30.868995">
        <ele>1257.000000</ele>
        <time>2010-05-04T11:04:50Z</time>
      </trkpt>
      <trkpt lat="38.195562" lon="30.868989">
        <ele>1256.000000</ele>
        <time>2010-05-04T11:04:54Z</time>
      </trkpt>
      <trkpt lat="38.195549" lon="30.868989">
        <ele>1256.000000</ele>
        <time>2010-05-04T11:04:55Z</time>
      </trkpt>
      <trkpt lat="38.195520" lon="30.868960">
        <ele>1256.000000</ele>
        <time>2010-05-04T11:05:06Z</time>
      </trkpt>
      <trkpt lat="38.195504" lon="30.868970">
        <ele>1256.000000</ele>
        <time>2010-05-04T11:05:12Z</time>
      </trkpt>
      <trkpt lat="38.195507" lon="30.868986">
        <ele>1257.000000</ele>
        <time>2010-05-04T11:05:21Z</time>
      </trkpt>
      <trkpt lat="38.195462" lon="30.868928">
        <ele>1257.000000</ele>
        <time>2010-05-04T11:05:32Z</time>
      </trkpt>
      <trkpt lat="38.195462" lon="30.868928">
        <ele>1255.000000</ele>
        <time>2010-05-04T11:05:36Z</time>
      </trkpt>
      <trkpt lat="38.195382" lon="30.868896">
        <ele>1255.000000</ele>
        <time>2010-05-04T11:06:24Z</time>
      </trkpt>
      <trkpt lat="38.195334" lon="30.868893">
        <ele>1255.000000</ele>
        <time>2010-05-04T11:06:35Z</time>
      </trkpt>
      <trkpt lat="38.195325" lon="30.868851">
        <ele>1255.000000</ele>
        <time>2010-05-04T11:06:42Z</time>
      </trkpt>
      <trkpt lat="38.195322" lon="30.868826">
        <ele>1254.000000</ele>
        <time>2010-05-04T11:06:47Z</time>
      </trkpt>
      <trkpt lat="38.195296" lon="30.868787">
        <ele>1254.000000</ele>
        <time>2010-05-04T11:06:52Z</time>
      </trkpt>
      <trkpt lat="38.195277" lon="30.868768">
        <ele>1253.000000</ele>
        <time>2010-05-04T11:06:55Z</time>
      </trkpt>
      <trkpt lat="38.195267" lon="30.868762">
        <ele>1253.000000</ele>
        <time>2010-05-04T11:06:57Z</time>
      </trkpt>
      <trkpt lat="38.195229" lon="30.868726">
        <ele>1253.000000</ele>
        <time>2010-05-04T11:07:21Z</time>
      </trkpt>
      <trkpt lat="38.195229" lon="30.868730">
        <ele>1253.000000</ele>
        <time>2010-05-04T11:07:22Z</time>
      </trkpt>
      <trkpt lat="38.195178" lon="30.868650">
        <ele>1252.000000</ele>
        <time>2010-05-04T11:07:37Z</time>
      </trkpt>
      <trkpt lat="38.195158" lon="30.868640">
        <ele>1251.000000</ele>
        <time>2010-05-04T11:07:39Z</time>
      </trkpt>
      <trkpt lat="38.195149" lon="30.868627">
        <ele>1252.000000</ele>
        <time>2010-05-04T11:07:42Z</time>
      </trkpt>
      <trkpt lat="38.195088" lon="30.868678">
        <ele>1251.000000</ele>
        <time>2010-05-04T11:08:02Z</time>
      </trkpt>
      <trkpt lat="38.195085" lon="30.868691">
        <ele>1250.000000</ele>
        <time>2010-05-04T11:08:03Z</time>
      </trkpt>
      <trkpt lat="38.195069" lon="30.868669">
        <ele>1250.000000</ele>
        <time>2010-05-04T11:08:05Z</time>
      </trkpt>
      <trkpt lat="38.195056" lon="30.868662">
        <ele>1251.000000</ele>
        <time>2010-05-04T11:08:06Z</time>
      </trkpt>
      <trkpt lat="38.195034" lon="30.868666">
        <ele>1252.000000</ele>
        <time>2010-05-04T11:08:26Z</time>
      </trkpt>
      <trkpt lat="38.195011" lon="30.868669">
        <ele>1253.000000</ele>
        <time>2010-05-04T11:08:29Z</time>
      </trkpt>
      <trkpt lat="38.194998" lon="30.868659">
        <ele>1250.000000</ele>
        <time>2010-05-04T11:08:31Z</time>
      </trkpt>
      <trkpt lat="38.194995" lon="30.868653">
        <ele>1251.000000</ele>
        <time>2010-05-04T11:08:32Z</time>
      </trkpt>
      <trkpt lat="38.194989" lon="30.868650">
        <ele>1251.000000</ele>
        <time>2010-05-04T11:08:33Z</time>
      </trkpt>
      <trkpt lat="38.194973" lon="30.868646">
        <ele>1251.000000</ele>
        <time>2010-05-04T11:08:35Z</time>
      </trkpt>
      <trkpt lat="38.194950" lon="30.868653">
        <ele>1251.000000</ele>
        <time>2010-05-04T11:08:37Z</time>
      </trkpt>
      <trkpt lat="38.194909" lon="30.868669">
        <ele>1250.000000</ele>
        <time>2010-05-04T11:08:41Z</time>
      </trkpt>
      <trkpt lat="38.194886" lon="30.868627">
        <ele>1249.000000</ele>
        <time>2010-05-04T11:08:58Z</time>
      </trkpt>
      <trkpt lat="38.194877" lon="30.868605">
        <ele>1250.000000</ele>
        <time>2010-05-04T11:09:00Z</time>
      </trkpt>
      <trkpt lat="38.194880" lon="30.868592">
        <ele>1248.000000</ele>
        <time>2010-05-04T11:09:01Z</time>
      </trkpt>
      <trkpt lat="38.194870" lon="30.868570">
        <ele>1250.000000</ele>
        <time>2010-05-04T11:09:13Z</time>
      </trkpt>
      <trkpt lat="38.194845" lon="30.868544">
        <ele>1248.000000</ele>
        <time>2010-05-04T11:09:16Z</time>
      </trkpt>
      <trkpt lat="38.194819" lon="30.868528">
        <ele>1248.000000</ele>
        <time>2010-05-04T11:09:19Z</time>
      </trkpt>
      <trkpt lat="38.194806" lon="30.868522">
        <ele>1247.000000</ele>
        <time>2010-05-04T11:09:20Z</time>
      </trkpt>
      <trkpt lat="38.194797" lon="30.868512">
        <ele>1248.000000</ele>
        <time>2010-05-04T11:09:21Z</time>
      </trkpt>
      <trkpt lat="38.194771" lon="30.868496">
        <ele>1247.000000</ele>
        <time>2010-05-04T11:09:24Z</time>
      </trkpt>
      <trkpt lat="38.194758" lon="30.868480">
        <ele>1246.000000</ele>
        <time>2010-05-04T11:09:25Z</time>
      </trkpt>
      <trkpt lat="38.194720" lon="30.868442">
        <ele>1246.000000</ele>
        <time>2010-05-04T11:09:30Z</time>
      </trkpt>
      <trkpt lat="38.194688" lon="30.868442">
        <ele>1245.000000</ele>
        <time>2010-05-04T11:09:35Z</time>
      </trkpt>
      <trkpt lat="38.194669" lon="30.868419">
        <ele>1247.000000</ele>
        <time>2010-05-04T11:09:38Z</time>
      </trkpt>
      <trkpt lat="38.194646" lon="30.868394">
        <ele>1245.000000</ele>
        <time>2010-05-04T11:09:45Z</time>
      </trkpt>
      <trkpt lat="38.194646" lon="30.868397">
        <ele>1245.000000</ele>
        <time>2010-05-04T11:09:47Z</time>
      </trkpt>
      <trkpt lat="38.194650" lon="30.868406">
        <ele>1245.000000</ele>
        <time>2010-05-04T11:09:49Z</time>
      </trkpt>
      <trkpt lat="38.194650" lon="30.868413">
        <ele>1246.000000</ele>
        <time>2010-05-04T11:09:50Z</time>
      </trkpt>
      <trkpt lat="38.194634" lon="30.868419">
        <ele>1245.000000</ele>
        <time>2010-05-04T11:09:55Z</time>
      </trkpt>
      <trkpt lat="38.194608" lon="30.868419">
        <ele>1246.000000</ele>
        <time>2010-05-04T11:09:58Z</time>
      </trkpt>
      <trkpt lat="38.194512" lon="30.868541">
        <ele>1247.000000</ele>
        <time>2010-05-04T11:53:29Z</time>
      </trkpt>
      <trkpt lat="38.194499" lon="30.868550">
        <ele>1247.000000</ele>
        <time>2010-05-04T11:53:31Z</time>
      </trkpt>
      <trkpt lat="38.194493" lon="30.868550">
        <ele>1247.000000</ele>
        <time>2010-05-04T11:53:32Z</time>
      </trkpt>
      <trkpt lat="38.194490" lon="30.868547">
        <ele>1248.000000</ele>
        <time>2010-05-04T11:53:33Z</time>
      </trkpt>
      <trkpt lat="38.194470" lon="30.868534">
        <ele>1247.000000</ele>
        <time>2010-05-04T11:53:35Z</time>
      </trkpt>
      <trkpt lat="38.194454" lon="30.868560">
        <ele>1247.000000</ele>
        <time>2010-05-04T11:53:38Z</time>
      </trkpt>
      <trkpt lat="38.194448" lon="30.868570">
        <ele>1247.000000</ele>
        <time>2010-05-04T11:53:39Z</time>
      </trkpt>
      <trkpt lat="38.194435" lon="30.868589">
        <ele>1248.000000</ele>
        <time>2010-05-04T11:53:41Z</time>
      </trkpt>
      <trkpt lat="38.194442" lon="30.868614">
        <ele>1247.000000</ele>
        <time>2010-05-04T11:53:44Z</time>
      </trkpt>
      <trkpt lat="38.194419" lon="30.868675">
        <ele>1246.000000</ele>
        <time>2010-05-04T11:53:52Z</time>
      </trkpt>
      <trkpt lat="38.194403" lon="30.868678">
        <ele>1248.000000</ele>
        <time>2010-05-04T11:53:53Z</time>
      </trkpt>
      <trkpt lat="38.194394" lon="30.868685">
        <ele>1248.000000</ele>
        <time>2010-05-04T11:53:54Z</time>
      </trkpt>
      <trkpt lat="38.194390" lon="30.868694">
        <ele>1246.000000</ele>
        <time>2010-05-04T11:53:55Z</time>
      </trkpt>
      <trkpt lat="38.194378" lon="30.868707">
        <ele>1246.000000</ele>
        <time>2010-05-04T11:53:56Z</time>
      </trkpt>
      <trkpt lat="38.194368" lon="30.868730">
        <ele>1249.000000</ele>
        <time>2010-05-04T11:53:59Z</time>
      </trkpt>
      <trkpt lat="38.194336" lon="30.868778">
        <ele>1249.000000</ele>
        <time>2010-05-04T11:54:06Z</time>
      </trkpt>
      <trkpt lat="38.194323" lon="30.868787">
        <ele>1249.000000</ele>
        <time>2010-05-04T11:54:07Z</time>
      </trkpt>
      <trkpt lat="38.194278" lon="30.868870">
        <ele>1248.000000</ele>
        <time>2010-05-04T11:54:19Z</time>
      </trkpt>
      <trkpt lat="38.194240" lon="30.868906">
        <ele>1247.000000</ele>
        <time>2010-05-04T11:54:24Z</time>
      </trkpt>
      <trkpt lat="38.194221" lon="30.868909">
        <ele>1247.000000</ele>
        <time>2010-05-04T11:54:27Z</time>
      </trkpt>
      <trkpt lat="38.194205" lon="30.868925">
        <ele>1248.000000</ele>
        <time>2010-05-04T11:54:30Z</time>
      </trkpt>
      <trkpt lat="38.194192" lon="30.868950">
        <ele>1248.000000</ele>
        <time>2010-05-04T11:54:32Z</time>
      </trkpt>
      <trkpt lat="38.194186" lon="30.868976">
        <ele>1248.000000</ele>
        <time>2010-05-04T11:54:35Z</time>
      </trkpt>
      <trkpt lat="38.194170" lon="30.869002">
        <ele>1249.000000</ele>
        <time>2010-05-04T11:54:38Z</time>
      </trkpt>
      <trkpt lat="38.194141" lon="30.869008">
        <ele>1248.000000</ele>
        <time>2010-05-04T11:54:41Z</time>
      </trkpt>
      <trkpt lat="38.194131" lon="30.869014">
        <ele>1249.000000</ele>
        <time>2010-05-04T11:54:42Z</time>
      </trkpt>
      <trkpt lat="38.194118" lon="30.869018">
        <ele>1249.000000</ele>
        <time>2010-05-04T11:54:43Z</time>
      </trkpt>
      <trkpt lat="38.194086" lon="30.869053">
        <ele>1247.000000</ele>
        <time>2010-05-04T11:54:49Z</time>
      </trkpt>
      <trkpt lat="38.194074" lon="30.869104">
        <ele>1246.000000</ele>
        <time>2010-05-04T11:54:53Z</time>
      </trkpt>
      <trkpt lat="38.194054" lon="30.869126">
        <ele>1248.000000</ele>
        <time>2010-05-04T11:54:56Z</time>
      </trkpt>
      <trkpt lat="38.193994" lon="30.869120">
        <ele>1247.000000</ele>
        <time>2010-05-04T11:55:05Z</time>
      </trkpt>
      <trkpt lat="38.193626" lon="30.869347">
        <ele>1248.000000</ele>
        <time>2010-05-04T11:55:41Z</time>
      </trkpt>
      <trkpt lat="38.193616" lon="30.869357">
        <ele>1247.000000</ele>
        <time>2010-05-04T11:55:42Z</time>
      </trkpt>
      <trkpt lat="38.193606" lon="30.869366">
        <ele>1247.000000</ele>
        <time>2010-05-04T11:55:43Z</time>
      </trkpt>
      <trkpt lat="38.193587" lon="30.869389">
        <ele>1247.000000</ele>
        <time>2010-05-04T11:55:48Z</time>
      </trkpt>
      <trkpt lat="38.193558" lon="30.869434">
        <ele>1248.000000</ele>
        <time>2010-05-04T11:55:55Z</time>
      </trkpt>
      <trkpt lat="38.193546" lon="30.869434">
        <ele>1247.000000</ele>
        <time>2010-05-04T11:55:56Z</time>
      </trkpt>
      <trkpt lat="38.193517" lon="30.869446">
        <ele>1247.000000</ele>
        <time>2010-05-04T11:55:59Z</time>
      </trkpt>
      <trkpt lat="38.193507" lon="30.869459">
        <ele>1248.000000</ele>
        <time>2010-05-04T11:56:02Z</time>
      </trkpt>
      <trkpt lat="38.193475" lon="30.869459">
        <ele>1247.000000</ele>
        <time>2010-05-04T11:56:06Z</time>
      </trkpt>
      <trkpt lat="38.193443" lon="30.869459">
        <ele>1248.000000</ele>
        <time>2010-05-04T11:56:08Z</time>
      </trkpt>
      <trkpt lat="38.193389" lon="30.869494">
        <ele>1248.000000</ele>
        <time>2010-05-04T11:56:14Z</time>
      </trkpt>
      <trkpt lat="38.193347" lon="30.869514">
        <ele>1248.000000</ele>
        <time>2010-05-04T11:56:23Z</time>
      </trkpt>
      <trkpt lat="38.193312" lon="30.869504">
        <ele>1247.000000</ele>
        <time>2010-05-04T11:56:27Z</time>
      </trkpt>
      <trkpt lat="38.193222" lon="30.869552">
        <ele>1248.000000</ele>
        <time>2010-05-04T11:56:40Z</time>
      </trkpt>
      <trkpt lat="38.193216" lon="30.869568">
        <ele>1248.000000</ele>
        <time>2010-05-04T11:56:41Z</time>
      </trkpt>
      <trkpt lat="38.193203" lon="30.869571">
        <ele>1248.000000</ele>
        <time>2010-05-04T11:56:42Z</time>
      </trkpt>
      <trkpt lat="38.193149" lon="30.869565">
        <ele>1248.000000</ele>
        <time>2010-05-04T11:56:46Z</time>
      </trkpt>
      <trkpt lat="38.193008" lon="30.869507">
        <ele>1247.000000</ele>
        <time>2010-05-04T11:56:59Z</time>
      </trkpt>
      <trkpt lat="38.192979" lon="30.869478">
        <ele>1248.000000</ele>
        <time>2010-05-04T11:57:02Z</time>
      </trkpt>
      <trkpt lat="38.192970" lon="30.869466">
        <ele>1248.000000</ele>
        <time>2010-05-04T11:57:03Z</time>
      </trkpt>
      <trkpt lat="38.192954" lon="30.869459">
        <ele>1248.000000</ele>
        <time>2010-05-04T11:57:04Z</time>
      </trkpt>
      <trkpt lat="38.192934" lon="30.869434">
        <ele>1247.000000</ele>
        <time>2010-05-04T11:57:07Z</time>
      </trkpt>
      <trkpt lat="38.192902" lon="30.869427">
        <ele>1249.000000</ele>
        <time>2010-05-04T11:57:09Z</time>
      </trkpt>
      <trkpt lat="38.192899" lon="30.869430">
        <ele>1249.000000</ele>
        <time>2010-05-04T11:57:10Z</time>
      </trkpt>
      <trkpt lat="38.192794" lon="30.869386">
        <ele>1248.000000</ele>
        <time>2010-05-04T11:57:23Z</time>
      </trkpt>
      <trkpt lat="38.192790" lon="30.869344">
        <ele>1246.000000</ele>
        <time>2010-05-04T11:57:27Z</time>
      </trkpt>
      <trkpt lat="38.192768" lon="30.869344">
        <ele>1246.000000</ele>
        <time>2010-05-04T11:57:29Z</time>
      </trkpt>
      <trkpt lat="38.192749" lon="30.869334">
        <ele>1246.000000</ele>
        <time>2010-05-04T11:57:31Z</time>
      </trkpt>
      <trkpt lat="38.192723" lon="30.869328">
        <ele>1246.000000</ele>
        <time>2010-05-04T11:57:33Z</time>
      </trkpt>
      <trkpt lat="38.192704" lon="30.869309">
        <ele>1247.000000</ele>
        <time>2010-05-04T11:57:35Z</time>
      </trkpt>
      <trkpt lat="38.192701" lon="30.869299">
        <ele>1248.000000</ele>
        <time>2010-05-04T11:57:37Z</time>
      </trkpt>
      <trkpt lat="38.192672" lon="30.869277">
        <ele>1247.000000</ele>
        <time>2010-05-04T11:57:41Z</time>
      </trkpt>
      <trkpt lat="38.192656" lon="30.869267">
        <ele>1246.000000</ele>
        <time>2010-05-04T11:57:42Z</time>
      </trkpt>
      <trkpt lat="38.192614" lon="30.869210">
        <ele>1247.000000</ele>
        <time>2010-05-04T11:57:50Z</time>
      </trkpt>
      <trkpt lat="38.192614" lon="30.869206">
        <ele>1245.000000</ele>
        <time>2010-05-04T11:57:52Z</time>
      </trkpt>
      <trkpt lat="38.192614" lon="30.869184">
        <ele>1247.000000</ele>
        <time>2010-05-04T12:00:00Z</time>
      </trkpt>
      <trkpt lat="38.192630" lon="30.869162">
        <ele>1247.000000</ele>
        <time>2010-05-04T12:00:03Z</time>
      </trkpt>
      <trkpt lat="38.192634" lon="30.869155">
        <ele>1246.000000</ele>
        <time>2010-05-04T12:00:14Z</time>
      </trkpt>
      <trkpt lat="38.192646" lon="30.869146">
        <ele>1246.000000</ele>
        <time>2010-05-04T12:00:16Z</time>
      </trkpt>
      <trkpt lat="38.192566" lon="30.869085">
        <ele>1246.000000</ele>
        <time>2010-05-04T12:00:36Z</time>
      </trkpt>
      <trkpt lat="38.192528" lon="30.869069">
        <ele>1246.000000</ele>
        <time>2010-05-04T12:00:41Z</time>
      </trkpt>
      <trkpt lat="38.192451" lon="30.869059">
        <ele>1247.000000</ele>
        <time>2010-05-04T12:04:43Z</time>
      </trkpt>
      <trkpt lat="38.192429" lon="30.869050">
        <ele>1247.000000</ele>
        <time>2010-05-04T12:04:46Z</time>
      </trkpt>
      <trkpt lat="38.192416" lon="30.869046">
        <ele>1248.000000</ele>
        <time>2010-05-04T12:04:47Z</time>
      </trkpt>
      <trkpt lat="38.192307" lon="30.869046">
        <ele>1249.000000</ele>
        <time>2010-05-04T12:05:00Z</time>
      </trkpt>
      <trkpt lat="38.192253" lon="30.869027">
        <ele>1249.000000</ele>
        <time>2010-05-04T12:05:47Z</time>
      </trkpt>
      <trkpt lat="38.192246" lon="30.869021">
        <ele>1250.000000</ele>
        <time>2010-05-04T12:05:52Z</time>
      </trkpt>
      <trkpt lat="38.192198" lon="30.869040">
        <ele>1249.000000</ele>
        <time>2010-05-04T12:06:04Z</time>
      </trkpt>
      <trkpt lat="38.192166" lon="30.868986">
        <ele>1250.000000</ele>
        <time>2010-05-04T12:06:44Z</time>
      </trkpt>
      <trkpt lat="38.192154" lon="30.868973">
        <ele>1249.000000</ele>
        <time>2010-05-04T12:06:47Z</time>
      </trkpt>
      <trkpt lat="38.192134" lon="30.868960">
        <ele>1249.000000</ele>
        <time>2010-05-04T12:06:59Z</time>
      </trkpt>
      <trkpt lat="38.192138" lon="30.868957">
        <ele>1251.000000</ele>
        <time>2010-05-04T12:07:03Z</time>
      </trkpt>
      <trkpt lat="38.192090" lon="30.868915">
        <ele>1252.000000</ele>
        <time>2010-05-04T12:07:48Z</time>
      </trkpt>
      <trkpt lat="38.192048" lon="30.868957">
        <ele>1251.000000</ele>
        <time>2010-05-04T12:08:51Z</time>
      </trkpt>
      <trkpt lat="38.192026" lon="30.868970">
        <ele>1250.000000</ele>
        <time>2010-05-04T12:08:54Z</time>
      </trkpt>
      <trkpt lat="38.192013" lon="30.868979">
        <ele>1252.000000</ele>
        <time>2010-05-04T12:08:55Z</time>
      </trkpt>
      <trkpt lat="38.191987" lon="30.869018">
        <ele>1251.000000</ele>
        <time>2010-05-04T12:09:15Z</time>
      </trkpt>
      <trkpt lat="38.191936" lon="30.869050">
        <ele>1259.000000</ele>
        <time>2010-05-04T12:09:56Z</time>
      </trkpt>
      <trkpt lat="38.191946" lon="30.869056">
        <ele>1258.000000</ele>
        <time>2010-05-04T12:09:57Z</time>
      </trkpt>
      <trkpt lat="38.191949" lon="30.869056">
        <ele>1259.000000</ele>
        <time>2010-05-04T12:09:58Z</time>
      </trkpt>
      <trkpt lat="38.191949" lon="30.869059">
        <ele>1261.000000</ele>
        <time>2010-05-04T12:10:00Z</time>
      </trkpt>
      <trkpt lat="38.191968" lon="30.869066">
        <ele>1261.000000</ele>
        <time>2010-05-04T12:10:01Z</time>
      </trkpt>
      <trkpt lat="38.191981" lon="30.869075">
        <ele>1259.000000</ele>
        <time>2010-05-04T12:10:03Z</time>
      </trkpt>
      <trkpt lat="38.191971" lon="30.869117">
        <ele>1261.000000</ele>
        <time>2010-05-04T12:10:10Z</time>
      </trkpt>
      <trkpt lat="38.191939" lon="30.869155">
        <ele>1262.000000</ele>
        <time>2010-05-04T12:10:15Z</time>
      </trkpt>
      <trkpt lat="38.191933" lon="30.869165">
        <ele>1262.000000</ele>
        <time>2010-05-04T12:10:16Z</time>
      </trkpt>
      <trkpt lat="38.191926" lon="30.869174">
        <ele>1263.000000</ele>
        <time>2010-05-04T12:10:17Z</time>
      </trkpt>
      <trkpt lat="38.191917" lon="30.869181">
        <ele>1263.000000</ele>
        <time>2010-05-04T12:10:18Z</time>
      </trkpt>
      <trkpt lat="38.191936" lon="30.869222">
        <ele>1262.000000</ele>
        <time>2010-05-04T12:10:23Z</time>
      </trkpt>
      <trkpt lat="38.191939" lon="30.869235">
        <ele>1263.000000</ele>
        <time>2010-05-04T12:10:24Z</time>
      </trkpt>
      <trkpt lat="38.191936" lon="30.869270">
        <ele>1262.000000</ele>
        <time>2010-05-04T12:10:27Z</time>
      </trkpt>
      <trkpt lat="38.191926" lon="30.869283">
        <ele>1264.000000</ele>
        <time>2010-05-04T12:10:29Z</time>
      </trkpt>
      <trkpt lat="38.191917" lon="30.869283">
        <ele>1264.000000</ele>
        <time>2010-05-04T12:10:30Z</time>
      </trkpt>
      <trkpt lat="38.191910" lon="30.869283">
        <ele>1263.000000</ele>
        <time>2010-05-04T12:10:31Z</time>
      </trkpt>
      <trkpt lat="38.191898" lon="30.869286">
        <ele>1263.000000</ele>
        <time>2010-05-04T12:10:32Z</time>
      </trkpt>
      <trkpt lat="38.191888" lon="30.869296">
        <ele>1266.000000</ele>
        <time>2010-05-04T12:10:42Z</time>
      </trkpt>
      <trkpt lat="38.191846" lon="30.869261">
        <ele>1266.000000</ele>
        <time>2010-05-04T12:10:54Z</time>
      </trkpt>
      <trkpt lat="38.191818" lon="30.869251">
        <ele>1265.000000</ele>
        <time>2010-05-04T12:10:55Z</time>
      </trkpt>
      <trkpt lat="38.191792" lon="30.869248">
        <ele>1265.000000</ele>
        <time>2010-05-04T12:11:15Z</time>
      </trkpt>
      <trkpt lat="38.191782" lon="30.869248">
        <ele>1263.000000</ele>
        <time>2010-05-04T12:11:16Z</time>
      </trkpt>
      <trkpt lat="38.191789" lon="30.869219">
        <ele>1264.000000</ele>
        <time>2010-05-04T12:11:19Z</time>
      </trkpt>
      <trkpt lat="38.191792" lon="30.869219">
        <ele>1264.000000</ele>
        <time>2010-05-04T12:11:22Z</time>
      </trkpt>
      <trkpt lat="38.191789" lon="30.869206">
        <ele>1265.000000</ele>
        <time>2010-05-04T12:11:23Z</time>
      </trkpt>
      <trkpt lat="38.191709" lon="30.869194">
        <ele>1262.000000</ele>
        <time>2010-05-04T12:11:40Z</time>
      </trkpt>
      <trkpt lat="38.191696" lon="30.869184">
        <ele>1262.000000</ele>
        <time>2010-05-04T12:11:41Z</time>
      </trkpt>
      <trkpt lat="38.191674" lon="30.869174">
        <ele>1264.000000</ele>
        <time>2010-05-04T12:11:45Z</time>
      </trkpt>
      <trkpt lat="38.191654" lon="30.869165">
        <ele>1264.000000</ele>
        <time>2010-05-04T12:11:46Z</time>
      </trkpt>
      <trkpt lat="38.191597" lon="30.869107">
        <ele>1263.000000</ele>
        <time>2010-05-04T12:12:03Z</time>
      </trkpt>
      <trkpt lat="38.191578" lon="30.869104">
        <ele>1263.000000</ele>
        <time>2010-05-04T12:12:06Z</time>
      </trkpt>
      <trkpt lat="38.191552" lon="30.869098">
        <ele>1263.000000</ele>
        <time>2010-05-04T12:12:07Z</time>
      </trkpt>
      <trkpt lat="38.191494" lon="30.869091">
        <ele>1262.000000</ele>
        <time>2010-05-04T12:12:19Z</time>
      </trkpt>
      <trkpt lat="38.191418" lon="30.869066">
        <ele>1260.000000</ele>
        <time>2010-05-04T12:12:27Z</time>
      </trkpt>
      <trkpt lat="38.191376" lon="30.869050">
        <ele>1262.000000</ele>
        <time>2010-05-04T12:12:44Z</time>
      </trkpt>
      <trkpt lat="38.191322" lon="30.869050">
        <ele>1262.000000</ele>
        <time>2010-05-04T12:12:48Z</time>
      </trkpt>
      <trkpt lat="38.191318" lon="30.869034">
        <ele>1261.000000</ele>
        <time>2010-05-04T12:12:50Z</time>
      </trkpt>
      <trkpt lat="38.191315" lon="30.869018">
        <ele>1262.000000</ele>
        <time>2010-05-04T12:12:51Z</time>
      </trkpt>
      <trkpt lat="38.191283" lon="30.869014">
        <ele>1261.000000</ele>
        <time>2010-05-04T12:12:53Z</time>
      </trkpt>
      <trkpt lat="38.191251" lon="30.869008">
        <ele>1261.000000</ele>
        <time>2010-05-04T12:13:27Z</time>
      </trkpt>
      <trkpt lat="38.191238" lon="30.869008">
        <ele>1261.000000</ele>
        <time>2010-05-04T12:13:28Z</time>
      </trkpt>
      <trkpt lat="38.191174" lon="30.869030">
        <ele>1261.000000</ele>
        <time>2010-05-04T12:13:33Z</time>
      </trkpt>
      <trkpt lat="38.191171" lon="30.869037">
        <ele>1261.000000</ele>
        <time>2010-05-04T12:13:42Z</time>
      </trkpt>
      <trkpt lat="38.191155" lon="30.869018">
        <ele>1262.000000</ele>
        <time>2010-05-04T12:13:45Z</time>
      </trkpt>
      <trkpt lat="38.191146" lon="30.869014">
        <ele>1262.000000</ele>
        <time>2010-05-04T12:14:00Z</time>
      </trkpt>
      <trkpt lat="38.191126" lon="30.869011">
        <ele>1261.000000</ele>
        <time>2010-05-04T12:14:03Z</time>
      </trkpt>
      <trkpt lat="38.191043" lon="30.869018">
        <ele>1262.000000</ele>
        <time>2010-05-04T12:14:16Z</time>
      </trkpt>
      <trkpt lat="38.191027" lon="30.869011">
        <ele>1261.000000</ele>
        <time>2010-05-04T12:14:18Z</time>
      </trkpt>
      <trkpt lat="38.191014" lon="30.868995">
        <ele>1262.000000</ele>
        <time>2010-05-04T12:14:58Z</time>
      </trkpt>
      <trkpt lat="38.190957" lon="30.868966">
        <ele>1259.000000</ele>
        <time>2010-05-04T12:15:25Z</time>
      </trkpt>
      <trkpt lat="38.190954" lon="30.868944">
        <ele>1258.000000</ele>
        <time>2010-05-04T12:15:28Z</time>
      </trkpt>
      <trkpt lat="38.190947" lon="30.868896">
        <ele>1257.000000</ele>
        <time>2010-05-04T12:15:40Z</time>
      </trkpt>
      <trkpt lat="38.190925" lon="30.868877">
        <ele>1258.000000</ele>
        <time>2010-05-04T12:15:53Z</time>
      </trkpt>
      <trkpt lat="38.190909" lon="30.868886">
        <ele>1258.000000</ele>
        <time>2010-05-04T12:15:54Z</time>
      </trkpt>
      <trkpt lat="38.190902" lon="30.868877">
        <ele>1258.000000</ele>
        <time>2010-05-04T12:16:00Z</time>
      </trkpt>
      <trkpt lat="38.190867" lon="30.868938">
        <ele>1257.000000</ele>
        <time>2010-05-04T12:17:30Z</time>
      </trkpt>
      <trkpt lat="38.190854" lon="30.868922">
        <ele>1257.000000</ele>
        <time>2010-05-04T12:17:32Z</time>
      </trkpt>
      <trkpt lat="38.190842" lon="30.868918">
        <ele>1257.000000</ele>
        <time>2010-05-04T12:17:33Z</time>
      </trkpt>
      <trkpt lat="38.190829" lon="30.868874">
        <ele>1257.000000</ele>
        <time>2010-05-04T12:17:38Z</time>
      </trkpt>
      <trkpt lat="38.190819" lon="30.868835">
        <ele>1256.000000</ele>
        <time>2010-05-04T12:17:42Z</time>
      </trkpt>
      <trkpt lat="38.190806" lon="30.868822">
        <ele>1256.000000</ele>
        <time>2010-05-04T12:17:43Z</time>
      </trkpt>
      <trkpt lat="38.190787" lon="30.868813">
        <ele>1256.000000</ele>
        <time>2010-05-04T12:17:44Z</time>
      </trkpt>
      <trkpt lat="38.190768" lon="30.868835">
        <ele>1257.000000</ele>
        <time>2010-05-04T12:17:48Z</time>
      </trkpt>
      <trkpt lat="38.190618" lon="30.868826">
        <ele>1257.000000</ele>
        <time>2010-05-04T12:18:20Z</time>
      </trkpt>
      <trkpt lat="38.190576" lon="30.868806">
        <ele>1256.000000</ele>
        <time>2010-05-04T12:18:30Z</time>
      </trkpt>
      <trkpt lat="38.190499" lon="30.868755">
        <ele>1255.000000</ele>
        <time>2010-05-04T12:19:09Z</time>
      </trkpt>
      <trkpt lat="38.190458" lon="30.868678">
        <ele>1254.000000</ele>
        <time>2010-05-04T12:21:08Z</time>
      </trkpt>
      <trkpt lat="38.190445" lon="30.868678">
        <ele>1254.000000</ele>
        <time>2010-05-04T12:21:10Z</time>
      </trkpt>
      <trkpt lat="38.190432" lon="30.868672">
        <ele>1255.000000</ele>
        <time>2010-05-04T12:21:12Z</time>
      </trkpt>
      <trkpt lat="38.190419" lon="30.868672">
        <ele>1256.000000</ele>
        <time>2010-05-04T12:21:29Z</time>
      </trkpt>
      <trkpt lat="38.190381" lon="30.868672">
        <ele>1256.000000</ele>
        <time>2010-05-04T12:21:35Z</time>
      </trkpt>
      <trkpt lat="38.190362" lon="30.868669">
        <ele>1256.000000</ele>
        <time>2010-05-04T12:21:37Z</time>
      </trkpt>
      <trkpt lat="38.190278" lon="30.868640">
        <ele>1260.000000</ele>
        <time>2010-05-04T12:22:01Z</time>
      </trkpt>
      <trkpt lat="38.190234" lon="30.868624">
        <ele>1258.000000</ele>
        <time>2010-05-04T12:22:09Z</time>
      </trkpt>
      <trkpt lat="38.190128" lon="30.868579">
        <ele>1262.000000</ele>
        <time>2010-05-04T12:22:26Z</time>
      </trkpt>
      <trkpt lat="38.190026" lon="30.868515">
        <ele>1261.000000</ele>
        <time>2010-05-04T12:22:42Z</time>
      </trkpt>
      <trkpt lat="38.189994" lon="30.868474">
        <ele>1260.000000</ele>
        <time>2010-05-04T12:22:47Z</time>
      </trkpt>
      <trkpt lat="38.189930" lon="30.868432">
        <ele>1261.000000</ele>
        <time>2010-05-04T12:22:56Z</time>
      </trkpt>
      <trkpt lat="38.189866" lon="30.868442">
        <ele>1262.000000</ele>
        <time>2010-05-04T12:23:02Z</time>
      </trkpt>
      <trkpt lat="38.189850" lon="30.868429">
        <ele>1262.000000</ele>
        <time>2010-05-04T12:23:03Z</time>
      </trkpt>
      <trkpt lat="38.189821" lon="30.868403">
        <ele>1263.000000</ele>
        <time>2010-05-04T12:23:09Z</time>
      </trkpt>
      <trkpt lat="38.189747" lon="30.868352">
        <ele>1266.000000</ele>
        <time>2010-05-04T12:23:36Z</time>
      </trkpt>
      <trkpt lat="38.189715" lon="30.868323">
        <ele>1266.000000</ele>
        <time>2010-05-04T12:23:42Z</time>
      </trkpt>
      <trkpt lat="38.189715" lon="30.868323">
        <ele>1266.000000</ele>
        <time>2010-05-04T12:23:43Z</time>
      </trkpt>
      <trkpt lat="38.189683" lon="30.868323">
        <ele>1265.000000</ele>
        <time>2010-05-04T12:23:48Z</time>
      </trkpt>
      <trkpt lat="38.189664" lon="30.868336">
        <ele>1267.000000</ele>
        <time>2010-05-04T12:28:00Z</time>
      </trkpt>
      <trkpt lat="38.189626" lon="30.868301">
        <ele>1269.000000</ele>
        <time>2010-05-04T12:28:03Z</time>
      </trkpt>
      <trkpt lat="38.189606" lon="30.868275">
        <ele>1267.000000</ele>
        <time>2010-05-04T12:28:09Z</time>
      </trkpt>
      <trkpt lat="38.189565" lon="30.868288">
        <ele>1269.000000</ele>
        <time>2010-05-04T12:28:12Z</time>
      </trkpt>
      <trkpt lat="38.189558" lon="30.868288">
        <ele>1268.000000</ele>
        <time>2010-05-04T12:28:15Z</time>
      </trkpt>
      <trkpt lat="38.189536" lon="30.868278">
        <ele>1268.000000</ele>
        <time>2010-05-04T12:28:19Z</time>
      </trkpt>
      <trkpt lat="38.189523" lon="30.868246">
        <ele>1269.000000</ele>
        <time>2010-05-04T12:28:32Z</time>
      </trkpt>
      <trkpt lat="38.189395" lon="30.868246">
        <ele>1267.000000</ele>
        <time>2010-05-04T12:28:49Z</time>
      </trkpt>
      <trkpt lat="38.189373" lon="30.868224">
        <ele>1269.000000</ele>
        <time>2010-05-04T12:28:52Z</time>
      </trkpt>
      <trkpt lat="38.189357" lon="30.868224">
        <ele>1268.000000</ele>
        <time>2010-05-04T12:28:58Z</time>
      </trkpt>
      <trkpt lat="38.189357" lon="30.868205">
        <ele>1268.000000</ele>
        <time>2010-05-04T12:29:00Z</time>
      </trkpt>
      <trkpt lat="38.189347" lon="30.868192">
        <ele>1268.000000</ele>
        <time>2010-05-04T12:29:01Z</time>
      </trkpt>
      <trkpt lat="38.189315" lon="30.868163">
        <ele>1266.000000</ele>
        <time>2010-05-04T12:29:04Z</time>
      </trkpt>
      <trkpt lat="38.189261" lon="30.868122">
        <ele>1269.000000</ele>
        <time>2010-05-04T12:29:10Z</time>
      </trkpt>
      <trkpt lat="38.189254" lon="30.868112">
        <ele>1269.000000</ele>
        <time>2010-05-04T12:29:11Z</time>
      </trkpt>
      <trkpt lat="38.189245" lon="30.868093">
        <ele>1268.000000</ele>
        <time>2010-05-04T12:29:12Z</time>
      </trkpt>
      <trkpt lat="38.189232" lon="30.868086">
        <ele>1268.000000</ele>
        <time>2010-05-04T12:29:13Z</time>
      </trkpt>
      <trkpt lat="38.189232" lon="30.868080">
        <ele>1269.000000</ele>
        <time>2010-05-04T12:29:15Z</time>
      </trkpt>
      <trkpt lat="38.189235" lon="30.868067">
        <ele>1269.000000</ele>
        <time>2010-05-04T12:29:17Z</time>
      </trkpt>
      <trkpt lat="38.189229" lon="30.868083">
        <ele>1268.000000</ele>
        <time>2010-05-04T12:29:19Z</time>
      </trkpt>
      <trkpt lat="38.189216" lon="30.868070">
        <ele>1268.000000</ele>
        <time>2010-05-04T12:29:21Z</time>
      </trkpt>
      <trkpt lat="38.189210" lon="30.868074">
        <ele>1269.000000</ele>
        <time>2010-05-04T12:29:22Z</time>
      </trkpt>
      <trkpt lat="38.189194" lon="30.868070">
        <ele>1268.000000</ele>
        <time>2010-05-04T12:29:25Z</time>
      </trkpt>
      <trkpt lat="38.189174" lon="30.868080">
        <ele>1269.000000</ele>
        <time>2010-05-04T12:29:29Z</time>
      </trkpt>
      <trkpt lat="38.189136" lon="30.868045">
        <ele>1269.000000</ele>
        <time>2010-05-04T12:29:35Z</time>
      </trkpt>
      <trkpt lat="38.189136" lon="30.868032">
        <ele>1268.000000</ele>
        <time>2010-05-04T12:29:37Z</time>
      </trkpt>
      <trkpt lat="38.189136" lon="30.868026">
        <ele>1268.000000</ele>
        <time>2010-05-04T12:29:39Z</time>
      </trkpt>
      <trkpt lat="38.189126" lon="30.868006">
        <ele>1268.000000</ele>
        <time>2010-05-04T12:29:50Z</time>
      </trkpt>
      <trkpt lat="38.189107" lon="30.868026">
        <ele>1267.000000</ele>
        <time>2010-05-04T12:30:02Z</time>
      </trkpt>
      <trkpt lat="38.189110" lon="30.868016">
        <ele>1268.000000</ele>
        <time>2010-05-04T12:30:04Z</time>
      </trkpt>
      <trkpt lat="38.189110" lon="30.867994">
        <ele>1268.000000</ele>
        <time>2010-05-04T12:30:06Z</time>
      </trkpt>
      <trkpt lat="38.189107" lon="30.867974">
        <ele>1270.000000</ele>
        <time>2010-05-04T12:30:07Z</time>
      </trkpt>
      <trkpt lat="38.189088" lon="30.867946">
        <ele>1267.000000</ele>
        <time>2010-05-04T12:30:09Z</time>
      </trkpt>
      <trkpt lat="38.189066" lon="30.867930">
        <ele>1268.000000</ele>
        <time>2010-05-04T12:30:11Z</time>
      </trkpt>
      <trkpt lat="38.189050" lon="30.867917">
        <ele>1267.000000</ele>
        <time>2010-05-04T12:30:13Z</time>
      </trkpt>
      <trkpt lat="38.189040" lon="30.867904">
        <ele>1267.000000</ele>
        <time>2010-05-04T12:30:14Z</time>
      </trkpt>
      <trkpt lat="38.189037" lon="30.867888">
        <ele>1267.000000</ele>
        <time>2010-05-04T12:30:15Z</time>
      </trkpt>
      <trkpt lat="38.189037" lon="30.867859">
        <ele>1267.000000</ele>
        <time>2010-05-04T12:30:17Z</time>
      </trkpt>
      <trkpt lat="38.189014" lon="30.867834">
        <ele>1266.000000</ele>
        <time>2010-05-04T12:30:23Z</time>
      </trkpt>
      <trkpt lat="38.189008" lon="30.867814">
        <ele>1265.000000</ele>
        <time>2010-05-04T12:30:24Z</time>
      </trkpt>
      <trkpt lat="38.188998" lon="30.867795">
        <ele>1265.000000</ele>
        <time>2010-05-04T12:30:25Z</time>
      </trkpt>
      <trkpt lat="38.189008" lon="30.867766">
        <ele>1265.000000</ele>
        <time>2010-05-04T12:30:27Z</time>
      </trkpt>
      <trkpt lat="38.189002" lon="30.867757">
        <ele>1266.000000</ele>
        <time>2010-05-04T12:30:28Z</time>
      </trkpt>
      <trkpt lat="38.189002" lon="30.867744">
        <ele>1266.000000</ele>
        <time>2010-05-04T12:30:29Z</time>
      </trkpt>
      <trkpt lat="38.188995" lon="30.867738">
        <ele>1267.000000</ele>
        <time>2010-05-04T12:30:30Z</time>
      </trkpt>
      <trkpt lat="38.188995" lon="30.867709">
        <ele>1266.000000</ele>
        <time>2010-05-04T12:30:35Z</time>
      </trkpt>
      <trkpt lat="38.188954" lon="30.867709">
        <ele>1264.000000</ele>
        <time>2010-05-04T12:30:39Z</time>
      </trkpt>
      <trkpt lat="38.188912" lon="30.867699">
        <ele>1266.000000</ele>
        <time>2010-05-04T12:30:42Z</time>
      </trkpt>
      <trkpt lat="38.188893" lon="30.867664">
        <ele>1264.000000</ele>
        <time>2010-05-04T12:30:49Z</time>
      </trkpt>
      <trkpt lat="38.188880" lon="30.867619">
        <ele>1265.000000</ele>
        <time>2010-05-04T12:30:55Z</time>
      </trkpt>
      <trkpt lat="38.188848" lon="30.867584">
        <ele>1267.000000</ele>
        <time>2010-05-04T12:31:01Z</time>
      </trkpt>
      <trkpt lat="38.188810" lon="30.867530">
        <ele>1267.000000</ele>
        <time>2010-05-04T12:31:15Z</time>
      </trkpt>
      <trkpt lat="38.188797" lon="30.867510">
        <ele>1265.000000</ele>
        <time>2010-05-04T12:31:20Z</time>
      </trkpt>
      <trkpt lat="38.188794" lon="30.867507">
        <ele>1265.000000</ele>
        <time>2010-05-04T12:31:22Z</time>
      </trkpt>
      <trkpt lat="38.188762" lon="30.867498">
        <ele>1265.000000</ele>
        <time>2010-05-04T12:31:28Z</time>
      </trkpt>
      <trkpt lat="38.188768" lon="30.867478">
        <ele>1265.000000</ele>
        <time>2010-05-04T12:31:31Z</time>
      </trkpt>
      <trkpt lat="38.188774" lon="30.867485">
        <ele>1264.000000</ele>
        <time>2010-05-04T12:31:32Z</time>
      </trkpt>
      <trkpt lat="38.188781" lon="30.867453">
        <ele>1265.000000</ele>
        <time>2010-05-04T12:31:37Z</time>
      </trkpt>
      <trkpt lat="38.188771" lon="30.867427">
        <ele>1266.000000</ele>
        <time>2010-05-04T12:31:40Z</time>
      </trkpt>
      <trkpt lat="38.188771" lon="30.867424">
        <ele>1264.000000</ele>
        <time>2010-05-04T12:31:44Z</time>
      </trkpt>
      <trkpt lat="38.188778" lon="30.867395">
        <ele>1264.000000</ele>
        <time>2010-05-04T12:31:53Z</time>
      </trkpt>
      <trkpt lat="38.188749" lon="30.867366">
        <ele>1266.000000</ele>
        <time>2010-05-04T12:32:04Z</time>
      </trkpt>
      <trkpt lat="38.188717" lon="30.867370">
        <ele>1268.000000</ele>
        <time>2010-05-04T12:32:13Z</time>
      </trkpt>
      <trkpt lat="38.188694" lon="30.867405">
        <ele>1265.000000</ele>
        <time>2010-05-04T12:32:25Z</time>
      </trkpt>
      <trkpt lat="38.188691" lon="30.867398">
        <ele>1265.000000</ele>
        <time>2010-05-04T12:32:36Z</time>
      </trkpt>
      <trkpt lat="38.188694" lon="30.867402">
        <ele>1265.000000</ele>
        <time>2010-05-04T12:32:37Z</time>
      </trkpt>
      <trkpt lat="38.188678" lon="30.867392">
        <ele>1265.000000</ele>
        <time>2010-05-04T12:32:40Z</time>
      </trkpt>
      <trkpt lat="38.188682" lon="30.867389">
        <ele>1265.000000</ele>
        <time>2010-05-04T12:32:41Z</time>
      </trkpt>
      <trkpt lat="38.188643" lon="30.867344">
        <ele>1265.000000</ele>
        <time>2010-05-04T12:32:44Z</time>
      </trkpt>
      <trkpt lat="38.188611" lon="30.867312">
        <ele>1263.000000</ele>
        <time>2010-05-04T12:32:51Z</time>
      </trkpt>
      <trkpt lat="38.188570" lon="30.867306">
        <ele>1265.000000</ele>
        <time>2010-05-04T12:32:57Z</time>
      </trkpt>
      <trkpt lat="38.188544" lon="30.867357">
        <ele>1266.000000</ele>
        <time>2010-05-04T12:35:09Z</time>
      </trkpt>
      <trkpt lat="38.188515" lon="30.867347">
        <ele>1266.000000</ele>
        <time>2010-05-04T12:35:13Z</time>
      </trkpt>
      <trkpt lat="38.188499" lon="30.867341">
        <ele>1266.000000</ele>
        <time>2010-05-04T12:35:15Z</time>
      </trkpt>
      <trkpt lat="38.188483" lon="30.867341">
        <ele>1264.000000</ele>
        <time>2010-05-04T12:35:17Z</time>
      </trkpt>
      <trkpt lat="38.188474" lon="30.867338">
        <ele>1264.000000</ele>
        <time>2010-05-04T12:35:24Z</time>
      </trkpt>
      <trkpt lat="38.188445" lon="30.867350">
        <ele>1264.000000</ele>
        <time>2010-05-04T12:35:31Z</time>
      </trkpt>
      <trkpt lat="38.188442" lon="30.867347">
        <ele>1262.000000</ele>
        <time>2010-05-04T12:35:37Z</time>
      </trkpt>
      <trkpt lat="38.188432" lon="30.867306">
        <ele>1263.000000</ele>
        <time>2010-05-04T12:35:40Z</time>
      </trkpt>
      <trkpt lat="38.188390" lon="30.867290">
        <ele>1262.000000</ele>
        <time>2010-05-04T12:36:11Z</time>
      </trkpt>
      <trkpt lat="38.188342" lon="30.867261">
        <ele>1262.000000</ele>
        <time>2010-05-04T12:36:17Z</time>
      </trkpt>
      <trkpt lat="38.188339" lon="30.867226">
        <ele>1260.000000</ele>
        <time>2010-05-04T12:36:37Z</time>
      </trkpt>
      <trkpt lat="38.188346" lon="30.867210">
        <ele>1259.000000</ele>
        <time>2010-05-04T12:36:40Z</time>
      </trkpt>
      <trkpt lat="38.188355" lon="30.867194">
        <ele>1259.000000</ele>
        <time>2010-05-04T12:36:41Z</time>
      </trkpt>
      <trkpt lat="38.188352" lon="30.867171">
        <ele>1261.000000</ele>
        <time>2010-05-04T12:36:43Z</time>
      </trkpt>
      <trkpt lat="38.188320" lon="30.867158">
        <ele>1261.000000</ele>
        <time>2010-05-04T12:36:45Z</time>
      </trkpt>
      <trkpt lat="38.188298" lon="30.867142">
        <ele>1261.000000</ele>
        <time>2010-05-04T12:36:48Z</time>
      </trkpt>
      <trkpt lat="38.188240" lon="30.867142">
        <ele>1264.000000</ele>
        <time>2010-05-04T12:36:55Z</time>
      </trkpt>
      <trkpt lat="38.188240" lon="30.867094">
        <ele>1262.000000</ele>
        <time>2010-05-04T12:37:00Z</time>
      </trkpt>
      <trkpt lat="38.188221" lon="30.867078">
        <ele>1261.000000</ele>
        <time>2010-05-04T12:37:02Z</time>
      </trkpt>
      <trkpt lat="38.188218" lon="30.867072">
        <ele>1261.000000</ele>
        <time>2010-05-04T12:37:03Z</time>
      </trkpt>
      <trkpt lat="38.188202" lon="30.867069">
        <ele>1261.000000</ele>
        <time>2010-05-04T12:37:04Z</time>
      </trkpt>
      <trkpt lat="38.188192" lon="30.867069">
        <ele>1263.000000</ele>
        <time>2010-05-04T12:37:05Z</time>
      </trkpt>
      <trkpt lat="38.188173" lon="30.867059">
        <ele>1263.000000</ele>
        <time>2010-05-04T12:37:06Z</time>
      </trkpt>
      <trkpt lat="38.188166" lon="30.867053">
        <ele>1261.000000</ele>
        <time>2010-05-04T12:37:07Z</time>
      </trkpt>
      <trkpt lat="38.188160" lon="30.867056">
        <ele>1262.000000</ele>
        <time>2010-05-04T12:37:08Z</time>
      </trkpt>
      <trkpt lat="38.188154" lon="30.867050">
        <ele>1261.000000</ele>
        <time>2010-05-04T12:37:09Z</time>
      </trkpt>
      <trkpt lat="38.188147" lon="30.867030">
        <ele>1263.000000</ele>
        <time>2010-05-04T12:37:10Z</time>
      </trkpt>
      <trkpt lat="38.188134" lon="30.867002">
        <ele>1262.000000</ele>
        <time>2010-05-04T12:37:13Z</time>
      </trkpt>
      <trkpt lat="38.188115" lon="30.866982">
        <ele>1262.000000</ele>
        <time>2010-05-04T12:37:16Z</time>
      </trkpt>
      <trkpt lat="38.188096" lon="30.866963">
        <ele>1263.000000</ele>
        <time>2010-05-04T12:37:34Z</time>
      </trkpt>
      <trkpt lat="38.188067" lon="30.866925">
        <ele>1263.000000</ele>
        <time>2010-05-04T12:37:38Z</time>
      </trkpt>
      <trkpt lat="38.188058" lon="30.866902">
        <ele>1261.000000</ele>
        <time>2010-05-04T12:37:39Z</time>
      </trkpt>
      <trkpt lat="38.188000" lon="30.866854">
        <ele>1262.000000</ele>
        <time>2010-05-04T12:38:08Z</time>
      </trkpt>
      <trkpt lat="38.187997" lon="30.866816">
        <ele>1263.000000</ele>
        <time>2010-05-04T12:38:10Z</time>
      </trkpt>
      <trkpt lat="38.188000" lon="30.866803">
        <ele>1262.000000</ele>
        <time>2010-05-04T12:38:11Z</time>
      </trkpt>
      <trkpt lat="38.187997" lon="30.866768">
        <ele>1262.000000</ele>
        <time>2010-05-04T12:38:13Z</time>
      </trkpt>
      <trkpt lat="38.187994" lon="30.866714">
        <ele>1263.000000</ele>
        <time>2010-05-04T12:38:17Z</time>
      </trkpt>
      <trkpt lat="38.187997" lon="30.866698">
        <ele>1264.000000</ele>
        <time>2010-05-04T12:38:20Z</time>
      </trkpt>
      <trkpt lat="38.188000" lon="30.866675">
        <ele>1262.000000</ele>
        <time>2010-05-04T12:38:22Z</time>
      </trkpt>
      <trkpt lat="38.187968" lon="30.866653">
        <ele>1261.000000</ele>
        <time>2010-05-04T12:38:32Z</time>
      </trkpt>
      <trkpt lat="38.187955" lon="30.866637">
        <ele>1262.000000</ele>
        <time>2010-05-04T12:38:34Z</time>
      </trkpt>
      <trkpt lat="38.187949" lon="30.866608">
        <ele>1263.000000</ele>
        <time>2010-05-04T12:38:37Z</time>
      </trkpt>
      <trkpt lat="38.187936" lon="30.866602">
        <ele>1262.000000</ele>
        <time>2010-05-04T12:38:42Z</time>
      </trkpt>
      <trkpt lat="38.187917" lon="30.866570">
        <ele>1262.000000</ele>
        <time>2010-05-04T12:38:45Z</time>
      </trkpt>
      <trkpt lat="38.187907" lon="30.866563">
        <ele>1261.000000</ele>
        <time>2010-05-04T12:38:46Z</time>
      </trkpt>
      <trkpt lat="38.187894" lon="30.866538">
        <ele>1261.000000</ele>
        <time>2010-05-04T12:38:48Z</time>
      </trkpt>
      <trkpt lat="38.187846" lon="30.866470">
        <ele>1261.000000</ele>
        <time>2010-05-04T12:38:55Z</time>
      </trkpt>
      <trkpt lat="38.187782" lon="30.866397">
        <ele>1259.000000</ele>
        <time>2010-05-04T12:39:04Z</time>
      </trkpt>
      <trkpt lat="38.187766" lon="30.866374">
        <ele>1259.000000</ele>
        <time>2010-05-04T12:39:06Z</time>
      </trkpt>
      <trkpt lat="38.187763" lon="30.866365">
        <ele>1258.000000</ele>
        <time>2010-05-04T12:39:07Z</time>
      </trkpt>
      <trkpt lat="38.187738" lon="30.866342">
        <ele>1259.000000</ele>
        <time>2010-05-04T12:39:10Z</time>
      </trkpt>
      <trkpt lat="38.187680" lon="30.866314">
        <ele>1259.000000</ele>
        <time>2010-05-04T12:39:16Z</time>
      </trkpt>
      <trkpt lat="38.187680" lon="30.866285">
        <ele>1257.000000</ele>
        <time>2010-05-04T12:39:20Z</time>
      </trkpt>
      <trkpt lat="38.187629" lon="30.866278">
        <ele>1258.000000</ele>
        <time>2010-05-04T12:39:25Z</time>
      </trkpt>
      <trkpt lat="38.187616" lon="30.866278">
        <ele>1257.000000</ele>
        <time>2010-05-04T12:39:26Z</time>
      </trkpt>
      <trkpt lat="38.187606" lon="30.866282">
        <ele>1257.000000</ele>
        <time>2010-05-04T12:39:27Z</time>
      </trkpt>
      <trkpt lat="38.187597" lon="30.866275">
        <ele>1257.000000</ele>
        <time>2010-05-04T12:39:28Z</time>
      </trkpt>
      <trkpt lat="38.187552" lon="30.866250">
        <ele>1258.000000</ele>
        <time>2010-05-04T12:39:39Z</time>
      </trkpt>
      <trkpt lat="38.187517" lon="30.866240">
        <ele>1254.000000</ele>
        <time>2010-05-04T12:39:46Z</time>
      </trkpt>
      <trkpt lat="38.187485" lon="30.866211">
        <ele>1254.000000</ele>
        <time>2010-05-04T12:39:52Z</time>
      </trkpt>
      <trkpt lat="38.187421" lon="30.866154">
        <ele>1253.000000</ele>
        <time>2010-05-04T12:40:04Z</time>
      </trkpt>
      <trkpt lat="38.187408" lon="30.866157">
        <ele>1254.000000</ele>
        <time>2010-05-04T12:40:06Z</time>
      </trkpt>
      <trkpt lat="38.187354" lon="30.866128">
        <ele>1252.000000</ele>
        <time>2010-05-04T12:40:12Z</time>
      </trkpt>
      <trkpt lat="38.187347" lon="30.866115">
        <ele>1250.000000</ele>
        <time>2010-05-04T12:40:13Z</time>
      </trkpt>
      <trkpt lat="38.187331" lon="30.866109">
        <ele>1251.000000</ele>
        <time>2010-05-04T12:40:15Z</time>
      </trkpt>
      <trkpt lat="38.187306" lon="30.866118">
        <ele>1250.000000</ele>
        <time>2010-05-04T12:40:18Z</time>
      </trkpt>
      <trkpt lat="38.187267" lon="30.866118">
        <ele>1251.000000</ele>
        <time>2010-05-04T12:40:23Z</time>
      </trkpt>
      <trkpt lat="38.187254" lon="30.866115">
        <ele>1251.000000</ele>
        <time>2010-05-04T12:40:24Z</time>
      </trkpt>
      <trkpt lat="38.187245" lon="30.866112">
        <ele>1250.000000</ele>
        <time>2010-05-04T12:40:25Z</time>
      </trkpt>
      <trkpt lat="38.187226" lon="30.866106">
        <ele>1251.000000</ele>
        <time>2010-05-04T12:40:27Z</time>
      </trkpt>
      <trkpt lat="38.187194" lon="30.866102">
        <ele>1250.000000</ele>
        <time>2010-05-04T12:40:28Z</time>
      </trkpt>
      <trkpt lat="38.187210" lon="30.866096">
        <ele>1250.000000</ele>
        <time>2010-05-04T12:40:32Z</time>
      </trkpt>
      <trkpt lat="38.187210" lon="30.866090">
        <ele>1250.000000</ele>
        <time>2010-05-04T12:40:34Z</time>
      </trkpt>
      <trkpt lat="38.187219" lon="30.866080">
        <ele>1250.000000</ele>
        <time>2010-05-04T12:40:36Z</time>
      </trkpt>
      <trkpt lat="38.187194" lon="30.866074">
        <ele>1250.000000</ele>
        <time>2010-05-04T12:40:38Z</time>
      </trkpt>
      <trkpt lat="38.187165" lon="30.866077">
        <ele>1251.000000</ele>
        <time>2010-05-04T12:40:41Z</time>
      </trkpt>
      <trkpt lat="38.187130" lon="30.866086">
        <ele>1249.000000</ele>
        <time>2010-05-04T12:40:43Z</time>
      </trkpt>
      <trkpt lat="38.187110" lon="30.866096">
        <ele>1249.000000</ele>
        <time>2010-05-04T12:40:44Z</time>
      </trkpt>
      <trkpt lat="38.187075" lon="30.866086">
        <ele>1248.000000</ele>
        <time>2010-05-04T12:40:46Z</time>
      </trkpt>
      <trkpt lat="38.187040" lon="30.866067">
        <ele>1251.000000</ele>
        <time>2010-05-04T12:40:49Z</time>
      </trkpt>
      <trkpt lat="38.187024" lon="30.866061">
        <ele>1251.000000</ele>
        <time>2010-05-04T12:40:52Z</time>
      </trkpt>
      <trkpt lat="38.186992" lon="30.866051">
        <ele>1248.000000</ele>
        <time>2010-05-04T12:41:00Z</time>
      </trkpt>
      <trkpt lat="38.186957" lon="30.866077">
        <ele>1247.000000</ele>
        <time>2010-05-04T12:41:10Z</time>
      </trkpt>
      <trkpt lat="38.186934" lon="30.866077">
        <ele>1248.000000</ele>
        <time>2010-05-04T12:41:13Z</time>
      </trkpt>
      <trkpt lat="38.186874" lon="30.866035">
        <ele>1249.000000</ele>
        <time>2010-05-04T12:41:18Z</time>
      </trkpt>
      <trkpt lat="38.186858" lon="30.866016">
        <ele>1248.000000</ele>
        <time>2010-05-04T12:41:20Z</time>
      </trkpt>
      <trkpt lat="38.186835" lon="30.866013">
        <ele>1247.000000</ele>
        <time>2010-05-04T12:41:23Z</time>
      </trkpt>
      <trkpt lat="38.186822" lon="30.866016">
        <ele>1247.000000</ele>
        <time>2010-05-04T12:41:24Z</time>
      </trkpt>
      <trkpt lat="38.186790" lon="30.866010">
        <ele>1247.000000</ele>
        <time>2010-05-04T12:41:26Z</time>
      </trkpt>
      <trkpt lat="38.186771" lon="30.866006">
        <ele>1247.000000</ele>
        <time>2010-05-04T12:41:29Z</time>
      </trkpt>
      <trkpt lat="38.186787" lon="30.865997">
        <ele>1249.000000</ele>
        <time>2010-05-04T12:41:31Z</time>
      </trkpt>
      <trkpt lat="38.186784" lon="30.865974">
        <ele>1246.000000</ele>
        <time>2010-05-04T12:41:33Z</time>
      </trkpt>
      <trkpt lat="38.186794" lon="30.865981">
        <ele>1247.000000</ele>
        <time>2010-05-04T12:41:35Z</time>
      </trkpt>
      <trkpt lat="38.186803" lon="30.865984">
        <ele>1247.000000</ele>
        <time>2010-05-04T12:41:36Z</time>
      </trkpt>
      <trkpt lat="38.186765" lon="30.865997">
        <ele>1248.000000</ele>
        <time>2010-05-04T12:41:41Z</time>
      </trkpt>
      <trkpt lat="38.186742" lon="30.865990">
        <ele>1248.000000</ele>
        <time>2010-05-04T12:41:43Z</time>
      </trkpt>
      <trkpt lat="38.186707" lon="30.865981">
        <ele>1247.000000</ele>
        <time>2010-05-04T12:41:47Z</time>
      </trkpt>
      <trkpt lat="38.186694" lon="30.865981">
        <ele>1248.000000</ele>
        <time>2010-05-04T12:41:48Z</time>
      </trkpt>
      <trkpt lat="38.186685" lon="30.865987">
        <ele>1247.000000</ele>
        <time>2010-05-04T12:41:51Z</time>
      </trkpt>
      <trkpt lat="38.186646" lon="30.865981">
        <ele>1247.000000</ele>
        <time>2010-05-04T12:41:54Z</time>
      </trkpt>
      <trkpt lat="38.186614" lon="30.865974">
        <ele>1247.000000</ele>
        <time>2010-05-04T12:41:57Z</time>
      </trkpt>
      <trkpt lat="38.186598" lon="30.865958">
        <ele>1248.000000</ele>
        <time>2010-05-04T12:42:00Z</time>
      </trkpt>
      <trkpt lat="38.186573" lon="30.865949">
        <ele>1247.000000</ele>
        <time>2010-05-04T12:42:03Z</time>
      </trkpt>
      <trkpt lat="38.186554" lon="30.865955">
        <ele>1248.000000</ele>
        <time>2010-05-04T12:42:06Z</time>
      </trkpt>
      <trkpt lat="38.186531" lon="30.865955">
        <ele>1247.000000</ele>
        <time>2010-05-04T12:42:08Z</time>
      </trkpt>
      <trkpt lat="38.186515" lon="30.865981">
        <ele>1245.000000</ele>
        <time>2010-05-04T12:42:14Z</time>
      </trkpt>
      <trkpt lat="38.186464" lon="30.865952">
        <ele>1246.000000</ele>
        <time>2010-05-04T12:42:19Z</time>
      </trkpt>
      <trkpt lat="38.186445" lon="30.865933">
        <ele>1247.000000</ele>
        <time>2010-05-04T12:42:22Z</time>
      </trkpt>
      <trkpt lat="38.186419" lon="30.865920">
        <ele>1247.000000</ele>
        <time>2010-05-04T12:42:23Z</time>
      </trkpt>
      <trkpt lat="38.186381" lon="30.865907">
        <ele>1247.000000</ele>
        <time>2010-05-04T12:42:26Z</time>
      </trkpt>
      <trkpt lat="38.186374" lon="30.865901">
        <ele>1248.000000</ele>
        <time>2010-05-04T12:42:27Z</time>
      </trkpt>
      <trkpt lat="38.186358" lon="30.865920">
        <ele>1246.000000</ele>
        <time>2010-05-04T12:42:29Z</time>
      </trkpt>
      <trkpt lat="38.186326" lon="30.865898">
        <ele>1247.000000</ele>
        <time>2010-05-04T12:42:37Z</time>
      </trkpt>
      <trkpt lat="38.186282" lon="30.865898">
        <ele>1247.000000</ele>
        <time>2010-05-04T12:42:43Z</time>
      </trkpt>
      <trkpt lat="38.186253" lon="30.865888">
        <ele>1246.000000</ele>
        <time>2010-05-04T12:42:45Z</time>
      </trkpt>
      <trkpt lat="38.186240" lon="30.865878">
        <ele>1248.000000</ele>
        <time>2010-05-04T12:42:46Z</time>
      </trkpt>
      <trkpt lat="38.186192" lon="30.865840">
        <ele>1248.000000</ele>
        <time>2010-05-04T12:42:56Z</time>
      </trkpt>
      <trkpt lat="38.186128" lon="30.865734">
        <ele>1247.000000</ele>
        <time>2010-05-04T12:43:08Z</time>
      </trkpt>
      <trkpt lat="38.186138" lon="30.865722">
        <ele>1247.000000</ele>
        <time>2010-05-04T12:43:09Z</time>
      </trkpt>
      <trkpt lat="38.186112" lon="30.865699">
        <ele>1247.000000</ele>
        <time>2010-05-04T12:43:12Z</time>
      </trkpt>
      <trkpt lat="38.186096" lon="30.865699">
        <ele>1246.000000</ele>
        <time>2010-05-04T12:43:13Z</time>
      </trkpt>
      <trkpt lat="38.186077" lon="30.865699">
        <ele>1245.000000</ele>
        <time>2010-05-04T12:43:15Z</time>
      </trkpt>
      <trkpt lat="38.186058" lon="30.865686">
        <ele>1246.000000</ele>
        <time>2010-05-04T12:43:17Z</time>
      </trkpt>
      <trkpt lat="38.186019" lon="30.865680">
        <ele>1247.000000</ele>
        <time>2010-05-04T12:43:19Z</time>
      </trkpt>
      <trkpt lat="38.185994" lon="30.865686">
        <ele>1248.000000</ele>
        <time>2010-05-04T12:43:20Z</time>
      </trkpt>
      <trkpt lat="38.185981" lon="30.865670">
        <ele>1247.000000</ele>
        <time>2010-05-04T12:43:24Z</time>
      </trkpt>
      <trkpt lat="38.185968" lon="30.865670">
        <ele>1247.000000</ele>
        <time>2010-05-04T12:43:26Z</time>
      </trkpt>
      <trkpt lat="38.185962" lon="30.865661">
        <ele>1247.000000</ele>
        <time>2010-05-04T12:43:27Z</time>
      </trkpt>
      <trkpt lat="38.185955" lon="30.865654">
        <ele>1248.000000</ele>
        <time>2010-05-04T12:43:28Z</time>
      </trkpt>
      <trkpt lat="38.185933" lon="30.865616">
        <ele>1247.000000</ele>
        <time>2010-05-04T12:43:30Z</time>
      </trkpt>
      <trkpt lat="38.185882" lon="30.865523">
        <ele>1247.000000</ele>
        <time>2010-05-04T12:43:45Z</time>
      </trkpt>
      <trkpt lat="38.185882" lon="30.865514">
        <ele>1248.000000</ele>
        <time>2010-05-04T12:43:48Z</time>
      </trkpt>
      <trkpt lat="38.185891" lon="30.865520">
        <ele>1248.000000</ele>
        <time>2010-05-04T12:43:51Z</time>
      </trkpt>
      <trkpt lat="38.185878" lon="30.865510">
        <ele>1246.000000</ele>
        <time>2010-05-04T12:43:52Z</time>
      </trkpt>
      <trkpt lat="38.185872" lon="30.865504">
        <ele>1247.000000</ele>
        <time>2010-05-04T12:43:53Z</time>
      </trkpt>
      <trkpt lat="38.185869" lon="30.865498">
        <ele>1247.000000</ele>
        <time>2010-05-04T12:43:54Z</time>
      </trkpt>
      <trkpt lat="38.185843" lon="30.865488">
        <ele>1247.000000</ele>
        <time>2010-05-04T12:43:56Z</time>
      </trkpt>
      <trkpt lat="38.185750" lon="30.865459">
        <ele>1247.000000</ele>
        <time>2010-05-04T12:44:10Z</time>
      </trkpt>
      <trkpt lat="38.185741" lon="30.865456">
        <ele>1247.000000</ele>
        <time>2010-05-04T12:44:11Z</time>
      </trkpt>
      <trkpt lat="38.185734" lon="30.865443">
        <ele>1247.000000</ele>
        <time>2010-05-04T12:44:12Z</time>
      </trkpt>
      <trkpt lat="38.185731" lon="30.865434">
        <ele>1247.000000</ele>
        <time>2010-05-04T12:44:13Z</time>
      </trkpt>
      <trkpt lat="38.185718" lon="30.865430">
        <ele>1247.000000</ele>
        <time>2010-05-04T12:44:14Z</time>
      </trkpt>
      <trkpt lat="38.185702" lon="30.865418">
        <ele>1247.000000</ele>
        <time>2010-05-04T12:44:15Z</time>
      </trkpt>
      <trkpt lat="38.185696" lon="30.865411">
        <ele>1247.000000</ele>
        <time>2010-05-04T12:44:16Z</time>
      </trkpt>
      <trkpt lat="38.185693" lon="30.865402">
        <ele>1248.000000</ele>
        <time>2010-05-04T12:44:17Z</time>
      </trkpt>
      <trkpt lat="38.185683" lon="30.865386">
        <ele>1248.000000</ele>
        <time>2010-05-04T12:44:18Z</time>
      </trkpt>
      <trkpt lat="38.185670" lon="30.865357">
        <ele>1248.000000</ele>
        <time>2010-05-04T12:44:20Z</time>
      </trkpt>
      <trkpt lat="38.185654" lon="30.865338">
        <ele>1247.000000</ele>
        <time>2010-05-04T12:44:21Z</time>
      </trkpt>
      <trkpt lat="38.185645" lon="30.865325">
        <ele>1248.000000</ele>
        <time>2010-05-04T12:44:22Z</time>
      </trkpt>
      <trkpt lat="38.185638" lon="30.865312">
        <ele>1247.000000</ele>
        <time>2010-05-04T12:44:23Z</time>
      </trkpt>
      <trkpt lat="38.185635" lon="30.865302">
        <ele>1247.000000</ele>
        <time>2010-05-04T12:44:24Z</time>
      </trkpt>
      <trkpt lat="38.185616" lon="30.865296">
        <ele>1248.000000</ele>
        <time>2010-05-04T12:44:25Z</time>
      </trkpt>
      <trkpt lat="38.185603" lon="30.865293">
        <ele>1248.000000</ele>
        <time>2010-05-04T12:44:27Z</time>
      </trkpt>
      <trkpt lat="38.185600" lon="30.865280">
        <ele>1248.000000</ele>
        <time>2010-05-04T12:44:28Z</time>
      </trkpt>
      <trkpt lat="38.185594" lon="30.865258">
        <ele>1248.000000</ele>
        <time>2010-05-04T12:44:31Z</time>
      </trkpt>
      <trkpt lat="38.185571" lon="30.865248">
        <ele>1248.000000</ele>
        <time>2010-05-04T12:44:33Z</time>
      </trkpt>
      <trkpt lat="38.185558" lon="30.865245">
        <ele>1247.000000</ele>
        <time>2010-05-04T12:44:34Z</time>
      </trkpt>
      <trkpt lat="38.185539" lon="30.865251">
        <ele>1247.000000</ele>
        <time>2010-05-04T12:44:35Z</time>
      </trkpt>
      <trkpt lat="38.185526" lon="30.865219">
        <ele>1248.000000</ele>
        <time>2010-05-04T12:44:38Z</time>
      </trkpt>
      <trkpt lat="38.185533" lon="30.865216">
        <ele>1251.000000</ele>
        <time>2010-05-04T12:44:42Z</time>
      </trkpt>
      <trkpt lat="38.185526" lon="30.865203">
        <ele>1251.000000</ele>
        <time>2010-05-04T12:44:43Z</time>
      </trkpt>
      <trkpt lat="38.185533" lon="30.865194">
        <ele>1247.000000</ele>
        <time>2010-05-04T12:44:44Z</time>
      </trkpt>
      <trkpt lat="38.185501" lon="30.865181">
        <ele>1249.000000</ele>
        <time>2010-05-04T12:44:47Z</time>
      </trkpt>
      <trkpt lat="38.185482" lon="30.865171">
        <ele>1248.000000</ele>
        <time>2010-05-04T12:44:49Z</time>
      </trkpt>
      <trkpt lat="38.185478" lon="30.865165">
        <ele>1249.000000</ele>
        <time>2010-05-04T12:44:50Z</time>
      </trkpt>
      <trkpt lat="38.185424" lon="30.865130">
        <ele>1247.000000</ele>
        <time>2010-05-04T12:44:58Z</time>
      </trkpt>
      <trkpt lat="38.185386" lon="30.865123">
        <ele>1249.000000</ele>
        <time>2010-05-04T12:45:00Z</time>
      </trkpt>
      <trkpt lat="38.185360" lon="30.865114">
        <ele>1249.000000</ele>
        <time>2010-05-04T12:45:01Z</time>
      </trkpt>
      <trkpt lat="38.185347" lon="30.865098">
        <ele>1248.000000</ele>
        <time>2010-05-04T12:45:03Z</time>
      </trkpt>
      <trkpt lat="38.185338" lon="30.865098">
        <ele>1248.000000</ele>
        <time>2010-05-04T12:45:04Z</time>
      </trkpt>
      <trkpt lat="38.185318" lon="30.865088">
        <ele>1248.000000</ele>
        <time>2010-05-04T12:45:06Z</time>
      </trkpt>
      <trkpt lat="38.185306" lon="30.865098">
        <ele>1249.000000</ele>
        <time>2010-05-04T12:45:07Z</time>
      </trkpt>
      <trkpt lat="38.185267" lon="30.865088">
        <ele>1251.000000</ele>
        <time>2010-05-04T12:45:12Z</time>
      </trkpt>
      <trkpt lat="38.185245" lon="30.865043">
        <ele>1250.000000</ele>
        <time>2010-05-04T12:45:13Z</time>
      </trkpt>
      <trkpt lat="38.185210" lon="30.865018">
        <ele>1249.000000</ele>
        <time>2010-05-04T12:45:18Z</time>
      </trkpt>
      <trkpt lat="38.185216" lon="30.865005">
        <ele>1250.000000</ele>
        <time>2010-05-04T12:45:19Z</time>
      </trkpt>
      <trkpt lat="38.185216" lon="30.864995">
        <ele>1251.000000</ele>
        <time>2010-05-04T12:45:20Z</time>
      </trkpt>
      <trkpt lat="38.185210" lon="30.864976">
        <ele>1250.000000</ele>
        <time>2010-05-04T12:45:21Z</time>
      </trkpt>
      <trkpt lat="38.185197" lon="30.864966">
        <ele>1250.000000</ele>
        <time>2010-05-04T12:45:23Z</time>
      </trkpt>
      <trkpt lat="38.185184" lon="30.864960">
        <ele>1250.000000</ele>
        <time>2010-05-04T12:45:24Z</time>
      </trkpt>
      <trkpt lat="38.185162" lon="30.864957">
        <ele>1249.000000</ele>
        <time>2010-05-04T12:45:26Z</time>
      </trkpt>
      <trkpt lat="38.185120" lon="30.864960">
        <ele>1250.000000</ele>
        <time>2010-05-04T12:45:29Z</time>
      </trkpt>
      <trkpt lat="38.185082" lon="30.864938">
        <ele>1249.000000</ele>
        <time>2010-05-04T12:45:33Z</time>
      </trkpt>
      <trkpt lat="38.185078" lon="30.864928">
        <ele>1247.000000</ele>
        <time>2010-05-04T12:45:34Z</time>
      </trkpt>
      <trkpt lat="38.185066" lon="30.864915">
        <ele>1247.000000</ele>
        <time>2010-05-04T12:45:35Z</time>
      </trkpt>
      <trkpt lat="38.185040" lon="30.864899">
        <ele>1247.000000</ele>
        <time>2010-05-04T12:45:40Z</time>
      </trkpt>
      <trkpt lat="38.185005" lon="30.864915">
        <ele>1247.000000</ele>
        <time>2010-05-04T12:45:46Z</time>
      </trkpt>
      <trkpt lat="38.184970" lon="30.864886">
        <ele>1248.000000</ele>
        <time>2010-05-04T12:45:49Z</time>
      </trkpt>
      <trkpt lat="38.184963" lon="30.864877">
        <ele>1247.000000</ele>
        <time>2010-05-04T12:45:50Z</time>
      </trkpt>
      <trkpt lat="38.184957" lon="30.864864">
        <ele>1248.000000</ele>
        <time>2010-05-04T12:45:51Z</time>
      </trkpt>
      <trkpt lat="38.184941" lon="30.864854">
        <ele>1248.000000</ele>
        <time>2010-05-04T12:45:52Z</time>
      </trkpt>
      <trkpt lat="38.184928" lon="30.864838">
        <ele>1248.000000</ele>
        <time>2010-05-04T12:45:53Z</time>
      </trkpt>
      <trkpt lat="38.184925" lon="30.864829">
        <ele>1247.000000</ele>
        <time>2010-05-04T12:45:54Z</time>
      </trkpt>
      <trkpt lat="38.184906" lon="30.864819">
        <ele>1248.000000</ele>
        <time>2010-05-04T12:45:58Z</time>
      </trkpt>
      <trkpt lat="38.184890" lon="30.864813">
        <ele>1248.000000</ele>
        <time>2010-05-04T12:46:09Z</time>
      </trkpt>
      <trkpt lat="38.184883" lon="30.864816">
        <ele>1248.000000</ele>
        <time>2010-05-04T12:46:13Z</time>
      </trkpt>
      <trkpt lat="38.184883" lon="30.864822">
        <ele>1247.000000</ele>
        <time>2010-05-04T12:46:22Z</time>
      </trkpt>
      <trkpt lat="38.184883" lon="30.864822">
        <ele>1248.000000</ele>
        <time>2010-05-04T12:46:23Z</time>
      </trkpt>
      <trkpt lat="38.184896" lon="30.864822">
        <ele>1248.000000</ele>
        <time>2010-05-04T12:46:24Z</time>
      </trkpt>
      <trkpt lat="38.184906" lon="30.864826">
        <ele>1249.000000</ele>
        <time>2010-05-04T12:46:25Z</time>
      </trkpt>
      <trkpt lat="38.184922" lon="30.864819">
        <ele>1248.000000</ele>
        <time>2010-05-04T12:46:26Z</time>
      </trkpt>
      <trkpt lat="38.184918" lon="30.864797">
        <ele>1247.000000</ele>
        <time>2010-05-04T12:46:31Z</time>
      </trkpt>
      <trkpt lat="38.184915" lon="30.864800">
        <ele>1249.000000</ele>
        <time>2010-05-04T12:46:33Z</time>
      </trkpt>
      <trkpt lat="38.184909" lon="30.864810">
        <ele>1249.000000</ele>
        <time>2010-05-04T12:46:35Z</time>
      </trkpt>
      <trkpt lat="38.184906" lon="30.864810">
        <ele>1248.000000</ele>
        <time>2010-05-04T12:46:36Z</time>
      </trkpt>
      <trkpt lat="38.184899" lon="30.864810">
        <ele>1249.000000</ele>
        <time>2010-05-04T12:46:37Z</time>
      </trkpt>
      <trkpt lat="38.184896" lon="30.864816">
        <ele>1249.000000</ele>
        <time>2010-05-04T12:46:38Z</time>
      </trkpt>
      <trkpt lat="38.184883" lon="30.864822">
        <ele>1249.000000</ele>
        <time>2010-05-04T12:46:39Z</time>
      </trkpt>
      <trkpt lat="38.184880" lon="30.864832">
        <ele>1250.000000</ele>
        <time>2010-05-04T12:46:41Z</time>
      </trkpt>
      <trkpt lat="38.184877" lon="30.864845">
        <ele>1249.000000</ele>
        <time>2010-05-04T12:46:43Z</time>
      </trkpt>
      <trkpt lat="38.184877" lon="30.864829">
        <ele>1249.000000</ele>
        <time>2010-05-04T12:46:46Z</time>
      </trkpt>
      <trkpt lat="38.184861" lon="30.864829">
        <ele>1248.000000</ele>
        <time>2010-05-04T12:46:48Z</time>
      </trkpt>
      <trkpt lat="38.184851" lon="30.864832">
        <ele>1249.000000</ele>
        <time>2010-05-04T12:46:51Z</time>
      </trkpt>
      <trkpt lat="38.184845" lon="30.864838">
        <ele>1248.000000</ele>
        <time>2010-05-04T12:46:52Z</time>
      </trkpt>
      <trkpt lat="38.184816" lon="30.864877">
        <ele>1249.000000</ele>
        <time>2010-05-04T12:47:00Z</time>
      </trkpt>
      <trkpt lat="38.184816" lon="30.864845">
        <ele>1249.000000</ele>
        <time>2010-05-04T12:47:10Z</time>
      </trkpt>
      <trkpt lat="38.184784" lon="30.864819">
        <ele>1248.000000</ele>
        <time>2010-05-04T12:47:17Z</time>
      </trkpt>
      <trkpt lat="38.184765" lon="30.864797">
        <ele>1249.000000</ele>
        <time>2010-05-04T12:47:19Z</time>
      </trkpt>
      <trkpt lat="38.184746" lon="30.864797">
        <ele>1249.000000</ele>
        <time>2010-05-04T12:47:20Z</time>
      </trkpt>
      <trkpt lat="38.184739" lon="30.864806">
        <ele>1248.000000</ele>
        <time>2010-05-04T12:47:24Z</time>
      </trkpt>
      <trkpt lat="38.184733" lon="30.864797">
        <ele>1250.000000</ele>
        <time>2010-05-04T12:47:28Z</time>
      </trkpt>
      <trkpt lat="38.184726" lon="30.864790">
        <ele>1249.000000</ele>
        <time>2010-05-04T12:47:30Z</time>
      </trkpt>
      <trkpt lat="38.184685" lon="30.864755">
        <ele>1250.000000</ele>
        <time>2010-05-04T12:47:36Z</time>
      </trkpt>
      <trkpt lat="38.184669" lon="30.864739">
        <ele>1249.000000</ele>
        <time>2010-05-04T12:47:39Z</time>
      </trkpt>
      <trkpt lat="38.184630" lon="30.864714">
        <ele>1247.000000</ele>
        <time>2010-05-04T12:47:43Z</time>
      </trkpt>
      <trkpt lat="38.184618" lon="30.864707">
        <ele>1249.000000</ele>
        <time>2010-05-04T12:47:44Z</time>
      </trkpt>
      <trkpt lat="38.184598" lon="30.864688">
        <ele>1249.000000</ele>
        <time>2010-05-04T12:47:46Z</time>
      </trkpt>
      <trkpt lat="38.184525" lon="30.864582">
        <ele>1248.000000</ele>
        <time>2010-05-04T12:47:58Z</time>
      </trkpt>
      <trkpt lat="38.184480" lon="30.864547">
        <ele>1248.000000</ele>
        <time>2010-05-04T12:48:02Z</time>
      </trkpt>
      <trkpt lat="38.184464" lon="30.864525">
        <ele>1249.000000</ele>
        <time>2010-05-04T12:48:05Z</time>
      </trkpt>
      <trkpt lat="38.184435" lon="30.864522">
        <ele>1248.000000</ele>
        <time>2010-05-04T12:48:06Z</time>
      </trkpt>
      <trkpt lat="38.184429" lon="30.864518">
        <ele>1248.000000</ele>
        <time>2010-05-04T12:48:07Z</time>
      </trkpt>
      <trkpt lat="38.184422" lon="30.864518">
        <ele>1248.000000</ele>
        <time>2010-05-04T12:48:08Z</time>
      </trkpt>
      <trkpt lat="38.184413" lon="30.864506">
        <ele>1249.000000</ele>
        <time>2010-05-04T12:48:09Z</time>
      </trkpt>
      <trkpt lat="38.184400" lon="30.864493">
        <ele>1247.000000</ele>
        <time>2010-05-04T12:48:11Z</time>
      </trkpt>
      <trkpt lat="38.184394" lon="30.864483">
        <ele>1249.000000</ele>
        <time>2010-05-04T12:48:12Z</time>
      </trkpt>
      <trkpt lat="38.184362" lon="30.864413">
        <ele>1248.000000</ele>
        <time>2010-05-04T12:48:17Z</time>
      </trkpt>
      <trkpt lat="38.184346" lon="30.864390">
        <ele>1248.000000</ele>
        <time>2010-05-04T12:48:18Z</time>
      </trkpt>
      <trkpt lat="38.184333" lon="30.864381">
        <ele>1249.000000</ele>
        <time>2010-05-04T12:48:19Z</time>
      </trkpt>
      <trkpt lat="38.184330" lon="30.864368">
        <ele>1248.000000</ele>
        <time>2010-05-04T12:48:20Z</time>
      </trkpt>
      <trkpt lat="38.184323" lon="30.864374">
        <ele>1248.000000</ele>
        <time>2010-05-04T12:48:21Z</time>
      </trkpt>
      <trkpt lat="38.184310" lon="30.864374">
        <ele>1249.000000</ele>
        <time>2010-05-04T12:48:23Z</time>
      </trkpt>
      <trkpt lat="38.184291" lon="30.864339">
        <ele>1248.000000</ele>
        <time>2010-05-04T12:48:26Z</time>
      </trkpt>
      <trkpt lat="38.184291" lon="30.864333">
        <ele>1249.000000</ele>
        <time>2010-05-04T12:48:28Z</time>
      </trkpt>
      <trkpt lat="38.184288" lon="30.864307">
        <ele>1248.000000</ele>
        <time>2010-05-04T12:48:30Z</time>
      </trkpt>
      <trkpt lat="38.184275" lon="30.864301">
        <ele>1248.000000</ele>
        <time>2010-05-04T12:48:31Z</time>
      </trkpt>
      <trkpt lat="38.184275" lon="30.864291">
        <ele>1249.000000</ele>
        <time>2010-05-04T12:48:32Z</time>
      </trkpt>
      <trkpt lat="38.184269" lon="30.864282">
        <ele>1250.000000</ele>
        <time>2010-05-04T12:48:33Z</time>
      </trkpt>
      <trkpt lat="38.184256" lon="30.864278">
        <ele>1248.000000</ele>
        <time>2010-05-04T12:48:34Z</time>
      </trkpt>
      <trkpt lat="38.184243" lon="30.864269">
        <ele>1248.000000</ele>
        <time>2010-05-04T12:48:35Z</time>
      </trkpt>
      <trkpt lat="38.184227" lon="30.864246">
        <ele>1247.000000</ele>
        <time>2010-05-04T12:48:37Z</time>
      </trkpt>
      <trkpt lat="38.184202" lon="30.864221">
        <ele>1248.000000</ele>
        <time>2010-05-04T12:48:41Z</time>
      </trkpt>
      <trkpt lat="38.184205" lon="30.864205">
        <ele>1249.000000</ele>
        <time>2010-05-04T12:48:43Z</time>
      </trkpt>
      <trkpt lat="38.184192" lon="30.864195">
        <ele>1249.000000</ele>
        <time>2010-05-04T12:48:44Z</time>
      </trkpt>
      <trkpt lat="38.184186" lon="30.864176">
        <ele>1249.000000</ele>
        <time>2010-05-04T12:48:46Z</time>
      </trkpt>
      <trkpt lat="38.184163" lon="30.864176">
        <ele>1249.000000</ele>
        <time>2010-05-04T12:48:48Z</time>
      </trkpt>
      <trkpt lat="38.184154" lon="30.864173">
        <ele>1249.000000</ele>
        <time>2010-05-04T12:48:49Z</time>
      </trkpt>
      <trkpt lat="38.184157" lon="30.864163">
        <ele>1250.000000</ele>
        <time>2010-05-04T12:48:50Z</time>
      </trkpt>
      <trkpt lat="38.184144" lon="30.864150">
        <ele>1250.000000</ele>
        <time>2010-05-04T12:48:51Z</time>
      </trkpt>
      <trkpt lat="38.184131" lon="30.864131">
        <ele>1249.000000</ele>
        <time>2010-05-04T12:48:53Z</time>
      </trkpt>
      <trkpt lat="38.184122" lon="30.864122">
        <ele>1250.000000</ele>
        <time>2010-05-04T12:48:55Z</time>
      </trkpt>
      <trkpt lat="38.184112" lon="30.864099">
        <ele>1250.000000</ele>
        <time>2010-05-04T12:48:57Z</time>
      </trkpt>
      <trkpt lat="38.184106" lon="30.864093">
        <ele>1249.000000</ele>
        <time>2010-05-04T12:48:58Z</time>
      </trkpt>
      <trkpt lat="38.184102" lon="30.864083">
        <ele>1249.000000</ele>
        <time>2010-05-04T12:48:59Z</time>
      </trkpt>
      <trkpt lat="38.184086" lon="30.864064">
        <ele>1250.000000</ele>
        <time>2010-05-04T12:49:01Z</time>
      </trkpt>
      <trkpt lat="38.184074" lon="30.864064">
        <ele>1249.000000</ele>
        <time>2010-05-04T12:49:02Z</time>
      </trkpt>
      <trkpt lat="38.184067" lon="30.864054">
        <ele>1250.000000</ele>
        <time>2010-05-04T12:49:03Z</time>
      </trkpt>
      <trkpt lat="38.184067" lon="30.864038">
        <ele>1250.000000</ele>
        <time>2010-05-04T12:49:04Z</time>
      </trkpt>
      <trkpt lat="38.184048" lon="30.863981">
        <ele>1250.000000</ele>
        <time>2010-05-04T12:49:06Z</time>
      </trkpt>
      <trkpt lat="38.184042" lon="30.863923">
        <ele>1250.000000</ele>
        <time>2010-05-04T12:49:10Z</time>
      </trkpt>
      <trkpt lat="38.184003" lon="30.863920">
        <ele>1250.000000</ele>
        <time>2010-05-04T12:49:13Z</time>
      </trkpt>
      <trkpt lat="38.183978" lon="30.863859">
        <ele>1250.000000</ele>
        <time>2010-05-04T12:49:17Z</time>
      </trkpt>
      <trkpt lat="38.183933" lon="30.863818">
        <ele>1250.000000</ele>
        <time>2010-05-04T12:49:24Z</time>
      </trkpt>
      <trkpt lat="38.183923" lon="30.863789">
        <ele>1250.000000</ele>
        <time>2010-05-04T12:49:31Z</time>
      </trkpt>
      <trkpt lat="38.183904" lon="30.863757">
        <ele>1250.000000</ele>
        <time>2010-05-04T12:49:39Z</time>
      </trkpt>
      <trkpt lat="38.183898" lon="30.863757">
        <ele>1249.000000</ele>
        <time>2010-05-04T12:49:40Z</time>
      </trkpt>
      <trkpt lat="38.183888" lon="30.863741">
        <ele>1251.000000</ele>
        <time>2010-05-04T12:49:41Z</time>
      </trkpt>
      <trkpt lat="38.183869" lon="30.863696">
        <ele>1250.000000</ele>
        <time>2010-05-04T12:49:45Z</time>
      </trkpt>
      <trkpt lat="38.183846" lon="30.863635">
        <ele>1250.000000</ele>
        <time>2010-05-04T12:49:54Z</time>
      </trkpt>
      <trkpt lat="38.183827" lon="30.863613">
        <ele>1251.000000</ele>
        <time>2010-05-04T12:49:57Z</time>
      </trkpt>
      <trkpt lat="38.183818" lon="30.863603">
        <ele>1251.000000</ele>
        <time>2010-05-04T12:50:00Z</time>
      </trkpt>
      <trkpt lat="38.183792" lon="30.863578">
        <ele>1252.000000</ele>
        <time>2010-05-04T12:50:05Z</time>
      </trkpt>
      <trkpt lat="38.183773" lon="30.863568">
        <ele>1251.000000</ele>
        <time>2010-05-04T12:50:06Z</time>
      </trkpt>
      <trkpt lat="38.183760" lon="30.863568">
        <ele>1251.000000</ele>
        <time>2010-05-04T12:50:07Z</time>
      </trkpt>
      <trkpt lat="38.183750" lon="30.863555">
        <ele>1250.000000</ele>
        <time>2010-05-04T12:50:16Z</time>
      </trkpt>
      <trkpt lat="38.183750" lon="30.863539">
        <ele>1251.000000</ele>
        <time>2010-05-04T12:50:18Z</time>
      </trkpt>
      <trkpt lat="38.183734" lon="30.863539">
        <ele>1252.000000</ele>
        <time>2010-05-04T12:50:19Z</time>
      </trkpt>
      <trkpt lat="38.183731" lon="30.863530">
        <ele>1251.000000</ele>
        <time>2010-05-04T12:50:20Z</time>
      </trkpt>
      <trkpt lat="38.183715" lon="30.863520">
        <ele>1252.000000</ele>
        <time>2010-05-04T12:50:22Z</time>
      </trkpt>
      <trkpt lat="38.183712" lon="30.863514">
        <ele>1251.000000</ele>
        <time>2010-05-04T12:50:23Z</time>
      </trkpt>
      <trkpt lat="38.183696" lon="30.863501">
        <ele>1251.000000</ele>
        <time>2010-05-04T12:50:25Z</time>
      </trkpt>
      <trkpt lat="38.183674" lon="30.863504">
        <ele>1251.000000</ele>
        <time>2010-05-04T12:50:27Z</time>
      </trkpt>
      <trkpt lat="38.183635" lon="30.863510">
        <ele>1252.000000</ele>
        <time>2010-05-04T12:50:30Z</time>
      </trkpt>
      <trkpt lat="38.183594" lon="30.863514">
        <ele>1251.000000</ele>
        <time>2010-05-04T12:50:33Z</time>
      </trkpt>
      <trkpt lat="38.183587" lon="30.863510">
        <ele>1252.000000</ele>
        <time>2010-05-04T12:50:34Z</time>
      </trkpt>
      <trkpt lat="38.183526" lon="30.863472">
        <ele>1253.000000</ele>
        <time>2010-05-04T12:50:44Z</time>
      </trkpt>
      <trkpt lat="38.183520" lon="30.863450">
        <ele>1251.000000</ele>
        <time>2010-05-04T12:50:45Z</time>
      </trkpt>
      <trkpt lat="38.183510" lon="30.863446">
        <ele>1252.000000</ele>
        <time>2010-05-04T12:50:46Z</time>
      </trkpt>
      <trkpt lat="38.183450" lon="30.863418">
        <ele>1252.000000</ele>
        <time>2010-05-04T12:50:55Z</time>
      </trkpt>
      <trkpt lat="38.183440" lon="30.863405">
        <ele>1252.000000</ele>
        <time>2010-05-04T12:50:56Z</time>
      </trkpt>
      <trkpt lat="38.183398" lon="30.863370">
        <ele>1254.000000</ele>
        <time>2010-05-04T12:51:02Z</time>
      </trkpt>
      <trkpt lat="38.183392" lon="30.863344">
        <ele>1253.000000</ele>
        <time>2010-05-04T12:51:04Z</time>
      </trkpt>
      <trkpt lat="38.183379" lon="30.863334">
        <ele>1254.000000</ele>
        <time>2010-05-04T12:51:05Z</time>
      </trkpt>
      <trkpt lat="38.183347" lon="30.863290">
        <ele>1252.000000</ele>
        <time>2010-05-04T12:51:08Z</time>
      </trkpt>
      <trkpt lat="38.183328" lon="30.863290">
        <ele>1253.000000</ele>
        <time>2010-05-04T12:51:09Z</time>
      </trkpt>
      <trkpt lat="38.183312" lon="30.863264">
        <ele>1252.000000</ele>
        <time>2010-05-04T12:51:11Z</time>
      </trkpt>
      <trkpt lat="38.183299" lon="30.863258">
        <ele>1251.000000</ele>
        <time>2010-05-04T12:51:12Z</time>
      </trkpt>
      <trkpt lat="38.183277" lon="30.863226">
        <ele>1253.000000</ele>
        <time>2010-05-04T12:51:15Z</time>
      </trkpt>
      <trkpt lat="38.183267" lon="30.863219">
        <ele>1252.000000</ele>
        <time>2010-05-04T12:51:16Z</time>
      </trkpt>
      <trkpt lat="38.183222" lon="30.863203">
        <ele>1253.000000</ele>
        <time>2010-05-04T12:51:20Z</time>
      </trkpt>
      <trkpt lat="38.183216" lon="30.863190">
        <ele>1254.000000</ele>
        <time>2010-05-04T12:51:21Z</time>
      </trkpt>
      <trkpt lat="38.183203" lon="30.863168">
        <ele>1253.000000</ele>
        <time>2010-05-04T12:51:23Z</time>
      </trkpt>
      <trkpt lat="38.183190" lon="30.863162">
        <ele>1254.000000</ele>
        <time>2010-05-04T12:51:25Z</time>
      </trkpt>
      <trkpt lat="38.183181" lon="30.863139">
        <ele>1254.000000</ele>
        <time>2010-05-04T12:51:28Z</time>
      </trkpt>
      <trkpt lat="38.183171" lon="30.863133">
        <ele>1253.000000</ele>
        <time>2010-05-04T12:51:29Z</time>
      </trkpt>
      <trkpt lat="38.183149" lon="30.863133">
        <ele>1255.000000</ele>
        <time>2010-05-04T12:51:32Z</time>
      </trkpt>
      <trkpt lat="38.183139" lon="30.863123">
        <ele>1254.000000</ele>
        <time>2010-05-04T12:51:33Z</time>
      </trkpt>
      <trkpt lat="38.183133" lon="30.863126">
        <ele>1254.000000</ele>
        <time>2010-05-04T12:51:34Z</time>
      </trkpt>
      <trkpt lat="38.183120" lon="30.863133">
        <ele>1253.000000</ele>
        <time>2010-05-04T12:51:37Z</time>
      </trkpt>
      <trkpt lat="38.183114" lon="30.863130">
        <ele>1253.000000</ele>
        <time>2010-05-04T12:51:38Z</time>
      </trkpt>
      <trkpt lat="38.183085" lon="30.863085">
        <ele>1252.000000</ele>
        <time>2010-05-04T12:51:50Z</time>
      </trkpt>
      <trkpt lat="38.183062" lon="30.863059">
        <ele>1255.000000</ele>
        <time>2010-05-04T12:51:59Z</time>
      </trkpt>
      <trkpt lat="38.183053" lon="30.863040">
        <ele>1253.000000</ele>
        <time>2010-05-04T12:52:01Z</time>
      </trkpt>
      <trkpt lat="38.183037" lon="30.863040">
        <ele>1253.000000</ele>
        <time>2010-05-04T12:52:03Z</time>
      </trkpt>
      <trkpt lat="38.183021" lon="30.863027">
        <ele>1255.000000</ele>
        <time>2010-05-04T12:52:05Z</time>
      </trkpt>
      <trkpt lat="38.183005" lon="30.862979">
        <ele>1255.000000</ele>
        <time>2010-05-04T12:52:09Z</time>
      </trkpt>
      <trkpt lat="38.182998" lon="30.862938">
        <ele>1254.000000</ele>
        <time>2010-05-04T12:52:14Z</time>
      </trkpt>
      <trkpt lat="38.182998" lon="30.862941">
        <ele>1255.000000</ele>
        <time>2010-05-04T12:52:15Z</time>
      </trkpt>
      <trkpt lat="38.183002" lon="30.862947">
        <ele>1254.000000</ele>
        <time>2010-05-04T12:52:16Z</time>
      </trkpt>
      <trkpt lat="38.183014" lon="30.862938">
        <ele>1255.000000</ele>
        <time>2010-05-04T12:52:18Z</time>
      </trkpt>
      <trkpt lat="38.183018" lon="30.862934">
        <ele>1256.000000</ele>
        <time>2010-05-04T12:52:20Z</time>
      </trkpt>
      <trkpt lat="38.183021" lon="30.862944">
        <ele>1255.000000</ele>
        <time>2010-05-04T12:52:23Z</time>
      </trkpt>
      <trkpt lat="38.183024" lon="30.862931">
        <ele>1255.000000</ele>
        <time>2010-05-04T12:52:24Z</time>
      </trkpt>
      <trkpt lat="38.183034" lon="30.862915">
        <ele>1253.000000</ele>
        <time>2010-05-04T12:52:26Z</time>
      </trkpt>
      <trkpt lat="38.183018" lon="30.862922">
        <ele>1255.000000</ele>
        <time>2010-05-04T12:52:29Z</time>
      </trkpt>
      <trkpt lat="38.182998" lon="30.862938">
        <ele>1255.000000</ele>
        <time>2010-05-04T12:52:32Z</time>
      </trkpt>
      <trkpt lat="38.183021" lon="30.862963">
        <ele>1254.000000</ele>
        <time>2010-05-04T12:52:41Z</time>
      </trkpt>
      <trkpt lat="38.183018" lon="30.862970">
        <ele>1253.000000</ele>
        <time>2010-05-04T12:52:57Z</time>
      </trkpt>
      <trkpt lat="38.183014" lon="30.862963">
        <ele>1254.000000</ele>
        <time>2010-05-04T12:52:58Z</time>
      </trkpt>
      <trkpt lat="38.183014" lon="30.862954">
        <ele>1254.000000</ele>
        <time>2010-05-04T12:52:59Z</time>
      </trkpt>
      <trkpt lat="38.183005" lon="30.862947">
        <ele>1255.000000</ele>
        <time>2010-05-04T12:53:00Z</time>
      </trkpt>
      <trkpt lat="38.183005" lon="30.862941">
        <ele>1255.000000</ele>
        <time>2010-05-04T12:53:01Z</time>
      </trkpt>
      <trkpt lat="38.182989" lon="30.862944">
        <ele>1255.000000</ele>
        <time>2010-05-04T12:53:10Z</time>
      </trkpt>
      <trkpt lat="38.182979" lon="30.862941">
        <ele>1254.000000</ele>
        <time>2010-05-04T12:53:11Z</time>
      </trkpt>
      <trkpt lat="38.182954" lon="30.862934">
        <ele>1255.000000</ele>
        <time>2010-05-04T12:53:13Z</time>
      </trkpt>
      <trkpt lat="38.182944" lon="30.862928">
        <ele>1255.000000</ele>
        <time>2010-05-04T12:53:14Z</time>
      </trkpt>
      <trkpt lat="38.182934" lon="30.862922">
        <ele>1255.000000</ele>
        <time>2010-05-04T12:53:15Z</time>
      </trkpt>
      <trkpt lat="38.182877" lon="30.862890">
        <ele>1255.000000</ele>
        <time>2010-05-04T12:53:31Z</time>
      </trkpt>
      <trkpt lat="38.182858" lon="30.862870">
        <ele>1254.000000</ele>
        <time>2010-05-04T12:53:36Z</time>
      </trkpt>
      <trkpt lat="38.182845" lon="30.862886">
        <ele>1254.000000</ele>
        <time>2010-05-04T12:53:38Z</time>
      </trkpt>
      <trkpt lat="38.182858" lon="30.862931">
        <ele>1254.000000</ele>
        <time>2010-05-04T12:53:40Z</time>
      </trkpt>
      <trkpt lat="38.182864" lon="30.862944">
        <ele>1255.000000</ele>
        <time>2010-05-04T12:53:42Z</time>
      </trkpt>
      <trkpt lat="38.182864" lon="30.862947">
        <ele>1255.000000</ele>
        <time>2010-05-04T12:53:44Z</time>
      </trkpt>
      <trkpt lat="38.182870" lon="30.862950">
        <ele>1255.000000</ele>
        <time>2010-05-04T12:53:45Z</time>
      </trkpt>
      <trkpt lat="38.182880" lon="30.862963">
        <ele>1254.000000</ele>
        <time>2010-05-04T12:53:47Z</time>
      </trkpt>
      <trkpt lat="38.182890" lon="30.862973">
        <ele>1254.000000</ele>
        <time>2010-05-04T12:53:48Z</time>
      </trkpt>
      <trkpt lat="38.182890" lon="30.862973">
        <ele>1254.000000</ele>
        <time>2010-05-04T12:53:51Z</time>
      </trkpt>
      <trkpt lat="38.182883" lon="30.862947">
        <ele>1254.000000</ele>
        <time>2010-05-04T12:53:54Z</time>
      </trkpt>
      <trkpt lat="38.182883" lon="30.862912">
        <ele>1255.000000</ele>
        <time>2010-05-04T12:54:01Z</time>
      </trkpt>
      <trkpt lat="38.182890" lon="30.862912">
        <ele>1254.000000</ele>
        <time>2010-05-04T12:54:02Z</time>
      </trkpt>
      <trkpt lat="38.182893" lon="30.862902">
        <ele>1253.000000</ele>
        <time>2010-05-04T12:54:04Z</time>
      </trkpt>
      <trkpt lat="38.182874" lon="30.862896">
        <ele>1254.000000</ele>
        <time>2010-05-04T12:54:08Z</time>
      </trkpt>
      <trkpt lat="38.182883" lon="30.862883">
        <ele>1253.000000</ele>
        <time>2010-05-04T12:54:09Z</time>
      </trkpt>
      <trkpt lat="38.182877" lon="30.862870">
        <ele>1254.000000</ele>
        <time>2010-05-04T12:54:10Z</time>
      </trkpt>
      <trkpt lat="38.182864" lon="30.862861">
        <ele>1254.000000</ele>
        <time>2010-05-04T12:54:12Z</time>
      </trkpt>
      <trkpt lat="38.182858" lon="30.862845">
        <ele>1253.000000</ele>
        <time>2010-05-04T12:54:14Z</time>
      </trkpt>
      <trkpt lat="38.182854" lon="30.862829">
        <ele>1253.000000</ele>
        <time>2010-05-04T12:54:15Z</time>
      </trkpt>
      <trkpt lat="38.182851" lon="30.862781">
        <ele>1254.000000</ele>
        <time>2010-05-04T12:54:18Z</time>
      </trkpt>
      <trkpt lat="38.182816" lon="30.862794">
        <ele>1253.000000</ele>
        <time>2010-05-04T12:54:20Z</time>
      </trkpt>
      <trkpt lat="38.182794" lon="30.862800">
        <ele>1253.000000</ele>
        <time>2010-05-04T12:54:21Z</time>
      </trkpt>
      <trkpt lat="38.182813" lon="30.862797">
        <ele>1253.000000</ele>
        <time>2010-05-04T12:54:23Z</time>
      </trkpt>
      <trkpt lat="38.182822" lon="30.862800">
        <ele>1253.000000</ele>
        <time>2010-05-04T12:54:24Z</time>
      </trkpt>
      <trkpt lat="38.182822" lon="30.862794">
        <ele>1253.000000</ele>
        <time>2010-05-04T12:54:25Z</time>
      </trkpt>
      <trkpt lat="38.182800" lon="30.862781">
        <ele>1252.000000</ele>
        <time>2010-05-04T12:54:27Z</time>
      </trkpt>
      <trkpt lat="38.182784" lon="30.862762">
        <ele>1252.000000</ele>
        <time>2010-05-04T12:54:30Z</time>
      </trkpt>
      <trkpt lat="38.182794" lon="30.862723">
        <ele>1251.000000</ele>
        <time>2010-05-04T12:54:36Z</time>
      </trkpt>
      <trkpt lat="38.182790" lon="30.862694">
        <ele>1251.000000</ele>
        <time>2010-05-04T12:54:39Z</time>
      </trkpt>
      <trkpt lat="38.182781" lon="30.862688">
        <ele>1252.000000</ele>
        <time>2010-05-04T12:54:40Z</time>
      </trkpt>
      <trkpt lat="38.182784" lon="30.862682">
        <ele>1251.000000</ele>
        <time>2010-05-04T12:54:41Z</time>
      </trkpt>
      <trkpt lat="38.182771" lon="30.862675">
        <ele>1252.000000</ele>
        <time>2010-05-04T12:54:42Z</time>
      </trkpt>
      <trkpt lat="38.182720" lon="30.862704">
        <ele>1252.000000</ele>
        <time>2010-05-04T12:54:43Z</time>
      </trkpt>
      <trkpt lat="38.182723" lon="30.862723">
        <ele>1251.000000</ele>
        <time>2010-05-04T12:54:47Z</time>
      </trkpt>
      <trkpt lat="38.182736" lon="30.862710">
        <ele>1251.000000</ele>
        <time>2010-05-04T12:54:50Z</time>
      </trkpt>
      <trkpt lat="38.182739" lon="30.862710">
        <ele>1252.000000</ele>
        <time>2010-05-04T12:54:51Z</time>
      </trkpt>
      <trkpt lat="38.182755" lon="30.862691">
        <ele>1251.000000</ele>
        <time>2010-05-04T12:54:53Z</time>
      </trkpt>
      <trkpt lat="38.182755" lon="30.862675">
        <ele>1251.000000</ele>
        <time>2010-05-04T12:54:55Z</time>
      </trkpt>
      <trkpt lat="38.182758" lon="30.862659">
        <ele>1251.000000</ele>
        <time>2010-05-04T12:54:59Z</time>
      </trkpt>
      <trkpt lat="38.182758" lon="30.862656">
        <ele>1252.000000</ele>
        <time>2010-05-04T12:55:20Z</time>
      </trkpt>
      <trkpt lat="38.182758" lon="30.862662">
        <ele>1252.000000</ele>
        <time>2010-05-04T12:55:22Z</time>
      </trkpt>
      <trkpt lat="38.182762" lon="30.862669">
        <ele>1253.000000</ele>
        <time>2010-05-04T12:55:23Z</time>
      </trkpt>
      <trkpt lat="38.182758" lon="30.862675">
        <ele>1252.000000</ele>
        <time>2010-05-04T12:55:24Z</time>
      </trkpt>
      <trkpt lat="38.182758" lon="30.862685">
        <ele>1252.000000</ele>
        <time>2010-05-04T12:55:25Z</time>
      </trkpt>
      <trkpt lat="38.182758" lon="30.862691">
        <ele>1252.000000</ele>
        <time>2010-05-04T12:55:27Z</time>
      </trkpt>
      <trkpt lat="38.182778" lon="30.862707">
        <ele>1251.000000</ele>
        <time>2010-05-04T12:55:58Z</time>
      </trkpt>
      <trkpt lat="38.182784" lon="30.862710">
        <ele>1253.000000</ele>
        <time>2010-05-04T12:55:59Z</time>
      </trkpt>
      <trkpt lat="38.182790" lon="30.862714">
        <ele>1251.000000</ele>
        <time>2010-05-04T12:56:01Z</time>
      </trkpt>
      <trkpt lat="38.182774" lon="30.862694">
        <ele>1250.000000</ele>
        <time>2010-05-04T12:56:05Z</time>
      </trkpt>
      <trkpt lat="38.182762" lon="30.862675">
        <ele>1251.000000</ele>
        <time>2010-05-04T12:56:29Z</time>
      </trkpt>
      <trkpt lat="38.182762" lon="30.862675">
        <ele>1252.000000</ele>
        <time>2010-05-04T12:56:36Z</time>
      </trkpt>
      <trkpt lat="38.182755" lon="30.862672">
        <ele>1252.000000</ele>
        <time>2010-05-04T12:56:37Z</time>
      </trkpt>
      <trkpt lat="38.182746" lon="30.862662">
        <ele>1252.000000</ele>
        <time>2010-05-04T12:56:38Z</time>
      </trkpt>
      <trkpt lat="38.182736" lon="30.862669">
        <ele>1253.000000</ele>
        <time>2010-05-04T12:56:42Z</time>
      </trkpt>
      <trkpt lat="38.182736" lon="30.862672">
        <ele>1252.000000</ele>
        <time>2010-05-04T12:56:44Z</time>
      </trkpt>
      <trkpt lat="38.182739" lon="30.862669">
        <ele>1252.000000</ele>
        <time>2010-05-04T12:56:45Z</time>
      </trkpt>
      <trkpt lat="38.182739" lon="30.862675">
        <ele>1252.000000</ele>
        <time>2010-05-04T12:56:46Z</time>
      </trkpt>
      <trkpt lat="38.182742" lon="30.862682">
        <ele>1252.000000</ele>
        <time>2010-05-04T12:56:47Z</time>
      </trkpt>
      <trkpt lat="38.182752" lon="30.862694">
        <ele>1253.000000</ele>
        <time>2010-05-04T12:56:49Z</time>
      </trkpt>
      <trkpt lat="38.182762" lon="30.862704">
        <ele>1252.000000</ele>
        <time>2010-05-04T12:56:50Z</time>
      </trkpt>
      <trkpt lat="38.182771" lon="30.862710">
        <ele>1251.000000</ele>
        <time>2010-05-04T12:56:52Z</time>
      </trkpt>
      <trkpt lat="38.182765" lon="30.862736">
        <ele>1251.000000</ele>
        <time>2010-05-04T12:56:58Z</time>
      </trkpt>
      <trkpt lat="38.182742" lon="30.862723">
        <ele>1253.000000</ele>
        <time>2010-05-04T12:57:01Z</time>
      </trkpt>
      <trkpt lat="38.182723" lon="30.862720">
        <ele>1251.000000</ele>
        <time>2010-05-04T12:57:03Z</time>
      </trkpt>
      <trkpt lat="38.182704" lon="30.862691">
        <ele>1250.000000</ele>
        <time>2010-05-04T12:57:05Z</time>
      </trkpt>
      <trkpt lat="38.182694" lon="30.862675">
        <ele>1252.000000</ele>
        <time>2010-05-04T12:57:07Z</time>
      </trkpt>
      <trkpt lat="38.182672" lon="30.862662">
        <ele>1251.000000</ele>
        <time>2010-05-04T12:57:09Z</time>
      </trkpt>
      <trkpt lat="38.182656" lon="30.862650">
        <ele>1251.000000</ele>
        <time>2010-05-04T12:57:10Z</time>
      </trkpt>
      <trkpt lat="38.182634" lon="30.862621">
        <ele>1252.000000</ele>
        <time>2010-05-04T12:57:12Z</time>
      </trkpt>
      <trkpt lat="38.182627" lon="30.862605">
        <ele>1252.000000</ele>
        <time>2010-05-04T12:57:13Z</time>
      </trkpt>
      <trkpt lat="38.182586" lon="30.862582">
        <ele>1252.000000</ele>
        <time>2010-05-04T12:57:19Z</time>
      </trkpt>
      <trkpt lat="38.182544" lon="30.862550">
        <ele>1252.000000</ele>
        <time>2010-05-04T12:57:24Z</time>
      </trkpt>
      <trkpt lat="38.182506" lon="30.862595">
        <ele>1250.000000</ele>
        <time>2010-05-04T12:57:28Z</time>
      </trkpt>
      <trkpt lat="38.182477" lon="30.862554">
        <ele>1252.000000</ele>
        <time>2010-05-04T12:57:33Z</time>
      </trkpt>
      <trkpt lat="38.182464" lon="30.862538">
        <ele>1252.000000</ele>
        <time>2010-05-04T12:57:34Z</time>
      </trkpt>
      <trkpt lat="38.182445" lon="30.862525">
        <ele>1252.000000</ele>
        <time>2010-05-04T12:57:36Z</time>
      </trkpt>
      <trkpt lat="38.182438" lon="30.862525">
        <ele>1252.000000</ele>
        <time>2010-05-04T12:57:37Z</time>
      </trkpt>
      <trkpt lat="38.182416" lon="30.862512">
        <ele>1252.000000</ele>
        <time>2010-05-04T12:57:40Z</time>
      </trkpt>
      <trkpt lat="38.182403" lon="30.862502">
        <ele>1253.000000</ele>
        <time>2010-05-04T12:57:41Z</time>
      </trkpt>
      <trkpt lat="38.182378" lon="30.862486">
        <ele>1253.000000</ele>
        <time>2010-05-04T12:57:45Z</time>
      </trkpt>
      <trkpt lat="38.182358" lon="30.862461">
        <ele>1253.000000</ele>
        <time>2010-05-04T12:57:49Z</time>
      </trkpt>
      <trkpt lat="38.182346" lon="30.862438">
        <ele>1250.000000</ele>
        <time>2010-05-04T12:57:51Z</time>
      </trkpt>
      <trkpt lat="38.182320" lon="30.862432">
        <ele>1252.000000</ele>
        <time>2010-05-04T12:57:53Z</time>
      </trkpt>
      <trkpt lat="38.182314" lon="30.862422">
        <ele>1252.000000</ele>
        <time>2010-05-04T12:57:54Z</time>
      </trkpt>
      <trkpt lat="38.182307" lon="30.862410">
        <ele>1252.000000</ele>
        <time>2010-05-04T12:57:55Z</time>
      </trkpt>
      <trkpt lat="38.182301" lon="30.862406">
        <ele>1251.000000</ele>
        <time>2010-05-04T12:57:56Z</time>
      </trkpt>
      <trkpt lat="38.182298" lon="30.862400">
        <ele>1251.000000</ele>
        <time>2010-05-04T12:57:57Z</time>
      </trkpt>
      <trkpt lat="38.182294" lon="30.862413">
        <ele>1252.000000</ele>
        <time>2010-05-04T12:58:07Z</time>
      </trkpt>
      <trkpt lat="38.182298" lon="30.862394">
        <ele>1251.000000</ele>
        <time>2010-05-04T12:58:12Z</time>
      </trkpt>
      <trkpt lat="38.182230" lon="30.862365">
        <ele>1251.000000</ele>
        <time>2010-05-04T12:58:20Z</time>
      </trkpt>
      <trkpt lat="38.182160" lon="30.862397">
        <ele>1250.000000</ele>
        <time>2010-05-04T12:58:32Z</time>
      </trkpt>
      <trkpt lat="38.182141" lon="30.862422">
        <ele>1251.000000</ele>
        <time>2010-05-04T12:58:36Z</time>
      </trkpt>
      <trkpt lat="38.182099" lon="30.862426">
        <ele>1251.000000</ele>
        <time>2010-05-04T12:58:39Z</time>
      </trkpt>
      <trkpt lat="38.182083" lon="30.862416">
        <ele>1251.000000</ele>
        <time>2010-05-04T12:58:40Z</time>
      </trkpt>
      <trkpt lat="38.182070" lon="30.862406">
        <ele>1251.000000</ele>
        <time>2010-05-04T12:58:41Z</time>
      </trkpt>
      <trkpt lat="38.182029" lon="30.862403">
        <ele>1253.000000</ele>
        <time>2010-05-04T12:58:44Z</time>
      </trkpt>
      <trkpt lat="38.182010" lon="30.862390">
        <ele>1250.000000</ele>
        <time>2010-05-04T12:58:46Z</time>
      </trkpt>
      <trkpt lat="38.181997" lon="30.862381">
        <ele>1250.000000</ele>
        <time>2010-05-04T12:58:47Z</time>
      </trkpt>
      <trkpt lat="38.181949" lon="30.862349">
        <ele>1250.000000</ele>
        <time>2010-05-04T12:58:53Z</time>
      </trkpt>
      <trkpt lat="38.181958" lon="30.862336">
        <ele>1250.000000</ele>
        <time>2010-05-04T12:58:56Z</time>
      </trkpt>
      <trkpt lat="38.181926" lon="30.862326">
        <ele>1249.000000</ele>
        <time>2010-05-04T12:58:59Z</time>
      </trkpt>
      <trkpt lat="38.181907" lon="30.862336">
        <ele>1251.000000</ele>
        <time>2010-05-04T12:59:02Z</time>
      </trkpt>
      <trkpt lat="38.181901" lon="30.862346">
        <ele>1251.000000</ele>
        <time>2010-05-04T12:59:03Z</time>
      </trkpt>
      <trkpt lat="38.181888" lon="30.862346">
        <ele>1251.000000</ele>
        <time>2010-05-04T12:59:04Z</time>
      </trkpt>
      <trkpt lat="38.181882" lon="30.862352">
        <ele>1249.000000</ele>
        <time>2010-05-04T12:59:07Z</time>
      </trkpt>
      <trkpt lat="38.181878" lon="30.862346">
        <ele>1250.000000</ele>
        <time>2010-05-04T12:59:09Z</time>
      </trkpt>
      <trkpt lat="38.181859" lon="30.862339">
        <ele>1249.000000</ele>
        <time>2010-05-04T12:59:12Z</time>
      </trkpt>
      <trkpt lat="38.181846" lon="30.862355">
        <ele>1249.000000</ele>
        <time>2010-05-04T12:59:15Z</time>
      </trkpt>
      <trkpt lat="38.181824" lon="30.862326">
        <ele>1249.000000</ele>
        <time>2010-05-04T12:59:19Z</time>
      </trkpt>
      <trkpt lat="38.181782" lon="30.862307">
        <ele>1248.000000</ele>
        <time>2010-05-04T12:59:23Z</time>
      </trkpt>
      <trkpt lat="38.181744" lon="30.862298">
        <ele>1248.000000</ele>
        <time>2010-05-04T12:59:26Z</time>
      </trkpt>
      <trkpt lat="38.181718" lon="30.862291">
        <ele>1248.000000</ele>
        <time>2010-05-04T12:59:29Z</time>
      </trkpt>
      <trkpt lat="38.181674" lon="30.862301">
        <ele>1248.000000</ele>
        <time>2010-05-04T12:59:32Z</time>
      </trkpt>
      <trkpt lat="38.181645" lon="30.862256">
        <ele>1249.000000</ele>
        <time>2010-05-04T12:59:39Z</time>
      </trkpt>
      <trkpt lat="38.181651" lon="30.862227">
        <ele>1249.000000</ele>
        <time>2010-05-04T12:59:41Z</time>
      </trkpt>
      <trkpt lat="38.181632" lon="30.862192">
        <ele>1249.000000</ele>
        <time>2010-05-04T12:59:46Z</time>
      </trkpt>
      <trkpt lat="38.181603" lon="30.862186">
        <ele>1248.000000</ele>
        <time>2010-05-04T12:59:49Z</time>
      </trkpt>
      <trkpt lat="38.181581" lon="30.862182">
        <ele>1249.000000</ele>
        <time>2010-05-04T12:59:52Z</time>
      </trkpt>
      <trkpt lat="38.181565" lon="30.862182">
        <ele>1247.000000</ele>
        <time>2010-05-04T12:59:53Z</time>
      </trkpt>
      <trkpt lat="38.181533" lon="30.862170">
        <ele>1250.000000</ele>
        <time>2010-05-04T12:59:56Z</time>
      </trkpt>
      <trkpt lat="38.181526" lon="30.862166">
        <ele>1250.000000</ele>
        <time>2010-05-04T12:59:57Z</time>
      </trkpt>
      <trkpt lat="38.181443" lon="30.862166">
        <ele>1248.000000</ele>
        <time>2010-05-04T13:00:01Z</time>
      </trkpt>
      <trkpt lat="38.181430" lon="30.862150">
        <ele>1249.000000</ele>
        <time>2010-05-04T13:00:03Z</time>
      </trkpt>
      <trkpt lat="38.181414" lon="30.862138">
        <ele>1248.000000</ele>
        <time>2010-05-04T13:00:05Z</time>
      </trkpt>
      <trkpt lat="38.181405" lon="30.862128">
        <ele>1248.000000</ele>
        <time>2010-05-04T13:00:06Z</time>
      </trkpt>
      <trkpt lat="38.181386" lon="30.862115">
        <ele>1248.000000</ele>
        <time>2010-05-04T13:00:08Z</time>
      </trkpt>
      <trkpt lat="38.181331" lon="30.862096">
        <ele>1249.000000</ele>
        <time>2010-05-04T13:00:14Z</time>
      </trkpt>
      <trkpt lat="38.181302" lon="30.862064">
        <ele>1249.000000</ele>
        <time>2010-05-04T13:00:19Z</time>
      </trkpt>
      <trkpt lat="38.181245" lon="30.862058">
        <ele>1249.000000</ele>
        <time>2010-05-04T13:00:24Z</time>
      </trkpt>
      <trkpt lat="38.181226" lon="30.862029">
        <ele>1249.000000</ele>
        <time>2010-05-04T13:00:27Z</time>
      </trkpt>
      <trkpt lat="38.181213" lon="30.862013">
        <ele>1249.000000</ele>
        <time>2010-05-04T13:00:28Z</time>
      </trkpt>
      <trkpt lat="38.181203" lon="30.862000">
        <ele>1249.000000</ele>
        <time>2010-05-04T13:00:29Z</time>
      </trkpt>
      <trkpt lat="38.181187" lon="30.861987">
        <ele>1249.000000</ele>
        <time>2010-05-04T13:00:30Z</time>
      </trkpt>
      <trkpt lat="38.181171" lon="30.861984">
        <ele>1250.000000</ele>
        <time>2010-05-04T13:00:31Z</time>
      </trkpt>
      <trkpt lat="38.181165" lon="30.861965">
        <ele>1248.000000</ele>
        <time>2010-05-04T13:00:32Z</time>
      </trkpt>
      <trkpt lat="38.181158" lon="30.861946">
        <ele>1249.000000</ele>
        <time>2010-05-04T13:00:33Z</time>
      </trkpt>
      <trkpt lat="38.181149" lon="30.861936">
        <ele>1249.000000</ele>
        <time>2010-05-04T13:00:34Z</time>
      </trkpt>
      <trkpt lat="38.181091" lon="30.861936">
        <ele>1249.000000</ele>
        <time>2010-05-04T13:00:42Z</time>
      </trkpt>
      <trkpt lat="38.181075" lon="30.861942">
        <ele>1250.000000</ele>
        <time>2010-05-04T13:00:46Z</time>
      </trkpt>
      <trkpt lat="38.181005" lon="30.861920">
        <ele>1250.000000</ele>
        <time>2010-05-04T13:00:54Z</time>
      </trkpt>
      <trkpt lat="38.180989" lon="30.861917">
        <ele>1250.000000</ele>
        <time>2010-05-04T13:00:55Z</time>
      </trkpt>
      <trkpt lat="38.180973" lon="30.861910">
        <ele>1250.000000</ele>
        <time>2010-05-04T13:00:56Z</time>
      </trkpt>
      <trkpt lat="38.180950" lon="30.861901">
        <ele>1249.000000</ele>
        <time>2010-05-04T13:00:57Z</time>
      </trkpt>
      <trkpt lat="38.180944" lon="30.861891">
        <ele>1249.000000</ele>
        <time>2010-05-04T13:00:58Z</time>
      </trkpt>
      <trkpt lat="38.180880" lon="30.861878">
        <ele>1250.000000</ele>
        <time>2010-05-04T13:01:06Z</time>
      </trkpt>
      <trkpt lat="38.180854" lon="30.861901">
        <ele>1249.000000</ele>
        <time>2010-05-04T13:01:08Z</time>
      </trkpt>
      <trkpt lat="38.180816" lon="30.861930">
        <ele>1251.000000</ele>
        <time>2010-05-04T13:01:12Z</time>
      </trkpt>
      <trkpt lat="38.180794" lon="30.861949">
        <ele>1249.000000</ele>
        <time>2010-05-04T13:01:15Z</time>
      </trkpt>
      <trkpt lat="38.180781" lon="30.861955">
        <ele>1250.000000</ele>
        <time>2010-05-04T13:01:16Z</time>
      </trkpt>
      <trkpt lat="38.180765" lon="30.861974">
        <ele>1250.000000</ele>
        <time>2010-05-04T13:01:17Z</time>
      </trkpt>
      <trkpt lat="38.180752" lon="30.861978">
        <ele>1251.000000</ele>
        <time>2010-05-04T13:01:18Z</time>
      </trkpt>
      <trkpt lat="38.180720" lon="30.861990">
        <ele>1250.000000</ele>
        <time>2010-05-04T13:01:20Z</time>
      </trkpt>
      <trkpt lat="38.180698" lon="30.862003">
        <ele>1250.000000</ele>
        <time>2010-05-04T13:01:21Z</time>
      </trkpt>
      <trkpt lat="38.180627" lon="30.862010">
        <ele>1249.000000</ele>
        <time>2010-05-04T13:01:28Z</time>
      </trkpt>
      <trkpt lat="38.180557" lon="30.862048">
        <ele>1250.000000</ele>
        <time>2010-05-04T13:01:31Z</time>
      </trkpt>
      <trkpt lat="38.180541" lon="30.862054">
        <ele>1250.000000</ele>
        <time>2010-05-04T13:01:32Z</time>
      </trkpt>
      <trkpt lat="38.180474" lon="30.862125">
        <ele>1249.000000</ele>
        <time>2010-05-04T13:01:38Z</time>
      </trkpt>
      <trkpt lat="38.180397" lon="30.862160">
        <ele>1249.000000</ele>
        <time>2010-05-04T13:01:45Z</time>
      </trkpt>
      <trkpt lat="38.180179" lon="30.862179">
        <ele>1249.000000</ele>
        <time>2010-05-04T13:02:03Z</time>
      </trkpt>
      <trkpt lat="38.180150" lon="30.862170">
        <ele>1250.000000</ele>
        <time>2010-05-04T13:02:29Z</time>
      </trkpt>
      <trkpt lat="38.180122" lon="30.862170">
        <ele>1248.000000</ele>
        <time>2010-05-04T13:02:31Z</time>
      </trkpt>
      <trkpt lat="38.180083" lon="30.862170">
        <ele>1248.000000</ele>
        <time>2010-05-04T13:02:34Z</time>
      </trkpt>
      <trkpt lat="38.180051" lon="30.862176">
        <ele>1249.000000</ele>
        <time>2010-05-04T13:02:37Z</time>
      </trkpt>
      <trkpt lat="38.180038" lon="30.862170">
        <ele>1250.000000</ele>
        <time>2010-05-04T13:02:38Z</time>
      </trkpt>
      <trkpt lat="38.180032" lon="30.862182">
        <ele>1249.000000</ele>
        <time>2010-05-04T13:02:39Z</time>
      </trkpt>
      <trkpt lat="38.179978" lon="30.862160">
        <ele>1249.000000</ele>
        <time>2010-05-04T13:02:46Z</time>
      </trkpt>
      <trkpt lat="38.179920" lon="30.862147">
        <ele>1249.000000</ele>
        <time>2010-05-04T13:02:58Z</time>
      </trkpt>
      <trkpt lat="38.179917" lon="30.862144">
        <ele>1249.000000</ele>
        <time>2010-05-04T13:03:10Z</time>
      </trkpt>
      <trkpt lat="38.179920" lon="30.862144">
        <ele>1249.000000</ele>
        <time>2010-05-04T13:03:11Z</time>
      </trkpt>
      <trkpt lat="38.179926" lon="30.862144">
        <ele>1251.000000</ele>
        <time>2010-05-04T13:03:14Z</time>
      </trkpt>
      <trkpt lat="38.179939" lon="30.862144">
        <ele>1250.000000</ele>
        <time>2010-05-04T13:03:15Z</time>
      </trkpt>
      <trkpt lat="38.179923" lon="30.862154">
        <ele>1249.000000</ele>
        <time>2010-05-04T13:03:16Z</time>
      </trkpt>
      <trkpt lat="38.179936" lon="30.862176">
        <ele>1251.000000</ele>
        <time>2010-05-04T13:03:19Z</time>
      </trkpt>
      <trkpt lat="38.179952" lon="30.862179">
        <ele>1250.000000</ele>
        <time>2010-05-04T13:03:21Z</time>
      </trkpt>
      <trkpt lat="38.179971" lon="30.862192">
        <ele>1250.000000</ele>
        <time>2010-05-04T13:03:23Z</time>
      </trkpt>
      <trkpt lat="38.179971" lon="30.862182">
        <ele>1250.000000</ele>
        <time>2010-05-04T13:03:26Z</time>
      </trkpt>
      <trkpt lat="38.179933" lon="30.862144">
        <ele>1248.000000</ele>
        <time>2010-05-04T13:03:37Z</time>
      </trkpt>
      <trkpt lat="38.179965" lon="30.862045">
        <ele>1251.000000</ele>
        <time>2010-05-04T13:03:43Z</time>
      </trkpt>
      <trkpt lat="38.179984" lon="30.862006">
        <ele>1250.000000</ele>
        <time>2010-05-04T13:03:45Z</time>
      </trkpt>
      <trkpt lat="38.180013" lon="30.861946">
        <ele>1249.000000</ele>
        <time>2010-05-04T13:03:55Z</time>
      </trkpt>
      <trkpt lat="38.180016" lon="30.861952">
        <ele>1250.000000</ele>
        <time>2010-05-04T13:03:57Z</time>
      </trkpt>
      <trkpt lat="38.180000" lon="30.861965">
        <ele>1251.000000</ele>
        <time>2010-05-04T13:03:59Z</time>
      </trkpt>
      <trkpt lat="38.180006" lon="30.861968">
        <ele>1251.000000</ele>
        <time>2010-05-04T13:04:01Z</time>
      </trkpt>
      <trkpt lat="38.180003" lon="30.862026">
        <ele>1250.000000</ele>
        <time>2010-05-04T13:04:04Z</time>
      </trkpt>
      <trkpt lat="38.179978" lon="30.862038">
        <ele>1250.000000</ele>
        <time>2010-05-04T13:04:11Z</time>
      </trkpt>
      <trkpt lat="38.179974" lon="30.862099">
        <ele>1250.000000</ele>
        <time>2010-05-04T13:04:26Z</time>
      </trkpt>
      <trkpt lat="38.179962" lon="30.862096">
        <ele>1250.000000</ele>
        <time>2010-05-04T13:04:28Z</time>
      </trkpt>
      <trkpt lat="38.179952" lon="30.862090">
        <ele>1250.000000</ele>
        <time>2010-05-04T13:04:29Z</time>
      </trkpt>
      <trkpt lat="38.179936" lon="30.862090">
        <ele>1251.000000</ele>
        <time>2010-05-04T13:04:31Z</time>
      </trkpt>
      <trkpt lat="38.179939" lon="30.862083">
        <ele>1250.000000</ele>
        <time>2010-05-04T13:04:33Z</time>
      </trkpt>
      <trkpt lat="38.179904" lon="30.862144">
        <ele>1251.000000</ele>
        <time>2010-05-04T13:04:41Z</time>
      </trkpt>
      <trkpt lat="38.179882" lon="30.862115">
        <ele>1249.000000</ele>
        <time>2010-05-04T13:04:47Z</time>
      </trkpt>
      <trkpt lat="38.179958" lon="30.862058">
        <ele>1252.000000</ele>
        <time>2010-05-04T13:04:53Z</time>
      </trkpt>
      <trkpt lat="38.179981" lon="30.862077">
        <ele>1251.000000</ele>
        <time>2010-05-04T13:04:55Z</time>
      </trkpt>
      <trkpt lat="38.179997" lon="30.862051">
        <ele>1249.000000</ele>
        <time>2010-05-04T13:04:58Z</time>
      </trkpt>
      <trkpt lat="38.180003" lon="30.862045">
        <ele>1250.000000</ele>
        <time>2010-05-04T13:05:00Z</time>
      </trkpt>
      <trkpt lat="38.180003" lon="30.862042">
        <ele>1252.000000</ele>
        <time>2010-05-04T13:05:01Z</time>
      </trkpt>
      <trkpt lat="38.180003" lon="30.862038">
        <ele>1252.000000</ele>
        <time>2010-05-04T13:05:02Z</time>
      </trkpt>
      <trkpt lat="38.180013" lon="30.862035">
        <ele>1251.000000</ele>
        <time>2010-05-04T13:05:04Z</time>
      </trkpt>
      <trkpt lat="38.180022" lon="30.862038">
        <ele>1249.000000</ele>
        <time>2010-05-04T13:05:06Z</time>
      </trkpt>
      <trkpt lat="38.180051" lon="30.862035">
        <ele>1251.000000</ele>
        <time>2010-05-04T13:05:09Z</time>
      </trkpt>
      <trkpt lat="38.180058" lon="30.862035">
        <ele>1251.000000</ele>
        <time>2010-05-04T13:05:11Z</time>
      </trkpt>
      <trkpt lat="38.180080" lon="30.862045">
        <ele>1250.000000</ele>
        <time>2010-05-04T13:05:13Z</time>
      </trkpt>
      <trkpt lat="38.180080" lon="30.862061">
        <ele>1251.000000</ele>
        <time>2010-05-04T13:05:17Z</time>
      </trkpt>
      <trkpt lat="38.179981" lon="30.862106">
        <ele>1250.000000</ele>
        <time>2010-05-04T13:05:24Z</time>
      </trkpt>
      <trkpt lat="38.179958" lon="30.862115">
        <ele>1250.000000</ele>
        <time>2010-05-04T13:05:27Z</time>
      </trkpt>
      <trkpt lat="38.179955" lon="30.862115">
        <ele>1251.000000</ele>
        <time>2010-05-04T13:05:28Z</time>
      </trkpt>
      <trkpt lat="38.179974" lon="30.862099">
        <ele>1250.000000</ele>
        <time>2010-05-04T13:05:30Z</time>
      </trkpt>
      <trkpt lat="38.180013" lon="30.862083">
        <ele>1251.000000</ele>
        <time>2010-05-04T13:05:33Z</time>
      </trkpt>
      <trkpt lat="38.180003" lon="30.862038">
        <ele>1249.000000</ele>
        <time>2010-05-04T13:05:35Z</time>
      </trkpt>
      <trkpt lat="38.179971" lon="30.862016">
        <ele>1251.000000</ele>
        <time>2010-05-04T13:05:36Z</time>
      </trkpt>
      <trkpt lat="38.179942" lon="30.861981">
        <ele>1250.000000</ele>
        <time>2010-05-04T13:05:43Z</time>
      </trkpt>
      <trkpt lat="38.179939" lon="30.861978">
        <ele>1249.000000</ele>
        <time>2010-05-04T13:05:58Z</time>
      </trkpt>
      <trkpt lat="38.179946" lon="30.861971">
        <ele>1250.000000</ele>
        <time>2010-05-04T13:06:00Z</time>
      </trkpt>
      <trkpt lat="38.179994" lon="30.861952">
        <ele>1250.000000</ele>
        <time>2010-05-04T13:06:02Z</time>
      </trkpt>
      <trkpt lat="38.179997" lon="30.861958">
        <ele>1250.000000</ele>
        <time>2010-05-04T13:06:03Z</time>
      </trkpt>
      <trkpt lat="38.180003" lon="30.861968">
        <ele>1251.000000</ele>
        <time>2010-05-04T13:06:04Z</time>
      </trkpt>
      <trkpt lat="38.179971" lon="30.861997">
        <ele>1250.000000</ele>
        <time>2010-05-04T13:06:06Z</time>
      </trkpt>
      <trkpt lat="38.179958" lon="30.861997">
        <ele>1249.000000</ele>
        <time>2010-05-04T13:06:07Z</time>
      </trkpt>
      <trkpt lat="38.179926" lon="30.862003">
        <ele>1249.000000</ele>
        <time>2010-05-04T13:06:09Z</time>
      </trkpt>
      <trkpt lat="38.179923" lon="30.861984">
        <ele>1250.000000</ele>
        <time>2010-05-04T13:06:18Z</time>
      </trkpt>
      <trkpt lat="38.179933" lon="30.861984">
        <ele>1249.000000</ele>
        <time>2010-05-04T13:06:19Z</time>
      </trkpt>
      <trkpt lat="38.179936" lon="30.861994">
        <ele>1251.000000</ele>
        <time>2010-05-04T13:06:22Z</time>
      </trkpt>
      <trkpt lat="38.179946" lon="30.862010">
        <ele>1250.000000</ele>
        <time>2010-05-04T13:06:24Z</time>
      </trkpt>
      <trkpt lat="38.179946" lon="30.862022">
        <ele>1250.000000</ele>
        <time>2010-05-04T13:06:26Z</time>
      </trkpt>
      <trkpt lat="38.179939" lon="30.862090">
        <ele>1249.000000</ele>
        <time>2010-05-04T13:06:30Z</time>
      </trkpt>
      <trkpt lat="38.179971" lon="30.862080">
        <ele>1250.000000</ele>
        <time>2010-05-04T13:06:33Z</time>
      </trkpt>
      <trkpt lat="38.179971" lon="30.862077">
        <ele>1251.000000</ele>
        <time>2010-05-04T13:06:45Z</time>
      </trkpt>
      <trkpt lat="38.179965" lon="30.862064">
        <ele>1251.000000</ele>
        <time>2010-05-04T13:06:46Z</time>
      </trkpt>
      <trkpt lat="38.179965" lon="30.862051">
        <ele>1251.000000</ele>
        <time>2010-05-04T13:06:47Z</time>
      </trkpt>
      <trkpt lat="38.179962" lon="30.862035">
        <ele>1250.000000</ele>
        <time>2010-05-04T13:06:48Z</time>
      </trkpt>
      <trkpt lat="38.179955" lon="30.862022">
        <ele>1250.000000</ele>
        <time>2010-05-04T13:06:54Z</time>
      </trkpt>
      <trkpt lat="38.179952" lon="30.862016">
        <ele>1252.000000</ele>
        <time>2010-05-04T13:06:56Z</time>
      </trkpt>
      <trkpt lat="38.179955" lon="30.862003">
        <ele>1249.000000</ele>
        <time>2010-05-04T13:06:57Z</time>
      </trkpt>
      <trkpt lat="38.179939" lon="30.861910">
        <ele>1249.000000</ele>
        <time>2010-05-04T13:07:13Z</time>
      </trkpt>
      <trkpt lat="38.179936" lon="30.861904">
        <ele>1250.000000</ele>
        <time>2010-05-04T13:07:14Z</time>
      </trkpt>
      <trkpt lat="38.179920" lon="30.861862">
        <ele>1251.000000</ele>
        <time>2010-05-04T13:07:18Z</time>
      </trkpt>
      <trkpt lat="38.179904" lon="30.861869">
        <ele>1250.000000</ele>
        <time>2010-05-04T13:07:20Z</time>
      </trkpt>
      <trkpt lat="38.179805" lon="30.862016">
        <ele>1250.000000</ele>
        <time>2010-05-04T13:07:27Z</time>
      </trkpt>
      <trkpt lat="38.179834" lon="30.862010">
        <ele>1250.000000</ele>
        <time>2010-05-04T13:07:30Z</time>
      </trkpt>
      <trkpt lat="38.179846" lon="30.862006">
        <ele>1250.000000</ele>
        <time>2010-05-04T13:07:34Z</time>
      </trkpt>
      <trkpt lat="38.179901" lon="30.861939">
        <ele>1251.000000</ele>
        <time>2010-05-04T13:07:42Z</time>
      </trkpt>
      <trkpt lat="38.179907" lon="30.861942">
        <ele>1251.000000</ele>
        <time>2010-05-04T13:07:44Z</time>
      </trkpt>
      <trkpt lat="38.179920" lon="30.861965">
        <ele>1251.000000</ele>
        <time>2010-05-04T13:07:47Z</time>
      </trkpt>
      <trkpt lat="38.179907" lon="30.861965">
        <ele>1250.000000</ele>
        <time>2010-05-04T13:07:51Z</time>
      </trkpt>
      <trkpt lat="38.179904" lon="30.861984">
        <ele>1250.000000</ele>
        <time>2010-05-04T13:07:53Z</time>
      </trkpt>
      <trkpt lat="38.179946" lon="30.861933">
        <ele>1250.000000</ele>
        <time>2010-05-04T13:08:03Z</time>
      </trkpt>
      <trkpt lat="38.179946" lon="30.861923">
        <ele>1251.000000</ele>
        <time>2010-05-04T13:08:09Z</time>
      </trkpt>
      <trkpt lat="38.179936" lon="30.861930">
        <ele>1251.000000</ele>
        <time>2010-05-04T13:08:10Z</time>
      </trkpt>
      <trkpt lat="38.179894" lon="30.861946">
        <ele>1249.000000</ele>
        <time>2010-05-04T13:08:15Z</time>
      </trkpt>
      <trkpt lat="38.179885" lon="30.861955">
        <ele>1252.000000</ele>
        <time>2010-05-04T13:08:17Z</time>
      </trkpt>
      <trkpt lat="38.179843" lon="30.861939">
        <ele>1252.000000</ele>
        <time>2010-05-04T13:08:28Z</time>
      </trkpt>
      <trkpt lat="38.179824" lon="30.861933">
        <ele>1252.000000</ele>
        <time>2010-05-04T13:08:31Z</time>
      </trkpt>
      <trkpt lat="38.179798" lon="30.861930">
        <ele>1252.000000</ele>
        <time>2010-05-04T13:08:41Z</time>
      </trkpt>
      <trkpt lat="38.179725" lon="30.861974">
        <ele>1254.000000</ele>
        <time>2010-05-04T13:08:56Z</time>
      </trkpt>
      <trkpt lat="38.179706" lon="30.861958">
        <ele>1255.000000</ele>
        <time>2010-05-04T13:09:00Z</time>
      </trkpt>
      <trkpt lat="38.179686" lon="30.861968">
        <ele>1255.000000</ele>
        <time>2010-05-04T13:09:05Z</time>
      </trkpt>
      <trkpt lat="38.179686" lon="30.861958">
        <ele>1254.000000</ele>
        <time>2010-05-04T13:09:07Z</time>
      </trkpt>
      <trkpt lat="38.179645" lon="30.861955">
        <ele>1257.000000</ele>
        <time>2010-05-04T13:09:13Z</time>
      </trkpt>
      <trkpt lat="38.179642" lon="30.861971">
        <ele>1256.000000</ele>
        <time>2010-05-04T13:09:16Z</time>
      </trkpt>
      <trkpt lat="38.179645" lon="30.861965">
        <ele>1257.000000</ele>
        <time>2010-05-04T13:09:18Z</time>
      </trkpt>
      <trkpt lat="38.179648" lon="30.861866">
        <ele>1257.000000</ele>
        <time>2010-05-04T13:09:23Z</time>
      </trkpt>
      <trkpt lat="38.179626" lon="30.861866">
        <ele>1258.000000</ele>
        <time>2010-05-04T13:09:25Z</time>
      </trkpt>
      <trkpt lat="38.179581" lon="30.861856">
        <ele>1259.000000</ele>
        <time>2010-05-04T13:09:36Z</time>
      </trkpt>
      <trkpt lat="38.179584" lon="30.861850">
        <ele>1258.000000</ele>
        <time>2010-05-04T13:09:37Z</time>
      </trkpt>
      <trkpt lat="38.179587" lon="30.861834">
        <ele>1257.000000</ele>
        <time>2010-05-04T13:09:38Z</time>
      </trkpt>
      <trkpt lat="38.179539" lon="30.861840">
        <ele>1257.000000</ele>
        <time>2010-05-04T13:09:53Z</time>
      </trkpt>
      <trkpt lat="38.179536" lon="30.861856">
        <ele>1257.000000</ele>
        <time>2010-05-04T13:09:54Z</time>
      </trkpt>
      <trkpt lat="38.179542" lon="30.861878">
        <ele>1258.000000</ele>
        <time>2010-05-04T13:09:55Z</time>
      </trkpt>
      <trkpt lat="38.179546" lon="30.861901">
        <ele>1258.000000</ele>
        <time>2010-05-04T13:09:57Z</time>
      </trkpt>
      <trkpt lat="38.179555" lon="30.861894">
        <ele>1259.000000</ele>
        <time>2010-05-04T13:10:09Z</time>
      </trkpt>
      <trkpt lat="38.179542" lon="30.861898">
        <ele>1258.000000</ele>
        <time>2010-05-04T13:10:11Z</time>
      </trkpt>
      <trkpt lat="38.179546" lon="30.861891">
        <ele>1260.000000</ele>
        <time>2010-05-04T13:10:12Z</time>
      </trkpt>
      <trkpt lat="38.179549" lon="30.861866">
        <ele>1260.000000</ele>
        <time>2010-05-04T13:10:13Z</time>
      </trkpt>
      <trkpt lat="38.179558" lon="30.861859">
        <ele>1261.000000</ele>
        <time>2010-05-04T13:10:14Z</time>
      </trkpt>
      <trkpt lat="38.179568" lon="30.861827">
        <ele>1261.000000</ele>
        <time>2010-05-04T13:10:16Z</time>
      </trkpt>
      <trkpt lat="38.179578" lon="30.861837">
        <ele>1259.000000</ele>
        <time>2010-05-04T13:10:20Z</time>
      </trkpt>
      <trkpt lat="38.179594" lon="30.861827">
        <ele>1260.000000</ele>
        <time>2010-05-04T13:10:21Z</time>
      </trkpt>
      <trkpt lat="38.179600" lon="30.861824">
        <ele>1259.000000</ele>
        <time>2010-05-04T13:10:22Z</time>
      </trkpt>
      <trkpt lat="38.179603" lon="30.861821">
        <ele>1261.000000</ele>
        <time>2010-05-04T13:10:23Z</time>
      </trkpt>
      <trkpt lat="38.179613" lon="30.861818">
        <ele>1261.000000</ele>
        <time>2010-05-04T13:10:24Z</time>
      </trkpt>
      <trkpt lat="38.179619" lon="30.861808">
        <ele>1259.000000</ele>
        <time>2010-05-04T13:10:25Z</time>
      </trkpt>
      <trkpt lat="38.179629" lon="30.861798">
        <ele>1259.000000</ele>
        <time>2010-05-04T13:10:26Z</time>
      </trkpt>
      <trkpt lat="38.179658" lon="30.861782">
        <ele>1260.000000</ele>
        <time>2010-05-04T13:10:27Z</time>
      </trkpt>
      <trkpt lat="38.179693" lon="30.861770">
        <ele>1260.000000</ele>
        <time>2010-05-04T13:10:29Z</time>
      </trkpt>
      <trkpt lat="38.179725" lon="30.861773">
        <ele>1260.000000</ele>
        <time>2010-05-04T13:10:31Z</time>
      </trkpt>
      <trkpt lat="38.179741" lon="30.861760">
        <ele>1261.000000</ele>
        <time>2010-05-04T13:10:32Z</time>
      </trkpt>
      <trkpt lat="38.179581" lon="30.861856">
        <ele>1262.000000</ele>
        <time>2010-05-04T13:10:45Z</time>
      </trkpt>
      <trkpt lat="38.179581" lon="30.861856">
        <ele>1262.000000</ele>
        <time>2010-05-04T13:10:46Z</time>
      </trkpt>
      <trkpt lat="38.179568" lon="30.861856">
        <ele>1262.000000</ele>
        <time>2010-05-04T13:10:47Z</time>
      </trkpt>
      <trkpt lat="38.179558" lon="30.861850">
        <ele>1263.000000</ele>
        <time>2010-05-04T13:10:48Z</time>
      </trkpt>
      <trkpt lat="38.179549" lon="30.861827">
        <ele>1264.000000</ele>
        <time>2010-05-04T13:10:52Z</time>
      </trkpt>
      <trkpt lat="38.179558" lon="30.861808">
        <ele>1263.000000</ele>
        <time>2010-05-04T13:10:54Z</time>
      </trkpt>
      <trkpt lat="38.179574" lon="30.861814">
        <ele>1263.000000</ele>
        <time>2010-05-04T13:10:55Z</time>
      </trkpt>
      <trkpt lat="38.179568" lon="30.861824">
        <ele>1262.000000</ele>
        <time>2010-05-04T13:10:57Z</time>
      </trkpt>
      <trkpt lat="38.179568" lon="30.861814">
        <ele>1262.000000</ele>
        <time>2010-05-04T13:11:00Z</time>
      </trkpt>
      <trkpt lat="38.179507" lon="30.861843">
        <ele>1265.000000</ele>
        <time>2010-05-04T13:11:04Z</time>
      </trkpt>
      <trkpt lat="38.179517" lon="30.861840">
        <ele>1264.000000</ele>
        <time>2010-05-04T13:11:06Z</time>
      </trkpt>
      <trkpt lat="38.179501" lon="30.861840">
        <ele>1263.000000</ele>
        <time>2010-05-04T13:11:08Z</time>
      </trkpt>
      <trkpt lat="38.179485" lon="30.861808">
        <ele>1265.000000</ele>
        <time>2010-05-04T13:11:30Z</time>
      </trkpt>
      <trkpt lat="38.179488" lon="30.861779">
        <ele>1264.000000</ele>
        <time>2010-05-04T13:12:05Z</time>
      </trkpt>
      <trkpt lat="38.179536" lon="30.861798">
        <ele>1263.000000</ele>
        <time>2010-05-04T13:12:20Z</time>
      </trkpt>
      <trkpt lat="38.179555" lon="30.861805">
        <ele>1265.000000</ele>
        <time>2010-05-04T13:12:22Z</time>
      </trkpt>
      <trkpt lat="38.179568" lon="30.861821">
        <ele>1264.000000</ele>
        <time>2010-05-04T13:12:25Z</time>
      </trkpt>
      <trkpt lat="38.179578" lon="30.861802">
        <ele>1264.000000</ele>
        <time>2010-05-04T13:12:33Z</time>
      </trkpt>
      <trkpt lat="38.179574" lon="30.861734">
        <ele>1265.000000</ele>
        <time>2010-05-04T13:12:42Z</time>
      </trkpt>
      <trkpt lat="38.179558" lon="30.861690">
        <ele>1264.000000</ele>
        <time>2010-05-04T13:12:54Z</time>
      </trkpt>
      <trkpt lat="38.179574" lon="30.861680">
        <ele>1265.000000</ele>
        <time>2010-05-04T13:13:13Z</time>
      </trkpt>
      <trkpt lat="38.179584" lon="30.861670">
        <ele>1264.000000</ele>
        <time>2010-05-04T13:13:20Z</time>
      </trkpt>
      <trkpt lat="38.179530" lon="30.861696">
        <ele>1265.000000</ele>
        <time>2010-05-04T13:14:27Z</time>
      </trkpt>
      <trkpt lat="38.179536" lon="30.861702">
        <ele>1263.000000</ele>
        <time>2010-05-04T13:14:29Z</time>
      </trkpt>
      <trkpt lat="38.179536" lon="30.861706">
        <ele>1264.000000</ele>
        <time>2010-05-04T13:14:31Z</time>
      </trkpt>
      <trkpt lat="38.179536" lon="30.861706">
        <ele>1265.000000</ele>
        <time>2010-05-04T13:14:55Z</time>
      </trkpt>
      <trkpt lat="38.179530" lon="30.861712">
        <ele>1264.000000</ele>
        <time>2010-05-04T13:14:57Z</time>
      </trkpt>
      <trkpt lat="38.179526" lon="30.861722">
        <ele>1263.000000</ele>
        <time>2010-05-04T13:14:59Z</time>
      </trkpt>
      <trkpt lat="38.179517" lon="30.861718">
        <ele>1266.000000</ele>
        <time>2010-05-04T13:15:00Z</time>
      </trkpt>
      <trkpt lat="38.179530" lon="30.861741">
        <ele>1264.000000</ele>
        <time>2010-05-04T13:15:02Z</time>
      </trkpt>
      <trkpt lat="38.179520" lon="30.861750">
        <ele>1265.000000</ele>
        <time>2010-05-04T13:15:04Z</time>
      </trkpt>
      <trkpt lat="38.179501" lon="30.861757">
        <ele>1266.000000</ele>
        <time>2010-05-04T13:15:05Z</time>
      </trkpt>
      <trkpt lat="38.179523" lon="30.861747">
        <ele>1264.000000</ele>
        <time>2010-05-04T13:15:07Z</time>
      </trkpt>
      <trkpt lat="38.179485" lon="30.861744">
        <ele>1263.000000</ele>
        <time>2010-05-04T13:15:12Z</time>
      </trkpt>
      <trkpt lat="38.179475" lon="30.861747">
        <ele>1264.000000</ele>
        <time>2010-05-04T13:15:13Z</time>
      </trkpt>
      <trkpt lat="38.179456" lon="30.861741">
        <ele>1262.000000</ele>
        <time>2010-05-04T13:15:15Z</time>
      </trkpt>
      <trkpt lat="38.179414" lon="30.861731">
        <ele>1263.000000</ele>
        <time>2010-05-04T13:15:18Z</time>
      </trkpt>
      <trkpt lat="38.179338" lon="30.861725">
        <ele>1264.000000</ele>
        <time>2010-05-04T13:15:25Z</time>
      </trkpt>
      <trkpt lat="38.179366" lon="30.861702">
        <ele>1262.000000</ele>
        <time>2010-05-04T13:15:47Z</time>
      </trkpt>
      <trkpt lat="38.179309" lon="30.861693">
        <ele>1263.000000</ele>
        <time>2010-05-04T13:15:52Z</time>
      </trkpt>
      <trkpt lat="38.179315" lon="30.861693">
        <ele>1263.000000</ele>
        <time>2010-05-04T13:15:59Z</time>
      </trkpt>
      <trkpt lat="38.179264" lon="30.861661">
        <ele>1262.000000</ele>
        <time>2010-05-04T13:16:02Z</time>
      </trkpt>
      <trkpt lat="38.179203" lon="30.861667">
        <ele>1263.000000</ele>
        <time>2010-05-04T13:16:12Z</time>
      </trkpt>
      <trkpt lat="38.179219" lon="30.861677">
        <ele>1264.000000</ele>
        <time>2010-05-04T13:16:14Z</time>
      </trkpt>
      <trkpt lat="38.179229" lon="30.861683">
        <ele>1261.000000</ele>
        <time>2010-05-04T13:16:15Z</time>
      </trkpt>
      <trkpt lat="38.179232" lon="30.861718">
        <ele>1263.000000</ele>
        <time>2010-05-04T13:16:21Z</time>
      </trkpt>
      <trkpt lat="38.179210" lon="30.861728">
        <ele>1262.000000</ele>
        <time>2010-05-04T13:16:24Z</time>
      </trkpt>
      <trkpt lat="38.179190" lon="30.861712">
        <ele>1262.000000</ele>
        <time>2010-05-04T13:16:25Z</time>
      </trkpt>
      <trkpt lat="38.179165" lon="30.861702">
        <ele>1263.000000</ele>
        <time>2010-05-04T13:16:26Z</time>
      </trkpt>
      <trkpt lat="38.179168" lon="30.861680">
        <ele>1262.000000</ele>
        <time>2010-05-04T13:16:37Z</time>
      </trkpt>
      <trkpt lat="38.179142" lon="30.861686">
        <ele>1264.000000</ele>
        <time>2010-05-04T13:16:40Z</time>
      </trkpt>
      <trkpt lat="38.179203" lon="30.861683">
        <ele>1263.000000</ele>
        <time>2010-05-04T13:16:44Z</time>
      </trkpt>
      <trkpt lat="38.179210" lon="30.861702">
        <ele>1263.000000</ele>
        <time>2010-05-04T13:16:53Z</time>
      </trkpt>
      <trkpt lat="38.179229" lon="30.861677">
        <ele>1264.000000</ele>
        <time>2010-05-04T13:17:01Z</time>
      </trkpt>
      <trkpt lat="38.179232" lon="30.861674">
        <ele>1264.000000</ele>
        <time>2010-05-04T13:17:02Z</time>
      </trkpt>
      <trkpt lat="38.179232" lon="30.861667">
        <ele>1263.000000</ele>
        <time>2010-05-04T13:17:03Z</time>
      </trkpt>
      <trkpt lat="38.179238" lon="30.861667">
        <ele>1264.000000</ele>
        <time>2010-05-04T13:17:04Z</time>
      </trkpt>
      <trkpt lat="38.179242" lon="30.861664">
        <ele>1265.000000</ele>
        <time>2010-05-04T13:17:05Z</time>
      </trkpt>
      <trkpt lat="38.179219" lon="30.861690">
        <ele>1266.000000</ele>
        <time>2010-05-04T13:17:37Z</time>
      </trkpt>
      <trkpt lat="38.179232" lon="30.861645">
        <ele>1267.000000</ele>
        <time>2010-05-04T13:17:44Z</time>
      </trkpt>
      <trkpt lat="38.179238" lon="30.861622">
        <ele>1266.000000</ele>
        <time>2010-05-04T13:17:46Z</time>
      </trkpt>
      <trkpt lat="38.179251" lon="30.861587">
        <ele>1268.000000</ele>
        <time>2010-05-04T13:17:48Z</time>
      </trkpt>
      <trkpt lat="38.179258" lon="30.861578">
        <ele>1268.000000</ele>
        <time>2010-05-04T13:17:50Z</time>
      </trkpt>
      <trkpt lat="38.179242" lon="30.861571">
        <ele>1269.000000</ele>
        <time>2010-05-04T13:18:12Z</time>
      </trkpt>
      <trkpt lat="38.179242" lon="30.861562">
        <ele>1268.000000</ele>
        <time>2010-05-04T13:18:14Z</time>
      </trkpt>
      <trkpt lat="38.179242" lon="30.861562">
        <ele>1270.000000</ele>
        <time>2010-05-04T13:18:30Z</time>
      </trkpt>
      <trkpt lat="38.179251" lon="30.861520">
        <ele>1269.000000</ele>
        <time>2010-05-04T13:18:38Z</time>
      </trkpt>
      <trkpt lat="38.179238" lon="30.861530">
        <ele>1270.000000</ele>
        <time>2010-05-04T13:18:41Z</time>
      </trkpt>
      <trkpt lat="38.179232" lon="30.861520">
        <ele>1270.000000</ele>
        <time>2010-05-04T13:18:42Z</time>
      </trkpt>
      <trkpt lat="38.179216" lon="30.861488">
        <ele>1271.000000</ele>
        <time>2010-05-04T13:18:45Z</time>
      </trkpt>
      <trkpt lat="38.179226" lon="30.861491">
        <ele>1270.000000</ele>
        <time>2010-05-04T13:18:52Z</time>
      </trkpt>
      <trkpt lat="38.179226" lon="30.861488">
        <ele>1272.000000</ele>
        <time>2010-05-04T13:18:54Z</time>
      </trkpt>
      <trkpt lat="38.179216" lon="30.861494">
        <ele>1271.000000</ele>
        <time>2010-05-04T13:18:58Z</time>
      </trkpt>
      <trkpt lat="38.179206" lon="30.861504">
        <ele>1272.000000</ele>
        <time>2010-05-04T13:18:59Z</time>
      </trkpt>
      <trkpt lat="38.179206" lon="30.861488">
        <ele>1272.000000</ele>
        <time>2010-05-04T13:19:03Z</time>
      </trkpt>
      <trkpt lat="38.179216" lon="30.861482">
        <ele>1273.000000</ele>
        <time>2010-05-04T13:19:04Z</time>
      </trkpt>
      <trkpt lat="38.179219" lon="30.861472">
        <ele>1273.000000</ele>
        <time>2010-05-04T13:19:05Z</time>
      </trkpt>
      <trkpt lat="38.179222" lon="30.861462">
        <ele>1273.000000</ele>
        <time>2010-05-04T13:19:06Z</time>
      </trkpt>
      <trkpt lat="38.179222" lon="30.861459">
        <ele>1272.000000</ele>
        <time>2010-05-04T13:19:07Z</time>
      </trkpt>
      <trkpt lat="38.179226" lon="30.861462">
        <ele>1272.000000</ele>
        <time>2010-05-04T13:19:08Z</time>
      </trkpt>
      <trkpt lat="38.179226" lon="30.861462">
        <ele>1272.000000</ele>
        <time>2010-05-04T13:19:09Z</time>
      </trkpt>
      <trkpt lat="38.179203" lon="30.861453">
        <ele>1272.000000</ele>
        <time>2010-05-04T13:19:11Z</time>
      </trkpt>
      <trkpt lat="38.179171" lon="30.861485">
        <ele>1273.000000</ele>
        <time>2010-05-04T13:19:13Z</time>
      </trkpt>
      <trkpt lat="38.179165" lon="30.861491">
        <ele>1273.000000</ele>
        <time>2010-05-04T13:19:14Z</time>
      </trkpt>
      <trkpt lat="38.179158" lon="30.861469">
        <ele>1273.000000</ele>
        <time>2010-05-04T13:19:20Z</time>
      </trkpt>
      <trkpt lat="38.179181" lon="30.861443">
        <ele>1275.000000</ele>
        <time>2010-05-04T13:19:22Z</time>
      </trkpt>
      <trkpt lat="38.179203" lon="30.861498">
        <ele>1275.000000</ele>
        <time>2010-05-04T13:19:26Z</time>
      </trkpt>
      <trkpt lat="38.179203" lon="30.861491">
        <ele>1275.000000</ele>
        <time>2010-05-04T13:19:27Z</time>
      </trkpt>
      <trkpt lat="38.179187" lon="30.861514">
        <ele>1275.000000</ele>
        <time>2010-05-04T13:19:29Z</time>
      </trkpt>
      <trkpt lat="38.179142" lon="30.861562">
        <ele>1275.000000</ele>
        <time>2010-05-04T13:19:32Z</time>
      </trkpt>
      <trkpt lat="38.179142" lon="30.861562">
        <ele>1274.000000</ele>
        <time>2010-05-04T13:19:33Z</time>
      </trkpt>
      <trkpt lat="38.179149" lon="30.861549">
        <ele>1275.000000</ele>
        <time>2010-05-04T13:19:34Z</time>
      </trkpt>
      <trkpt lat="38.179165" lon="30.861507">
        <ele>1276.000000</ele>
        <time>2010-05-04T13:19:40Z</time>
      </trkpt>
      <trkpt lat="38.179168" lon="30.861501">
        <ele>1275.000000</ele>
        <time>2010-05-04T13:19:41Z</time>
      </trkpt>
      <trkpt lat="38.179181" lon="30.861482">
        <ele>1277.000000</ele>
        <time>2010-05-04T13:19:43Z</time>
      </trkpt>
      <trkpt lat="38.179187" lon="30.861469">
        <ele>1277.000000</ele>
        <time>2010-05-04T13:19:45Z</time>
      </trkpt>
      <trkpt lat="38.179190" lon="30.861498">
        <ele>1276.000000</ele>
        <time>2010-05-04T13:19:48Z</time>
      </trkpt>
      <trkpt lat="38.179181" lon="30.861507">
        <ele>1276.000000</ele>
        <time>2010-05-04T13:19:53Z</time>
      </trkpt>
      <trkpt lat="38.179206" lon="30.861488">
        <ele>1276.000000</ele>
        <time>2010-05-04T13:19:54Z</time>
      </trkpt>
      <trkpt lat="38.179222" lon="30.861472">
        <ele>1277.000000</ele>
        <time>2010-05-04T13:19:55Z</time>
      </trkpt>
      <trkpt lat="38.179232" lon="30.861469">
        <ele>1278.000000</ele>
        <time>2010-05-04T13:19:56Z</time>
      </trkpt>
      <trkpt lat="38.179200" lon="30.861542">
        <ele>1276.000000</ele>
        <time>2010-05-04T13:20:02Z</time>
      </trkpt>
      <trkpt lat="38.179190" lon="30.861552">
        <ele>1276.000000</ele>
        <time>2010-05-04T13:20:03Z</time>
      </trkpt>
      <trkpt lat="38.179206" lon="30.861549">
        <ele>1277.000000</ele>
        <time>2010-05-04T13:20:04Z</time>
      </trkpt>
      <trkpt lat="38.179219" lon="30.861555">
        <ele>1278.000000</ele>
        <time>2010-05-04T13:20:05Z</time>
      </trkpt>
      <trkpt lat="38.179232" lon="30.861565">
        <ele>1278.000000</ele>
        <time>2010-05-04T13:20:07Z</time>
      </trkpt>
      <trkpt lat="38.179245" lon="30.861562">
        <ele>1277.000000</ele>
        <time>2010-05-04T13:20:08Z</time>
      </trkpt>
      <trkpt lat="38.179267" lon="30.861565">
        <ele>1277.000000</ele>
        <time>2010-05-04T13:20:09Z</time>
      </trkpt>
      <trkpt lat="38.179280" lon="30.861562">
        <ele>1277.000000</ele>
        <time>2010-05-04T13:20:10Z</time>
      </trkpt>
      <trkpt lat="38.179296" lon="30.861574">
        <ele>1278.000000</ele>
        <time>2010-05-04T13:20:11Z</time>
      </trkpt>
      <trkpt lat="38.179299" lon="30.861568">
        <ele>1279.000000</ele>
        <time>2010-05-04T13:20:12Z</time>
      </trkpt>
      <trkpt lat="38.179309" lon="30.861574">
        <ele>1279.000000</ele>
        <time>2010-05-04T13:20:15Z</time>
      </trkpt>
      <trkpt lat="38.179258" lon="30.861629">
        <ele>1279.000000</ele>
        <time>2010-05-04T13:20:19Z</time>
      </trkpt>
      <trkpt lat="38.179232" lon="30.861626">
        <ele>1277.000000</ele>
        <time>2010-05-04T13:20:25Z</time>
      </trkpt>
      <trkpt lat="38.179229" lon="30.861619">
        <ele>1277.000000</ele>
        <time>2010-05-04T13:20:26Z</time>
      </trkpt>
      <trkpt lat="38.179222" lon="30.861594">
        <ele>1277.000000</ele>
        <time>2010-05-04T13:20:30Z</time>
      </trkpt>
      <trkpt lat="38.179190" lon="30.861648">
        <ele>1277.000000</ele>
        <time>2010-05-04T13:20:42Z</time>
      </trkpt>
      <trkpt lat="38.179203" lon="30.861642">
        <ele>1277.000000</ele>
        <time>2010-05-04T13:20:43Z</time>
      </trkpt>
      <trkpt lat="38.179216" lon="30.861638">
        <ele>1277.000000</ele>
        <time>2010-05-04T13:20:45Z</time>
      </trkpt>
      <trkpt lat="38.179232" lon="30.861616">
        <ele>1278.000000</ele>
        <time>2010-05-04T13:20:48Z</time>
      </trkpt>
      <trkpt lat="38.179261" lon="30.861581">
        <ele>1277.000000</ele>
        <time>2010-05-04T13:20:53Z</time>
      </trkpt>
      <trkpt lat="38.179258" lon="30.861578">
        <ele>1278.000000</ele>
        <time>2010-05-04T13:20:54Z</time>
      </trkpt>
      <trkpt lat="38.179258" lon="30.861574">
        <ele>1277.000000</ele>
        <time>2010-05-04T13:20:56Z</time>
      </trkpt>
      <trkpt lat="38.179267" lon="30.861590">
        <ele>1278.000000</ele>
        <time>2010-05-04T13:21:00Z</time>
      </trkpt>
      <trkpt lat="38.179286" lon="30.861587">
        <ele>1278.000000</ele>
        <time>2010-05-04T13:21:03Z</time>
      </trkpt>
      <trkpt lat="38.179299" lon="30.861584">
        <ele>1278.000000</ele>
        <time>2010-05-04T13:21:04Z</time>
      </trkpt>
      <trkpt lat="38.179270" lon="30.861581">
        <ele>1277.000000</ele>
        <time>2010-05-04T13:21:05Z</time>
      </trkpt>
      <trkpt lat="38.179270" lon="30.861549">
        <ele>1278.000000</ele>
        <time>2010-05-04T13:21:11Z</time>
      </trkpt>
      <trkpt lat="38.179245" lon="30.861523">
        <ele>1277.000000</ele>
        <time>2010-05-04T13:21:15Z</time>
      </trkpt>
      <trkpt lat="38.179248" lon="30.861498">
        <ele>1277.000000</ele>
        <time>2010-05-04T13:21:17Z</time>
      </trkpt>
      <trkpt lat="38.179216" lon="30.861530">
        <ele>1278.000000</ele>
        <time>2010-05-04T13:21:21Z</time>
      </trkpt>
      <trkpt lat="38.179219" lon="30.861539">
        <ele>1279.000000</ele>
        <time>2010-05-04T13:21:24Z</time>
      </trkpt>
      <trkpt lat="38.179222" lon="30.861568">
        <ele>1278.000000</ele>
        <time>2010-05-04T13:21:33Z</time>
      </trkpt>
      <trkpt lat="38.179242" lon="30.861571">
        <ele>1277.000000</ele>
        <time>2010-05-04T13:21:35Z</time>
      </trkpt>
      <trkpt lat="38.179242" lon="30.861571">
        <ele>1279.000000</ele>
        <time>2010-05-04T13:21:36Z</time>
      </trkpt>
      <trkpt lat="38.179242" lon="30.861578">
        <ele>1279.000000</ele>
        <time>2010-05-04T13:21:38Z</time>
      </trkpt>
      <trkpt lat="38.179232" lon="30.861587">
        <ele>1278.000000</ele>
        <time>2010-05-04T13:21:39Z</time>
      </trkpt>
      <trkpt lat="38.179210" lon="30.861590">
        <ele>1281.000000</ele>
        <time>2010-05-04T13:21:42Z</time>
      </trkpt>
      <trkpt lat="38.179210" lon="30.861610">
        <ele>1281.000000</ele>
        <time>2010-05-04T13:21:43Z</time>
      </trkpt>
      <trkpt lat="38.179210" lon="30.861619">
        <ele>1281.000000</ele>
        <time>2010-05-04T13:21:44Z</time>
      </trkpt>
      <trkpt lat="38.179203" lon="30.861699">
        <ele>1280.000000</ele>
        <time>2010-05-04T13:21:50Z</time>
      </trkpt>
      <trkpt lat="38.179251" lon="30.861680">
        <ele>1280.000000</ele>
        <time>2010-05-04T13:22:20Z</time>
      </trkpt>
      <trkpt lat="38.179232" lon="30.861670">
        <ele>1282.000000</ele>
        <time>2010-05-04T13:23:13Z</time>
      </trkpt>
      <trkpt lat="38.179226" lon="30.861667">
        <ele>1282.000000</ele>
        <time>2010-05-04T13:23:14Z</time>
      </trkpt>
      <trkpt lat="38.179222" lon="30.861667">
        <ele>1282.000000</ele>
        <time>2010-05-04T13:23:15Z</time>
      </trkpt>
      <trkpt lat="38.179216" lon="30.861670">
        <ele>1283.000000</ele>
        <time>2010-05-04T13:23:16Z</time>
      </trkpt>
      <trkpt lat="38.179210" lon="30.861677">
        <ele>1283.000000</ele>
        <time>2010-05-04T13:23:17Z</time>
      </trkpt>
      <trkpt lat="38.179203" lon="30.861683">
        <ele>1281.000000</ele>
        <time>2010-05-04T13:23:18Z</time>
      </trkpt>
      <trkpt lat="38.179200" lon="30.861690">
        <ele>1283.000000</ele>
        <time>2010-05-04T13:23:19Z</time>
      </trkpt>
      <trkpt lat="38.179190" lon="30.861690">
        <ele>1283.000000</ele>
        <time>2010-05-04T13:23:20Z</time>
      </trkpt>
      <trkpt lat="38.179184" lon="30.861696">
        <ele>1284.000000</ele>
        <time>2010-05-04T13:23:21Z</time>
      </trkpt>
      <trkpt lat="38.179181" lon="30.861683">
        <ele>1284.000000</ele>
        <time>2010-05-04T13:23:23Z</time>
      </trkpt>
      <trkpt lat="38.179168" lon="30.861651">
        <ele>1285.000000</ele>
        <time>2010-05-04T13:23:27Z</time>
      </trkpt>
      <trkpt lat="38.179149" lon="30.861629">
        <ele>1285.000000</ele>
        <time>2010-05-04T13:23:33Z</time>
      </trkpt>
      <trkpt lat="38.179117" lon="30.861606">
        <ele>1285.000000</ele>
        <time>2010-05-04T13:23:41Z</time>
      </trkpt>
      <trkpt lat="38.179091" lon="30.861562">
        <ele>1286.000000</ele>
        <time>2010-05-04T13:23:52Z</time>
      </trkpt>
      <trkpt lat="38.179034" lon="30.861542">
        <ele>1282.000000</ele>
        <time>2010-05-04T13:24:46Z</time>
      </trkpt>
      <trkpt lat="38.179040" lon="30.861546">
        <ele>1284.000000</ele>
        <time>2010-05-04T13:26:03Z</time>
      </trkpt>
      <trkpt lat="38.179043" lon="30.861549">
        <ele>1282.000000</ele>
        <time>2010-05-04T13:26:27Z</time>
      </trkpt>
      <trkpt lat="38.179008" lon="30.861520">
        <ele>1286.000000</ele>
        <time>2010-05-04T13:27:23Z</time>
      </trkpt>
      <trkpt lat="38.178992" lon="30.861507">
        <ele>1286.000000</ele>
        <time>2010-05-04T13:27:24Z</time>
      </trkpt>
      <trkpt lat="38.178947" lon="30.861491">
        <ele>1286.000000</ele>
        <time>2010-05-04T13:27:26Z</time>
      </trkpt>
      <trkpt lat="38.178883" lon="30.861443">
        <ele>1286.000000</ele>
        <time>2010-05-04T13:27:28Z</time>
      </trkpt>
      <trkpt lat="38.178829" lon="30.861434">
        <ele>1286.000000</ele>
        <time>2010-05-04T13:27:29Z</time>
      </trkpt>
      <trkpt lat="38.178416" lon="30.861270">
        <ele>1288.000000</ele>
        <time>2010-05-04T13:27:43Z</time>
      </trkpt>
      <trkpt lat="38.178355" lon="30.861213">
        <ele>1289.000000</ele>
        <time>2010-05-04T13:27:46Z</time>
      </trkpt>
      <trkpt lat="38.178266" lon="30.861190">
        <ele>1288.000000</ele>
        <time>2010-05-04T13:28:22Z</time>
      </trkpt>
      <trkpt lat="38.178266" lon="30.861194">
        <ele>1288.000000</ele>
        <time>2010-05-04T13:28:23Z</time>
      </trkpt>
      <trkpt lat="38.178269" lon="30.861200">
        <ele>1287.000000</ele>
        <time>2010-05-04T13:28:39Z</time>
      </trkpt>
      <trkpt lat="38.178269" lon="30.861200">
        <ele>1289.000000</ele>
        <time>2010-05-04T13:29:10Z</time>
      </trkpt>
      <trkpt lat="38.178272" lon="30.861203">
        <ele>1288.000000</ele>
        <time>2010-05-04T13:29:11Z</time>
      </trkpt>
      <trkpt lat="38.178272" lon="30.861203">
        <ele>1287.000000</ele>
        <time>2010-05-04T13:29:12Z</time>
      </trkpt>
      <trkpt lat="38.178243" lon="30.861184">
        <ele>1288.000000</ele>
        <time>2010-05-04T13:29:16Z</time>
      </trkpt>
      <trkpt lat="38.178198" lon="30.861149">
        <ele>1289.000000</ele>
        <time>2010-05-04T13:29:19Z</time>
      </trkpt>
      <trkpt lat="38.178080" lon="30.861082">
        <ele>1289.000000</ele>
        <time>2010-05-04T13:29:26Z</time>
      </trkpt>
      <trkpt lat="38.178029" lon="30.861053">
        <ele>1286.000000</ele>
        <time>2010-05-04T13:29:29Z</time>
      </trkpt>
      <trkpt lat="38.178016" lon="30.861037">
        <ele>1289.000000</ele>
        <time>2010-05-04T13:29:30Z</time>
      </trkpt>
      <trkpt lat="38.177901" lon="30.861011">
        <ele>1288.000000</ele>
        <time>2010-05-04T13:29:41Z</time>
      </trkpt>
      <trkpt lat="38.177834" lon="30.860966">
        <ele>1289.000000</ele>
        <time>2010-05-04T13:30:56Z</time>
      </trkpt>
      <trkpt lat="38.177834" lon="30.860973">
        <ele>1291.000000</ele>
        <time>2010-05-04T13:31:15Z</time>
      </trkpt>
      <trkpt lat="38.177837" lon="30.860976">
        <ele>1292.000000</ele>
        <time>2010-05-04T13:31:16Z</time>
      </trkpt>
      <trkpt lat="38.177840" lon="30.860976">
        <ele>1292.000000</ele>
        <time>2010-05-04T13:31:17Z</time>
      </trkpt>
      <trkpt lat="38.177840" lon="30.860970">
        <ele>1292.000000</ele>
        <time>2010-05-04T13:31:18Z</time>
      </trkpt>
      <trkpt lat="38.177834" lon="30.860944">
        <ele>1292.000000</ele>
        <time>2010-05-04T13:31:20Z</time>
      </trkpt>
      <trkpt lat="38.177830" lon="30.860938">
        <ele>1293.000000</ele>
        <time>2010-05-04T13:31:21Z</time>
      </trkpt>
      <trkpt lat="38.177821" lon="30.860918">
        <ele>1291.000000</ele>
        <time>2010-05-04T13:31:23Z</time>
      </trkpt>
      <trkpt lat="38.177802" lon="30.860886">
        <ele>1293.000000</ele>
        <time>2010-05-04T13:31:25Z</time>
      </trkpt>
      <trkpt lat="38.177789" lon="30.860874">
        <ele>1293.000000</ele>
        <time>2010-05-04T13:31:27Z</time>
      </trkpt>
      <trkpt lat="38.177766" lon="30.860835">
        <ele>1292.000000</ele>
        <time>2010-05-04T13:31:29Z</time>
      </trkpt>
      <trkpt lat="38.177754" lon="30.860803">
        <ele>1292.000000</ele>
        <time>2010-05-04T13:31:32Z</time>
      </trkpt>
      <trkpt lat="38.177747" lon="30.860787">
        <ele>1292.000000</ele>
        <time>2010-05-04T13:31:36Z</time>
      </trkpt>
      <trkpt lat="38.177731" lon="30.860794">
        <ele>1290.000000</ele>
        <time>2010-05-04T13:31:40Z</time>
      </trkpt>
      <trkpt lat="38.177683" lon="30.860771">
        <ele>1290.000000</ele>
        <time>2010-05-04T13:31:48Z</time>
      </trkpt>
      <trkpt lat="38.177629" lon="30.860800">
        <ele>1289.000000</ele>
        <time>2010-05-04T13:31:59Z</time>
      </trkpt>
      <trkpt lat="38.177594" lon="30.860816">
        <ele>1292.000000</ele>
        <time>2010-05-04T13:32:04Z</time>
      </trkpt>
      <trkpt lat="38.177571" lon="30.860829">
        <ele>1292.000000</ele>
        <time>2010-05-04T13:32:08Z</time>
      </trkpt>
      <trkpt lat="38.177552" lon="30.860794">
        <ele>1295.000000</ele>
        <time>2010-05-04T13:32:36Z</time>
      </trkpt>
      <trkpt lat="38.177552" lon="30.860800">
        <ele>1295.000000</ele>
        <time>2010-05-04T13:32:37Z</time>
      </trkpt>
      <trkpt lat="38.177552" lon="30.860800">
        <ele>1296.000000</ele>
        <time>2010-05-04T13:32:38Z</time>
      </trkpt>
      <trkpt lat="38.177552" lon="30.860806">
        <ele>1294.000000</ele>
        <time>2010-05-04T13:32:39Z</time>
      </trkpt>
      <trkpt lat="38.177542" lon="30.860816">
        <ele>1294.000000</ele>
        <time>2010-05-04T13:32:41Z</time>
      </trkpt>
      <trkpt lat="38.177539" lon="30.860816">
        <ele>1295.000000</ele>
        <time>2010-05-04T13:32:43Z</time>
      </trkpt>
      <trkpt lat="38.177510" lon="30.860768">
        <ele>1294.000000</ele>
        <time>2010-05-04T13:32:50Z</time>
      </trkpt>
      <trkpt lat="38.177494" lon="30.860736">
        <ele>1293.000000</ele>
        <time>2010-05-04T13:32:52Z</time>
      </trkpt>
      <trkpt lat="38.177491" lon="30.860723">
        <ele>1295.000000</ele>
        <time>2010-05-04T13:32:54Z</time>
      </trkpt>
      <trkpt lat="38.177482" lon="30.860717">
        <ele>1294.000000</ele>
        <time>2010-05-04T13:32:56Z</time>
      </trkpt>
      <trkpt lat="38.177488" lon="30.860704">
        <ele>1295.000000</ele>
        <time>2010-05-04T13:32:58Z</time>
      </trkpt>
      <trkpt lat="38.177488" lon="30.860701">
        <ele>1295.000000</ele>
        <time>2010-05-04T13:33:00Z</time>
      </trkpt>
      <trkpt lat="38.177488" lon="30.860694">
        <ele>1294.000000</ele>
        <time>2010-05-04T13:33:02Z</time>
      </trkpt>
      <trkpt lat="38.177456" lon="30.860688">
        <ele>1295.000000</ele>
        <time>2010-05-04T13:33:06Z</time>
      </trkpt>
      <trkpt lat="38.177453" lon="30.860698">
        <ele>1292.000000</ele>
        <time>2010-05-04T13:34:29Z</time>
      </trkpt>
      <trkpt lat="38.177459" lon="30.860698">
        <ele>1292.000000</ele>
        <time>2010-05-04T13:34:30Z</time>
      </trkpt>
      <trkpt lat="38.177469" lon="30.860720">
        <ele>1293.000000</ele>
        <time>2010-05-04T13:34:40Z</time>
      </trkpt>
      <trkpt lat="38.177437" lon="30.860730">
        <ele>1292.000000</ele>
        <time>2010-05-04T13:34:42Z</time>
      </trkpt>
      <trkpt lat="38.177421" lon="30.860739">
        <ele>1293.000000</ele>
        <time>2010-05-04T13:34:43Z</time>
      </trkpt>
      <trkpt lat="38.177392" lon="30.860752">
        <ele>1291.000000</ele>
        <time>2010-05-04T13:34:45Z</time>
      </trkpt>
      <trkpt lat="38.177354" lon="30.860755">
        <ele>1292.000000</ele>
        <time>2010-05-04T13:34:47Z</time>
      </trkpt>
      <trkpt lat="38.177264" lon="30.860749">
        <ele>1292.000000</ele>
        <time>2010-05-04T13:34:55Z</time>
      </trkpt>
      <trkpt lat="38.177270" lon="30.860707">
        <ele>1285.000000</ele>
        <time>2010-05-04T13:35:36Z</time>
      </trkpt>
      <trkpt lat="38.177251" lon="30.860688">
        <ele>1284.000000</ele>
        <time>2010-05-04T13:35:39Z</time>
      </trkpt>
      <trkpt lat="38.177242" lon="30.860672">
        <ele>1284.000000</ele>
        <time>2010-05-04T13:35:40Z</time>
      </trkpt>
      <trkpt lat="38.177232" lon="30.860650">
        <ele>1284.000000</ele>
        <time>2010-05-04T13:35:41Z</time>
      </trkpt>
      <trkpt lat="38.177213" lon="30.860592">
        <ele>1283.000000</ele>
        <time>2010-05-04T13:35:44Z</time>
      </trkpt>
      <trkpt lat="38.177162" lon="30.860426">
        <ele>1284.000000</ele>
        <time>2010-05-04T13:35:53Z</time>
      </trkpt>
      <trkpt lat="38.177146" lon="30.860419">
        <ele>1284.000000</ele>
        <time>2010-05-04T13:35:56Z</time>
      </trkpt>
      <trkpt lat="38.177139" lon="30.860410">
        <ele>1284.000000</ele>
        <time>2010-05-04T13:35:57Z</time>
      </trkpt>
      <trkpt lat="38.177136" lon="30.860403">
        <ele>1283.000000</ele>
        <time>2010-05-04T13:35:58Z</time>
      </trkpt>
      <trkpt lat="38.177139" lon="30.860400">
        <ele>1284.000000</ele>
        <time>2010-05-04T13:35:59Z</time>
      </trkpt>
      <trkpt lat="38.177133" lon="30.860387">
        <ele>1285.000000</ele>
        <time>2010-05-04T13:36:01Z</time>
      </trkpt>
      <trkpt lat="38.177136" lon="30.860371">
        <ele>1284.000000</ele>
        <time>2010-05-04T13:36:03Z</time>
      </trkpt>
      <trkpt lat="38.177136" lon="30.860358">
        <ele>1283.000000</ele>
        <time>2010-05-04T13:36:05Z</time>
      </trkpt>
      <trkpt lat="38.177120" lon="30.860294">
        <ele>1283.000000</ele>
        <time>2010-05-04T13:37:38Z</time>
      </trkpt>
      <trkpt lat="38.177123" lon="30.860294">
        <ele>1284.000000</ele>
        <time>2010-05-04T13:37:41Z</time>
      </trkpt>
      <trkpt lat="38.177091" lon="30.860301">
        <ele>1283.000000</ele>
        <time>2010-05-04T13:38:33Z</time>
      </trkpt>
      <trkpt lat="38.177120" lon="30.860291">
        <ele>1284.000000</ele>
        <time>2010-05-04T13:38:36Z</time>
      </trkpt>
      <trkpt lat="38.177126" lon="30.860282">
        <ele>1284.000000</ele>
        <time>2010-05-04T13:38:37Z</time>
      </trkpt>
      <trkpt lat="38.177091" lon="30.860288">
        <ele>1283.000000</ele>
        <time>2010-05-04T13:38:57Z</time>
      </trkpt>
      <trkpt lat="38.177091" lon="30.860278">
        <ele>1284.000000</ele>
        <time>2010-05-04T13:38:59Z</time>
      </trkpt>
      <trkpt lat="38.177085" lon="30.860272">
        <ele>1283.000000</ele>
        <time>2010-05-04T13:39:01Z</time>
      </trkpt>
      <trkpt lat="38.177078" lon="30.860278">
        <ele>1282.000000</ele>
        <time>2010-05-04T13:39:03Z</time>
      </trkpt>
      <trkpt lat="38.177066" lon="30.860269">
        <ele>1283.000000</ele>
        <time>2010-05-04T13:39:05Z</time>
      </trkpt>
      <trkpt lat="38.177043" lon="30.860269">
        <ele>1284.000000</ele>
        <time>2010-05-04T13:39:07Z</time>
      </trkpt>
      <trkpt lat="38.177018" lon="30.860262">
        <ele>1285.000000</ele>
        <time>2010-05-04T13:39:09Z</time>
      </trkpt>
      <trkpt lat="38.176986" lon="30.860259">
        <ele>1283.000000</ele>
        <time>2010-05-04T13:39:11Z</time>
      </trkpt>
      <trkpt lat="38.176973" lon="30.860250">
        <ele>1283.000000</ele>
        <time>2010-05-04T13:39:12Z</time>
      </trkpt>
      <trkpt lat="38.176963" lon="30.860240">
        <ele>1283.000000</ele>
        <time>2010-05-04T13:39:13Z</time>
      </trkpt>
      <trkpt lat="38.176944" lon="30.860221">
        <ele>1284.000000</ele>
        <time>2010-05-04T13:39:15Z</time>
      </trkpt>
      <trkpt lat="38.176960" lon="30.860189">
        <ele>1284.000000</ele>
        <time>2010-05-04T13:39:19Z</time>
      </trkpt>
      <trkpt lat="38.176973" lon="30.860186">
        <ele>1284.000000</ele>
        <time>2010-05-04T13:39:23Z</time>
      </trkpt>
      <trkpt lat="38.176973" lon="30.860144">
        <ele>1284.000000</ele>
        <time>2010-05-04T13:39:26Z</time>
      </trkpt>
      <trkpt lat="38.176957" lon="30.860131">
        <ele>1283.000000</ele>
        <time>2010-05-04T13:39:29Z</time>
      </trkpt>
      <trkpt lat="38.176918" lon="30.860109">
        <ele>1282.000000</ele>
        <time>2010-05-04T13:39:35Z</time>
      </trkpt>
      <trkpt lat="38.176880" lon="30.860074">
        <ele>1281.000000</ele>
        <time>2010-05-04T13:39:42Z</time>
      </trkpt>
      <trkpt lat="38.176861" lon="30.860064">
        <ele>1281.000000</ele>
        <time>2010-05-04T13:39:44Z</time>
      </trkpt>
      <trkpt lat="38.176813" lon="30.860032">
        <ele>1279.000000</ele>
        <time>2010-05-04T13:39:49Z</time>
      </trkpt>
      <trkpt lat="38.176787" lon="30.860026">
        <ele>1280.000000</ele>
        <time>2010-05-04T13:39:51Z</time>
      </trkpt>
      <trkpt lat="38.176758" lon="30.859974">
        <ele>1279.000000</ele>
        <time>2010-05-04T13:39:57Z</time>
      </trkpt>
      <trkpt lat="38.176742" lon="30.859939">
        <ele>1278.000000</ele>
        <time>2010-05-04T13:40:00Z</time>
      </trkpt>
      <trkpt lat="38.176723" lon="30.859926">
        <ele>1276.000000</ele>
        <time>2010-05-04T13:40:02Z</time>
      </trkpt>
      <trkpt lat="38.176730" lon="30.859920">
        <ele>1278.000000</ele>
        <time>2010-05-04T13:40:03Z</time>
      </trkpt>
      <trkpt lat="38.176726" lon="30.859910">
        <ele>1276.000000</ele>
        <time>2010-05-04T13:40:04Z</time>
      </trkpt>
      <trkpt lat="38.176698" lon="30.859862">
        <ele>1277.000000</ele>
        <time>2010-05-04T13:40:09Z</time>
      </trkpt>
      <trkpt lat="38.176688" lon="30.859856">
        <ele>1277.000000</ele>
        <time>2010-05-04T13:40:10Z</time>
      </trkpt>
      <trkpt lat="38.176682" lon="30.859850">
        <ele>1275.000000</ele>
        <time>2010-05-04T13:40:11Z</time>
      </trkpt>
      <trkpt lat="38.176630" lon="30.859840">
        <ele>1275.000000</ele>
        <time>2010-05-04T13:40:16Z</time>
      </trkpt>
      <trkpt lat="38.176627" lon="30.859827">
        <ele>1274.000000</ele>
        <time>2010-05-04T13:40:17Z</time>
      </trkpt>
      <trkpt lat="38.176586" lon="30.859818">
        <ele>1274.000000</ele>
        <time>2010-05-04T13:40:21Z</time>
      </trkpt>
      <trkpt lat="38.176566" lon="30.859818">
        <ele>1273.000000</ele>
        <time>2010-05-04T13:40:22Z</time>
      </trkpt>
      <trkpt lat="38.176550" lon="30.859811">
        <ele>1274.000000</ele>
        <time>2010-05-04T13:40:23Z</time>
      </trkpt>
      <trkpt lat="38.176544" lon="30.859808">
        <ele>1274.000000</ele>
        <time>2010-05-04T13:40:24Z</time>
      </trkpt>
      <trkpt lat="38.176531" lon="30.859798">
        <ele>1273.000000</ele>
        <time>2010-05-04T13:40:25Z</time>
      </trkpt>
      <trkpt lat="38.176518" lon="30.859792">
        <ele>1274.000000</ele>
        <time>2010-05-04T13:40:26Z</time>
      </trkpt>
      <trkpt lat="38.176502" lon="30.859798">
        <ele>1272.000000</ele>
        <time>2010-05-04T13:40:28Z</time>
      </trkpt>
      <trkpt lat="38.176470" lon="30.859773">
        <ele>1273.000000</ele>
        <time>2010-05-04T13:40:32Z</time>
      </trkpt>
      <trkpt lat="38.176467" lon="30.859754">
        <ele>1273.000000</ele>
        <time>2010-05-04T13:40:34Z</time>
      </trkpt>
      <trkpt lat="38.176464" lon="30.859750">
        <ele>1272.000000</ele>
        <time>2010-05-04T13:40:35Z</time>
      </trkpt>
      <trkpt lat="38.176458" lon="30.859744">
        <ele>1273.000000</ele>
        <time>2010-05-04T13:40:36Z</time>
      </trkpt>
      <trkpt lat="38.176461" lon="30.859709">
        <ele>1272.000000</ele>
        <time>2010-05-04T13:40:39Z</time>
      </trkpt>
      <trkpt lat="38.176458" lon="30.859696">
        <ele>1272.000000</ele>
        <time>2010-05-04T13:40:40Z</time>
      </trkpt>
      <trkpt lat="38.176448" lon="30.859686">
        <ele>1273.000000</ele>
        <time>2010-05-04T13:40:41Z</time>
      </trkpt>
      <trkpt lat="38.176432" lon="30.859677">
        <ele>1272.000000</ele>
        <time>2010-05-04T13:40:42Z</time>
      </trkpt>
      <trkpt lat="38.176422" lon="30.859674">
        <ele>1271.000000</ele>
        <time>2010-05-04T13:40:43Z</time>
      </trkpt>
      <trkpt lat="38.176416" lon="30.859670">
        <ele>1272.000000</ele>
        <time>2010-05-04T13:40:44Z</time>
      </trkpt>
      <trkpt lat="38.176480" lon="30.859658">
        <ele>1274.000000</ele>
        <time>2010-05-04T13:40:51Z</time>
      </trkpt>
      <trkpt lat="38.176499" lon="30.859632">
        <ele>1272.000000</ele>
        <time>2010-05-04T13:40:53Z</time>
      </trkpt>
      <trkpt lat="38.176483" lon="30.859613">
        <ele>1272.000000</ele>
        <time>2010-05-04T13:40:56Z</time>
      </trkpt>
      <trkpt lat="38.176461" lon="30.859568">
        <ele>1273.000000</ele>
        <time>2010-05-04T13:41:04Z</time>
      </trkpt>
      <trkpt lat="38.176461" lon="30.859552">
        <ele>1273.000000</ele>
        <time>2010-05-04T13:41:05Z</time>
      </trkpt>
      <trkpt lat="38.176458" lon="30.859520">
        <ele>1272.000000</ele>
        <time>2010-05-04T13:41:06Z</time>
      </trkpt>
      <trkpt lat="38.176458" lon="30.859501">
        <ele>1272.000000</ele>
        <time>2010-05-04T13:41:07Z</time>
      </trkpt>
      <trkpt lat="38.176458" lon="30.859488">
        <ele>1272.000000</ele>
        <time>2010-05-04T13:41:08Z</time>
      </trkpt>
      <trkpt lat="38.176458" lon="30.859475">
        <ele>1270.000000</ele>
        <time>2010-05-04T13:41:10Z</time>
      </trkpt>
      <trkpt lat="38.176458" lon="30.859462">
        <ele>1273.000000</ele>
        <time>2010-05-04T13:41:11Z</time>
      </trkpt>
      <trkpt lat="38.176451" lon="30.859446">
        <ele>1271.000000</ele>
        <time>2010-05-04T13:41:12Z</time>
      </trkpt>
      <trkpt lat="38.176445" lon="30.859414">
        <ele>1272.000000</ele>
        <time>2010-05-04T13:41:15Z</time>
      </trkpt>
      <trkpt lat="38.176432" lon="30.859325">
        <ele>1272.000000</ele>
        <time>2010-05-04T13:41:23Z</time>
      </trkpt>
      <trkpt lat="38.176429" lon="30.859302">
        <ele>1273.000000</ele>
        <time>2010-05-04T13:41:26Z</time>
      </trkpt>
      <trkpt lat="38.176429" lon="30.859274">
        <ele>1271.000000</ele>
        <time>2010-05-04T13:41:29Z</time>
      </trkpt>
      <trkpt lat="38.176426" lon="30.859264">
        <ele>1272.000000</ele>
        <time>2010-05-04T13:41:30Z</time>
      </trkpt>
      <trkpt lat="38.176419" lon="30.859248">
        <ele>1272.000000</ele>
        <time>2010-05-04T13:41:31Z</time>
      </trkpt>
      <trkpt lat="38.176365" lon="30.859235">
        <ele>1271.000000</ele>
        <time>2010-05-04T13:41:38Z</time>
      </trkpt>
      <trkpt lat="38.176352" lon="30.859229">
        <ele>1271.000000</ele>
        <time>2010-05-04T13:41:39Z</time>
      </trkpt>
      <trkpt lat="38.176349" lon="30.859200">
        <ele>1271.000000</ele>
        <time>2010-05-04T13:41:42Z</time>
      </trkpt>
      <trkpt lat="38.176346" lon="30.859190">
        <ele>1273.000000</ele>
        <time>2010-05-04T13:41:43Z</time>
      </trkpt>
      <trkpt lat="38.176349" lon="30.859184">
        <ele>1272.000000</ele>
        <time>2010-05-04T13:41:44Z</time>
      </trkpt>
      <trkpt lat="38.176342" lon="30.859155">
        <ele>1271.000000</ele>
        <time>2010-05-04T13:41:48Z</time>
      </trkpt>
      <trkpt lat="38.176342" lon="30.859139">
        <ele>1272.000000</ele>
        <time>2010-05-04T13:41:49Z</time>
      </trkpt>
      <trkpt lat="38.176352" lon="30.859120">
        <ele>1271.000000</ele>
        <time>2010-05-04T13:41:50Z</time>
      </trkpt>
      <trkpt lat="38.176349" lon="30.859104">
        <ele>1273.000000</ele>
        <time>2010-05-04T13:41:51Z</time>
      </trkpt>
      <trkpt lat="38.176349" lon="30.859062">
        <ele>1273.000000</ele>
        <time>2010-05-04T13:41:54Z</time>
      </trkpt>
      <trkpt lat="38.176349" lon="30.859053">
        <ele>1270.000000</ele>
        <time>2010-05-04T13:41:55Z</time>
      </trkpt>
      <trkpt lat="38.176352" lon="30.859018">
        <ele>1271.000000</ele>
        <time>2010-05-04T13:41:59Z</time>
      </trkpt>
      <trkpt lat="38.176342" lon="30.858989">
        <ele>1271.000000</ele>
        <time>2010-05-04T13:42:01Z</time>
      </trkpt>
      <trkpt lat="38.176342" lon="30.858950">
        <ele>1272.000000</ele>
        <time>2010-05-04T13:42:03Z</time>
      </trkpt>
      <trkpt lat="38.176326" lon="30.858941">
        <ele>1272.000000</ele>
        <time>2010-05-04T13:42:05Z</time>
      </trkpt>
      <trkpt lat="38.176317" lon="30.858922">
        <ele>1272.000000</ele>
        <time>2010-05-04T13:42:08Z</time>
      </trkpt>
      <trkpt lat="38.176307" lon="30.858890">
        <ele>1271.000000</ele>
        <time>2010-05-04T13:42:10Z</time>
      </trkpt>
      <trkpt lat="38.176298" lon="30.858886">
        <ele>1271.000000</ele>
        <time>2010-05-04T13:42:11Z</time>
      </trkpt>
      <trkpt lat="38.176288" lon="30.858874">
        <ele>1270.000000</ele>
        <time>2010-05-04T13:42:12Z</time>
      </trkpt>
      <trkpt lat="38.176282" lon="30.858851">
        <ele>1272.000000</ele>
        <time>2010-05-04T13:42:14Z</time>
      </trkpt>
      <trkpt lat="38.176272" lon="30.858867">
        <ele>1270.000000</ele>
        <time>2010-05-04T13:42:17Z</time>
      </trkpt>
      <trkpt lat="38.176253" lon="30.858880">
        <ele>1271.000000</ele>
        <time>2010-05-04T13:42:19Z</time>
      </trkpt>
      <trkpt lat="38.176262" lon="30.858851">
        <ele>1270.000000</ele>
        <time>2010-05-04T13:42:24Z</time>
      </trkpt>
      <trkpt lat="38.176304" lon="30.858778">
        <ele>1270.000000</ele>
        <time>2010-05-04T13:42:32Z</time>
      </trkpt>
      <trkpt lat="38.176317" lon="30.858762">
        <ele>1269.000000</ele>
        <time>2010-05-04T13:42:34Z</time>
      </trkpt>
      <trkpt lat="38.176307" lon="30.858742">
        <ele>1270.000000</ele>
        <time>2010-05-04T13:42:37Z</time>
      </trkpt>
      <trkpt lat="38.176298" lon="30.858730">
        <ele>1270.000000</ele>
        <time>2010-05-04T13:42:46Z</time>
      </trkpt>
      <trkpt lat="38.176288" lon="30.858714">
        <ele>1271.000000</ele>
        <time>2010-05-04T13:42:47Z</time>
      </trkpt>
      <trkpt lat="38.176272" lon="30.858720">
        <ele>1270.000000</ele>
        <time>2010-05-04T13:42:50Z</time>
      </trkpt>
      <trkpt lat="38.176250" lon="30.858694">
        <ele>1270.000000</ele>
        <time>2010-05-04T13:43:08Z</time>
      </trkpt>
      <trkpt lat="38.176218" lon="30.858688">
        <ele>1269.000000</ele>
        <time>2010-05-04T13:43:15Z</time>
      </trkpt>
      <trkpt lat="38.176208" lon="30.858682">
        <ele>1270.000000</ele>
        <time>2010-05-04T13:43:16Z</time>
      </trkpt>
      <trkpt lat="38.176189" lon="30.858672">
        <ele>1270.000000</ele>
        <time>2010-05-04T13:43:18Z</time>
      </trkpt>
      <trkpt lat="38.176198" lon="30.858653">
        <ele>1269.000000</ele>
        <time>2010-05-04T13:43:20Z</time>
      </trkpt>
      <trkpt lat="38.176202" lon="30.858643">
        <ele>1269.000000</ele>
        <time>2010-05-04T13:43:21Z</time>
      </trkpt>
      <trkpt lat="38.176192" lon="30.858630">
        <ele>1269.000000</ele>
        <time>2010-05-04T13:43:23Z</time>
      </trkpt>
      <trkpt lat="38.176182" lon="30.858621">
        <ele>1268.000000</ele>
        <time>2010-05-04T13:43:24Z</time>
      </trkpt>
      <trkpt lat="38.176150" lon="30.858589">
        <ele>1268.000000</ele>
        <time>2010-05-04T13:43:29Z</time>
      </trkpt>
      <trkpt lat="38.176150" lon="30.858570">
        <ele>1267.000000</ele>
        <time>2010-05-04T13:43:31Z</time>
      </trkpt>
      <trkpt lat="38.176144" lon="30.858550">
        <ele>1269.000000</ele>
        <time>2010-05-04T13:43:33Z</time>
      </trkpt>
      <trkpt lat="38.176138" lon="30.858541">
        <ele>1268.000000</ele>
        <time>2010-05-04T13:43:34Z</time>
      </trkpt>
      <trkpt lat="38.176125" lon="30.858534">
        <ele>1267.000000</ele>
        <time>2010-05-04T13:43:35Z</time>
      </trkpt>
      <trkpt lat="38.176083" lon="30.858528">
        <ele>1267.000000</ele>
        <time>2010-05-04T13:43:44Z</time>
      </trkpt>
      <trkpt lat="38.176074" lon="30.858522">
        <ele>1267.000000</ele>
        <time>2010-05-04T13:43:45Z</time>
      </trkpt>
      <trkpt lat="38.176061" lon="30.858522">
        <ele>1267.000000</ele>
        <time>2010-05-04T13:43:46Z</time>
      </trkpt>
      <trkpt lat="38.176026" lon="30.858522">
        <ele>1267.000000</ele>
        <time>2010-05-04T13:43:50Z</time>
      </trkpt>
      <trkpt lat="38.176010" lon="30.858506">
        <ele>1266.000000</ele>
        <time>2010-05-04T13:43:51Z</time>
      </trkpt>
      <trkpt lat="38.176000" lon="30.858499">
        <ele>1266.000000</ele>
        <time>2010-05-04T13:43:52Z</time>
      </trkpt>
      <trkpt lat="38.175946" lon="30.858490">
        <ele>1267.000000</ele>
        <time>2010-05-04T13:43:57Z</time>
      </trkpt>
      <trkpt lat="38.175952" lon="30.858474">
        <ele>1266.000000</ele>
        <time>2010-05-04T13:43:59Z</time>
      </trkpt>
      <trkpt lat="38.175930" lon="30.858474">
        <ele>1267.000000</ele>
        <time>2010-05-04T13:44:01Z</time>
      </trkpt>
      <trkpt lat="38.175930" lon="30.858474">
        <ele>1267.000000</ele>
        <time>2010-05-04T13:44:06Z</time>
      </trkpt>
      <trkpt lat="38.175933" lon="30.858480">
        <ele>1266.000000</ele>
        <time>2010-05-04T13:44:07Z</time>
      </trkpt>
      <trkpt lat="38.175926" lon="30.858448">
        <ele>1268.000000</ele>
        <time>2010-05-04T13:44:10Z</time>
      </trkpt>
      <trkpt lat="38.175901" lon="30.858429">
        <ele>1267.000000</ele>
        <time>2010-05-04T13:44:17Z</time>
      </trkpt>
      <trkpt lat="38.175910" lon="30.858422">
        <ele>1267.000000</ele>
        <time>2010-05-04T13:44:21Z</time>
      </trkpt>
      <trkpt lat="38.175920" lon="30.858416">
        <ele>1266.000000</ele>
        <time>2010-05-04T13:44:24Z</time>
      </trkpt>
      <trkpt lat="38.175910" lon="30.858416">
        <ele>1267.000000</ele>
        <time>2010-05-04T13:44:26Z</time>
      </trkpt>
      <trkpt lat="38.175914" lon="30.858410">
        <ele>1266.000000</ele>
        <time>2010-05-04T13:44:27Z</time>
      </trkpt>
      <trkpt lat="38.175910" lon="30.858403">
        <ele>1266.000000</ele>
        <time>2010-05-04T13:44:35Z</time>
      </trkpt>
      <trkpt lat="38.175891" lon="30.858416">
        <ele>1268.000000</ele>
        <time>2010-05-04T13:44:39Z</time>
      </trkpt>
      <trkpt lat="38.175885" lon="30.858426">
        <ele>1267.000000</ele>
        <time>2010-05-04T13:44:41Z</time>
      </trkpt>
      <trkpt lat="38.175856" lon="30.858454">
        <ele>1267.000000</ele>
        <time>2010-05-04T13:44:43Z</time>
      </trkpt>
      <trkpt lat="38.175843" lon="30.858477">
        <ele>1267.000000</ele>
        <time>2010-05-04T13:44:46Z</time>
      </trkpt>
      <trkpt lat="38.175840" lon="30.858464">
        <ele>1267.000000</ele>
        <time>2010-05-04T13:44:49Z</time>
      </trkpt>
      <trkpt lat="38.175840" lon="30.858458">
        <ele>1267.000000</ele>
        <time>2010-05-04T13:44:50Z</time>
      </trkpt>
      <trkpt lat="38.175846" lon="30.858400">
        <ele>1266.000000</ele>
        <time>2010-05-04T13:44:56Z</time>
      </trkpt>
      <trkpt lat="38.175827" lon="30.858365">
        <ele>1266.000000</ele>
        <time>2010-05-04T13:45:03Z</time>
      </trkpt>
      <trkpt lat="38.175763" lon="30.858365">
        <ele>1266.000000</ele>
        <time>2010-05-04T13:45:11Z</time>
      </trkpt>
      <trkpt lat="38.175757" lon="30.858342">
        <ele>1266.000000</ele>
        <time>2010-05-04T13:45:14Z</time>
      </trkpt>
      <trkpt lat="38.175731" lon="30.858336">
        <ele>1267.000000</ele>
        <time>2010-05-04T13:45:20Z</time>
      </trkpt>
      <trkpt lat="38.175709" lon="30.858336">
        <ele>1266.000000</ele>
        <time>2010-05-04T13:45:27Z</time>
      </trkpt>
      <trkpt lat="38.175706" lon="30.858314">
        <ele>1264.000000</ele>
        <time>2010-05-04T13:45:31Z</time>
      </trkpt>
      <trkpt lat="38.175702" lon="30.858310">
        <ele>1263.000000</ele>
        <time>2010-05-04T13:45:33Z</time>
      </trkpt>
      <trkpt lat="38.175702" lon="30.858301">
        <ele>1264.000000</ele>
        <time>2010-05-04T13:45:35Z</time>
      </trkpt>
      <trkpt lat="38.175674" lon="30.858272">
        <ele>1263.000000</ele>
        <time>2010-05-04T13:45:41Z</time>
      </trkpt>
      <trkpt lat="38.175648" lon="30.858262">
        <ele>1264.000000</ele>
        <time>2010-05-04T13:45:43Z</time>
      </trkpt>
      <trkpt lat="38.175594" lon="30.858227">
        <ele>1263.000000</ele>
        <time>2010-05-04T13:45:49Z</time>
      </trkpt>
      <trkpt lat="38.175594" lon="30.858218">
        <ele>1263.000000</ele>
        <time>2010-05-04T13:45:50Z</time>
      </trkpt>
      <trkpt lat="38.175574" lon="30.858211">
        <ele>1263.000000</ele>
        <time>2010-05-04T13:45:54Z</time>
      </trkpt>
      <trkpt lat="38.175568" lon="30.858205">
        <ele>1263.000000</ele>
        <time>2010-05-04T13:45:55Z</time>
      </trkpt>
      <trkpt lat="38.175510" lon="30.858166">
        <ele>1262.000000</ele>
        <time>2010-05-04T13:46:02Z</time>
      </trkpt>
      <trkpt lat="38.175488" lon="30.858160">
        <ele>1262.000000</ele>
        <time>2010-05-04T13:46:03Z</time>
      </trkpt>
      <trkpt lat="38.175475" lon="30.858163">
        <ele>1263.000000</ele>
        <time>2010-05-04T13:46:04Z</time>
      </trkpt>
      <trkpt lat="38.175456" lon="30.858166">
        <ele>1262.000000</ele>
        <time>2010-05-04T13:46:06Z</time>
      </trkpt>
      <trkpt lat="38.175437" lon="30.858198">
        <ele>1261.000000</ele>
        <time>2010-05-04T13:46:12Z</time>
      </trkpt>
      <trkpt lat="38.175427" lon="30.858192">
        <ele>1263.000000</ele>
        <time>2010-05-04T13:46:15Z</time>
      </trkpt>
      <trkpt lat="38.175430" lon="30.858189">
        <ele>1262.000000</ele>
        <time>2010-05-04T13:46:17Z</time>
      </trkpt>
      <trkpt lat="38.175405" lon="30.858186">
        <ele>1263.000000</ele>
        <time>2010-05-04T13:46:23Z</time>
      </trkpt>
      <trkpt lat="38.175392" lon="30.858173">
        <ele>1263.000000</ele>
        <time>2010-05-04T13:46:25Z</time>
      </trkpt>
      <trkpt lat="38.175389" lon="30.858134">
        <ele>1264.000000</ele>
        <time>2010-05-04T13:46:30Z</time>
      </trkpt>
      <trkpt lat="38.175389" lon="30.858128">
        <ele>1264.000000</ele>
        <time>2010-05-04T13:46:31Z</time>
      </trkpt>
      <trkpt lat="38.175395" lon="30.858125">
        <ele>1263.000000</ele>
        <time>2010-05-04T13:46:32Z</time>
      </trkpt>
      <trkpt lat="38.175398" lon="30.858118">
        <ele>1263.000000</ele>
        <time>2010-05-04T13:46:33Z</time>
      </trkpt>
      <trkpt lat="38.175395" lon="30.858112">
        <ele>1264.000000</ele>
        <time>2010-05-04T13:46:35Z</time>
      </trkpt>
      <trkpt lat="38.175398" lon="30.858099">
        <ele>1262.000000</ele>
        <time>2010-05-04T13:46:37Z</time>
      </trkpt>
      <trkpt lat="38.175376" lon="30.858090">
        <ele>1264.000000</ele>
        <time>2010-05-04T13:46:43Z</time>
      </trkpt>
      <trkpt lat="38.175318" lon="30.858083">
        <ele>1262.000000</ele>
        <time>2010-05-04T13:46:51Z</time>
      </trkpt>
      <trkpt lat="38.175309" lon="30.858080">
        <ele>1262.000000</ele>
        <time>2010-05-04T13:46:53Z</time>
      </trkpt>
      <trkpt lat="38.175306" lon="30.858086">
        <ele>1262.000000</ele>
        <time>2010-05-04T13:46:55Z</time>
      </trkpt>
      <trkpt lat="38.175238" lon="30.858090">
        <ele>1263.000000</ele>
        <time>2010-05-04T13:47:04Z</time>
      </trkpt>
      <trkpt lat="38.175210" lon="30.858090">
        <ele>1263.000000</ele>
        <time>2010-05-04T13:47:07Z</time>
      </trkpt>
      <trkpt lat="38.175168" lon="30.858077">
        <ele>1259.000000</ele>
        <time>2010-05-04T13:47:12Z</time>
      </trkpt>
      <trkpt lat="38.175133" lon="30.858067">
        <ele>1262.000000</ele>
        <time>2010-05-04T13:47:15Z</time>
      </trkpt>
      <trkpt lat="38.175126" lon="30.858074">
        <ele>1261.000000</ele>
        <time>2010-05-04T13:47:16Z</time>
      </trkpt>
      <trkpt lat="38.175107" lon="30.858070">
        <ele>1261.000000</ele>
        <time>2010-05-04T13:47:18Z</time>
      </trkpt>
      <trkpt lat="38.175094" lon="30.858067">
        <ele>1261.000000</ele>
        <time>2010-05-04T13:47:19Z</time>
      </trkpt>
      <trkpt lat="38.175037" lon="30.858045">
        <ele>1260.000000</ele>
        <time>2010-05-04T13:47:25Z</time>
      </trkpt>
      <trkpt lat="38.175027" lon="30.858045">
        <ele>1260.000000</ele>
        <time>2010-05-04T13:47:26Z</time>
      </trkpt>
      <trkpt lat="38.175021" lon="30.858029">
        <ele>1260.000000</ele>
        <time>2010-05-04T13:47:29Z</time>
      </trkpt>
      <trkpt lat="38.174992" lon="30.858048">
        <ele>1260.000000</ele>
        <time>2010-05-04T13:47:31Z</time>
      </trkpt>
      <trkpt lat="38.174982" lon="30.858048">
        <ele>1262.000000</ele>
        <time>2010-05-04T13:47:34Z</time>
      </trkpt>
      <trkpt lat="38.174966" lon="30.858029">
        <ele>1261.000000</ele>
        <time>2010-05-04T13:47:36Z</time>
      </trkpt>
      <trkpt lat="38.174950" lon="30.858013">
        <ele>1262.000000</ele>
        <time>2010-05-04T13:47:39Z</time>
      </trkpt>
      <trkpt lat="38.174950" lon="30.858003">
        <ele>1260.000000</ele>
        <time>2010-05-04T13:47:40Z</time>
      </trkpt>
      <trkpt lat="38.174934" lon="30.857994">
        <ele>1261.000000</ele>
        <time>2010-05-04T13:47:42Z</time>
      </trkpt>
      <trkpt lat="38.174899" lon="30.857984">
        <ele>1261.000000</ele>
        <time>2010-05-04T13:47:47Z</time>
      </trkpt>
      <trkpt lat="38.174890" lon="30.857978">
        <ele>1260.000000</ele>
        <time>2010-05-04T13:47:48Z</time>
      </trkpt>
      <trkpt lat="38.174877" lon="30.857981">
        <ele>1259.000000</ele>
        <time>2010-05-04T13:47:49Z</time>
      </trkpt>
      <trkpt lat="38.174858" lon="30.857974">
        <ele>1261.000000</ele>
        <time>2010-05-04T13:47:50Z</time>
      </trkpt>
      <trkpt lat="38.174842" lon="30.857984">
        <ele>1260.000000</ele>
        <time>2010-05-04T13:47:51Z</time>
      </trkpt>
      <trkpt lat="38.174822" lon="30.857987">
        <ele>1261.000000</ele>
        <time>2010-05-04T13:47:52Z</time>
      </trkpt>
      <trkpt lat="38.174813" lon="30.857994">
        <ele>1260.000000</ele>
        <time>2010-05-04T13:47:53Z</time>
      </trkpt>
      <trkpt lat="38.174787" lon="30.858000">
        <ele>1262.000000</ele>
        <time>2010-05-04T13:47:58Z</time>
      </trkpt>
      <trkpt lat="38.174774" lon="30.857981">
        <ele>1260.000000</ele>
        <time>2010-05-04T13:48:00Z</time>
      </trkpt>
      <trkpt lat="38.174758" lon="30.857987">
        <ele>1261.000000</ele>
        <time>2010-05-04T13:48:01Z</time>
      </trkpt>
      <trkpt lat="38.174749" lon="30.857984">
        <ele>1261.000000</ele>
        <time>2010-05-04T13:48:02Z</time>
      </trkpt>
      <trkpt lat="38.174730" lon="30.857978">
        <ele>1261.000000</ele>
        <time>2010-05-04T13:48:03Z</time>
      </trkpt>
      <trkpt lat="38.174682" lon="30.857974">
        <ele>1263.000000</ele>
        <time>2010-05-04T13:48:06Z</time>
      </trkpt>
      <trkpt lat="38.174675" lon="30.857978">
        <ele>1260.000000</ele>
        <time>2010-05-04T13:48:07Z</time>
      </trkpt>
      <trkpt lat="38.174662" lon="30.857978">
        <ele>1260.000000</ele>
        <time>2010-05-04T13:48:08Z</time>
      </trkpt>
      <trkpt lat="38.174672" lon="30.857974">
        <ele>1259.000000</ele>
        <time>2010-05-04T13:48:11Z</time>
      </trkpt>
      <trkpt lat="38.174643" lon="30.857962">
        <ele>1262.000000</ele>
        <time>2010-05-04T13:48:18Z</time>
      </trkpt>
      <trkpt lat="38.174531" lon="30.857997">
        <ele>1262.000000</ele>
        <time>2010-05-04T13:48:35Z</time>
      </trkpt>
      <trkpt lat="38.174458" lon="30.858006">
        <ele>1264.000000</ele>
        <time>2010-05-04T13:48:47Z</time>
      </trkpt>
      <trkpt lat="38.174442" lon="30.858010">
        <ele>1263.000000</ele>
        <time>2010-05-04T13:48:51Z</time>
      </trkpt>
      <trkpt lat="38.174406" lon="30.858019">
        <ele>1262.000000</ele>
        <time>2010-05-04T13:48:54Z</time>
      </trkpt>
      <trkpt lat="38.174390" lon="30.858019">
        <ele>1262.000000</ele>
        <time>2010-05-04T13:48:55Z</time>
      </trkpt>
      <trkpt lat="38.174342" lon="30.858032">
        <ele>1263.000000</ele>
        <time>2010-05-04T13:48:59Z</time>
      </trkpt>
      <trkpt lat="38.174298" lon="30.858035">
        <ele>1263.000000</ele>
        <time>2010-05-04T13:49:04Z</time>
      </trkpt>
      <trkpt lat="38.174301" lon="30.858029">
        <ele>1262.000000</ele>
        <time>2010-05-04T13:49:06Z</time>
      </trkpt>
      <trkpt lat="38.174298" lon="30.858032">
        <ele>1261.000000</ele>
        <time>2010-05-04T13:49:08Z</time>
      </trkpt>
      <trkpt lat="38.174272" lon="30.858067">
        <ele>1262.000000</ele>
        <time>2010-05-04T13:49:13Z</time>
      </trkpt>
      <trkpt lat="38.174246" lon="30.858074">
        <ele>1262.000000</ele>
        <time>2010-05-04T13:49:14Z</time>
      </trkpt>
      <trkpt lat="38.174234" lon="30.858074">
        <ele>1264.000000</ele>
        <time>2010-05-04T13:49:15Z</time>
      </trkpt>
      <trkpt lat="38.174186" lon="30.858083">
        <ele>1261.000000</ele>
        <time>2010-05-04T13:49:20Z</time>
      </trkpt>
      <trkpt lat="38.174160" lon="30.858080">
        <ele>1263.000000</ele>
        <time>2010-05-04T13:49:23Z</time>
      </trkpt>
      <trkpt lat="38.174144" lon="30.858077">
        <ele>1262.000000</ele>
        <time>2010-05-04T13:49:28Z</time>
      </trkpt>
      <trkpt lat="38.174118" lon="30.858093">
        <ele>1264.000000</ele>
        <time>2010-05-04T13:49:31Z</time>
      </trkpt>
      <trkpt lat="38.174106" lon="30.858096">
        <ele>1264.000000</ele>
        <time>2010-05-04T13:49:32Z</time>
      </trkpt>
      <trkpt lat="38.174080" lon="30.858102">
        <ele>1264.000000</ele>
        <time>2010-05-04T13:49:35Z</time>
      </trkpt>
      <trkpt lat="38.173949" lon="30.858182">
        <ele>1265.000000</ele>
        <time>2010-05-04T13:49:56Z</time>
      </trkpt>
      <trkpt lat="38.173930" lon="30.858173">
        <ele>1268.000000</ele>
        <time>2010-05-04T13:49:58Z</time>
      </trkpt>
      <trkpt lat="38.173923" lon="30.858160">
        <ele>1268.000000</ele>
        <time>2010-05-04T13:49:59Z</time>
      </trkpt>
      <trkpt lat="38.173907" lon="30.858150">
        <ele>1267.000000</ele>
        <time>2010-05-04T13:50:00Z</time>
      </trkpt>
      <trkpt lat="38.173882" lon="30.858144">
        <ele>1265.000000</ele>
        <time>2010-05-04T13:50:02Z</time>
      </trkpt>
      <trkpt lat="38.173901" lon="30.858160">
        <ele>1266.000000</ele>
        <time>2010-05-04T13:50:07Z</time>
      </trkpt>
      <trkpt lat="38.173862" lon="30.858147">
        <ele>1267.000000</ele>
        <time>2010-05-04T13:50:11Z</time>
      </trkpt>
      <trkpt lat="38.173821" lon="30.858147">
        <ele>1265.000000</ele>
        <time>2010-05-04T13:50:15Z</time>
      </trkpt>
      <trkpt lat="38.173808" lon="30.858150">
        <ele>1265.000000</ele>
        <time>2010-05-04T13:50:19Z</time>
      </trkpt>
      <trkpt lat="38.173795" lon="30.858154">
        <ele>1264.000000</ele>
        <time>2010-05-04T13:50:24Z</time>
      </trkpt>
      <trkpt lat="38.173731" lon="30.858138">
        <ele>1262.000000</ele>
        <time>2010-05-04T13:50:29Z</time>
      </trkpt>
      <trkpt lat="38.173725" lon="30.858131">
        <ele>1262.000000</ele>
        <time>2010-05-04T13:50:30Z</time>
      </trkpt>
      <trkpt lat="38.173702" lon="30.858106">
        <ele>1264.000000</ele>
        <time>2010-05-04T13:50:33Z</time>
      </trkpt>
      <trkpt lat="38.173690" lon="30.858083">
        <ele>1264.000000</ele>
        <time>2010-05-04T13:50:36Z</time>
      </trkpt>
      <trkpt lat="38.173696" lon="30.858086">
        <ele>1265.000000</ele>
        <time>2010-05-04T13:50:37Z</time>
      </trkpt>
      <trkpt lat="38.173677" lon="30.858074">
        <ele>1265.000000</ele>
        <time>2010-05-04T13:50:43Z</time>
      </trkpt>
      <trkpt lat="38.173581" lon="30.858115">
        <ele>1264.000000</ele>
        <time>2010-05-04T13:50:54Z</time>
      </trkpt>
      <trkpt lat="38.173546" lon="30.858128">
        <ele>1264.000000</ele>
        <time>2010-05-04T13:51:04Z</time>
      </trkpt>
      <trkpt lat="38.173478" lon="30.858128">
        <ele>1264.000000</ele>
        <time>2010-05-04T13:51:11Z</time>
      </trkpt>
      <trkpt lat="38.173443" lon="30.858090">
        <ele>1264.000000</ele>
        <time>2010-05-04T13:51:15Z</time>
      </trkpt>
      <trkpt lat="38.173437" lon="30.858074">
        <ele>1264.000000</ele>
        <time>2010-05-04T13:51:16Z</time>
      </trkpt>
      <trkpt lat="38.173437" lon="30.858064">
        <ele>1264.000000</ele>
        <time>2010-05-04T13:51:17Z</time>
      </trkpt>
      <trkpt lat="38.173402" lon="30.858070">
        <ele>1264.000000</ele>
        <time>2010-05-04T13:51:21Z</time>
      </trkpt>
      <trkpt lat="38.173382" lon="30.858093">
        <ele>1265.000000</ele>
        <time>2010-05-04T13:51:24Z</time>
      </trkpt>
      <trkpt lat="38.173341" lon="30.858086">
        <ele>1265.000000</ele>
        <time>2010-05-04T13:51:34Z</time>
      </trkpt>
      <trkpt lat="38.173318" lon="30.858102">
        <ele>1266.000000</ele>
        <time>2010-05-04T13:51:37Z</time>
      </trkpt>
      <trkpt lat="38.173299" lon="30.858115">
        <ele>1266.000000</ele>
        <time>2010-05-04T13:51:40Z</time>
      </trkpt>
      <trkpt lat="38.173248" lon="30.858112">
        <ele>1269.000000</ele>
        <time>2010-05-04T13:51:54Z</time>
      </trkpt>
      <trkpt lat="38.173210" lon="30.858115">
        <ele>1268.000000</ele>
        <time>2010-05-04T13:52:02Z</time>
      </trkpt>
      <trkpt lat="38.173210" lon="30.858118">
        <ele>1270.000000</ele>
        <time>2010-05-04T13:52:04Z</time>
      </trkpt>
      <trkpt lat="38.173162" lon="30.858109">
        <ele>1270.000000</ele>
        <time>2010-05-04T13:52:09Z</time>
      </trkpt>
      <trkpt lat="38.173149" lon="30.858102">
        <ele>1271.000000</ele>
        <time>2010-05-04T13:52:11Z</time>
      </trkpt>
      <trkpt lat="38.173142" lon="30.858086">
        <ele>1271.000000</ele>
        <time>2010-05-04T13:52:14Z</time>
      </trkpt>
      <trkpt lat="38.173104" lon="30.858074">
        <ele>1270.000000</ele>
        <time>2010-05-04T13:52:17Z</time>
      </trkpt>
      <trkpt lat="38.173043" lon="30.858038">
        <ele>1273.000000</ele>
        <time>2010-05-04T13:52:27Z</time>
      </trkpt>
      <trkpt lat="38.172992" lon="30.858029">
        <ele>1270.000000</ele>
        <time>2010-05-04T13:52:35Z</time>
      </trkpt>
      <trkpt lat="38.172989" lon="30.858026">
        <ele>1271.000000</ele>
        <time>2010-05-04T13:52:36Z</time>
      </trkpt>
      <trkpt lat="38.172986" lon="30.858026">
        <ele>1269.000000</ele>
        <time>2010-05-04T13:52:37Z</time>
      </trkpt>
      <trkpt lat="38.172944" lon="30.858029">
        <ele>1272.000000</ele>
        <time>2010-05-04T13:52:41Z</time>
      </trkpt>
      <trkpt lat="38.172925" lon="30.858029">
        <ele>1272.000000</ele>
        <time>2010-05-04T13:52:42Z</time>
      </trkpt>
      <trkpt lat="38.172922" lon="30.858016">
        <ele>1272.000000</ele>
        <time>2010-05-04T13:52:43Z</time>
      </trkpt>
      <trkpt lat="38.172886" lon="30.858026">
        <ele>1271.000000</ele>
        <time>2010-05-04T13:52:44Z</time>
      </trkpt>
      <trkpt lat="38.172870" lon="30.858048">
        <ele>1272.000000</ele>
        <time>2010-05-04T13:52:48Z</time>
      </trkpt>
      <trkpt lat="38.172890" lon="30.858048">
        <ele>1271.000000</ele>
        <time>2010-05-04T13:52:52Z</time>
      </trkpt>
      <trkpt lat="38.172896" lon="30.858026">
        <ele>1271.000000</ele>
        <time>2010-05-04T13:52:58Z</time>
      </trkpt>
      <trkpt lat="38.172874" lon="30.858045">
        <ele>1271.000000</ele>
        <time>2010-05-04T13:53:01Z</time>
      </trkpt>
      <trkpt lat="38.172870" lon="30.858058">
        <ele>1273.000000</ele>
        <time>2010-05-04T13:53:02Z</time>
      </trkpt>
      <trkpt lat="38.172867" lon="30.858048">
        <ele>1272.000000</ele>
        <time>2010-05-04T13:53:06Z</time>
      </trkpt>
      <trkpt lat="38.172890" lon="30.858035">
        <ele>1272.000000</ele>
        <time>2010-05-04T13:53:08Z</time>
      </trkpt>
      <trkpt lat="38.172803" lon="30.858019">
        <ele>1271.000000</ele>
        <time>2010-05-04T13:53:28Z</time>
      </trkpt>
      <trkpt lat="38.172797" lon="30.858035">
        <ele>1271.000000</ele>
        <time>2010-05-04T13:53:29Z</time>
      </trkpt>
      <trkpt lat="38.172797" lon="30.858054">
        <ele>1271.000000</ele>
        <time>2010-05-04T13:53:31Z</time>
      </trkpt>
      <trkpt lat="38.172806" lon="30.858042">
        <ele>1272.000000</ele>
        <time>2010-05-04T13:53:38Z</time>
      </trkpt>
      <trkpt lat="38.172803" lon="30.858035">
        <ele>1272.000000</ele>
        <time>2010-05-04T13:53:41Z</time>
      </trkpt>
      <trkpt lat="38.172826" lon="30.858045">
        <ele>1270.000000</ele>
        <time>2010-05-04T13:54:14Z</time>
      </trkpt>
      <trkpt lat="38.172883" lon="30.858035">
        <ele>1273.000000</ele>
        <time>2010-05-04T13:54:17Z</time>
      </trkpt>
      <trkpt lat="38.172851" lon="30.858048">
        <ele>1271.000000</ele>
        <time>2010-05-04T13:54:25Z</time>
      </trkpt>
      <trkpt lat="38.172870" lon="30.858042">
        <ele>1271.000000</ele>
        <time>2010-05-04T13:54:28Z</time>
      </trkpt>
      <trkpt lat="38.172867" lon="30.858035">
        <ele>1271.000000</ele>
        <time>2010-05-04T13:54:29Z</time>
      </trkpt>
      <trkpt lat="38.172851" lon="30.858035">
        <ele>1271.000000</ele>
        <time>2010-05-04T13:54:32Z</time>
      </trkpt>
      <trkpt lat="38.172822" lon="30.858054">
        <ele>1271.000000</ele>
        <time>2010-05-04T13:54:34Z</time>
      </trkpt>
      <trkpt lat="38.172806" lon="30.858061">
        <ele>1271.000000</ele>
        <time>2010-05-04T13:54:35Z</time>
      </trkpt>
      <trkpt lat="38.172797" lon="30.858061">
        <ele>1271.000000</ele>
        <time>2010-05-04T13:54:36Z</time>
      </trkpt>
      <trkpt lat="38.172794" lon="30.858061">
        <ele>1271.000000</ele>
        <time>2010-05-04T13:54:37Z</time>
      </trkpt>
      <trkpt lat="38.172794" lon="30.858074">
        <ele>1270.000000</ele>
        <time>2010-05-04T13:54:39Z</time>
      </trkpt>
      <trkpt lat="38.172806" lon="30.858080">
        <ele>1272.000000</ele>
        <time>2010-05-04T13:54:45Z</time>
      </trkpt>
      <trkpt lat="38.172803" lon="30.858077">
        <ele>1272.000000</ele>
        <time>2010-05-04T13:54:46Z</time>
      </trkpt>
      <trkpt lat="38.172797" lon="30.858077">
        <ele>1271.000000</ele>
        <time>2010-05-04T13:54:47Z</time>
      </trkpt>
      <trkpt lat="38.172803" lon="30.858074">
        <ele>1272.000000</ele>
        <time>2010-05-04T13:55:01Z</time>
      </trkpt>
      <trkpt lat="38.172816" lon="30.858058">
        <ele>1272.000000</ele>
        <time>2010-05-04T13:55:05Z</time>
      </trkpt>
      <trkpt lat="38.172829" lon="30.858058">
        <ele>1271.000000</ele>
        <time>2010-05-04T13:55:16Z</time>
      </trkpt>
      <trkpt lat="38.172826" lon="30.858058">
        <ele>1272.000000</ele>
        <time>2010-05-04T13:55:17Z</time>
      </trkpt>
      <trkpt lat="38.172813" lon="30.858048">
        <ele>1272.000000</ele>
        <time>2010-05-04T13:55:24Z</time>
      </trkpt>
      <trkpt lat="38.172810" lon="30.858054">
        <ele>1272.000000</ele>
        <time>2010-05-04T13:55:25Z</time>
      </trkpt>
      <trkpt lat="38.172813" lon="30.858054">
        <ele>1272.000000</ele>
        <time>2010-05-04T13:55:31Z</time>
      </trkpt>
      <trkpt lat="38.172813" lon="30.858045">
        <ele>1272.000000</ele>
        <time>2010-05-04T13:55:32Z</time>
      </trkpt>
      <trkpt lat="38.172826" lon="30.858032">
        <ele>1270.000000</ele>
        <time>2010-05-04T13:55:34Z</time>
      </trkpt>
      <trkpt lat="38.172797" lon="30.858016">
        <ele>1272.000000</ele>
        <time>2010-05-04T13:55:57Z</time>
      </trkpt>
      <trkpt lat="38.172810" lon="30.858006">
        <ele>1271.000000</ele>
        <time>2010-05-04T13:56:41Z</time>
      </trkpt>
      <trkpt lat="38.172787" lon="30.858003">
        <ele>1273.000000</ele>
        <time>2010-05-04T13:56:44Z</time>
      </trkpt>
      <trkpt lat="38.172810" lon="30.857987">
        <ele>1272.000000</ele>
        <time>2010-05-04T13:57:18Z</time>
      </trkpt>
      <trkpt lat="38.172813" lon="30.857974">
        <ele>1271.000000</ele>
        <time>2010-05-04T13:57:19Z</time>
      </trkpt>
      <trkpt lat="38.172810" lon="30.857984">
        <ele>1271.000000</ele>
        <time>2010-05-04T13:57:26Z</time>
      </trkpt>
      <trkpt lat="38.172787" lon="30.857987">
        <ele>1270.000000</ele>
        <time>2010-05-04T13:57:32Z</time>
      </trkpt>
      <trkpt lat="38.172774" lon="30.857994">
        <ele>1272.000000</ele>
        <time>2010-05-04T13:57:35Z</time>
      </trkpt>
      <trkpt lat="38.172778" lon="30.857990">
        <ele>1272.000000</ele>
        <time>2010-05-04T13:57:37Z</time>
      </trkpt>
      <trkpt lat="38.172768" lon="30.858048">
        <ele>1271.000000</ele>
        <time>2010-05-04T13:58:01Z</time>
      </trkpt>
      <trkpt lat="38.172784" lon="30.858019">
        <ele>1272.000000</ele>
        <time>2010-05-04T13:58:22Z</time>
      </trkpt>
      <trkpt lat="38.172762" lon="30.858029">
        <ele>1271.000000</ele>
        <time>2010-05-04T13:59:18Z</time>
      </trkpt>
      <trkpt lat="38.172762" lon="30.858042">
        <ele>1272.000000</ele>
        <time>2010-05-04T13:59:31Z</time>
      </trkpt>
      <trkpt lat="38.172768" lon="30.858054">
        <ele>1271.000000</ele>
        <time>2010-05-04T13:59:41Z</time>
      </trkpt>
      <trkpt lat="38.172787" lon="30.858067">
        <ele>1272.000000</ele>
        <time>2010-05-04T13:59:45Z</time>
      </trkpt>
      <trkpt lat="38.172797" lon="30.858067">
        <ele>1272.000000</ele>
        <time>2010-05-04T13:59:46Z</time>
      </trkpt>
      <trkpt lat="38.172806" lon="30.858064">
        <ele>1272.000000</ele>
        <time>2010-05-04T13:59:50Z</time>
      </trkpt>
      <trkpt lat="38.172813" lon="30.858064">
        <ele>1273.000000</ele>
        <time>2010-05-04T13:59:51Z</time>
      </trkpt>
      <trkpt lat="38.172816" lon="30.858061">
        <ele>1272.000000</ele>
        <time>2010-05-04T13:59:52Z</time>
      </trkpt>
      <trkpt lat="38.172822" lon="30.858058">
        <ele>1272.000000</ele>
        <time>2010-05-04T13:59:54Z</time>
      </trkpt>
      <trkpt lat="38.172832" lon="30.858045">
        <ele>1273.000000</ele>
        <time>2010-05-04T13:59:56Z</time>
      </trkpt>
      <trkpt lat="38.172842" lon="30.858035">
        <ele>1271.000000</ele>
        <time>2010-05-04T13:59:58Z</time>
      </trkpt>
      <trkpt lat="38.172851" lon="30.858019">
        <ele>1271.000000</ele>
        <time>2010-05-04T14:00:00Z</time>
      </trkpt>
      <trkpt lat="38.172854" lon="30.858010">
        <ele>1272.000000</ele>
        <time>2010-05-04T14:00:02Z</time>
      </trkpt>
      <trkpt lat="38.172854" lon="30.858003">
        <ele>1271.000000</ele>
        <time>2010-05-04T14:00:05Z</time>
      </trkpt>
      <trkpt lat="38.172851" lon="30.857997">
        <ele>1272.000000</ele>
        <time>2010-05-04T14:00:06Z</time>
      </trkpt>
      <trkpt lat="38.172848" lon="30.857994">
        <ele>1272.000000</ele>
        <time>2010-05-04T14:00:07Z</time>
      </trkpt>
      <trkpt lat="38.172877" lon="30.858016">
        <ele>1271.000000</ele>
        <time>2010-05-04T14:00:17Z</time>
      </trkpt>
      <trkpt lat="38.172906" lon="30.857997">
        <ele>1271.000000</ele>
        <time>2010-05-04T14:00:26Z</time>
      </trkpt>
      <trkpt lat="38.172906" lon="30.857990">
        <ele>1271.000000</ele>
        <time>2010-05-04T14:00:29Z</time>
      </trkpt>
      <trkpt lat="38.172906" lon="30.857987">
        <ele>1272.000000</ele>
        <time>2010-05-04T14:00:32Z</time>
      </trkpt>
      <trkpt lat="38.172906" lon="30.858026">
        <ele>1272.000000</ele>
        <time>2010-05-04T14:00:35Z</time>
      </trkpt>
      <trkpt lat="38.172922" lon="30.858077">
        <ele>1272.000000</ele>
        <time>2010-05-04T14:00:43Z</time>
      </trkpt>
      <trkpt lat="38.172922" lon="30.858086">
        <ele>1272.000000</ele>
        <time>2010-05-04T14:00:44Z</time>
      </trkpt>
      <trkpt lat="38.172944" lon="30.858083">
        <ele>1272.000000</ele>
        <time>2010-05-04T14:00:45Z</time>
      </trkpt>
      <trkpt lat="38.172957" lon="30.858080">
        <ele>1272.000000</ele>
        <time>2010-05-04T14:00:46Z</time>
      </trkpt>
      <trkpt lat="38.172883" lon="30.858096">
        <ele>1270.000000</ele>
        <time>2010-05-04T14:00:52Z</time>
      </trkpt>
      <trkpt lat="38.172867" lon="30.858090">
        <ele>1271.000000</ele>
        <time>2010-05-04T14:00:53Z</time>
      </trkpt>
      <trkpt lat="38.172851" lon="30.858077">
        <ele>1271.000000</ele>
        <time>2010-05-04T14:00:54Z</time>
      </trkpt>
      <trkpt lat="38.172845" lon="30.858038">
        <ele>1273.000000</ele>
        <time>2010-05-04T14:01:00Z</time>
      </trkpt>
      <trkpt lat="38.172797" lon="30.858048">
        <ele>1273.000000</ele>
        <time>2010-05-04T14:01:08Z</time>
      </trkpt>
      <trkpt lat="38.172813" lon="30.858048">
        <ele>1270.000000</ele>
        <time>2010-05-04T14:01:23Z</time>
      </trkpt>
      <trkpt lat="38.172816" lon="30.858067">
        <ele>1272.000000</ele>
        <time>2010-05-04T14:01:28Z</time>
      </trkpt>
      <trkpt lat="38.172813" lon="30.858074">
        <ele>1271.000000</ele>
        <time>2010-05-04T14:01:39Z</time>
      </trkpt>
      <trkpt lat="38.172813" lon="30.858080">
        <ele>1271.000000</ele>
        <time>2010-05-04T14:02:01Z</time>
      </trkpt>
      <trkpt lat="38.172816" lon="30.858074">
        <ele>1273.000000</ele>
        <time>2010-05-04T14:02:02Z</time>
      </trkpt>
      <trkpt lat="38.172810" lon="30.858064">
        <ele>1274.000000</ele>
        <time>2010-05-04T14:02:06Z</time>
      </trkpt>
      <trkpt lat="38.172803" lon="30.858061">
        <ele>1272.000000</ele>
        <time>2010-05-04T14:02:18Z</time>
      </trkpt>
      <trkpt lat="38.172790" lon="30.858054">
        <ele>1271.000000</ele>
        <time>2010-05-04T14:02:48Z</time>
      </trkpt>
      <trkpt lat="38.172803" lon="30.858061">
        <ele>1272.000000</ele>
        <time>2010-05-04T14:03:20Z</time>
      </trkpt>
      <trkpt lat="38.172794" lon="30.858070">
        <ele>1272.000000</ele>
        <time>2010-05-04T14:03:34Z</time>
      </trkpt>
      <trkpt lat="38.172784" lon="30.858070">
        <ele>1270.000000</ele>
        <time>2010-05-04T14:03:36Z</time>
      </trkpt>
      <trkpt lat="38.172778" lon="30.858067">
        <ele>1271.000000</ele>
        <time>2010-05-04T14:03:44Z</time>
      </trkpt>
      <trkpt lat="38.172771" lon="30.858096">
        <ele>1269.000000</ele>
        <time>2010-05-04T14:03:49Z</time>
      </trkpt>
      <trkpt lat="38.172787" lon="30.858106">
        <ele>1271.000000</ele>
        <time>2010-05-04T14:04:03Z</time>
      </trkpt>
      <trkpt lat="38.172790" lon="30.858102">
        <ele>1270.000000</ele>
        <time>2010-05-04T14:04:04Z</time>
      </trkpt>
      <trkpt lat="38.172797" lon="30.858106">
        <ele>1270.000000</ele>
        <time>2010-05-04T14:04:05Z</time>
      </trkpt>
      <trkpt lat="38.172794" lon="30.858080">
        <ele>1273.000000</ele>
        <time>2010-05-04T14:04:08Z</time>
      </trkpt>
      <trkpt lat="38.172794" lon="30.858074">
        <ele>1272.000000</ele>
        <time>2010-05-04T14:04:09Z</time>
      </trkpt>
      <trkpt lat="38.172822" lon="30.858016">
        <ele>1271.000000</ele>
        <time>2010-05-04T14:04:18Z</time>
      </trkpt>
      <trkpt lat="38.172826" lon="30.858006">
        <ele>1271.000000</ele>
        <time>2010-05-04T14:04:19Z</time>
      </trkpt>
      <trkpt lat="38.172816" lon="30.857994">
        <ele>1271.000000</ele>
        <time>2010-05-04T14:04:21Z</time>
      </trkpt>
      <trkpt lat="38.172832" lon="30.857958">
        <ele>1270.000000</ele>
        <time>2010-05-04T14:04:24Z</time>
      </trkpt>
      <trkpt lat="38.172867" lon="30.857949">
        <ele>1271.000000</ele>
        <time>2010-05-04T14:04:25Z</time>
      </trkpt>
      <trkpt lat="38.172867" lon="30.857949">
        <ele>1270.000000</ele>
        <time>2010-05-04T14:04:26Z</time>
      </trkpt>
      <trkpt lat="38.172858" lon="30.857930">
        <ele>1270.000000</ele>
        <time>2010-05-04T14:04:29Z</time>
      </trkpt>
      <trkpt lat="38.172826" lon="30.857930">
        <ele>1271.000000</ele>
        <time>2010-05-04T14:04:31Z</time>
      </trkpt>
      <trkpt lat="38.172803" lon="30.857917">
        <ele>1270.000000</ele>
        <time>2010-05-04T14:04:33Z</time>
      </trkpt>
      <trkpt lat="38.172787" lon="30.857914">
        <ele>1270.000000</ele>
        <time>2010-05-04T14:04:34Z</time>
      </trkpt>
      <trkpt lat="38.172765" lon="30.857923">
        <ele>1270.000000</ele>
        <time>2010-05-04T14:04:37Z</time>
      </trkpt>
      <trkpt lat="38.172736" lon="30.857917">
        <ele>1271.000000</ele>
        <time>2010-05-04T14:04:39Z</time>
      </trkpt>
      <trkpt lat="38.172688" lon="30.857894">
        <ele>1270.000000</ele>
        <time>2010-05-04T14:04:48Z</time>
      </trkpt>
      <trkpt lat="38.172688" lon="30.857891">
        <ele>1270.000000</ele>
        <time>2010-05-04T14:04:50Z</time>
      </trkpt>
      <trkpt lat="38.172646" lon="30.857862">
        <ele>1269.000000</ele>
        <time>2010-05-04T14:04:55Z</time>
      </trkpt>
      <trkpt lat="38.172634" lon="30.857846">
        <ele>1270.000000</ele>
        <time>2010-05-04T14:04:56Z</time>
      </trkpt>
      <trkpt lat="38.172614" lon="30.857840">
        <ele>1269.000000</ele>
        <time>2010-05-04T14:04:57Z</time>
      </trkpt>
      <trkpt lat="38.172592" lon="30.857843">
        <ele>1270.000000</ele>
        <time>2010-05-04T14:05:01Z</time>
      </trkpt>
      <trkpt lat="38.172547" lon="30.857846">
        <ele>1271.000000</ele>
        <time>2010-05-04T14:05:06Z</time>
      </trkpt>
      <trkpt lat="38.172515" lon="30.857824">
        <ele>1271.000000</ele>
        <time>2010-05-04T14:05:09Z</time>
      </trkpt>
      <trkpt lat="38.172506" lon="30.857805">
        <ele>1271.000000</ele>
        <time>2010-05-04T14:05:11Z</time>
      </trkpt>
      <trkpt lat="38.172445" lon="30.857773">
        <ele>1271.000000</ele>
        <time>2010-05-04T14:05:19Z</time>
      </trkpt>
      <trkpt lat="38.172410" lon="30.857770">
        <ele>1272.000000</ele>
        <time>2010-05-04T14:05:22Z</time>
      </trkpt>
      <trkpt lat="38.172390" lon="30.857776">
        <ele>1271.000000</ele>
        <time>2010-05-04T14:05:24Z</time>
      </trkpt>
      <trkpt lat="38.172387" lon="30.857757">
        <ele>1271.000000</ele>
        <time>2010-05-04T14:05:27Z</time>
      </trkpt>
      <trkpt lat="38.172371" lon="30.857728">
        <ele>1271.000000</ele>
        <time>2010-05-04T14:05:36Z</time>
      </trkpt>
      <trkpt lat="38.172358" lon="30.857693">
        <ele>1271.000000</ele>
        <time>2010-05-04T14:05:38Z</time>
      </trkpt>
      <trkpt lat="38.172346" lon="30.857661">
        <ele>1269.000000</ele>
        <time>2010-05-04T14:05:41Z</time>
      </trkpt>
      <trkpt lat="38.172336" lon="30.857654">
        <ele>1271.000000</ele>
        <time>2010-05-04T14:05:42Z</time>
      </trkpt>
      <trkpt lat="38.172301" lon="30.857651">
        <ele>1271.000000</ele>
        <time>2010-05-04T14:05:46Z</time>
      </trkpt>
      <trkpt lat="38.172291" lon="30.857654">
        <ele>1271.000000</ele>
        <time>2010-05-04T14:05:47Z</time>
      </trkpt>
      <trkpt lat="38.172278" lon="30.857642">
        <ele>1271.000000</ele>
        <time>2010-05-04T14:05:48Z</time>
      </trkpt>
      <trkpt lat="38.172256" lon="30.857638">
        <ele>1270.000000</ele>
        <time>2010-05-04T14:05:50Z</time>
      </trkpt>
      <trkpt lat="38.172246" lon="30.857632">
        <ele>1269.000000</ele>
        <time>2010-05-04T14:05:52Z</time>
      </trkpt>
      <trkpt lat="38.172218" lon="30.857616">
        <ele>1270.000000</ele>
        <time>2010-05-04T14:05:55Z</time>
      </trkpt>
      <trkpt lat="38.172192" lon="30.857613">
        <ele>1271.000000</ele>
        <time>2010-05-04T14:05:59Z</time>
      </trkpt>
      <trkpt lat="38.172179" lon="30.857610">
        <ele>1272.000000</ele>
        <time>2010-05-04T14:06:00Z</time>
      </trkpt>
      <trkpt lat="38.172166" lon="30.857606">
        <ele>1270.000000</ele>
        <time>2010-05-04T14:06:02Z</time>
      </trkpt>
      <trkpt lat="38.172150" lon="30.857597">
        <ele>1270.000000</ele>
        <time>2010-05-04T14:06:05Z</time>
      </trkpt>
      <trkpt lat="38.172131" lon="30.857587">
        <ele>1271.000000</ele>
        <time>2010-05-04T14:06:07Z</time>
      </trkpt>
      <trkpt lat="38.172122" lon="30.857590">
        <ele>1269.000000</ele>
        <time>2010-05-04T14:06:10Z</time>
      </trkpt>
      <trkpt lat="38.172022" lon="30.857510">
        <ele>1271.000000</ele>
        <time>2010-05-04T14:06:20Z</time>
      </trkpt>
      <trkpt lat="38.172010" lon="30.857501">
        <ele>1270.000000</ele>
        <time>2010-05-04T14:06:21Z</time>
      </trkpt>
      <trkpt lat="38.171994" lon="30.857491">
        <ele>1271.000000</ele>
        <time>2010-05-04T14:06:23Z</time>
      </trkpt>
      <trkpt lat="38.171978" lon="30.857469">
        <ele>1269.000000</ele>
        <time>2010-05-04T14:06:27Z</time>
      </trkpt>
      <trkpt lat="38.171958" lon="30.857472">
        <ele>1270.000000</ele>
        <time>2010-05-04T14:06:28Z</time>
      </trkpt>
      <trkpt lat="38.171936" lon="30.857462">
        <ele>1269.000000</ele>
        <time>2010-05-04T14:06:31Z</time>
      </trkpt>
      <trkpt lat="38.171862" lon="30.857472">
        <ele>1270.000000</ele>
        <time>2010-05-04T14:06:38Z</time>
      </trkpt>
      <trkpt lat="38.171850" lon="30.857443">
        <ele>1269.000000</ele>
        <time>2010-05-04T14:06:41Z</time>
      </trkpt>
      <trkpt lat="38.171830" lon="30.857421">
        <ele>1270.000000</ele>
        <time>2010-05-04T14:06:43Z</time>
      </trkpt>
      <trkpt lat="38.171795" lon="30.857382">
        <ele>1267.000000</ele>
        <time>2010-05-04T14:06:47Z</time>
      </trkpt>
      <trkpt lat="38.171757" lon="30.857357">
        <ele>1269.000000</ele>
        <time>2010-05-04T14:06:53Z</time>
      </trkpt>
      <trkpt lat="38.171744" lon="30.857350">
        <ele>1269.000000</ele>
        <time>2010-05-04T14:06:54Z</time>
      </trkpt>
      <trkpt lat="38.171725" lon="30.857322">
        <ele>1270.000000</ele>
        <time>2010-05-04T14:06:57Z</time>
      </trkpt>
      <trkpt lat="38.171718" lon="30.857309">
        <ele>1270.000000</ele>
        <time>2010-05-04T14:06:58Z</time>
      </trkpt>
      <trkpt lat="38.171712" lon="30.857296">
        <ele>1269.000000</ele>
        <time>2010-05-04T14:06:59Z</time>
      </trkpt>
      <trkpt lat="38.171712" lon="30.857280">
        <ele>1268.000000</ele>
        <time>2010-05-04T14:07:00Z</time>
      </trkpt>
      <trkpt lat="38.171712" lon="30.857270">
        <ele>1268.000000</ele>
        <time>2010-05-04T14:07:05Z</time>
      </trkpt>
      <trkpt lat="38.171690" lon="30.857264">
        <ele>1269.000000</ele>
        <time>2010-05-04T14:07:11Z</time>
      </trkpt>
      <trkpt lat="38.171638" lon="30.857226">
        <ele>1268.000000</ele>
        <time>2010-05-04T14:07:16Z</time>
      </trkpt>
      <trkpt lat="38.171622" lon="30.857216">
        <ele>1268.000000</ele>
        <time>2010-05-04T14:07:17Z</time>
      </trkpt>
      <trkpt lat="38.171606" lon="30.857203">
        <ele>1269.000000</ele>
        <time>2010-05-04T14:07:18Z</time>
      </trkpt>
      <trkpt lat="38.171594" lon="30.857190">
        <ele>1269.000000</ele>
        <time>2010-05-04T14:07:20Z</time>
      </trkpt>
      <trkpt lat="38.171578" lon="30.857187">
        <ele>1269.000000</ele>
        <time>2010-05-04T14:07:21Z</time>
      </trkpt>
      <trkpt lat="38.171536" lon="30.857181">
        <ele>1268.000000</ele>
        <time>2010-05-04T14:07:28Z</time>
      </trkpt>
      <trkpt lat="38.171533" lon="30.857168">
        <ele>1268.000000</ele>
        <time>2010-05-04T14:07:29Z</time>
      </trkpt>
      <trkpt lat="38.171517" lon="30.857146">
        <ele>1267.000000</ele>
        <time>2010-05-04T14:07:31Z</time>
      </trkpt>
      <trkpt lat="38.171507" lon="30.857133">
        <ele>1267.000000</ele>
        <time>2010-05-04T14:07:32Z</time>
      </trkpt>
      <trkpt lat="38.171501" lon="30.857120">
        <ele>1266.000000</ele>
        <time>2010-05-04T14:07:33Z</time>
      </trkpt>
      <trkpt lat="38.171485" lon="30.857110">
        <ele>1268.000000</ele>
        <time>2010-05-04T14:07:34Z</time>
      </trkpt>
      <trkpt lat="38.171446" lon="30.857056">
        <ele>1265.000000</ele>
        <time>2010-05-04T14:07:43Z</time>
      </trkpt>
      <trkpt lat="38.171443" lon="30.857018">
        <ele>1265.000000</ele>
        <time>2010-05-04T14:07:47Z</time>
      </trkpt>
      <trkpt lat="38.171443" lon="30.856963">
        <ele>1264.000000</ele>
        <time>2010-05-04T14:07:50Z</time>
      </trkpt>
      <trkpt lat="38.171440" lon="30.856947">
        <ele>1264.000000</ele>
        <time>2010-05-04T14:07:51Z</time>
      </trkpt>
      <trkpt lat="38.171434" lon="30.856931">
        <ele>1264.000000</ele>
        <time>2010-05-04T14:07:52Z</time>
      </trkpt>
      <trkpt lat="38.171411" lon="30.856925">
        <ele>1265.000000</ele>
        <time>2010-05-04T14:07:54Z</time>
      </trkpt>
      <trkpt lat="38.171402" lon="30.856915">
        <ele>1265.000000</ele>
        <time>2010-05-04T14:07:55Z</time>
      </trkpt>
      <trkpt lat="38.171373" lon="30.856890">
        <ele>1266.000000</ele>
        <time>2010-05-04T14:08:00Z</time>
      </trkpt>
      <trkpt lat="38.171373" lon="30.856877">
        <ele>1265.000000</ele>
        <time>2010-05-04T14:08:01Z</time>
      </trkpt>
      <trkpt lat="38.171357" lon="30.856826">
        <ele>1263.000000</ele>
        <time>2010-05-04T14:08:08Z</time>
      </trkpt>
      <trkpt lat="38.171334" lon="30.856806">
        <ele>1263.000000</ele>
        <time>2010-05-04T14:08:13Z</time>
      </trkpt>
      <trkpt lat="38.171318" lon="30.856794">
        <ele>1263.000000</ele>
        <time>2010-05-04T14:08:15Z</time>
      </trkpt>
      <trkpt lat="38.171283" lon="30.856755">
        <ele>1263.000000</ele>
        <time>2010-05-04T14:08:19Z</time>
      </trkpt>
      <trkpt lat="38.171258" lon="30.856739">
        <ele>1264.000000</ele>
        <time>2010-05-04T14:08:21Z</time>
      </trkpt>
      <trkpt lat="38.171242" lon="30.856733">
        <ele>1263.000000</ele>
        <time>2010-05-04T14:08:22Z</time>
      </trkpt>
      <trkpt lat="38.171235" lon="30.856707">
        <ele>1263.000000</ele>
        <time>2010-05-04T14:08:23Z</time>
      </trkpt>
      <trkpt lat="38.171200" lon="30.856685">
        <ele>1263.000000</ele>
        <time>2010-05-04T14:08:25Z</time>
      </trkpt>
      <trkpt lat="38.171187" lon="30.856682">
        <ele>1262.000000</ele>
        <time>2010-05-04T14:08:27Z</time>
      </trkpt>
      <trkpt lat="38.171178" lon="30.856694">
        <ele>1262.000000</ele>
        <time>2010-05-04T14:08:34Z</time>
      </trkpt>
      <trkpt lat="38.171187" lon="30.856688">
        <ele>1263.000000</ele>
        <time>2010-05-04T14:08:35Z</time>
      </trkpt>
      <trkpt lat="38.171187" lon="30.856685">
        <ele>1264.000000</ele>
        <time>2010-05-04T14:08:36Z</time>
      </trkpt>
      <trkpt lat="38.171155" lon="30.856685">
        <ele>1263.000000</ele>
        <time>2010-05-04T14:08:46Z</time>
      </trkpt>
      <trkpt lat="38.171136" lon="30.856704">
        <ele>1263.000000</ele>
        <time>2010-05-04T14:08:51Z</time>
      </trkpt>
      <trkpt lat="38.171062" lon="30.856694">
        <ele>1263.000000</ele>
        <time>2010-05-04T14:09:01Z</time>
      </trkpt>
      <trkpt lat="38.171059" lon="30.856685">
        <ele>1263.000000</ele>
        <time>2010-05-04T14:09:02Z</time>
      </trkpt>
      <trkpt lat="38.171056" lon="30.856675">
        <ele>1262.000000</ele>
        <time>2010-05-04T14:09:03Z</time>
      </trkpt>
      <trkpt lat="38.171030" lon="30.856646">
        <ele>1262.000000</ele>
        <time>2010-05-04T14:09:15Z</time>
      </trkpt>
      <trkpt lat="38.170998" lon="30.856634">
        <ele>1262.000000</ele>
        <time>2010-05-04T14:09:20Z</time>
      </trkpt>
      <trkpt lat="38.170989" lon="30.856618">
        <ele>1260.000000</ele>
        <time>2010-05-04T14:09:25Z</time>
      </trkpt>
      <trkpt lat="38.170950" lon="30.856608">
        <ele>1259.000000</ele>
        <time>2010-05-04T14:09:33Z</time>
      </trkpt>
      <trkpt lat="38.170957" lon="30.856614">
        <ele>1260.000000</ele>
        <time>2010-05-04T14:09:34Z</time>
      </trkpt>
      <trkpt lat="38.170960" lon="30.856618">
        <ele>1258.000000</ele>
        <time>2010-05-04T14:09:35Z</time>
      </trkpt>
      <trkpt lat="38.170957" lon="30.856614">
        <ele>1259.000000</ele>
        <time>2010-05-04T14:09:36Z</time>
      </trkpt>
      <trkpt lat="38.170960" lon="30.856611">
        <ele>1257.000000</ele>
        <time>2010-05-04T14:09:38Z</time>
      </trkpt>
      <trkpt lat="38.170944" lon="30.856570">
        <ele>1258.000000</ele>
        <time>2010-05-04T14:09:41Z</time>
      </trkpt>
      <trkpt lat="38.170931" lon="30.856525">
        <ele>1258.000000</ele>
        <time>2010-05-04T14:09:44Z</time>
      </trkpt>
      <trkpt lat="38.170922" lon="30.856496">
        <ele>1256.000000</ele>
        <time>2010-05-04T14:09:46Z</time>
      </trkpt>
      <trkpt lat="38.170976" lon="30.856413">
        <ele>1254.000000</ele>
        <time>2010-05-04T14:09:55Z</time>
      </trkpt>
      <trkpt lat="38.171043" lon="30.856266">
        <ele>1255.000000</ele>
        <time>2010-05-04T14:10:06Z</time>
      </trkpt>
      <trkpt lat="38.171078" lon="30.856237">
        <ele>1254.000000</ele>
        <time>2010-05-04T14:10:10Z</time>
      </trkpt>
      <trkpt lat="38.171085" lon="30.856198">
        <ele>1253.000000</ele>
        <time>2010-05-04T14:10:15Z</time>
      </trkpt>
      <trkpt lat="38.171082" lon="30.856186">
        <ele>1252.000000</ele>
        <time>2010-05-04T14:10:18Z</time>
      </trkpt>
      <trkpt lat="38.171082" lon="30.856163">
        <ele>1254.000000</ele>
        <time>2010-05-04T14:10:21Z</time>
      </trkpt>
      <trkpt lat="38.171078" lon="30.856157">
        <ele>1252.000000</ele>
        <time>2010-05-04T14:10:22Z</time>
      </trkpt>
      <trkpt lat="38.171062" lon="30.856157">
        <ele>1251.000000</ele>
        <time>2010-05-04T14:10:24Z</time>
      </trkpt>
      <trkpt lat="38.171056" lon="30.856160">
        <ele>1252.000000</ele>
        <time>2010-05-04T14:10:25Z</time>
      </trkpt>
      <trkpt lat="38.171050" lon="30.856154">
        <ele>1252.000000</ele>
        <time>2010-05-04T14:10:26Z</time>
      </trkpt>
      <trkpt lat="38.171046" lon="30.856157">
        <ele>1252.000000</ele>
        <time>2010-05-04T14:10:27Z</time>
      </trkpt>
      <trkpt lat="38.171043" lon="30.856144">
        <ele>1253.000000</ele>
        <time>2010-05-04T14:10:29Z</time>
      </trkpt>
      <trkpt lat="38.171043" lon="30.856138">
        <ele>1251.000000</ele>
        <time>2010-05-04T14:10:31Z</time>
      </trkpt>
      <trkpt lat="38.171024" lon="30.856106">
        <ele>1251.000000</ele>
        <time>2010-05-04T14:10:35Z</time>
      </trkpt>
      <trkpt lat="38.171021" lon="30.856080">
        <ele>1250.000000</ele>
        <time>2010-05-04T14:10:38Z</time>
      </trkpt>
      <trkpt lat="38.171024" lon="30.856080">
        <ele>1250.000000</ele>
        <time>2010-05-04T14:10:42Z</time>
      </trkpt>
      <trkpt lat="38.171027" lon="30.856083">
        <ele>1249.000000</ele>
        <time>2010-05-04T14:10:43Z</time>
      </trkpt>
      <trkpt lat="38.171046" lon="30.856070">
        <ele>1252.000000</ele>
        <time>2010-05-04T14:10:45Z</time>
      </trkpt>
      <trkpt lat="38.171046" lon="30.856074">
        <ele>1250.000000</ele>
        <time>2010-05-04T14:10:46Z</time>
      </trkpt>
      <trkpt lat="38.171040" lon="30.856070">
        <ele>1250.000000</ele>
        <time>2010-05-04T14:10:47Z</time>
      </trkpt>
      <trkpt lat="38.171030" lon="30.856067">
        <ele>1248.000000</ele>
        <time>2010-05-04T14:10:48Z</time>
      </trkpt>
      <trkpt lat="38.171018" lon="30.856067">
        <ele>1250.000000</ele>
        <time>2010-05-04T14:10:50Z</time>
      </trkpt>
      <trkpt lat="38.171005" lon="30.856054">
        <ele>1247.000000</ele>
        <time>2010-05-04T14:10:52Z</time>
      </trkpt>
      <trkpt lat="38.170995" lon="30.856042">
        <ele>1249.000000</ele>
        <time>2010-05-04T14:10:54Z</time>
      </trkpt>
      <trkpt lat="38.170979" lon="30.856051">
        <ele>1250.000000</ele>
        <time>2010-05-04T14:10:59Z</time>
      </trkpt>
      <trkpt lat="38.170976" lon="30.856042">
        <ele>1249.000000</ele>
        <time>2010-05-04T14:11:01Z</time>
      </trkpt>
      <trkpt lat="38.170963" lon="30.856029">
        <ele>1249.000000</ele>
        <time>2010-05-04T14:11:02Z</time>
      </trkpt>
      <trkpt lat="38.170950" lon="30.856029">
        <ele>1248.000000</ele>
        <time>2010-05-04T14:11:03Z</time>
      </trkpt>
      <trkpt lat="38.170957" lon="30.856029">
        <ele>1250.000000</ele>
        <time>2010-05-04T14:11:05Z</time>
      </trkpt>
      <trkpt lat="38.170918" lon="30.856042">
        <ele>1248.000000</ele>
        <time>2010-05-04T14:11:09Z</time>
      </trkpt>
      <trkpt lat="38.170902" lon="30.856045">
        <ele>1249.000000</ele>
        <time>2010-05-04T14:11:10Z</time>
      </trkpt>
      <trkpt lat="38.170890" lon="30.856038">
        <ele>1250.000000</ele>
        <time>2010-05-04T14:11:11Z</time>
      </trkpt>
      <trkpt lat="38.170870" lon="30.856000">
        <ele>1249.000000</ele>
        <time>2010-05-04T14:11:16Z</time>
      </trkpt>
      <trkpt lat="38.170858" lon="30.855978">
        <ele>1250.000000</ele>
        <time>2010-05-04T14:11:18Z</time>
      </trkpt>
      <trkpt lat="38.170845" lon="30.855974">
        <ele>1249.000000</ele>
        <time>2010-05-04T14:11:21Z</time>
      </trkpt>
      <trkpt lat="38.170838" lon="30.855971">
        <ele>1249.000000</ele>
        <time>2010-05-04T14:11:22Z</time>
      </trkpt>
      <trkpt lat="38.170810" lon="30.855968">
        <ele>1249.000000</ele>
        <time>2010-05-04T14:11:24Z</time>
      </trkpt>
      <trkpt lat="38.170797" lon="30.855974">
        <ele>1250.000000</ele>
        <time>2010-05-04T14:11:25Z</time>
      </trkpt>
      <trkpt lat="38.170784" lon="30.855968">
        <ele>1248.000000</ele>
        <time>2010-05-04T14:11:26Z</time>
      </trkpt>
      <trkpt lat="38.170730" lon="30.855971">
        <ele>1249.000000</ele>
        <time>2010-05-04T14:11:32Z</time>
      </trkpt>
      <trkpt lat="38.170710" lon="30.855955">
        <ele>1249.000000</ele>
        <time>2010-05-04T14:11:36Z</time>
      </trkpt>
      <trkpt lat="38.170691" lon="30.855939">
        <ele>1248.000000</ele>
        <time>2010-05-04T14:11:39Z</time>
      </trkpt>
      <trkpt lat="38.170669" lon="30.855933">
        <ele>1249.000000</ele>
        <time>2010-05-04T14:11:41Z</time>
      </trkpt>
      <trkpt lat="38.170653" lon="30.855933">
        <ele>1247.000000</ele>
        <time>2010-05-04T14:11:42Z</time>
      </trkpt>
      <trkpt lat="38.170637" lon="30.855936">
        <ele>1247.000000</ele>
        <time>2010-05-04T14:11:43Z</time>
      </trkpt>
      <trkpt lat="38.170608" lon="30.855923">
        <ele>1248.000000</ele>
        <time>2010-05-04T14:11:45Z</time>
      </trkpt>
      <trkpt lat="38.170579" lon="30.855910">
        <ele>1246.000000</ele>
        <time>2010-05-04T14:11:48Z</time>
      </trkpt>
      <trkpt lat="38.170570" lon="30.855904">
        <ele>1248.000000</ele>
        <time>2010-05-04T14:11:49Z</time>
      </trkpt>
      <trkpt lat="38.170538" lon="30.855888">
        <ele>1248.000000</ele>
        <time>2010-05-04T14:11:53Z</time>
      </trkpt>
      <trkpt lat="38.170528" lon="30.855882">
        <ele>1247.000000</ele>
        <time>2010-05-04T14:11:54Z</time>
      </trkpt>
      <trkpt lat="38.170506" lon="30.855882">
        <ele>1248.000000</ele>
        <time>2010-05-04T14:11:56Z</time>
      </trkpt>
      <trkpt lat="38.170486" lon="30.855894">
        <ele>1249.000000</ele>
        <time>2010-05-04T14:11:58Z</time>
      </trkpt>
      <trkpt lat="38.170486" lon="30.855891">
        <ele>1247.000000</ele>
        <time>2010-05-04T14:12:01Z</time>
      </trkpt>
      <trkpt lat="38.170464" lon="30.855882">
        <ele>1248.000000</ele>
        <time>2010-05-04T14:12:03Z</time>
      </trkpt>
      <trkpt lat="38.170454" lon="30.855872">
        <ele>1248.000000</ele>
        <time>2010-05-04T14:12:04Z</time>
      </trkpt>
      <trkpt lat="38.170438" lon="30.855834">
        <ele>1250.000000</ele>
        <time>2010-05-04T14:12:07Z</time>
      </trkpt>
      <trkpt lat="38.170368" lon="30.855805">
        <ele>1247.000000</ele>
        <time>2010-05-04T14:12:21Z</time>
      </trkpt>
      <trkpt lat="38.170365" lon="30.855811">
        <ele>1248.000000</ele>
        <time>2010-05-04T14:12:22Z</time>
      </trkpt>
      <trkpt lat="38.170346" lon="30.855824">
        <ele>1249.000000</ele>
        <time>2010-05-04T14:12:25Z</time>
      </trkpt>
      <trkpt lat="38.170346" lon="30.855818">
        <ele>1247.000000</ele>
        <time>2010-05-04T14:12:26Z</time>
      </trkpt>
      <trkpt lat="38.170349" lon="30.855818">
        <ele>1246.000000</ele>
        <time>2010-05-04T14:12:27Z</time>
      </trkpt>
      <trkpt lat="38.170323" lon="30.855814">
        <ele>1248.000000</ele>
        <time>2010-05-04T14:12:35Z</time>
      </trkpt>
      <trkpt lat="38.170275" lon="30.855814">
        <ele>1248.000000</ele>
        <time>2010-05-04T14:12:41Z</time>
      </trkpt>
      <trkpt lat="38.170240" lon="30.855782">
        <ele>1249.000000</ele>
        <time>2010-05-04T14:12:51Z</time>
      </trkpt>
      <trkpt lat="38.170221" lon="30.855750">
        <ele>1249.000000</ele>
        <time>2010-05-04T14:13:08Z</time>
      </trkpt>
      <trkpt lat="38.170192" lon="30.855731">
        <ele>1249.000000</ele>
        <time>2010-05-04T14:13:13Z</time>
      </trkpt>
      <trkpt lat="38.170125" lon="30.855715">
        <ele>1249.000000</ele>
        <time>2010-05-04T14:13:21Z</time>
      </trkpt>
      <trkpt lat="38.170102" lon="30.855718">
        <ele>1248.000000</ele>
        <time>2010-05-04T14:13:23Z</time>
      </trkpt>
      <trkpt lat="38.170067" lon="30.855722">
        <ele>1249.000000</ele>
        <time>2010-05-04T14:13:26Z</time>
      </trkpt>
      <trkpt lat="38.170051" lon="30.855702">
        <ele>1247.000000</ele>
        <time>2010-05-04T14:13:29Z</time>
      </trkpt>
      <trkpt lat="38.170026" lon="30.855674">
        <ele>1250.000000</ele>
        <time>2010-05-04T14:13:35Z</time>
      </trkpt>
      <trkpt lat="38.170003" lon="30.855683">
        <ele>1248.000000</ele>
        <time>2010-05-04T14:13:37Z</time>
      </trkpt>
      <trkpt lat="38.169978" lon="30.855670">
        <ele>1248.000000</ele>
        <time>2010-05-04T14:13:39Z</time>
      </trkpt>
      <trkpt lat="38.169968" lon="30.855670">
        <ele>1249.000000</ele>
        <time>2010-05-04T14:13:40Z</time>
      </trkpt>
      <trkpt lat="38.169962" lon="30.855670">
        <ele>1248.000000</ele>
        <time>2010-05-04T14:13:41Z</time>
      </trkpt>
      <trkpt lat="38.169933" lon="30.855661">
        <ele>1249.000000</ele>
        <time>2010-05-04T14:13:44Z</time>
      </trkpt>
      <trkpt lat="38.169907" lon="30.855648">
        <ele>1248.000000</ele>
        <time>2010-05-04T14:13:47Z</time>
      </trkpt>
      <trkpt lat="38.169894" lon="30.855642">
        <ele>1248.000000</ele>
        <time>2010-05-04T14:13:48Z</time>
      </trkpt>
      <trkpt lat="38.169878" lon="30.855622">
        <ele>1249.000000</ele>
        <time>2010-05-04T14:13:50Z</time>
      </trkpt>
      <trkpt lat="38.169850" lon="30.855616">
        <ele>1249.000000</ele>
        <time>2010-05-04T14:13:54Z</time>
      </trkpt>
      <trkpt lat="38.169814" lon="30.855616">
        <ele>1249.000000</ele>
        <time>2010-05-04T14:13:57Z</time>
      </trkpt>
      <trkpt lat="38.169792" lon="30.855619">
        <ele>1248.000000</ele>
        <time>2010-05-04T14:13:58Z</time>
      </trkpt>
      <trkpt lat="38.169770" lon="30.855613">
        <ele>1247.000000</ele>
        <time>2010-05-04T14:14:00Z</time>
      </trkpt>
      <trkpt lat="38.169718" lon="30.855552">
        <ele>1249.000000</ele>
        <time>2010-05-04T14:14:08Z</time>
      </trkpt>
      <trkpt lat="38.169706" lon="30.855542">
        <ele>1247.000000</ele>
        <time>2010-05-04T14:14:09Z</time>
      </trkpt>
      <trkpt lat="38.169693" lon="30.855526">
        <ele>1248.000000</ele>
        <time>2010-05-04T14:14:11Z</time>
      </trkpt>
      <trkpt lat="38.169680" lon="30.855504">
        <ele>1248.000000</ele>
        <time>2010-05-04T14:14:13Z</time>
      </trkpt>
      <trkpt lat="38.169658" lon="30.855498">
        <ele>1248.000000</ele>
        <time>2010-05-04T14:14:15Z</time>
      </trkpt>
      <trkpt lat="38.169645" lon="30.855485">
        <ele>1249.000000</ele>
        <time>2010-05-04T14:14:19Z</time>
      </trkpt>
      <trkpt lat="38.169616" lon="30.855462">
        <ele>1248.000000</ele>
        <time>2010-05-04T14:14:22Z</time>
      </trkpt>
      <trkpt lat="38.169597" lon="30.855405">
        <ele>1247.000000</ele>
        <time>2010-05-04T14:14:27Z</time>
      </trkpt>
      <trkpt lat="38.169568" lon="30.855392">
        <ele>1248.000000</ele>
        <time>2010-05-04T14:14:30Z</time>
      </trkpt>
      <trkpt lat="38.169555" lon="30.855392">
        <ele>1248.000000</ele>
        <time>2010-05-04T14:14:31Z</time>
      </trkpt>
      <trkpt lat="38.169546" lon="30.855376">
        <ele>1248.000000</ele>
        <time>2010-05-04T14:14:34Z</time>
      </trkpt>
      <trkpt lat="38.169533" lon="30.855360">
        <ele>1248.000000</ele>
        <time>2010-05-04T14:14:35Z</time>
      </trkpt>
      <trkpt lat="38.169520" lon="30.855344">
        <ele>1248.000000</ele>
        <time>2010-05-04T14:14:37Z</time>
      </trkpt>
      <trkpt lat="38.169507" lon="30.855341">
        <ele>1249.000000</ele>
        <time>2010-05-04T14:14:38Z</time>
      </trkpt>
      <trkpt lat="38.169498" lon="30.855334">
        <ele>1248.000000</ele>
        <time>2010-05-04T14:14:39Z</time>
      </trkpt>
      <trkpt lat="38.169472" lon="30.855299">
        <ele>1249.000000</ele>
        <time>2010-05-04T14:14:44Z</time>
      </trkpt>
      <trkpt lat="38.169466" lon="30.855286">
        <ele>1249.000000</ele>
        <time>2010-05-04T14:14:45Z</time>
      </trkpt>
      <trkpt lat="38.169456" lon="30.855270">
        <ele>1248.000000</ele>
        <time>2010-05-04T14:14:49Z</time>
      </trkpt>
      <trkpt lat="38.169411" lon="30.855248">
        <ele>1248.000000</ele>
        <time>2010-05-04T14:14:54Z</time>
      </trkpt>
      <trkpt lat="38.169402" lon="30.855242">
        <ele>1248.000000</ele>
        <time>2010-05-04T14:14:55Z</time>
      </trkpt>
      <trkpt lat="38.169392" lon="30.855226">
        <ele>1248.000000</ele>
        <time>2010-05-04T14:14:58Z</time>
      </trkpt>
      <trkpt lat="38.169379" lon="30.855206">
        <ele>1247.000000</ele>
        <time>2010-05-04T14:15:02Z</time>
      </trkpt>
      <trkpt lat="38.169322" lon="30.855174">
        <ele>1249.000000</ele>
        <time>2010-05-04T14:15:09Z</time>
      </trkpt>
      <trkpt lat="38.169318" lon="30.855162">
        <ele>1248.000000</ele>
        <time>2010-05-04T14:15:10Z</time>
      </trkpt>
      <trkpt lat="38.169302" lon="30.855130">
        <ele>1248.000000</ele>
        <time>2010-05-04T14:15:15Z</time>
      </trkpt>
      <trkpt lat="38.169293" lon="30.855104">
        <ele>1248.000000</ele>
        <time>2010-05-04T14:15:20Z</time>
      </trkpt>
      <trkpt lat="38.169274" lon="30.855062">
        <ele>1247.000000</ele>
        <time>2010-05-04T14:15:24Z</time>
      </trkpt>
      <trkpt lat="38.169261" lon="30.855050">
        <ele>1249.000000</ele>
        <time>2010-05-04T14:15:25Z</time>
      </trkpt>
      <trkpt lat="38.169251" lon="30.855014">
        <ele>1250.000000</ele>
        <time>2010-05-04T14:15:28Z</time>
      </trkpt>
      <trkpt lat="38.169235" lon="30.854973">
        <ele>1248.000000</ele>
        <time>2010-05-04T14:15:32Z</time>
      </trkpt>
      <trkpt lat="38.169222" lon="30.854960">
        <ele>1248.000000</ele>
        <time>2010-05-04T14:15:33Z</time>
      </trkpt>
      <trkpt lat="38.169213" lon="30.854928">
        <ele>1250.000000</ele>
        <time>2010-05-04T14:15:35Z</time>
      </trkpt>
      <trkpt lat="38.169200" lon="30.854918">
        <ele>1250.000000</ele>
        <time>2010-05-04T14:15:36Z</time>
      </trkpt>
      <trkpt lat="38.169194" lon="30.854899">
        <ele>1248.000000</ele>
        <time>2010-05-04T14:15:38Z</time>
      </trkpt>
      <trkpt lat="38.169152" lon="30.854918">
        <ele>1248.000000</ele>
        <time>2010-05-04T14:15:43Z</time>
      </trkpt>
      <trkpt lat="38.169114" lon="30.854931">
        <ele>1248.000000</ele>
        <time>2010-05-04T14:15:46Z</time>
      </trkpt>
      <trkpt lat="38.169101" lon="30.854931">
        <ele>1248.000000</ele>
        <time>2010-05-04T14:15:47Z</time>
      </trkpt>
      <trkpt lat="38.169062" lon="30.854906">
        <ele>1248.000000</ele>
        <time>2010-05-04T14:15:52Z</time>
      </trkpt>
      <trkpt lat="38.169021" lon="30.854890">
        <ele>1248.000000</ele>
        <time>2010-05-04T14:15:57Z</time>
      </trkpt>
      <trkpt lat="38.168979" lon="30.854899">
        <ele>1250.000000</ele>
        <time>2010-05-04T14:16:01Z</time>
      </trkpt>
      <trkpt lat="38.168941" lon="30.854877">
        <ele>1249.000000</ele>
        <time>2010-05-04T14:16:07Z</time>
      </trkpt>
      <trkpt lat="38.169018" lon="30.854717">
        <ele>1250.000000</ele>
        <time>2010-05-04T14:30:09Z</time>
      </trkpt>
      <trkpt lat="38.168982" lon="30.854621">
        <ele>1249.000000</ele>
        <time>2010-05-04T14:47:30Z</time>
      </trkpt>
      <trkpt lat="38.169011" lon="30.854579">
        <ele>1249.000000</ele>
        <time>2010-05-04T14:47:35Z</time>
      </trkpt>
      <trkpt lat="38.168931" lon="30.854528">
        <ele>1248.000000</ele>
        <time>2010-05-04T14:47:44Z</time>
      </trkpt>
      <trkpt lat="38.168941" lon="30.854496">
        <ele>1248.000000</ele>
        <time>2010-05-04T14:47:47Z</time>
      </trkpt>
      <trkpt lat="38.168944" lon="30.854435">
        <ele>1248.000000</ele>
        <time>2010-05-04T14:47:58Z</time>
      </trkpt>
      <trkpt lat="38.168970" lon="30.854352">
        <ele>1248.000000</ele>
        <time>2010-05-04T14:48:02Z</time>
      </trkpt>
    </trkseg>
  </trk>

</gpx>
